<?xml version="1.0"?>
<gpx
 version="1.1"
 creator="Satmap Active 20"
 xmlns:xsi="http://www.w3.org/2001/XMLSchema-instance"
 xmlns="http://www.topografix.com/GPX/1/1"
 xmlns:satmap="http://www.satmap.com/updates/xmlschemas/GpxExtensions/v2/GpxExtensions_v2.xsd"
 xsi:schemaLocation="http://www.topografix.com/GPX/1/1 http://www.topografix.com/GPX/1/1/gpx.xsd">
<metadata>
<time>2024-05-31T08:54:15Z</time>
<extensions>
<satmap:platform>43</satmap:platform>
<satmap:software version="3.12.831">SM15.exe</satmap:software>
<satmap:username>Jim Grant</satmap:username>
<satmap:network_ids>
<satmap:network_id type="wifi">00-23-A7-EC-D5-78</satmap:network_id>
<satmap:network_id type="bluetooth">80-BB-EB-D7-5B-7C</satmap:network_id>
</satmap:network_ids>
<satmap:snap_type>simple</satmap:snap_type>
</extensions>
</metadata>
<trk>
<name>2024-05-31_0854</name>
<desc>Track 1</desc>
<number>1</number>
<trkseg>
<trkpt lat="54.513573" lon="-3.168036"><ele>106</ele><time>2024-05-31T08:54:15Z</time><name>PT1</name></trkpt>
<trkpt lat="54.513557" lon="-3.168019"><ele>108</ele><time>2024-05-31T08:54:18Z</time><name>PT2</name></trkpt>
<trkpt lat="54.513546" lon="-3.168021"><ele>108</ele><time>2024-05-31T08:54:22Z</time><name>PT3</name></trkpt>
<trkpt lat="54.513545" lon="-3.168034"><ele>107</ele><time>2024-05-31T08:54:26Z</time><name>PT4</name></trkpt>
<trkpt lat="54.513547" lon="-3.168035"><ele>107</ele><time>2024-05-31T08:54:29Z</time><name>PT5</name></trkpt>
<trkpt lat="54.513538" lon="-3.168054"><ele>106</ele><time>2024-05-31T08:54:36Z</time><name>PT6</name></trkpt>
<trkpt lat="54.513539" lon="-3.168046"><ele>107</ele><time>2024-05-31T08:54:50Z</time><name>PT7</name></trkpt>
<trkpt lat="54.513558" lon="-3.168040"><ele>107</ele><time>2024-05-31T08:54:54Z</time><name>PT8</name></trkpt>
<trkpt lat="54.513556" lon="-3.168036"><ele>108</ele><time>2024-05-31T08:54:58Z</time><name>PT9</name></trkpt>
<trkpt lat="54.513531" lon="-3.168025"><ele>108</ele><time>2024-05-31T08:55:06Z</time><name>PT10</name></trkpt>
<trkpt lat="54.513516" lon="-3.168023"><ele>110</ele><time>2024-05-31T08:55:09Z</time><name>PT11</name></trkpt>
<trkpt lat="54.513513" lon="-3.168022"><ele>110</ele><time>2024-05-31T08:55:12Z</time><name>PT12</name></trkpt>
<trkpt lat="54.513503" lon="-3.168004"><ele>109</ele><time>2024-05-31T08:55:16Z</time><name>PT13</name></trkpt>
<trkpt lat="54.513506" lon="-3.168021"><ele>110</ele><time>2024-05-31T08:55:19Z</time><name>PT14</name></trkpt>
<trkpt lat="54.513508" lon="-3.168043"><ele>111</ele><time>2024-05-31T08:55:22Z</time><name>PT15</name></trkpt>
<trkpt lat="54.513511" lon="-3.168020"><ele>108</ele><time>2024-05-31T08:55:26Z</time><name>PT16</name></trkpt>
<trkpt lat="54.513528" lon="-3.168022"><ele>108</ele><time>2024-05-31T08:55:30Z</time><name>PT17</name></trkpt>
<trkpt lat="54.513525" lon="-3.168016"><ele>109</ele><time>2024-05-31T08:55:34Z</time><name>PT18</name></trkpt>
<trkpt lat="54.513534" lon="-3.167990"><ele>107</ele><time>2024-05-31T08:55:38Z</time><name>PT19</name></trkpt>
<trkpt lat="54.513557" lon="-3.167988"><ele>106</ele><time>2024-05-31T08:55:42Z</time><name>PT20</name></trkpt>
<trkpt lat="54.513534" lon="-3.167993"><ele>105</ele><time>2024-05-31T08:55:45Z</time><name>PT21</name></trkpt>
<trkpt lat="54.513547" lon="-3.168018"><ele>104</ele><time>2024-05-31T08:56:10Z</time><name>PT22</name></trkpt>
<trkpt lat="54.513553" lon="-3.168021"><ele>104</ele><time>2024-05-31T08:56:13Z</time><name>PT23</name></trkpt>
<trkpt lat="54.513559" lon="-3.168019"><ele>106</ele><time>2024-05-31T08:56:24Z</time><name>PT24</name></trkpt>
<trkpt lat="54.513585" lon="-3.168039"><ele>107</ele><time>2024-05-31T08:56:28Z</time><name>PT25</name></trkpt>
<trkpt lat="54.513583" lon="-3.168030"><ele>108</ele><time>2024-05-31T08:56:31Z</time><name>PT26</name></trkpt>
<trkpt lat="54.513576" lon="-3.168037"><ele>108</ele><time>2024-05-31T08:56:34Z</time><name>PT27</name></trkpt>
<trkpt lat="54.513606" lon="-3.167991"><ele>107</ele><time>2024-05-31T08:56:48Z</time><name>PT28</name></trkpt>
<trkpt lat="54.513645" lon="-3.167988"><ele>106</ele><time>2024-05-31T08:56:52Z</time><name>PT29</name></trkpt>
<trkpt lat="54.513652" lon="-3.167986"><ele>106</ele><time>2024-05-31T08:56:55Z</time><name>PT30</name></trkpt>
<trkpt lat="54.513621" lon="-3.168023"><ele>106</ele><time>2024-05-31T08:57:18Z</time><name>PT31</name></trkpt>
<trkpt lat="54.513576" lon="-3.168046"><ele>109</ele><time>2024-05-31T08:57:22Z</time><name>PT32</name></trkpt>
<trkpt lat="54.513585" lon="-3.168060"><ele>110</ele><time>2024-05-31T08:57:33Z</time><name>PT33</name></trkpt>
<trkpt lat="54.513592" lon="-3.168052"><ele>110</ele><time>2024-05-31T08:57:41Z</time><name>PT34</name></trkpt>
<trkpt lat="54.513630" lon="-3.168050"><ele>110</ele><time>2024-05-31T08:57:44Z</time><name>PT35</name></trkpt>
<trkpt lat="54.513616" lon="-3.168036"><ele>112</ele><time>2024-05-31T08:57:48Z</time><name>PT36</name></trkpt>
<trkpt lat="54.513613" lon="-3.168037"><ele>112</ele><time>2024-05-31T08:57:51Z</time><name>PT37</name></trkpt>
<trkpt lat="54.513614" lon="-3.168032"><ele>112</ele><time>2024-05-31T08:57:59Z</time><name>PT38</name></trkpt>
<trkpt lat="54.513632" lon="-3.168030"><ele>112</ele><time>2024-05-31T08:58:02Z</time><name>PT39</name></trkpt>
<trkpt lat="54.513616" lon="-3.168036"><ele>113</ele><time>2024-05-31T08:58:06Z</time><name>PT40</name></trkpt>
<trkpt lat="54.513629" lon="-3.167972"><ele>113</ele><time>2024-05-31T08:58:09Z</time><name>PT41</name></trkpt>
<trkpt lat="54.513672" lon="-3.167998"><ele>115</ele><time>2024-05-31T08:58:13Z</time><name>PT42</name></trkpt>
<trkpt lat="54.513707" lon="-3.168095"><ele>116</ele><time>2024-05-31T08:58:16Z</time><name>PT43</name></trkpt>
<trkpt lat="54.513709" lon="-3.168112"><ele>116</ele><time>2024-05-31T08:58:19Z</time><name>PT44</name></trkpt>
<trkpt lat="54.513722" lon="-3.168081"><ele>117</ele><time>2024-05-31T08:58:23Z</time><name>PT45</name></trkpt>
<trkpt lat="54.513767" lon="-3.168021"><ele>120</ele><time>2024-05-31T08:58:27Z</time><name>PT46</name></trkpt>
<trkpt lat="54.513666" lon="-3.168061"><ele>115</ele><time>2024-05-31T08:58:31Z</time><name>PT47</name></trkpt>
<trkpt lat="54.513623" lon="-3.168030"><ele>111</ele><time>2024-05-31T08:58:34Z</time><name>PT48</name></trkpt>
<trkpt lat="54.513612" lon="-3.168025"><ele>111</ele><time>2024-05-31T08:58:38Z</time><name>PT49</name></trkpt>
<trkpt lat="54.513602" lon="-3.168046"><ele>112</ele><time>2024-05-31T08:59:06Z</time><name>PT50</name></trkpt>
<trkpt lat="54.513576" lon="-3.168025"><ele>113</ele><time>2024-05-31T08:59:09Z</time><name>PT51</name></trkpt>
<trkpt lat="54.513569" lon="-3.168035"><ele>113</ele><time>2024-05-31T08:59:27Z</time><name>PT52</name></trkpt>
<trkpt lat="54.513569" lon="-3.168031"><ele>113</ele><time>2024-05-31T08:59:31Z</time><name>PT53</name></trkpt>
<trkpt lat="54.513569" lon="-3.168009"><ele>114</ele><time>2024-05-31T09:00:20Z</time><name>PT54</name></trkpt>
<trkpt lat="54.513574" lon="-3.168009"><ele>117</ele><time>2024-05-31T09:01:23Z</time><name>PT55</name></trkpt>
<trkpt lat="54.513571" lon="-3.168013"><ele>117</ele><time>2024-05-31T09:01:26Z</time><name>PT56</name></trkpt>
<trkpt lat="54.513526" lon="-3.167976"><ele>115</ele><time>2024-05-31T09:01:30Z</time><name>PT57</name></trkpt>
<trkpt lat="54.513528" lon="-3.167958"><ele>115</ele><time>2024-05-31T09:01:33Z</time><name>PT58</name></trkpt>
<trkpt lat="54.513555" lon="-3.167942"><ele>116</ele><time>2024-05-31T09:01:37Z</time><name>PT59</name></trkpt>
<trkpt lat="54.513572" lon="-3.167947"><ele>115</ele><time>2024-05-31T09:01:40Z</time><name>PT60</name></trkpt>
<trkpt lat="54.513593" lon="-3.167973"><ele>115</ele><time>2024-05-31T09:01:43Z</time><name>PT61</name></trkpt>
<trkpt lat="54.513601" lon="-3.167967"><ele>113</ele><time>2024-05-31T09:01:46Z</time><name>PT62</name></trkpt>
<trkpt lat="54.513616" lon="-3.168002"><ele>113</ele><time>2024-05-31T09:01:50Z</time><name>PT63</name></trkpt>
<trkpt lat="54.513553" lon="-3.167905"><ele>115</ele><time>2024-05-31T09:01:53Z</time><name>PT64</name></trkpt>
<trkpt lat="54.513511" lon="-3.167888"><ele>116</ele><time>2024-05-31T09:01:57Z</time><name>PT65</name></trkpt>
<trkpt lat="54.513504" lon="-3.167928"><ele>113</ele><time>2024-05-31T09:02:01Z</time><name>PT66</name></trkpt>
<trkpt lat="54.513517" lon="-3.167941"><ele>113</ele><time>2024-05-31T09:02:04Z</time><name>PT67</name></trkpt>
<trkpt lat="54.513515" lon="-3.167950"><ele>113</ele><time>2024-05-31T09:02:07Z</time><name>PT68</name></trkpt>
<trkpt lat="54.513520" lon="-3.167880"><ele>113</ele><time>2024-05-31T09:02:15Z</time><name>PT69</name></trkpt>
<trkpt lat="54.513507" lon="-3.167835"><ele>113</ele><time>2024-05-31T09:02:19Z</time><name>PT70</name></trkpt>
<trkpt lat="54.513502" lon="-3.167856"><ele>114</ele><time>2024-05-31T09:02:23Z</time><name>PT71</name></trkpt>
<trkpt lat="54.513468" lon="-3.167914"><ele>114</ele><time>2024-05-31T09:02:27Z</time><name>PT72</name></trkpt>
<trkpt lat="54.513534" lon="-3.168007"><ele>116</ele><time>2024-05-31T09:02:30Z</time><name>PT73</name></trkpt>
<trkpt lat="54.513537" lon="-3.167992"><ele>118</ele><time>2024-05-31T09:02:33Z</time><name>PT74</name></trkpt>
<trkpt lat="54.513547" lon="-3.168014"><ele>117</ele><time>2024-05-31T09:02:37Z</time><name>PT75</name></trkpt>
<trkpt lat="54.513554" lon="-3.168005"><ele>117</ele><time>2024-05-31T09:02:46Z</time><name>PT76</name></trkpt>
<trkpt lat="54.513555" lon="-3.168012"><ele>118</ele><time>2024-05-31T09:02:50Z</time><name>PT77</name></trkpt>
<trkpt lat="54.513559" lon="-3.168011"><ele>118</ele><time>2024-05-31T09:02:53Z</time><name>PT78</name></trkpt>
<trkpt lat="54.513545" lon="-3.168019"><ele>117</ele><time>2024-05-31T09:03:00Z</time><name>PT79</name></trkpt>
<trkpt lat="54.513528" lon="-3.167995"><ele>118</ele><time>2024-05-31T09:03:03Z</time><name>PT80</name></trkpt>
<trkpt lat="54.513523" lon="-3.167998"><ele>118</ele><time>2024-05-31T09:03:07Z</time><name>PT81</name></trkpt>
<trkpt lat="54.513528" lon="-3.167978"><ele>117</ele><time>2024-05-31T09:03:14Z</time><name>PT82</name></trkpt>
<trkpt lat="54.513528" lon="-3.167978"><ele>118</ele><time>2024-05-31T09:04:52Z</time><name>PT83</name></trkpt>
<trkpt lat="54.513517" lon="-3.167966"><ele>118</ele><time>2024-05-31T09:04:56Z</time><name>PT84</name></trkpt>
<trkpt lat="54.513488" lon="-3.167945"><ele>117</ele><time>2024-05-31T09:04:59Z</time><name>PT85</name></trkpt>
<trkpt lat="54.513518" lon="-3.167988"><ele>115</ele><time>2024-05-31T09:05:02Z</time><name>PT86</name></trkpt>
<trkpt lat="54.513526" lon="-3.168026"><ele>115</ele><time>2024-05-31T09:05:06Z</time><name>PT87</name></trkpt>
<trkpt lat="54.513472" lon="-3.168190"><ele>120</ele><time>2024-05-31T09:05:10Z</time><name>PT88</name></trkpt>
<trkpt lat="54.513375" lon="-3.168324"><ele>123</ele><time>2024-05-31T09:05:13Z</time><name>PT89</name></trkpt>
<trkpt lat="54.513407" lon="-3.168335"><ele>126</ele><time>2024-05-31T09:05:16Z</time><name>PT90</name></trkpt>
<trkpt lat="54.513403" lon="-3.168244"><ele>121</ele><time>2024-05-31T09:05:20Z</time><name>PT91</name></trkpt>
<trkpt lat="54.513418" lon="-3.168190"><ele>116</ele><time>2024-05-31T09:05:23Z</time><name>PT92</name></trkpt>
<trkpt lat="54.513433" lon="-3.168138"><ele>116</ele><time>2024-05-31T09:05:26Z</time><name>PT93</name></trkpt>
<trkpt lat="54.513441" lon="-3.168101"><ele>118</ele><time>2024-05-31T09:05:29Z</time><name>PT94</name></trkpt>
<trkpt lat="54.513444" lon="-3.168091"><ele>122</ele><time>2024-05-31T09:05:33Z</time><name>PT95</name></trkpt>
<trkpt lat="54.513457" lon="-3.168042"><ele>123</ele><time>2024-05-31T09:05:37Z</time><name>PT96</name></trkpt>
<trkpt lat="54.513443" lon="-3.168053"><ele>125</ele><time>2024-05-31T09:05:40Z</time><name>PT97</name></trkpt>
<trkpt lat="54.513434" lon="-3.168027"><ele>124</ele><time>2024-05-31T09:05:44Z</time><name>PT98</name></trkpt>
<trkpt lat="54.513469" lon="-3.167984"><ele>124</ele><time>2024-05-31T09:05:48Z</time><name>PT99</name></trkpt>
<trkpt lat="54.513463" lon="-3.167930"><ele>122</ele><time>2024-05-31T09:05:51Z</time><name>PT100</name></trkpt>
<trkpt lat="54.513467" lon="-3.167910"><ele>121</ele><time>2024-05-31T09:05:55Z</time><name>PT101</name></trkpt>
<trkpt lat="54.513472" lon="-3.167917"><ele>120</ele><time>2024-05-31T09:05:59Z</time><name>PT102</name></trkpt>
<trkpt lat="54.513483" lon="-3.167899"><ele>119</ele><time>2024-05-31T09:06:12Z</time><name>PT103</name></trkpt>
<trkpt lat="54.513508" lon="-3.167889"><ele>117</ele><time>2024-05-31T09:06:16Z</time><name>PT104</name></trkpt>
<trkpt lat="54.513518" lon="-3.167882"><ele>116</ele><time>2024-05-31T09:06:19Z</time><name>PT105</name></trkpt>
<trkpt lat="54.513524" lon="-3.167850"><ele>117</ele><time>2024-05-31T09:06:22Z</time><name>PT106</name></trkpt>
<trkpt lat="54.513515" lon="-3.167842"><ele>117</ele><time>2024-05-31T09:06:26Z</time><name>PT107</name></trkpt>
<trkpt lat="54.513519" lon="-3.167846"><ele>119</ele><time>2024-05-31T09:08:00Z</time><name>PT108</name></trkpt>
<trkpt lat="54.513523" lon="-3.167861"><ele>118</ele><time>2024-05-31T09:08:04Z</time><name>PT109</name></trkpt>
<trkpt lat="54.513524" lon="-3.167883"><ele>123</ele><time>2024-05-31T09:08:59Z</time><name>PT110</name></trkpt>
<trkpt lat="54.513528" lon="-3.167892"><ele>122</ele><time>2024-05-31T09:09:02Z</time><name>PT111</name></trkpt>
<trkpt lat="54.513547" lon="-3.167905"><ele>123</ele><time>2024-05-31T09:09:05Z</time><name>PT112</name></trkpt>
<trkpt lat="54.513550" lon="-3.167907"><ele>123</ele><time>2024-05-31T09:09:08Z</time><name>PT113</name></trkpt>
<trkpt lat="54.513562" lon="-3.167880"><ele>127</ele><time>2024-05-31T09:12:33Z</time><name>PT114</name></trkpt>
<trkpt lat="54.513568" lon="-3.167876"><ele>128</ele><time>2024-05-31T09:12:40Z</time><name>PT115</name></trkpt>
<trkpt lat="54.513570" lon="-3.167869"><ele>128</ele><time>2024-05-31T09:12:43Z</time><name>PT116</name></trkpt>
<trkpt lat="54.513577" lon="-3.167861"><ele>128</ele><time>2024-05-31T09:13:00Z</time><name>PT117</name></trkpt>
<trkpt lat="54.513581" lon="-3.167859"><ele>128</ele><time>2024-05-31T09:13:04Z</time><name>PT118</name></trkpt>
<trkpt lat="54.513590" lon="-3.167866"><ele>128</ele><time>2024-05-31T09:13:52Z</time><name>PT119</name></trkpt>
<trkpt lat="54.513596" lon="-3.167862"><ele>129</ele><time>2024-05-31T09:14:27Z</time><name>PT120</name></trkpt>
<trkpt lat="54.513602" lon="-3.167843"><ele>129</ele><time>2024-05-31T09:14:30Z</time><name>PT121</name></trkpt>
<trkpt lat="54.513599" lon="-3.167859"><ele>128</ele><time>2024-05-31T09:14:46Z</time><name>PT122</name></trkpt>
<trkpt lat="54.513600" lon="-3.167862"><ele>128</ele><time>2024-05-31T09:14:50Z</time><name>PT123</name></trkpt>
<trkpt lat="54.513606" lon="-3.167835"><ele>127</ele><time>2024-05-31T09:15:38Z</time><name>PT124</name></trkpt>
<trkpt lat="54.513601" lon="-3.167821"><ele>127</ele><time>2024-05-31T09:15:41Z</time><name>PT125</name></trkpt>
<trkpt lat="54.513594" lon="-3.167827"><ele>127</ele><time>2024-05-31T09:15:44Z</time><name>PT126</name></trkpt>
<trkpt lat="54.513591" lon="-3.167799"><ele>127</ele><time>2024-05-31T09:15:58Z</time><name>PT127</name></trkpt>
<trkpt lat="54.513584" lon="-3.167781"><ele>127</ele><time>2024-05-31T09:16:02Z</time><name>PT128</name></trkpt>
<trkpt lat="54.513581" lon="-3.167777"><ele>127</ele><time>2024-05-31T09:16:06Z</time><name>PT129</name></trkpt>
<trkpt lat="54.513574" lon="-3.167755"><ele>128</ele><time>2024-05-31T09:16:09Z</time><name>PT130</name></trkpt>
<trkpt lat="54.513562" lon="-3.167682"><ele>127</ele><time>2024-05-31T09:16:13Z</time><name>PT131</name></trkpt>
<trkpt lat="54.513550" lon="-3.167653"><ele>126</ele><time>2024-05-31T09:16:16Z</time><name>PT132</name></trkpt>
<trkpt lat="54.513557" lon="-3.167615"><ele>124</ele><time>2024-05-31T09:16:19Z</time><name>PT133</name></trkpt>
<trkpt lat="54.513558" lon="-3.167562"><ele>124</ele><time>2024-05-31T09:16:22Z</time><name>PT134</name></trkpt>
<trkpt lat="54.513555" lon="-3.167514"><ele>122</ele><time>2024-05-31T09:16:26Z</time><name>PT135</name></trkpt>
<trkpt lat="54.513543" lon="-3.167463"><ele>121</ele><time>2024-05-31T09:16:29Z</time><name>PT136</name></trkpt>
<trkpt lat="54.513521" lon="-3.167406"><ele>120</ele><time>2024-05-31T09:16:32Z</time><name>PT137</name></trkpt>
<trkpt lat="54.513496" lon="-3.167340"><ele>118</ele><time>2024-05-31T09:16:36Z</time><name>PT138</name></trkpt>
<trkpt lat="54.513468" lon="-3.167287"><ele>118</ele><time>2024-05-31T09:16:39Z</time><name>PT139</name></trkpt>
<trkpt lat="54.513434" lon="-3.167215"><ele>118</ele><time>2024-05-31T09:16:43Z</time><name>PT140</name></trkpt>
<trkpt lat="54.513399" lon="-3.167174"><ele>118</ele><time>2024-05-31T09:16:46Z</time><name>PT141</name></trkpt>
<trkpt lat="54.513374" lon="-3.167129"><ele>118</ele><time>2024-05-31T09:16:49Z</time><name>PT142</name></trkpt>
<trkpt lat="54.513338" lon="-3.167069"><ele>118</ele><time>2024-05-31T09:16:53Z</time><name>PT143</name></trkpt>
<trkpt lat="54.513311" lon="-3.167032"><ele>118</ele><time>2024-05-31T09:16:56Z</time><name>PT144</name></trkpt>
<trkpt lat="54.513284" lon="-3.166982"><ele>117</ele><time>2024-05-31T09:16:59Z</time><name>PT145</name></trkpt>
<trkpt lat="54.513244" lon="-3.166910"><ele>117</ele><time>2024-05-31T09:17:03Z</time><name>PT146</name></trkpt>
<trkpt lat="54.513211" lon="-3.166866"><ele>117</ele><time>2024-05-31T09:17:06Z</time><name>PT147</name></trkpt>
<trkpt lat="54.513180" lon="-3.166820"><ele>117</ele><time>2024-05-31T09:17:09Z</time><name>PT148</name></trkpt>
<trkpt lat="54.513161" lon="-3.166779"><ele>117</ele><time>2024-05-31T09:17:12Z</time><name>PT149</name></trkpt>
<trkpt lat="54.513128" lon="-3.166726"><ele>115</ele><time>2024-05-31T09:17:16Z</time><name>PT150</name></trkpt>
<trkpt lat="54.513108" lon="-3.166685"><ele>115</ele><time>2024-05-31T09:17:19Z</time><name>PT151</name></trkpt>
<trkpt lat="54.513066" lon="-3.166628"><ele>115</ele><time>2024-05-31T09:17:23Z</time><name>PT152</name></trkpt>
<trkpt lat="54.513029" lon="-3.166575"><ele>114</ele><time>2024-05-31T09:17:27Z</time><name>PT153</name></trkpt>
<trkpt lat="54.512988" lon="-3.166522"><ele>114</ele><time>2024-05-31T09:17:31Z</time><name>PT154</name></trkpt>
<trkpt lat="54.512966" lon="-3.166486"><ele>112</ele><time>2024-05-31T09:17:34Z</time><name>PT155</name></trkpt>
<trkpt lat="54.512930" lon="-3.166425"><ele>112</ele><time>2024-05-31T09:17:38Z</time><name>PT156</name></trkpt>
<trkpt lat="54.512891" lon="-3.166364"><ele>113</ele><time>2024-05-31T09:17:42Z</time><name>PT157</name></trkpt>
<trkpt lat="54.512871" lon="-3.166319"><ele>113</ele><time>2024-05-31T09:17:45Z</time><name>PT158</name></trkpt>
<trkpt lat="54.512851" lon="-3.166294"><ele>113</ele><time>2024-05-31T09:17:48Z</time><name>PT159</name></trkpt>
<trkpt lat="54.512815" lon="-3.166314"><ele>113</ele><time>2024-05-31T09:17:52Z</time><name>PT160</name></trkpt>
<trkpt lat="54.512806" lon="-3.166339"><ele>113</ele><time>2024-05-31T09:17:55Z</time><name>PT161</name></trkpt>
<trkpt lat="54.512794" lon="-3.166382"><ele>107</ele><time>2024-05-31T09:17:58Z</time><name>PT162</name></trkpt>
<trkpt lat="54.512777" lon="-3.166429"><ele>104</ele><time>2024-05-31T09:18:02Z</time><name>PT163</name></trkpt>
<trkpt lat="54.512757" lon="-3.166475"><ele>105</ele><time>2024-05-31T09:18:06Z</time><name>PT164</name></trkpt>
<trkpt lat="54.512737" lon="-3.166507"><ele>105</ele><time>2024-05-31T09:18:10Z</time><name>PT165</name></trkpt>
<trkpt lat="54.512712" lon="-3.166555"><ele>107</ele><time>2024-05-31T09:18:13Z</time><name>PT166</name></trkpt>
<trkpt lat="54.512668" lon="-3.166629"><ele>110</ele><time>2024-05-31T09:18:17Z</time><name>PT167</name></trkpt>
<trkpt lat="54.512638" lon="-3.166675"><ele>109</ele><time>2024-05-31T09:18:21Z</time><name>PT168</name></trkpt>
<trkpt lat="54.512611" lon="-3.166720"><ele>111</ele><time>2024-05-31T09:18:24Z</time><name>PT169</name></trkpt>
<trkpt lat="54.512592" lon="-3.166778"><ele>109</ele><time>2024-05-31T09:18:28Z</time><name>PT170</name></trkpt>
<trkpt lat="54.512561" lon="-3.166809"><ele>110</ele><time>2024-05-31T09:18:31Z</time><name>PT171</name></trkpt>
<trkpt lat="54.512535" lon="-3.166843"><ele>109</ele><time>2024-05-31T09:18:35Z</time><name>PT172</name></trkpt>
<trkpt lat="54.512512" lon="-3.166893"><ele>109</ele><time>2024-05-31T09:18:39Z</time><name>PT173</name></trkpt>
<trkpt lat="54.512493" lon="-3.166929"><ele>108</ele><time>2024-05-31T09:18:42Z</time><name>PT174</name></trkpt>
<trkpt lat="54.512460" lon="-3.166945"><ele>107</ele><time>2024-05-31T09:18:46Z</time><name>PT175</name></trkpt>
<trkpt lat="54.512461" lon="-3.166974"><ele>105</ele><time>2024-05-31T09:18:49Z</time><name>PT176</name></trkpt>
<trkpt lat="54.512414" lon="-3.166999"><ele>106</ele><time>2024-05-31T09:18:53Z</time><name>PT177</name></trkpt>
<trkpt lat="54.512374" lon="-3.167067"><ele>107</ele><time>2024-05-31T09:18:57Z</time><name>PT178</name></trkpt>
<trkpt lat="54.512350" lon="-3.167107"><ele>105</ele><time>2024-05-31T09:19:00Z</time><name>PT179</name></trkpt>
<trkpt lat="54.512320" lon="-3.167142"><ele>102</ele><time>2024-05-31T09:19:04Z</time><name>PT180</name></trkpt>
<trkpt lat="54.512272" lon="-3.167177"><ele>102</ele><time>2024-05-31T09:19:08Z</time><name>PT181</name></trkpt>
<trkpt lat="54.512210" lon="-3.167216"><ele>105</ele><time>2024-05-31T09:19:12Z</time><name>PT182</name></trkpt>
<trkpt lat="54.512176" lon="-3.167223"><ele>105</ele><time>2024-05-31T09:19:15Z</time><name>PT183</name></trkpt>
<trkpt lat="54.512119" lon="-3.167270"><ele>107</ele><time>2024-05-31T09:19:19Z</time><name>PT184</name></trkpt>
<trkpt lat="54.512080" lon="-3.167350"><ele>109</ele><time>2024-05-31T09:19:23Z</time><name>PT185</name></trkpt>
<trkpt lat="54.512052" lon="-3.167409"><ele>110</ele><time>2024-05-31T09:19:26Z</time><name>PT186</name></trkpt>
<trkpt lat="54.512019" lon="-3.167489"><ele>110</ele><time>2024-05-31T09:19:30Z</time><name>PT187</name></trkpt>
<trkpt lat="54.511986" lon="-3.167551"><ele>110</ele><time>2024-05-31T09:19:34Z</time><name>PT188</name></trkpt>
<trkpt lat="54.511944" lon="-3.167600"><ele>108</ele><time>2024-05-31T09:19:38Z</time><name>PT189</name></trkpt>
<trkpt lat="54.511898" lon="-3.167659"><ele>107</ele><time>2024-05-31T09:19:42Z</time><name>PT190</name></trkpt>
<trkpt lat="54.511873" lon="-3.167713"><ele>107</ele><time>2024-05-31T09:19:45Z</time><name>PT191</name></trkpt>
<trkpt lat="54.511829" lon="-3.167801"><ele>109</ele><time>2024-05-31T09:19:49Z</time><name>PT192</name></trkpt>
<trkpt lat="54.511789" lon="-3.167859"><ele>112</ele><time>2024-05-31T09:19:52Z</time><name>PT193</name></trkpt>
<trkpt lat="54.511752" lon="-3.167944"><ele>114</ele><time>2024-05-31T09:19:56Z</time><name>PT194</name></trkpt>
<trkpt lat="54.511724" lon="-3.168003"><ele>114</ele><time>2024-05-31T09:20:00Z</time><name>PT195</name></trkpt>
<trkpt lat="54.511696" lon="-3.168056"><ele>114</ele><time>2024-05-31T09:20:03Z</time><name>PT196</name></trkpt>
<trkpt lat="54.511654" lon="-3.168122"><ele>113</ele><time>2024-05-31T09:20:07Z</time><name>PT197</name></trkpt>
<trkpt lat="54.511601" lon="-3.168189"><ele>113</ele><time>2024-05-31T09:20:11Z</time><name>PT198</name></trkpt>
<trkpt lat="54.511549" lon="-3.168230"><ele>115</ele><time>2024-05-31T09:20:15Z</time><name>PT199</name></trkpt>
<trkpt lat="54.511503" lon="-3.168269"><ele>115</ele><time>2024-05-31T09:20:19Z</time><name>PT200</name></trkpt>
<trkpt lat="54.511467" lon="-3.168302"><ele>115</ele><time>2024-05-31T09:20:22Z</time><name>PT201</name></trkpt>
<trkpt lat="54.511425" lon="-3.168338"><ele>116</ele><time>2024-05-31T09:20:25Z</time><name>PT202</name></trkpt>
<trkpt lat="54.511379" lon="-3.168374"><ele>117</ele><time>2024-05-31T09:20:29Z</time><name>PT203</name></trkpt>
<trkpt lat="54.511328" lon="-3.168400"><ele>116</ele><time>2024-05-31T09:20:33Z</time><name>PT204</name></trkpt>
<trkpt lat="54.511289" lon="-3.168442"><ele>116</ele><time>2024-05-31T09:20:36Z</time><name>PT205</name></trkpt>
<trkpt lat="54.511232" lon="-3.168483"><ele>116</ele><time>2024-05-31T09:20:40Z</time><name>PT206</name></trkpt>
<trkpt lat="54.511210" lon="-3.168519"><ele>115</ele><time>2024-05-31T09:20:43Z</time><name>PT207</name></trkpt>
<trkpt lat="54.511187" lon="-3.168568"><ele>113</ele><time>2024-05-31T09:20:46Z</time><name>PT208</name></trkpt>
<trkpt lat="54.511161" lon="-3.168645"><ele>110</ele><time>2024-05-31T09:20:50Z</time><name>PT209</name></trkpt>
<trkpt lat="54.511125" lon="-3.168695"><ele>112</ele><time>2024-05-31T09:20:53Z</time><name>PT210</name></trkpt>
<trkpt lat="54.511087" lon="-3.168735"><ele>113</ele><time>2024-05-31T09:20:56Z</time><name>PT211</name></trkpt>
<trkpt lat="54.511041" lon="-3.168794"><ele>113</ele><time>2024-05-31T09:21:00Z</time><name>PT212</name></trkpt>
<trkpt lat="54.511012" lon="-3.168837"><ele>114</ele><time>2024-05-31T09:21:03Z</time><name>PT213</name></trkpt>
<trkpt lat="54.510971" lon="-3.168878"><ele>115</ele><time>2024-05-31T09:21:06Z</time><name>PT214</name></trkpt>
<trkpt lat="54.510927" lon="-3.168911"><ele>116</ele><time>2024-05-31T09:21:09Z</time><name>PT215</name></trkpt>
<trkpt lat="54.510882" lon="-3.168960"><ele>116</ele><time>2024-05-31T09:21:13Z</time><name>PT216</name></trkpt>
<trkpt lat="54.510826" lon="-3.169002"><ele>117</ele><time>2024-05-31T09:21:17Z</time><name>PT217</name></trkpt>
<trkpt lat="54.510782" lon="-3.169030"><ele>116</ele><time>2024-05-31T09:21:20Z</time><name>PT218</name></trkpt>
<trkpt lat="54.510737" lon="-3.169082"><ele>115</ele><time>2024-05-31T09:21:24Z</time><name>PT219</name></trkpt>
<trkpt lat="54.510685" lon="-3.169123"><ele>116</ele><time>2024-05-31T09:21:28Z</time><name>PT220</name></trkpt>
<trkpt lat="54.510635" lon="-3.169147"><ele>117</ele><time>2024-05-31T09:21:31Z</time><name>PT221</name></trkpt>
<trkpt lat="54.510583" lon="-3.169191"><ele>118</ele><time>2024-05-31T09:21:35Z</time><name>PT222</name></trkpt>
<trkpt lat="54.510534" lon="-3.169218"><ele>118</ele><time>2024-05-31T09:21:39Z</time><name>PT223</name></trkpt>
<trkpt lat="54.510498" lon="-3.169212"><ele>119</ele><time>2024-05-31T09:21:42Z</time><name>PT224</name></trkpt>
<trkpt lat="54.510461" lon="-3.169214"><ele>120</ele><time>2024-05-31T09:21:45Z</time><name>PT225</name></trkpt>
<trkpt lat="54.510415" lon="-3.169211"><ele>119</ele><time>2024-05-31T09:21:49Z</time><name>PT226</name></trkpt>
<trkpt lat="54.510355" lon="-3.169213"><ele>120</ele><time>2024-05-31T09:21:53Z</time><name>PT227</name></trkpt>
<trkpt lat="54.510323" lon="-3.169217"><ele>120</ele><time>2024-05-31T09:21:56Z</time><name>PT228</name></trkpt>
<trkpt lat="54.510285" lon="-3.169206"><ele>120</ele><time>2024-05-31T09:22:00Z</time><name>PT229</name></trkpt>
<trkpt lat="54.510255" lon="-3.169231"><ele>119</ele><time>2024-05-31T09:22:03Z</time><name>PT230</name></trkpt>
<trkpt lat="54.510217" lon="-3.169266"><ele>118</ele><time>2024-05-31T09:22:07Z</time><name>PT231</name></trkpt>
<trkpt lat="54.510187" lon="-3.169291"><ele>117</ele><time>2024-05-31T09:22:10Z</time><name>PT232</name></trkpt>
<trkpt lat="54.510154" lon="-3.169324"><ele>116</ele><time>2024-05-31T09:22:13Z</time><name>PT233</name></trkpt>
<trkpt lat="54.510104" lon="-3.169334"><ele>117</ele><time>2024-05-31T09:22:17Z</time><name>PT234</name></trkpt>
<trkpt lat="54.510074" lon="-3.169381"><ele>114</ele><time>2024-05-31T09:22:21Z</time><name>PT235</name></trkpt>
<trkpt lat="54.510053" lon="-3.169433"><ele>112</ele><time>2024-05-31T09:22:24Z</time><name>PT236</name></trkpt>
<trkpt lat="54.510027" lon="-3.169479"><ele>111</ele><time>2024-05-31T09:22:28Z</time><name>PT237</name></trkpt>
<trkpt lat="54.510002" lon="-3.169519"><ele>111</ele><time>2024-05-31T09:22:31Z</time><name>PT238</name></trkpt>
<trkpt lat="54.509966" lon="-3.169574"><ele>110</ele><time>2024-05-31T09:22:35Z</time><name>PT239</name></trkpt>
<trkpt lat="54.509920" lon="-3.169613"><ele>109</ele><time>2024-05-31T09:22:39Z</time><name>PT240</name></trkpt>
<trkpt lat="54.509896" lon="-3.169668"><ele>108</ele><time>2024-05-31T09:22:43Z</time><name>PT241</name></trkpt>
<trkpt lat="54.509874" lon="-3.169735"><ele>104</ele><time>2024-05-31T09:22:47Z</time><name>PT242</name></trkpt>
<trkpt lat="54.509854" lon="-3.169805"><ele>101</ele><time>2024-05-31T09:22:51Z</time><name>PT243</name></trkpt>
<trkpt lat="54.509799" lon="-3.169878"><ele>104</ele><time>2024-05-31T09:22:55Z</time><name>PT244</name></trkpt>
<trkpt lat="54.509760" lon="-3.169957"><ele>103</ele><time>2024-05-31T09:22:59Z</time><name>PT245</name></trkpt>
<trkpt lat="54.509721" lon="-3.170007"><ele>102</ele><time>2024-05-31T09:23:03Z</time><name>PT246</name></trkpt>
<trkpt lat="54.509678" lon="-3.170083"><ele>100</ele><time>2024-05-31T09:23:07Z</time><name>PT247</name></trkpt>
<trkpt lat="54.509620" lon="-3.170117"><ele>101</ele><time>2024-05-31T09:23:11Z</time><name>PT248</name></trkpt>
<trkpt lat="54.509575" lon="-3.170148"><ele>102</ele><time>2024-05-31T09:23:14Z</time><name>PT249</name></trkpt>
<trkpt lat="54.509525" lon="-3.170182"><ele>102</ele><time>2024-05-31T09:23:18Z</time><name>PT250</name></trkpt>
<trkpt lat="54.509491" lon="-3.170200"><ele>100</ele><time>2024-05-31T09:23:21Z</time><name>PT251</name></trkpt>
<trkpt lat="54.509445" lon="-3.170213"><ele>100</ele><time>2024-05-31T09:23:25Z</time><name>PT252</name></trkpt>
<trkpt lat="54.509412" lon="-3.170233"><ele>100</ele><time>2024-05-31T09:23:28Z</time><name>PT253</name></trkpt>
<trkpt lat="54.509350" lon="-3.170269"><ele>102</ele><time>2024-05-31T09:23:32Z</time><name>PT254</name></trkpt>
<trkpt lat="54.509295" lon="-3.170302"><ele>101</ele><time>2024-05-31T09:23:36Z</time><name>PT255</name></trkpt>
<trkpt lat="54.509239" lon="-3.170310"><ele>102</ele><time>2024-05-31T09:23:39Z</time><name>PT256</name></trkpt>
<trkpt lat="54.509178" lon="-3.170345"><ele>104</ele><time>2024-05-31T09:23:43Z</time><name>PT257</name></trkpt>
<trkpt lat="54.509145" lon="-3.170374"><ele>104</ele><time>2024-05-31T09:23:46Z</time><name>PT258</name></trkpt>
<trkpt lat="54.509092" lon="-3.170408"><ele>106</ele><time>2024-05-31T09:23:50Z</time><name>PT259</name></trkpt>
<trkpt lat="54.509037" lon="-3.170449"><ele>106</ele><time>2024-05-31T09:23:54Z</time><name>PT260</name></trkpt>
<trkpt lat="54.508992" lon="-3.170479"><ele>107</ele><time>2024-05-31T09:23:57Z</time><name>PT261</name></trkpt>
<trkpt lat="54.508942" lon="-3.170527"><ele>108</ele><time>2024-05-31T09:24:01Z</time><name>PT262</name></trkpt>
<trkpt lat="54.508895" lon="-3.170581"><ele>109</ele><time>2024-05-31T09:24:05Z</time><name>PT263</name></trkpt>
<trkpt lat="54.508865" lon="-3.170619"><ele>111</ele><time>2024-05-31T09:24:08Z</time><name>PT264</name></trkpt>
<trkpt lat="54.508819" lon="-3.170658"><ele>111</ele><time>2024-05-31T09:24:12Z</time><name>PT265</name></trkpt>
<trkpt lat="54.508796" lon="-3.170709"><ele>112</ele><time>2024-05-31T09:24:15Z</time><name>PT266</name></trkpt>
<trkpt lat="54.508763" lon="-3.170776"><ele>111</ele><time>2024-05-31T09:24:19Z</time><name>PT267</name></trkpt>
<trkpt lat="54.508728" lon="-3.170819"><ele>111</ele><time>2024-05-31T09:24:22Z</time><name>PT268</name></trkpt>
<trkpt lat="54.508702" lon="-3.170890"><ele>111</ele><time>2024-05-31T09:24:26Z</time><name>PT269</name></trkpt>
<trkpt lat="54.508677" lon="-3.170936"><ele>111</ele><time>2024-05-31T09:24:29Z</time><name>PT270</name></trkpt>
<trkpt lat="54.508636" lon="-3.170982"><ele>112</ele><time>2024-05-31T09:24:32Z</time><name>PT271</name></trkpt>
<trkpt lat="54.508590" lon="-3.171052"><ele>114</ele><time>2024-05-31T09:24:36Z</time><name>PT272</name></trkpt>
<trkpt lat="54.508549" lon="-3.171098"><ele>114</ele><time>2024-05-31T09:24:40Z</time><name>PT273</name></trkpt>
<trkpt lat="54.508507" lon="-3.171129"><ele>116</ele><time>2024-05-31T09:24:43Z</time><name>PT274</name></trkpt>
<trkpt lat="54.508470" lon="-3.171174"><ele>116</ele><time>2024-05-31T09:24:46Z</time><name>PT275</name></trkpt>
<trkpt lat="54.508424" lon="-3.171230"><ele>117</ele><time>2024-05-31T09:24:50Z</time><name>PT276</name></trkpt>
<trkpt lat="54.508384" lon="-3.171276"><ele>115</ele><time>2024-05-31T09:24:54Z</time><name>PT277</name></trkpt>
<trkpt lat="54.508330" lon="-3.171318"><ele>116</ele><time>2024-05-31T09:24:58Z</time><name>PT278</name></trkpt>
<trkpt lat="54.508283" lon="-3.171343"><ele>116</ele><time>2024-05-31T09:25:01Z</time><name>PT279</name></trkpt>
<trkpt lat="54.508249" lon="-3.171381"><ele>115</ele><time>2024-05-31T09:25:04Z</time><name>PT280</name></trkpt>
<trkpt lat="54.508223" lon="-3.171400"><ele>112</ele><time>2024-05-31T09:25:07Z</time><name>PT281</name></trkpt>
<trkpt lat="54.508194" lon="-3.171428"><ele>110</ele><time>2024-05-31T09:25:10Z</time><name>PT282</name></trkpt>
<trkpt lat="54.508159" lon="-3.171456"><ele>109</ele><time>2024-05-31T09:25:13Z</time><name>PT283</name></trkpt>
<trkpt lat="54.508124" lon="-3.171477"><ele>108</ele><time>2024-05-31T09:25:16Z</time><name>PT284</name></trkpt>
<trkpt lat="54.508090" lon="-3.171498"><ele>108</ele><time>2024-05-31T09:25:19Z</time><name>PT285</name></trkpt>
<trkpt lat="54.508051" lon="-3.171522"><ele>109</ele><time>2024-05-31T09:25:22Z</time><name>PT286</name></trkpt>
<trkpt lat="54.507999" lon="-3.171566"><ele>109</ele><time>2024-05-31T09:25:26Z</time><name>PT287</name></trkpt>
<trkpt lat="54.507954" lon="-3.171609"><ele>109</ele><time>2024-05-31T09:25:30Z</time><name>PT288</name></trkpt>
<trkpt lat="54.507908" lon="-3.171634"><ele>109</ele><time>2024-05-31T09:25:34Z</time><name>PT289</name></trkpt>
<trkpt lat="54.507864" lon="-3.171696"><ele>110</ele><time>2024-05-31T09:25:38Z</time><name>PT290</name></trkpt>
<trkpt lat="54.507826" lon="-3.171737"><ele>113</ele><time>2024-05-31T09:25:41Z</time><name>PT291</name></trkpt>
<trkpt lat="54.507780" lon="-3.171794"><ele>115</ele><time>2024-05-31T09:25:45Z</time><name>PT292</name></trkpt>
<trkpt lat="54.507735" lon="-3.171849"><ele>116</ele><time>2024-05-31T09:25:49Z</time><name>PT293</name></trkpt>
<trkpt lat="54.507695" lon="-3.171897"><ele>117</ele><time>2024-05-31T09:25:53Z</time><name>PT294</name></trkpt>
<trkpt lat="54.507659" lon="-3.171956"><ele>120</ele><time>2024-05-31T09:25:57Z</time><name>PT295</name></trkpt>
<trkpt lat="54.507608" lon="-3.172008"><ele>121</ele><time>2024-05-31T09:26:01Z</time><name>PT296</name></trkpt>
<trkpt lat="54.507573" lon="-3.172041"><ele>121</ele><time>2024-05-31T09:26:04Z</time><name>PT297</name></trkpt>
<trkpt lat="54.507523" lon="-3.172072"><ele>120</ele><time>2024-05-31T09:26:08Z</time><name>PT298</name></trkpt>
<trkpt lat="54.507486" lon="-3.172098"><ele>120</ele><time>2024-05-31T09:26:11Z</time><name>PT299</name></trkpt>
<trkpt lat="54.507437" lon="-3.172126"><ele>119</ele><time>2024-05-31T09:26:15Z</time><name>PT300</name></trkpt>
<trkpt lat="54.507399" lon="-3.172151"><ele>120</ele><time>2024-05-31T09:26:18Z</time><name>PT301</name></trkpt>
<trkpt lat="54.507359" lon="-3.172179"><ele>120</ele><time>2024-05-31T09:26:21Z</time><name>PT302</name></trkpt>
<trkpt lat="54.507307" lon="-3.172220"><ele>121</ele><time>2024-05-31T09:26:25Z</time><name>PT303</name></trkpt>
<trkpt lat="54.507274" lon="-3.172257"><ele>121</ele><time>2024-05-31T09:26:28Z</time><name>PT304</name></trkpt>
<trkpt lat="54.507226" lon="-3.172309"><ele>121</ele><time>2024-05-31T09:26:32Z</time><name>PT305</name></trkpt>
<trkpt lat="54.507183" lon="-3.172375"><ele>121</ele><time>2024-05-31T09:26:36Z</time><name>PT306</name></trkpt>
<trkpt lat="54.507144" lon="-3.172440"><ele>121</ele><time>2024-05-31T09:26:40Z</time><name>PT307</name></trkpt>
<trkpt lat="54.507110" lon="-3.172507"><ele>120</ele><time>2024-05-31T09:26:44Z</time><name>PT308</name></trkpt>
<trkpt lat="54.507073" lon="-3.172572"><ele>120</ele><time>2024-05-31T09:26:48Z</time><name>PT309</name></trkpt>
<trkpt lat="54.507033" lon="-3.172645"><ele>121</ele><time>2024-05-31T09:26:52Z</time><name>PT310</name></trkpt>
<trkpt lat="54.506995" lon="-3.172707"><ele>120</ele><time>2024-05-31T09:26:56Z</time><name>PT311</name></trkpt>
<trkpt lat="54.506966" lon="-3.172752"><ele>120</ele><time>2024-05-31T09:26:59Z</time><name>PT312</name></trkpt>
<trkpt lat="54.506940" lon="-3.172792"><ele>119</ele><time>2024-05-31T09:27:02Z</time><name>PT313</name></trkpt>
<trkpt lat="54.506899" lon="-3.172851"><ele>119</ele><time>2024-05-31T09:27:06Z</time><name>PT314</name></trkpt>
<trkpt lat="54.506869" lon="-3.172893"><ele>119</ele><time>2024-05-31T09:27:09Z</time><name>PT315</name></trkpt>
<trkpt lat="54.506835" lon="-3.172943"><ele>119</ele><time>2024-05-31T09:27:12Z</time><name>PT316</name></trkpt>
<trkpt lat="54.506790" lon="-3.173012"><ele>120</ele><time>2024-05-31T09:27:16Z</time><name>PT317</name></trkpt>
<trkpt lat="54.506761" lon="-3.173062"><ele>121</ele><time>2024-05-31T09:27:19Z</time><name>PT318</name></trkpt>
<trkpt lat="54.506723" lon="-3.173124"><ele>121</ele><time>2024-05-31T09:27:23Z</time><name>PT319</name></trkpt>
<trkpt lat="54.506687" lon="-3.173198"><ele>122</ele><time>2024-05-31T09:27:27Z</time><name>PT320</name></trkpt>
<trkpt lat="54.506658" lon="-3.173249"><ele>122</ele><time>2024-05-31T09:27:30Z</time><name>PT321</name></trkpt>
<trkpt lat="54.506632" lon="-3.173302"><ele>121</ele><time>2024-05-31T09:27:33Z</time><name>PT322</name></trkpt>
<trkpt lat="54.506603" lon="-3.173362"><ele>121</ele><time>2024-05-31T09:27:36Z</time><name>PT323</name></trkpt>
<trkpt lat="54.506573" lon="-3.173407"><ele>121</ele><time>2024-05-31T09:27:39Z</time><name>PT324</name></trkpt>
<trkpt lat="54.506530" lon="-3.173471"><ele>121</ele><time>2024-05-31T09:27:43Z</time><name>PT325</name></trkpt>
<trkpt lat="54.506489" lon="-3.173535"><ele>122</ele><time>2024-05-31T09:27:47Z</time><name>PT326</name></trkpt>
<trkpt lat="54.506447" lon="-3.173588"><ele>122</ele><time>2024-05-31T09:27:51Z</time><name>PT327</name></trkpt>
<trkpt lat="54.506403" lon="-3.173639"><ele>121</ele><time>2024-05-31T09:27:55Z</time><name>PT328</name></trkpt>
<trkpt lat="54.506374" lon="-3.173668"><ele>120</ele><time>2024-05-31T09:27:58Z</time><name>PT329</name></trkpt>
<trkpt lat="54.506343" lon="-3.173693"><ele>119</ele><time>2024-05-31T09:28:01Z</time><name>PT330</name></trkpt>
<trkpt lat="54.506298" lon="-3.173744"><ele>118</ele><time>2024-05-31T09:28:05Z</time><name>PT331</name></trkpt>
<trkpt lat="54.506253" lon="-3.173789"><ele>118</ele><time>2024-05-31T09:28:09Z</time><name>PT332</name></trkpt>
<trkpt lat="54.506201" lon="-3.173852"><ele>119</ele><time>2024-05-31T09:28:13Z</time><name>PT333</name></trkpt>
<trkpt lat="54.506168" lon="-3.173882"><ele>119</ele><time>2024-05-31T09:28:16Z</time><name>PT334</name></trkpt>
<trkpt lat="54.506125" lon="-3.173921"><ele>119</ele><time>2024-05-31T09:28:20Z</time><name>PT335</name></trkpt>
<trkpt lat="54.506088" lon="-3.173964"><ele>118</ele><time>2024-05-31T09:28:24Z</time><name>PT336</name></trkpt>
<trkpt lat="54.506054" lon="-3.174005"><ele>119</ele><time>2024-05-31T09:28:27Z</time><name>PT337</name></trkpt>
<trkpt lat="54.506009" lon="-3.174064"><ele>120</ele><time>2024-05-31T09:28:31Z</time><name>PT338</name></trkpt>
<trkpt lat="54.505966" lon="-3.174114"><ele>120</ele><time>2024-05-31T09:28:35Z</time><name>PT339</name></trkpt>
<trkpt lat="54.505927" lon="-3.174170"><ele>120</ele><time>2024-05-31T09:28:39Z</time><name>PT340</name></trkpt>
<trkpt lat="54.505891" lon="-3.174207"><ele>118</ele><time>2024-05-31T09:28:43Z</time><name>PT341</name></trkpt>
<trkpt lat="54.505852" lon="-3.174262"><ele>119</ele><time>2024-05-31T09:28:47Z</time><name>PT342</name></trkpt>
<trkpt lat="54.505825" lon="-3.174289"><ele>117</ele><time>2024-05-31T09:28:50Z</time><name>PT343</name></trkpt>
<trkpt lat="54.505801" lon="-3.174342"><ele>116</ele><time>2024-05-31T09:28:53Z</time><name>PT344</name></trkpt>
<trkpt lat="54.505774" lon="-3.174386"><ele>117</ele><time>2024-05-31T09:28:56Z</time><name>PT345</name></trkpt>
<trkpt lat="54.505746" lon="-3.174435"><ele>117</ele><time>2024-05-31T09:28:59Z</time><name>PT346</name></trkpt>
<trkpt lat="54.505711" lon="-3.174504"><ele>116</ele><time>2024-05-31T09:29:03Z</time><name>PT347</name></trkpt>
<trkpt lat="54.505671" lon="-3.174568"><ele>116</ele><time>2024-05-31T09:29:07Z</time><name>PT348</name></trkpt>
<trkpt lat="54.505633" lon="-3.174643"><ele>116</ele><time>2024-05-31T09:29:11Z</time><name>PT349</name></trkpt>
<trkpt lat="54.505588" lon="-3.174697"><ele>117</ele><time>2024-05-31T09:29:15Z</time><name>PT350</name></trkpt>
<trkpt lat="54.505546" lon="-3.174762"><ele>118</ele><time>2024-05-31T09:29:19Z</time><name>PT351</name></trkpt>
<trkpt lat="54.505512" lon="-3.174799"><ele>119</ele><time>2024-05-31T09:29:22Z</time><name>PT352</name></trkpt>
<trkpt lat="54.505474" lon="-3.174843"><ele>119</ele><time>2024-05-31T09:29:26Z</time><name>PT353</name></trkpt>
<trkpt lat="54.505427" lon="-3.174903"><ele>120</ele><time>2024-05-31T09:29:30Z</time><name>PT354</name></trkpt>
<trkpt lat="54.505383" lon="-3.174962"><ele>120</ele><time>2024-05-31T09:29:34Z</time><name>PT355</name></trkpt>
<trkpt lat="54.505340" lon="-3.175021"><ele>120</ele><time>2024-05-31T09:29:38Z</time><name>PT356</name></trkpt>
<trkpt lat="54.505294" lon="-3.175083"><ele>120</ele><time>2024-05-31T09:29:42Z</time><name>PT357</name></trkpt>
<trkpt lat="54.505255" lon="-3.175160"><ele>121</ele><time>2024-05-31T09:29:46Z</time><name>PT358</name></trkpt>
<trkpt lat="54.505211" lon="-3.175229"><ele>121</ele><time>2024-05-31T09:29:50Z</time><name>PT359</name></trkpt>
<trkpt lat="54.505178" lon="-3.175294"><ele>121</ele><time>2024-05-31T09:29:54Z</time><name>PT360</name></trkpt>
<trkpt lat="54.505140" lon="-3.175348"><ele>120</ele><time>2024-05-31T09:29:58Z</time><name>PT361</name></trkpt>
<trkpt lat="54.505101" lon="-3.175407"><ele>120</ele><time>2024-05-31T09:30:02Z</time><name>PT362</name></trkpt>
<trkpt lat="54.505058" lon="-3.175456"><ele>120</ele><time>2024-05-31T09:30:06Z</time><name>PT363</name></trkpt>
<trkpt lat="54.505015" lon="-3.175507"><ele>120</ele><time>2024-05-31T09:30:10Z</time><name>PT364</name></trkpt>
<trkpt lat="54.504976" lon="-3.175543"><ele>118</ele><time>2024-05-31T09:30:14Z</time><name>PT365</name></trkpt>
<trkpt lat="54.504933" lon="-3.175587"><ele>119</ele><time>2024-05-31T09:30:18Z</time><name>PT366</name></trkpt>
<trkpt lat="54.504895" lon="-3.175637"><ele>119</ele><time>2024-05-31T09:30:22Z</time><name>PT367</name></trkpt>
<trkpt lat="54.504851" lon="-3.175680"><ele>119</ele><time>2024-05-31T09:30:26Z</time><name>PT368</name></trkpt>
<trkpt lat="54.504812" lon="-3.175712"><ele>118</ele><time>2024-05-31T09:30:30Z</time><name>PT369</name></trkpt>
<trkpt lat="54.504767" lon="-3.175752"><ele>118</ele><time>2024-05-31T09:30:34Z</time><name>PT370</name></trkpt>
<trkpt lat="54.504729" lon="-3.175786"><ele>117</ele><time>2024-05-31T09:30:38Z</time><name>PT371</name></trkpt>
<trkpt lat="54.504682" lon="-3.175820"><ele>118</ele><time>2024-05-31T09:30:42Z</time><name>PT372</name></trkpt>
<trkpt lat="54.504641" lon="-3.175861"><ele>120</ele><time>2024-05-31T09:30:46Z</time><name>PT373</name></trkpt>
<trkpt lat="54.504631" lon="-3.175869"><ele>121</ele><time>2024-05-31T09:30:50Z</time><name>PT374</name></trkpt>
<trkpt lat="54.504589" lon="-3.175896"><ele>119</ele><time>2024-05-31T09:30:54Z</time><name>PT375</name></trkpt>
<trkpt lat="54.504534" lon="-3.175942"><ele>118</ele><time>2024-05-31T09:30:58Z</time><name>PT376</name></trkpt>
<trkpt lat="54.504487" lon="-3.175976"><ele>117</ele><time>2024-05-31T09:31:02Z</time><name>PT377</name></trkpt>
<trkpt lat="54.504430" lon="-3.176016"><ele>116</ele><time>2024-05-31T09:31:06Z</time><name>PT378</name></trkpt>
<trkpt lat="54.504379" lon="-3.176048"><ele>115</ele><time>2024-05-31T09:31:10Z</time><name>PT379</name></trkpt>
<trkpt lat="54.504332" lon="-3.176106"><ele>115</ele><time>2024-05-31T09:31:14Z</time><name>PT380</name></trkpt>
<trkpt lat="54.504279" lon="-3.176155"><ele>115</ele><time>2024-05-31T09:31:18Z</time><name>PT381</name></trkpt>
<trkpt lat="54.504224" lon="-3.176208"><ele>115</ele><time>2024-05-31T09:31:22Z</time><name>PT382</name></trkpt>
<trkpt lat="54.504178" lon="-3.176266"><ele>115</ele><time>2024-05-31T09:31:26Z</time><name>PT383</name></trkpt>
<trkpt lat="54.504141" lon="-3.176312"><ele>116</ele><time>2024-05-31T09:31:29Z</time><name>PT384</name></trkpt>
<trkpt lat="54.504104" lon="-3.176357"><ele>117</ele><time>2024-05-31T09:31:32Z</time><name>PT385</name></trkpt>
<trkpt lat="54.504058" lon="-3.176420"><ele>117</ele><time>2024-05-31T09:31:36Z</time><name>PT386</name></trkpt>
<trkpt lat="54.504011" lon="-3.176486"><ele>119</ele><time>2024-05-31T09:31:40Z</time><name>PT387</name></trkpt>
<trkpt lat="54.503965" lon="-3.176548"><ele>121</ele><time>2024-05-31T09:31:44Z</time><name>PT388</name></trkpt>
<trkpt lat="54.503934" lon="-3.176588"><ele>121</ele><time>2024-05-31T09:31:47Z</time><name>PT389</name></trkpt>
<trkpt lat="54.503903" lon="-3.176629"><ele>120</ele><time>2024-05-31T09:31:50Z</time><name>PT390</name></trkpt>
<trkpt lat="54.503860" lon="-3.176680"><ele>120</ele><time>2024-05-31T09:31:54Z</time><name>PT391</name></trkpt>
<trkpt lat="54.503824" lon="-3.176722"><ele>121</ele><time>2024-05-31T09:31:57Z</time><name>PT392</name></trkpt>
<trkpt lat="54.503782" lon="-3.176780"><ele>122</ele><time>2024-05-31T09:32:01Z</time><name>PT393</name></trkpt>
<trkpt lat="54.503748" lon="-3.176818"><ele>122</ele><time>2024-05-31T09:32:04Z</time><name>PT394</name></trkpt>
<trkpt lat="54.503703" lon="-3.176873"><ele>123</ele><time>2024-05-31T09:32:08Z</time><name>PT395</name></trkpt>
<trkpt lat="54.503671" lon="-3.176902"><ele>123</ele><time>2024-05-31T09:32:11Z</time><name>PT396</name></trkpt>
<trkpt lat="54.503638" lon="-3.176934"><ele>122</ele><time>2024-05-31T09:32:14Z</time><name>PT397</name></trkpt>
<trkpt lat="54.503591" lon="-3.176964"><ele>122</ele><time>2024-05-31T09:32:18Z</time><name>PT398</name></trkpt>
<trkpt lat="54.503556" lon="-3.176988"><ele>122</ele><time>2024-05-31T09:32:21Z</time><name>PT399</name></trkpt>
<trkpt lat="54.503510" lon="-3.177030"><ele>122</ele><time>2024-05-31T09:32:25Z</time><name>PT400</name></trkpt>
<trkpt lat="54.503473" lon="-3.177048"><ele>122</ele><time>2024-05-31T09:32:28Z</time><name>PT401</name></trkpt>
<trkpt lat="54.503420" lon="-3.177080"><ele>122</ele><time>2024-05-31T09:32:32Z</time><name>PT402</name></trkpt>
<trkpt lat="54.503382" lon="-3.177091"><ele>122</ele><time>2024-05-31T09:32:35Z</time><name>PT403</name></trkpt>
<trkpt lat="54.503348" lon="-3.177113"><ele>123</ele><time>2024-05-31T09:32:38Z</time><name>PT404</name></trkpt>
<trkpt lat="54.503311" lon="-3.177139"><ele>123</ele><time>2024-05-31T09:32:41Z</time><name>PT405</name></trkpt>
<trkpt lat="54.503260" lon="-3.177173"><ele>123</ele><time>2024-05-31T09:32:45Z</time><name>PT406</name></trkpt>
<trkpt lat="54.503221" lon="-3.177202"><ele>123</ele><time>2024-05-31T09:32:48Z</time><name>PT407</name></trkpt>
<trkpt lat="54.503191" lon="-3.177226"><ele>123</ele><time>2024-05-31T09:32:51Z</time><name>PT408</name></trkpt>
<trkpt lat="54.503160" lon="-3.177257"><ele>123</ele><time>2024-05-31T09:32:54Z</time><name>PT409</name></trkpt>
<trkpt lat="54.503117" lon="-3.177303"><ele>123</ele><time>2024-05-31T09:32:58Z</time><name>PT410</name></trkpt>
<trkpt lat="54.503093" lon="-3.177339"><ele>122</ele><time>2024-05-31T09:33:01Z</time><name>PT411</name></trkpt>
<trkpt lat="54.503063" lon="-3.177394"><ele>120</ele><time>2024-05-31T09:33:05Z</time><name>PT412</name></trkpt>
<trkpt lat="54.503027" lon="-3.177465"><ele>121</ele><time>2024-05-31T09:33:09Z</time><name>PT413</name></trkpt>
<trkpt lat="54.503005" lon="-3.177517"><ele>121</ele><time>2024-05-31T09:33:12Z</time><name>PT414</name></trkpt>
<trkpt lat="54.502976" lon="-3.177587"><ele>121</ele><time>2024-05-31T09:33:16Z</time><name>PT415</name></trkpt>
<trkpt lat="54.502943" lon="-3.177662"><ele>120</ele><time>2024-05-31T09:33:20Z</time><name>PT416</name></trkpt>
<trkpt lat="54.502913" lon="-3.177759"><ele>121</ele><time>2024-05-31T09:33:24Z</time><name>PT417</name></trkpt>
<trkpt lat="54.502876" lon="-3.177845"><ele>123</ele><time>2024-05-31T09:33:28Z</time><name>PT418</name></trkpt>
<trkpt lat="54.502854" lon="-3.177898"><ele>123</ele><time>2024-05-31T09:33:31Z</time><name>PT419</name></trkpt>
<trkpt lat="54.502823" lon="-3.177979"><ele>124</ele><time>2024-05-31T09:33:35Z</time><name>PT420</name></trkpt>
<trkpt lat="54.502800" lon="-3.178034"><ele>124</ele><time>2024-05-31T09:33:38Z</time><name>PT421</name></trkpt>
<trkpt lat="54.502780" lon="-3.178088"><ele>124</ele><time>2024-05-31T09:33:41Z</time><name>PT422</name></trkpt>
<trkpt lat="54.502752" lon="-3.178157"><ele>124</ele><time>2024-05-31T09:33:45Z</time><name>PT423</name></trkpt>
<trkpt lat="54.502723" lon="-3.178231"><ele>125</ele><time>2024-05-31T09:33:49Z</time><name>PT424</name></trkpt>
<trkpt lat="54.502701" lon="-3.178279"><ele>125</ele><time>2024-05-31T09:33:52Z</time><name>PT425</name></trkpt>
<trkpt lat="54.502684" lon="-3.178327"><ele>123</ele><time>2024-05-31T09:33:55Z</time><name>PT426</name></trkpt>
<trkpt lat="54.502664" lon="-3.178375"><ele>123</ele><time>2024-05-31T09:33:58Z</time><name>PT427</name></trkpt>
<trkpt lat="54.502638" lon="-3.178423"><ele>123</ele><time>2024-05-31T09:34:01Z</time><name>PT428</name></trkpt>
<trkpt lat="54.502609" lon="-3.178490"><ele>123</ele><time>2024-05-31T09:34:05Z</time><name>PT429</name></trkpt>
<trkpt lat="54.502580" lon="-3.178556"><ele>123</ele><time>2024-05-31T09:34:09Z</time><name>PT430</name></trkpt>
<trkpt lat="54.502548" lon="-3.178623"><ele>123</ele><time>2024-05-31T09:34:13Z</time><name>PT431</name></trkpt>
<trkpt lat="54.502526" lon="-3.178679"><ele>124</ele><time>2024-05-31T09:34:16Z</time><name>PT432</name></trkpt>
<trkpt lat="54.502506" lon="-3.178726"><ele>123</ele><time>2024-05-31T09:34:19Z</time><name>PT433</name></trkpt>
<trkpt lat="54.502478" lon="-3.178797"><ele>123</ele><time>2024-05-31T09:34:23Z</time><name>PT434</name></trkpt>
<trkpt lat="54.502456" lon="-3.178855"><ele>123</ele><time>2024-05-31T09:34:26Z</time><name>PT435</name></trkpt>
<trkpt lat="54.502435" lon="-3.178908"><ele>123</ele><time>2024-05-31T09:34:29Z</time><name>PT436</name></trkpt>
<trkpt lat="54.502410" lon="-3.178970"><ele>123</ele><time>2024-05-31T09:34:33Z</time><name>PT437</name></trkpt>
<trkpt lat="54.502391" lon="-3.179016"><ele>122</ele><time>2024-05-31T09:34:36Z</time><name>PT438</name></trkpt>
<trkpt lat="54.502364" lon="-3.179092"><ele>122</ele><time>2024-05-31T09:34:40Z</time><name>PT439</name></trkpt>
<trkpt lat="54.502341" lon="-3.179144"><ele>122</ele><time>2024-05-31T09:34:43Z</time><name>PT440</name></trkpt>
<trkpt lat="54.502317" lon="-3.179202"><ele>123</ele><time>2024-05-31T09:34:46Z</time><name>PT441</name></trkpt>
<trkpt lat="54.502295" lon="-3.179251"><ele>123</ele><time>2024-05-31T09:34:49Z</time><name>PT442</name></trkpt>
<trkpt lat="54.502255" lon="-3.179304"><ele>123</ele><time>2024-05-31T09:34:53Z</time><name>PT443</name></trkpt>
<trkpt lat="54.502226" lon="-3.179338"><ele>123</ele><time>2024-05-31T09:34:56Z</time><name>PT444</name></trkpt>
<trkpt lat="54.502192" lon="-3.179358"><ele>123</ele><time>2024-05-31T09:34:59Z</time><name>PT445</name></trkpt>
<trkpt lat="54.502140" lon="-3.179400"><ele>124</ele><time>2024-05-31T09:35:03Z</time><name>PT446</name></trkpt>
<trkpt lat="54.502094" lon="-3.179439"><ele>126</ele><time>2024-05-31T09:35:06Z</time><name>PT447</name></trkpt>
<trkpt lat="54.502055" lon="-3.179451"><ele>125</ele><time>2024-05-31T09:35:09Z</time><name>PT448</name></trkpt>
<trkpt lat="54.502021" lon="-3.179458"><ele>125</ele><time>2024-05-31T09:35:12Z</time><name>PT449</name></trkpt>
<trkpt lat="54.501992" lon="-3.179474"><ele>125</ele><time>2024-05-31T09:35:15Z</time><name>PT450</name></trkpt>
<trkpt lat="54.501947" lon="-3.179512"><ele>124</ele><time>2024-05-31T09:35:19Z</time><name>PT451</name></trkpt>
<trkpt lat="54.501900" lon="-3.179556"><ele>124</ele><time>2024-05-31T09:35:23Z</time><name>PT452</name></trkpt>
<trkpt lat="54.501863" lon="-3.179602"><ele>123</ele><time>2024-05-31T09:35:27Z</time><name>PT453</name></trkpt>
<trkpt lat="54.501827" lon="-3.179659"><ele>123</ele><time>2024-05-31T09:35:31Z</time><name>PT454</name></trkpt>
<trkpt lat="54.501810" lon="-3.179708"><ele>122</ele><time>2024-05-31T09:35:34Z</time><name>PT455</name></trkpt>
<trkpt lat="54.501790" lon="-3.179740"><ele>120</ele><time>2024-05-31T09:35:37Z</time><name>PT456</name></trkpt>
<trkpt lat="54.501779" lon="-3.179778"><ele>118</ele><time>2024-05-31T09:35:40Z</time><name>PT457</name></trkpt>
<trkpt lat="54.501759" lon="-3.179830"><ele>119</ele><time>2024-05-31T09:35:43Z</time><name>PT458</name></trkpt>
<trkpt lat="54.501748" lon="-3.179867"><ele>116</ele><time>2024-05-31T09:35:46Z</time><name>PT459</name></trkpt>
<trkpt lat="54.501739" lon="-3.179910"><ele>114</ele><time>2024-05-31T09:35:49Z</time><name>PT460</name></trkpt>
<trkpt lat="54.501712" lon="-3.179970"><ele>115</ele><time>2024-05-31T09:35:52Z</time><name>PT461</name></trkpt>
<trkpt lat="54.501690" lon="-3.180054"><ele>116</ele><time>2024-05-31T09:35:56Z</time><name>PT462</name></trkpt>
<trkpt lat="54.501672" lon="-3.180110"><ele>115</ele><time>2024-05-31T09:35:59Z</time><name>PT463</name></trkpt>
<trkpt lat="54.501654" lon="-3.180171"><ele>116</ele><time>2024-05-31T09:36:02Z</time><name>PT464</name></trkpt>
<trkpt lat="54.501638" lon="-3.180228"><ele>116</ele><time>2024-05-31T09:36:05Z</time><name>PT465</name></trkpt>
<trkpt lat="54.501625" lon="-3.180293"><ele>119</ele><time>2024-05-31T09:36:08Z</time><name>PT466</name></trkpt>
<trkpt lat="54.501599" lon="-3.180371"><ele>120</ele><time>2024-05-31T09:36:12Z</time><name>PT467</name></trkpt>
<trkpt lat="54.501585" lon="-3.180427"><ele>120</ele><time>2024-05-31T09:36:15Z</time><name>PT468</name></trkpt>
<trkpt lat="54.501564" lon="-3.180494"><ele>122</ele><time>2024-05-31T09:36:18Z</time><name>PT469</name></trkpt>
<trkpt lat="54.501538" lon="-3.180564"><ele>122</ele><time>2024-05-31T09:36:22Z</time><name>PT470</name></trkpt>
<trkpt lat="54.501516" lon="-3.180628"><ele>120</ele><time>2024-05-31T09:36:26Z</time><name>PT471</name></trkpt>
<trkpt lat="54.501477" lon="-3.180683"><ele>122</ele><time>2024-05-31T09:36:29Z</time><name>PT472</name></trkpt>
<trkpt lat="54.501456" lon="-3.180747"><ele>122</ele><time>2024-05-31T09:36:32Z</time><name>PT473</name></trkpt>
<trkpt lat="54.501423" lon="-3.180802"><ele>122</ele><time>2024-05-31T09:36:36Z</time><name>PT474</name></trkpt>
<trkpt lat="54.501397" lon="-3.180836"><ele>120</ele><time>2024-05-31T09:36:40Z</time><name>PT475</name></trkpt>
<trkpt lat="54.501371" lon="-3.180863"><ele>118</ele><time>2024-05-31T09:36:43Z</time><name>PT476</name></trkpt>
<trkpt lat="54.501345" lon="-3.180910"><ele>116</ele><time>2024-05-31T09:36:47Z</time><name>PT477</name></trkpt>
<trkpt lat="54.501310" lon="-3.180961"><ele>115</ele><time>2024-05-31T09:36:51Z</time><name>PT478</name></trkpt>
<trkpt lat="54.501273" lon="-3.180992"><ele>113</ele><time>2024-05-31T09:36:55Z</time><name>PT479</name></trkpt>
<trkpt lat="54.501239" lon="-3.181026"><ele>114</ele><time>2024-05-31T09:36:58Z</time><name>PT480</name></trkpt>
<trkpt lat="54.501186" lon="-3.181110"><ele>118</ele><time>2024-05-31T09:37:02Z</time><name>PT481</name></trkpt>
<trkpt lat="54.501131" lon="-3.181180"><ele>121</ele><time>2024-05-31T09:37:06Z</time><name>PT482</name></trkpt>
<trkpt lat="54.501097" lon="-3.181233"><ele>122</ele><time>2024-05-31T09:37:09Z</time><name>PT483</name></trkpt>
<trkpt lat="54.501070" lon="-3.181274"><ele>121</ele><time>2024-05-31T09:37:12Z</time><name>PT484</name></trkpt>
<trkpt lat="54.501040" lon="-3.181320"><ele>121</ele><time>2024-05-31T09:37:15Z</time><name>PT485</name></trkpt>
<trkpt lat="54.501012" lon="-3.181353"><ele>122</ele><time>2024-05-31T09:37:18Z</time><name>PT486</name></trkpt>
<trkpt lat="54.500983" lon="-3.181384"><ele>122</ele><time>2024-05-31T09:37:21Z</time><name>PT487</name></trkpt>
<trkpt lat="54.500951" lon="-3.181417"><ele>121</ele><time>2024-05-31T09:37:25Z</time><name>PT488</name></trkpt>
<trkpt lat="54.500923" lon="-3.181447"><ele>121</ele><time>2024-05-31T09:37:28Z</time><name>PT489</name></trkpt>
<trkpt lat="54.500884" lon="-3.181482"><ele>118</ele><time>2024-05-31T09:37:32Z</time><name>PT490</name></trkpt>
<trkpt lat="54.500856" lon="-3.181514"><ele>118</ele><time>2024-05-31T09:37:35Z</time><name>PT491</name></trkpt>
<trkpt lat="54.500798" lon="-3.181590"><ele>122</ele><time>2024-05-31T09:37:39Z</time><name>PT492</name></trkpt>
<trkpt lat="54.500750" lon="-3.181644"><ele>124</ele><time>2024-05-31T09:37:43Z</time><name>PT493</name></trkpt>
<trkpt lat="54.500713" lon="-3.181669"><ele>124</ele><time>2024-05-31T09:37:46Z</time><name>PT494</name></trkpt>
<trkpt lat="54.500665" lon="-3.181719"><ele>124</ele><time>2024-05-31T09:37:50Z</time><name>PT495</name></trkpt>
<trkpt lat="54.500620" lon="-3.181748"><ele>125</ele><time>2024-05-31T09:37:54Z</time><name>PT496</name></trkpt>
<trkpt lat="54.500572" lon="-3.181773"><ele>125</ele><time>2024-05-31T09:37:58Z</time><name>PT497</name></trkpt>
<trkpt lat="54.500530" lon="-3.181795"><ele>125</ele><time>2024-05-31T09:38:01Z</time><name>PT498</name></trkpt>
<trkpt lat="54.500496" lon="-3.181807"><ele>124</ele><time>2024-05-31T09:38:04Z</time><name>PT499</name></trkpt>
<trkpt lat="54.500458" lon="-3.181804"><ele>124</ele><time>2024-05-31T09:38:07Z</time><name>PT500</name></trkpt>
<trkpt lat="54.500407" lon="-3.181810"><ele>123</ele><time>2024-05-31T09:38:11Z</time><name>PT501</name></trkpt>
<trkpt lat="54.500372" lon="-3.181808"><ele>123</ele><time>2024-05-31T09:38:14Z</time><name>PT502</name></trkpt>
<trkpt lat="54.500339" lon="-3.181809"><ele>122</ele><time>2024-05-31T09:38:17Z</time><name>PT503</name></trkpt>
<trkpt lat="54.500303" lon="-3.181818"><ele>122</ele><time>2024-05-31T09:38:20Z</time><name>PT504</name></trkpt>
<trkpt lat="54.500247" lon="-3.181828"><ele>122</ele><time>2024-05-31T09:38:24Z</time><name>PT505</name></trkpt>
<trkpt lat="54.500217" lon="-3.181821"><ele>121</ele><time>2024-05-31T09:38:27Z</time><name>PT506</name></trkpt>
<trkpt lat="54.500174" lon="-3.181837"><ele>122</ele><time>2024-05-31T09:38:30Z</time><name>PT507</name></trkpt>
<trkpt lat="54.500117" lon="-3.181859"><ele>125</ele><time>2024-05-31T09:38:34Z</time><name>PT508</name></trkpt>
<trkpt lat="54.500080" lon="-3.181862"><ele>125</ele><time>2024-05-31T09:38:37Z</time><name>PT509</name></trkpt>
<trkpt lat="54.500033" lon="-3.181876"><ele>126</ele><time>2024-05-31T09:38:41Z</time><name>PT510</name></trkpt>
<trkpt lat="54.499988" lon="-3.181885"><ele>125</ele><time>2024-05-31T09:38:45Z</time><name>PT511</name></trkpt>
<trkpt lat="54.499947" lon="-3.181895"><ele>123</ele><time>2024-05-31T09:38:49Z</time><name>PT512</name></trkpt>
<trkpt lat="54.499916" lon="-3.181904"><ele>123</ele><time>2024-05-31T09:38:52Z</time><name>PT513</name></trkpt>
<trkpt lat="54.499884" lon="-3.181922"><ele>123</ele><time>2024-05-31T09:38:55Z</time><name>PT514</name></trkpt>
<trkpt lat="54.499858" lon="-3.181940"><ele>120</ele><time>2024-05-31T09:38:58Z</time><name>PT515</name></trkpt>
<trkpt lat="54.499824" lon="-3.181958"><ele>121</ele><time>2024-05-31T09:39:01Z</time><name>PT516</name></trkpt>
<trkpt lat="54.499781" lon="-3.181995"><ele>121</ele><time>2024-05-31T09:39:05Z</time><name>PT517</name></trkpt>
<trkpt lat="54.499736" lon="-3.182018"><ele>120</ele><time>2024-05-31T09:39:09Z</time><name>PT518</name></trkpt>
<trkpt lat="54.499676" lon="-3.182044"><ele>124</ele><time>2024-05-31T09:39:13Z</time><name>PT519</name></trkpt>
<trkpt lat="54.499621" lon="-3.182062"><ele>126</ele><time>2024-05-31T09:39:17Z</time><name>PT520</name></trkpt>
<trkpt lat="54.499546" lon="-3.182091"><ele>130</ele><time>2024-05-31T09:39:21Z</time><name>PT521</name></trkpt>
<trkpt lat="54.499511" lon="-3.182105"><ele>130</ele><time>2024-05-31T09:39:24Z</time><name>PT522</name></trkpt>
<trkpt lat="54.499477" lon="-3.182113"><ele>129</ele><time>2024-05-31T09:39:28Z</time><name>PT523</name></trkpt>
<trkpt lat="54.499445" lon="-3.182116"><ele>128</ele><time>2024-05-31T09:39:31Z</time><name>PT524</name></trkpt>
<trkpt lat="54.499399" lon="-3.182149"><ele>129</ele><time>2024-05-31T09:39:35Z</time><name>PT525</name></trkpt>
<trkpt lat="54.499356" lon="-3.182163"><ele>130</ele><time>2024-05-31T09:39:38Z</time><name>PT526</name></trkpt>
<trkpt lat="54.499317" lon="-3.182174"><ele>130</ele><time>2024-05-31T09:39:41Z</time><name>PT527</name></trkpt>
<trkpt lat="54.499295" lon="-3.182192"><ele>130</ele><time>2024-05-31T09:39:44Z</time><name>PT528</name></trkpt>
<trkpt lat="54.499246" lon="-3.182153"><ele>131</ele><time>2024-05-31T09:39:48Z</time><name>PT529</name></trkpt>
<trkpt lat="54.499214" lon="-3.182103"><ele>132</ele><time>2024-05-31T09:39:52Z</time><name>PT530</name></trkpt>
<trkpt lat="54.499195" lon="-3.182068"><ele>131</ele><time>2024-05-31T09:39:55Z</time><name>PT531</name></trkpt>
<trkpt lat="54.499196" lon="-3.182066"><ele>129</ele><time>2024-05-31T09:39:58Z</time><name>PT532</name></trkpt>
<trkpt lat="54.499182" lon="-3.182047"><ele>130</ele><time>2024-05-31T09:40:05Z</time><name>PT533</name></trkpt>
<trkpt lat="54.499178" lon="-3.182049"><ele>131</ele><time>2024-05-31T09:40:09Z</time><name>PT534</name></trkpt>
<trkpt lat="54.499174" lon="-3.182036"><ele>131</ele><time>2024-05-31T09:40:19Z</time><name>PT535</name></trkpt>
<trkpt lat="54.499175" lon="-3.182036"><ele>131</ele><time>2024-05-31T09:40:22Z</time><name>PT536</name></trkpt>
<trkpt lat="54.499173" lon="-3.182042"><ele>131</ele><time>2024-05-31T09:40:26Z</time><name>PT537</name></trkpt>
<trkpt lat="54.499170" lon="-3.182030"><ele>130</ele><time>2024-05-31T09:40:29Z</time><name>PT538</name></trkpt>
<trkpt lat="54.499167" lon="-3.182033"><ele>130</ele><time>2024-05-31T09:40:42Z</time><name>PT539</name></trkpt>
<trkpt lat="54.499164" lon="-3.182041"><ele>130</ele><time>2024-05-31T09:40:45Z</time><name>PT540</name></trkpt>
<trkpt lat="54.499139" lon="-3.182042"><ele>130</ele><time>2024-05-31T09:41:40Z</time><name>PT541</name></trkpt>
<trkpt lat="54.499125" lon="-3.182035"><ele>128</ele><time>2024-05-31T09:41:56Z</time><name>PT542</name></trkpt>
<trkpt lat="54.499103" lon="-3.181987"><ele>128</ele><time>2024-05-31T09:42:00Z</time><name>PT543</name></trkpt>
<trkpt lat="54.499071" lon="-3.181962"><ele>129</ele><time>2024-05-31T09:42:04Z</time><name>PT544</name></trkpt>
<trkpt lat="54.499038" lon="-3.181937"><ele>128</ele><time>2024-05-31T09:42:07Z</time><name>PT545</name></trkpt>
<trkpt lat="54.499002" lon="-3.181916"><ele>129</ele><time>2024-05-31T09:42:11Z</time><name>PT546</name></trkpt>
<trkpt lat="54.498966" lon="-3.181901"><ele>128</ele><time>2024-05-31T09:42:14Z</time><name>PT547</name></trkpt>
<trkpt lat="54.498922" lon="-3.181901"><ele>127</ele><time>2024-05-31T09:42:18Z</time><name>PT548</name></trkpt>
<trkpt lat="54.498894" lon="-3.181933"><ele>127</ele><time>2024-05-31T09:42:21Z</time><name>PT549</name></trkpt>
<trkpt lat="54.498850" lon="-3.181969"><ele>128</ele><time>2024-05-31T09:42:25Z</time><name>PT550</name></trkpt>
<trkpt lat="54.498817" lon="-3.182016"><ele>129</ele><time>2024-05-31T09:42:28Z</time><name>PT551</name></trkpt>
<trkpt lat="54.498792" lon="-3.182050"><ele>128</ele><time>2024-05-31T09:42:31Z</time><name>PT552</name></trkpt>
<trkpt lat="54.498758" lon="-3.182106"><ele>127</ele><time>2024-05-31T09:42:35Z</time><name>PT553</name></trkpt>
<trkpt lat="54.498726" lon="-3.182156"><ele>126</ele><time>2024-05-31T09:42:39Z</time><name>PT554</name></trkpt>
<trkpt lat="54.498690" lon="-3.182200"><ele>126</ele><time>2024-05-31T09:42:42Z</time><name>PT555</name></trkpt>
<trkpt lat="54.498658" lon="-3.182247"><ele>128</ele><time>2024-05-31T09:42:46Z</time><name>PT556</name></trkpt>
<trkpt lat="54.498629" lon="-3.182276"><ele>128</ele><time>2024-05-31T09:42:49Z</time><name>PT557</name></trkpt>
<trkpt lat="54.498605" lon="-3.182315"><ele>129</ele><time>2024-05-31T09:42:52Z</time><name>PT558</name></trkpt>
<trkpt lat="54.498579" lon="-3.182364"><ele>133</ele><time>2024-05-31T09:42:56Z</time><name>PT559</name></trkpt>
<trkpt lat="54.498581" lon="-3.182356"><ele>133</ele><time>2024-05-31T09:43:00Z</time><name>PT560</name></trkpt>
<trkpt lat="54.498609" lon="-3.182342"><ele>133</ele><time>2024-05-31T09:43:04Z</time><name>PT561</name></trkpt>
<trkpt lat="54.498641" lon="-3.182323"><ele>135</ele><time>2024-05-31T09:43:08Z</time><name>PT562</name></trkpt>
<trkpt lat="54.498663" lon="-3.182323"><ele>134</ele><time>2024-05-31T09:43:12Z</time><name>PT563</name></trkpt>
<trkpt lat="54.498670" lon="-3.182325"><ele>130</ele><time>2024-05-31T09:43:16Z</time><name>PT564</name></trkpt>
<trkpt lat="54.498682" lon="-3.182327"><ele>129</ele><time>2024-05-31T09:43:19Z</time><name>PT565</name></trkpt>
<trkpt lat="54.498693" lon="-3.182317"><ele>129</ele><time>2024-05-31T09:43:22Z</time><name>PT566</name></trkpt>
<trkpt lat="54.498716" lon="-3.182341"><ele>132</ele><time>2024-05-31T09:43:26Z</time><name>PT567</name></trkpt>
<trkpt lat="54.498720" lon="-3.182344"><ele>131</ele><time>2024-05-31T09:43:30Z</time><name>PT568</name></trkpt>
<trkpt lat="54.498723" lon="-3.182351"><ele>131</ele><time>2024-05-31T09:43:33Z</time><name>PT569</name></trkpt>
<trkpt lat="54.498723" lon="-3.182354"><ele>131</ele><time>2024-05-31T09:43:36Z</time><name>PT570</name></trkpt>
<trkpt lat="54.498731" lon="-3.182370"><ele>130</ele><time>2024-05-31T09:44:30Z</time><name>PT571</name></trkpt>
<trkpt lat="54.498744" lon="-3.182382"><ele>130</ele><time>2024-05-31T09:44:33Z</time><name>PT572</name></trkpt>
<trkpt lat="54.498743" lon="-3.182385"><ele>130</ele><time>2024-05-31T09:44:36Z</time><name>PT573</name></trkpt>
<trkpt lat="54.498741" lon="-3.182379"><ele>131</ele><time>2024-05-31T09:45:08Z</time><name>PT574</name></trkpt>
<trkpt lat="54.498730" lon="-3.182361"><ele>132</ele><time>2024-05-31T09:45:11Z</time><name>PT575</name></trkpt>
<trkpt lat="54.498735" lon="-3.182342"><ele>132</ele><time>2024-05-31T09:45:15Z</time><name>PT576</name></trkpt>
<trkpt lat="54.498742" lon="-3.182337"><ele>132</ele><time>2024-05-31T09:45:19Z</time><name>PT577</name></trkpt>
<trkpt lat="54.498734" lon="-3.182370"><ele>132</ele><time>2024-05-31T09:46:13Z</time><name>PT578</name></trkpt>
<trkpt lat="54.498745" lon="-3.182381"><ele>131</ele><time>2024-05-31T09:46:26Z</time><name>PT579</name></trkpt>
<trkpt lat="54.498803" lon="-3.182373"><ele>130</ele><time>2024-05-31T09:46:30Z</time><name>PT580</name></trkpt>
<trkpt lat="54.498831" lon="-3.182349"><ele>128</ele><time>2024-05-31T09:46:33Z</time><name>PT581</name></trkpt>
<trkpt lat="54.498844" lon="-3.182345"><ele>126</ele><time>2024-05-31T09:46:36Z</time><name>PT582</name></trkpt>
<trkpt lat="54.498864" lon="-3.182362"><ele>124</ele><time>2024-05-31T09:46:39Z</time><name>PT583</name></trkpt>
<trkpt lat="54.498866" lon="-3.182381"><ele>124</ele><time>2024-05-31T09:46:42Z</time><name>PT584</name></trkpt>
<trkpt lat="54.498904" lon="-3.182396"><ele>125</ele><time>2024-05-31T09:46:46Z</time><name>PT585</name></trkpt>
<trkpt lat="54.498934" lon="-3.182451"><ele>125</ele><time>2024-05-31T09:46:49Z</time><name>PT586</name></trkpt>
<trkpt lat="54.498972" lon="-3.182506"><ele>123</ele><time>2024-05-31T09:46:53Z</time><name>PT587</name></trkpt>
<trkpt lat="54.499004" lon="-3.182546"><ele>119</ele><time>2024-05-31T09:46:56Z</time><name>PT588</name></trkpt>
<trkpt lat="54.499048" lon="-3.182605"><ele>116</ele><time>2024-05-31T09:47:00Z</time><name>PT589</name></trkpt>
<trkpt lat="54.499060" lon="-3.182653"><ele>115</ele><time>2024-05-31T09:47:03Z</time><name>PT590</name></trkpt>
<trkpt lat="54.499056" lon="-3.182715"><ele>119</ele><time>2024-05-31T09:47:06Z</time><name>PT591</name></trkpt>
<trkpt lat="54.499065" lon="-3.182785"><ele>124</ele><time>2024-05-31T09:47:10Z</time><name>PT592</name></trkpt>
<trkpt lat="54.499081" lon="-3.182841"><ele>124</ele><time>2024-05-31T09:47:13Z</time><name>PT593</name></trkpt>
<trkpt lat="54.499104" lon="-3.182903"><ele>125</ele><time>2024-05-31T09:47:17Z</time><name>PT594</name></trkpt>
<trkpt lat="54.499118" lon="-3.182951"><ele>123</ele><time>2024-05-31T09:47:20Z</time><name>PT595</name></trkpt>
<trkpt lat="54.499127" lon="-3.183003"><ele>124</ele><time>2024-05-31T09:47:23Z</time><name>PT596</name></trkpt>
<trkpt lat="54.499148" lon="-3.183082"><ele>126</ele><time>2024-05-31T09:47:27Z</time><name>PT597</name></trkpt>
<trkpt lat="54.499165" lon="-3.183136"><ele>127</ele><time>2024-05-31T09:47:31Z</time><name>PT598</name></trkpt>
<trkpt lat="54.499183" lon="-3.183207"><ele>127</ele><time>2024-05-31T09:47:35Z</time><name>PT599</name></trkpt>
<trkpt lat="54.499202" lon="-3.183261"><ele>127</ele><time>2024-05-31T09:47:38Z</time><name>PT600</name></trkpt>
<trkpt lat="54.499211" lon="-3.183308"><ele>126</ele><time>2024-05-31T09:47:41Z</time><name>PT601</name></trkpt>
<trkpt lat="54.499222" lon="-3.183379"><ele>126</ele><time>2024-05-31T09:47:45Z</time><name>PT602</name></trkpt>
<trkpt lat="54.499243" lon="-3.183436"><ele>124</ele><time>2024-05-31T09:47:49Z</time><name>PT603</name></trkpt>
<trkpt lat="54.499259" lon="-3.183487"><ele>122</ele><time>2024-05-31T09:47:52Z</time><name>PT604</name></trkpt>
<trkpt lat="54.499279" lon="-3.183567"><ele>124</ele><time>2024-05-31T09:47:56Z</time><name>PT605</name></trkpt>
<trkpt lat="54.499296" lon="-3.183627"><ele>125</ele><time>2024-05-31T09:47:59Z</time><name>PT606</name></trkpt>
<trkpt lat="54.499306" lon="-3.183688"><ele>126</ele><time>2024-05-31T09:48:02Z</time><name>PT607</name></trkpt>
<trkpt lat="54.499317" lon="-3.183785"><ele>126</ele><time>2024-05-31T09:48:06Z</time><name>PT608</name></trkpt>
<trkpt lat="54.499322" lon="-3.183851"><ele>127</ele><time>2024-05-31T09:48:09Z</time><name>PT609</name></trkpt>
<trkpt lat="54.499331" lon="-3.183910"><ele>127</ele><time>2024-05-31T09:48:12Z</time><name>PT610</name></trkpt>
<trkpt lat="54.499341" lon="-3.183994"><ele>127</ele><time>2024-05-31T09:48:16Z</time><name>PT611</name></trkpt>
<trkpt lat="54.499342" lon="-3.184080"><ele>126</ele><time>2024-05-31T09:48:20Z</time><name>PT612</name></trkpt>
<trkpt lat="54.499339" lon="-3.184155"><ele>127</ele><time>2024-05-31T09:48:24Z</time><name>PT613</name></trkpt>
<trkpt lat="54.499337" lon="-3.184228"><ele>128</ele><time>2024-05-31T09:48:28Z</time><name>PT614</name></trkpt>
<trkpt lat="54.499340" lon="-3.184289"><ele>125</ele><time>2024-05-31T09:48:32Z</time><name>PT615</name></trkpt>
<trkpt lat="54.499341" lon="-3.184353"><ele>123</ele><time>2024-05-31T09:48:36Z</time><name>PT616</name></trkpt>
<trkpt lat="54.499345" lon="-3.184401"><ele>121</ele><time>2024-05-31T09:48:39Z</time><name>PT617</name></trkpt>
<trkpt lat="54.499351" lon="-3.184469"><ele>117</ele><time>2024-05-31T09:48:43Z</time><name>PT618</name></trkpt>
<trkpt lat="54.499346" lon="-3.184523"><ele>115</ele><time>2024-05-31T09:48:46Z</time><name>PT619</name></trkpt>
<trkpt lat="54.499347" lon="-3.184580"><ele>113</ele><time>2024-05-31T09:48:50Z</time><name>PT620</name></trkpt>
<trkpt lat="54.499344" lon="-3.184606"><ele>111</ele><time>2024-05-31T09:48:53Z</time><name>PT621</name></trkpt>
<trkpt lat="54.499327" lon="-3.184644"><ele>113</ele><time>2024-05-31T09:48:56Z</time><name>PT622</name></trkpt>
<trkpt lat="54.499309" lon="-3.184728"><ele>120</ele><time>2024-05-31T09:49:00Z</time><name>PT623</name></trkpt>
<trkpt lat="54.499304" lon="-3.184813"><ele>127</ele><time>2024-05-31T09:49:03Z</time><name>PT624</name></trkpt>
<trkpt lat="54.499313" lon="-3.184867"><ele>128</ele><time>2024-05-31T09:49:06Z</time><name>PT625</name></trkpt>
<trkpt lat="54.499325" lon="-3.184936"><ele>129</ele><time>2024-05-31T09:49:10Z</time><name>PT626</name></trkpt>
<trkpt lat="54.499330" lon="-3.184978"><ele>128</ele><time>2024-05-31T09:49:14Z</time><name>PT627</name></trkpt>
<trkpt lat="54.499327" lon="-3.185011"><ele>128</ele><time>2024-05-31T09:49:17Z</time><name>PT628</name></trkpt>
<trkpt lat="54.499333" lon="-3.185051"><ele>129</ele><time>2024-05-31T09:49:20Z</time><name>PT629</name></trkpt>
<trkpt lat="54.499335" lon="-3.185103"><ele>129</ele><time>2024-05-31T09:49:23Z</time><name>PT630</name></trkpt>
<trkpt lat="54.499332" lon="-3.185119"><ele>131</ele><time>2024-05-31T09:49:27Z</time><name>PT631</name></trkpt>
<trkpt lat="54.499328" lon="-3.185122"><ele>132</ele><time>2024-05-31T09:49:31Z</time><name>PT632</name></trkpt>
<trkpt lat="54.499323" lon="-3.185150"><ele>132</ele><time>2024-05-31T09:49:37Z</time><name>PT633</name></trkpt>
<trkpt lat="54.499304" lon="-3.185211"><ele>132</ele><time>2024-05-31T09:49:41Z</time><name>PT634</name></trkpt>
<trkpt lat="54.499288" lon="-3.185251"><ele>133</ele><time>2024-05-31T09:49:44Z</time><name>PT635</name></trkpt>
<trkpt lat="54.499270" lon="-3.185317"><ele>132</ele><time>2024-05-31T09:49:48Z</time><name>PT636</name></trkpt>
<trkpt lat="54.499260" lon="-3.185367"><ele>132</ele><time>2024-05-31T09:49:51Z</time><name>PT637</name></trkpt>
<trkpt lat="54.499251" lon="-3.185410"><ele>131</ele><time>2024-05-31T09:49:55Z</time><name>PT638</name></trkpt>
<trkpt lat="54.499247" lon="-3.185451"><ele>132</ele><time>2024-05-31T09:49:58Z</time><name>PT639</name></trkpt>
<trkpt lat="54.499245" lon="-3.185493"><ele>133</ele><time>2024-05-31T09:50:02Z</time><name>PT640</name></trkpt>
<trkpt lat="54.499246" lon="-3.185534"><ele>134</ele><time>2024-05-31T09:50:06Z</time><name>PT641</name></trkpt>
<trkpt lat="54.499254" lon="-3.185584"><ele>134</ele><time>2024-05-31T09:50:10Z</time><name>PT642</name></trkpt>
<trkpt lat="54.499258" lon="-3.185631"><ele>134</ele><time>2024-05-31T09:50:14Z</time><name>PT643</name></trkpt>
<trkpt lat="54.499257" lon="-3.185661"><ele>134</ele><time>2024-05-31T09:50:17Z</time><name>PT644</name></trkpt>
<trkpt lat="54.499254" lon="-3.185695"><ele>134</ele><time>2024-05-31T09:50:20Z</time><name>PT645</name></trkpt>
<trkpt lat="54.499260" lon="-3.185720"><ele>134</ele><time>2024-05-31T09:50:23Z</time><name>PT646</name></trkpt>
<trkpt lat="54.499266" lon="-3.185764"><ele>136</ele><time>2024-05-31T09:50:27Z</time><name>PT647</name></trkpt>
<trkpt lat="54.499271" lon="-3.185792"><ele>136</ele><time>2024-05-31T09:50:30Z</time><name>PT648</name></trkpt>
<trkpt lat="54.499272" lon="-3.185827"><ele>138</ele><time>2024-05-31T09:50:34Z</time><name>PT649</name></trkpt>
<trkpt lat="54.499279" lon="-3.185847"><ele>139</ele><time>2024-05-31T09:50:37Z</time><name>PT650</name></trkpt>
<trkpt lat="54.499287" lon="-3.185886"><ele>138</ele><time>2024-05-31T09:50:41Z</time><name>PT651</name></trkpt>
<trkpt lat="54.499295" lon="-3.185913"><ele>138</ele><time>2024-05-31T09:50:44Z</time><name>PT652</name></trkpt>
<trkpt lat="54.499302" lon="-3.185945"><ele>138</ele><time>2024-05-31T09:50:47Z</time><name>PT653</name></trkpt>
<trkpt lat="54.499307" lon="-3.185981"><ele>139</ele><time>2024-05-31T09:50:51Z</time><name>PT654</name></trkpt>
<trkpt lat="54.499311" lon="-3.185999"><ele>140</ele><time>2024-05-31T09:50:54Z</time><name>PT655</name></trkpt>
<trkpt lat="54.499314" lon="-3.186013"><ele>139</ele><time>2024-05-31T09:50:57Z</time><name>PT656</name></trkpt>
<trkpt lat="54.499312" lon="-3.186026"><ele>139</ele><time>2024-05-31T09:51:00Z</time><name>PT657</name></trkpt>
<trkpt lat="54.499315" lon="-3.186046"><ele>140</ele><time>2024-05-31T09:51:04Z</time><name>PT658</name></trkpt>
<trkpt lat="54.499316" lon="-3.186055"><ele>140</ele><time>2024-05-31T09:51:08Z</time><name>PT659</name></trkpt>
<trkpt lat="54.499306" lon="-3.186095"><ele>140</ele><time>2024-05-31T09:51:15Z</time><name>PT660</name></trkpt>
<trkpt lat="54.499298" lon="-3.186123"><ele>140</ele><time>2024-05-31T09:51:18Z</time><name>PT661</name></trkpt>
<trkpt lat="54.499280" lon="-3.186158"><ele>141</ele><time>2024-05-31T09:51:22Z</time><name>PT662</name></trkpt>
<trkpt lat="54.499284" lon="-3.186193"><ele>141</ele><time>2024-05-31T09:51:25Z</time><name>PT663</name></trkpt>
<trkpt lat="54.499293" lon="-3.186234"><ele>142</ele><time>2024-05-31T09:51:29Z</time><name>PT664</name></trkpt>
<trkpt lat="54.499294" lon="-3.186242"><ele>142</ele><time>2024-05-31T09:51:33Z</time><name>PT665</name></trkpt>
<trkpt lat="54.499293" lon="-3.186328"><ele>144</ele><time>2024-05-31T09:51:49Z</time><name>PT666</name></trkpt>
<trkpt lat="54.499299" lon="-3.186376"><ele>146</ele><time>2024-05-31T09:51:52Z</time><name>PT667</name></trkpt>
<trkpt lat="54.499298" lon="-3.186409"><ele>145</ele><time>2024-05-31T09:51:56Z</time><name>PT668</name></trkpt>
<trkpt lat="54.499289" lon="-3.186462"><ele>145</ele><time>2024-05-31T09:52:00Z</time><name>PT669</name></trkpt>
<trkpt lat="54.499274" lon="-3.186487"><ele>144</ele><time>2024-05-31T09:52:03Z</time><name>PT670</name></trkpt>
<trkpt lat="54.499254" lon="-3.186522"><ele>145</ele><time>2024-05-31T09:52:07Z</time><name>PT671</name></trkpt>
<trkpt lat="54.499240" lon="-3.186547"><ele>145</ele><time>2024-05-31T09:52:10Z</time><name>PT672</name></trkpt>
<trkpt lat="54.499230" lon="-3.186583"><ele>147</ele><time>2024-05-31T09:52:14Z</time><name>PT673</name></trkpt>
<trkpt lat="54.499228" lon="-3.186636"><ele>148</ele><time>2024-05-31T09:52:18Z</time><name>PT674</name></trkpt>
<trkpt lat="54.499227" lon="-3.186672"><ele>150</ele><time>2024-05-31T09:52:22Z</time><name>PT675</name></trkpt>
<trkpt lat="54.499230" lon="-3.186698"><ele>151</ele><time>2024-05-31T09:52:25Z</time><name>PT676</name></trkpt>
<trkpt lat="54.499238" lon="-3.186730"><ele>153</ele><time>2024-05-31T09:52:28Z</time><name>PT677</name></trkpt>
<trkpt lat="54.499248" lon="-3.186761"><ele>154</ele><time>2024-05-31T09:52:32Z</time><name>PT678</name></trkpt>
<trkpt lat="54.499252" lon="-3.186792"><ele>153</ele><time>2024-05-31T09:52:36Z</time><name>PT679</name></trkpt>
<trkpt lat="54.499254" lon="-3.186812"><ele>152</ele><time>2024-05-31T09:52:39Z</time><name>PT680</name></trkpt>
<trkpt lat="54.499262" lon="-3.186851"><ele>153</ele><time>2024-05-31T09:52:43Z</time><name>PT681</name></trkpt>
<trkpt lat="54.499266" lon="-3.186870"><ele>154</ele><time>2024-05-31T09:52:46Z</time><name>PT682</name></trkpt>
<trkpt lat="54.499272" lon="-3.186891"><ele>154</ele><time>2024-05-31T09:52:49Z</time><name>PT683</name></trkpt>
<trkpt lat="54.499282" lon="-3.186922"><ele>156</ele><time>2024-05-31T09:52:53Z</time><name>PT684</name></trkpt>
<trkpt lat="54.499280" lon="-3.186930"><ele>157</ele><time>2024-05-31T09:52:56Z</time><name>PT685</name></trkpt>
<trkpt lat="54.499274" lon="-3.186955"><ele>157</ele><time>2024-05-31T09:53:00Z</time><name>PT686</name></trkpt>
<trkpt lat="54.499267" lon="-3.186962"><ele>158</ele><time>2024-05-31T09:53:03Z</time><name>PT687</name></trkpt>
<trkpt lat="54.499259" lon="-3.186963"><ele>159</ele><time>2024-05-31T09:53:06Z</time><name>PT688</name></trkpt>
<trkpt lat="54.499243" lon="-3.186995"><ele>159</ele><time>2024-05-31T09:53:14Z</time><name>PT689</name></trkpt>
<trkpt lat="54.499240" lon="-3.187004"><ele>158</ele><time>2024-05-31T09:53:17Z</time><name>PT690</name></trkpt>
<trkpt lat="54.499229" lon="-3.187018"><ele>159</ele><time>2024-05-31T09:53:20Z</time><name>PT691</name></trkpt>
<trkpt lat="54.499212" lon="-3.187073"><ele>159</ele><time>2024-05-31T09:53:24Z</time><name>PT692</name></trkpt>
<trkpt lat="54.499209" lon="-3.187094"><ele>159</ele><time>2024-05-31T09:53:27Z</time><name>PT693</name></trkpt>
<trkpt lat="54.499222" lon="-3.187119"><ele>160</ele><time>2024-05-31T09:53:30Z</time><name>PT694</name></trkpt>
<trkpt lat="54.499237" lon="-3.187139"><ele>161</ele><time>2024-05-31T09:53:34Z</time><name>PT695</name></trkpt>
<trkpt lat="54.499232" lon="-3.187152"><ele>162</ele><time>2024-05-31T09:53:37Z</time><name>PT696</name></trkpt>
<trkpt lat="54.499237" lon="-3.187169"><ele>163</ele><time>2024-05-31T09:53:44Z</time><name>PT697</name></trkpt>
<trkpt lat="54.499241" lon="-3.187179"><ele>163</ele><time>2024-05-31T09:53:48Z</time><name>PT698</name></trkpt>
<trkpt lat="54.499239" lon="-3.187203"><ele>164</ele><time>2024-05-31T09:53:51Z</time><name>PT699</name></trkpt>
<trkpt lat="54.499228" lon="-3.187204"><ele>164</ele><time>2024-05-31T09:53:55Z</time><name>PT700</name></trkpt>
<trkpt lat="54.499217" lon="-3.187199"><ele>165</ele><time>2024-05-31T09:53:58Z</time><name>PT701</name></trkpt>
<trkpt lat="54.499202" lon="-3.187202"><ele>165</ele><time>2024-05-31T09:54:01Z</time><name>PT702</name></trkpt>
<trkpt lat="54.499197" lon="-3.187205"><ele>165</ele><time>2024-05-31T09:54:05Z</time><name>PT703</name></trkpt>
<trkpt lat="54.499199" lon="-3.187212"><ele>166</ele><time>2024-05-31T09:54:09Z</time><name>PT704</name></trkpt>
<trkpt lat="54.499190" lon="-3.187229"><ele>167</ele><time>2024-05-31T09:54:13Z</time><name>PT705</name></trkpt>
<trkpt lat="54.499184" lon="-3.187255"><ele>167</ele><time>2024-05-31T09:54:17Z</time><name>PT706</name></trkpt>
<trkpt lat="54.499173" lon="-3.187272"><ele>167</ele><time>2024-05-31T09:54:20Z</time><name>PT707</name></trkpt>
<trkpt lat="54.499170" lon="-3.187326"><ele>168</ele><time>2024-05-31T09:54:24Z</time><name>PT708</name></trkpt>
<trkpt lat="54.499177" lon="-3.187360"><ele>170</ele><time>2024-05-31T09:54:28Z</time><name>PT709</name></trkpt>
<trkpt lat="54.499179" lon="-3.187382"><ele>170</ele><time>2024-05-31T09:54:31Z</time><name>PT710</name></trkpt>
<trkpt lat="54.499177" lon="-3.187433"><ele>171</ele><time>2024-05-31T09:54:35Z</time><name>PT711</name></trkpt>
<trkpt lat="54.499176" lon="-3.187473"><ele>172</ele><time>2024-05-31T09:54:39Z</time><name>PT712</name></trkpt>
<trkpt lat="54.499174" lon="-3.187497"><ele>173</ele><time>2024-05-31T09:54:46Z</time><name>PT713</name></trkpt>
<trkpt lat="54.499163" lon="-3.187532"><ele>174</ele><time>2024-05-31T09:54:49Z</time><name>PT714</name></trkpt>
<trkpt lat="54.499153" lon="-3.187577"><ele>175</ele><time>2024-05-31T09:54:53Z</time><name>PT715</name></trkpt>
<trkpt lat="54.499146" lon="-3.187609"><ele>175</ele><time>2024-05-31T09:54:56Z</time><name>PT716</name></trkpt>
<trkpt lat="54.499145" lon="-3.187628"><ele>176</ele><time>2024-05-31T09:54:59Z</time><name>PT717</name></trkpt>
<trkpt lat="54.499144" lon="-3.187661"><ele>177</ele><time>2024-05-31T09:55:03Z</time><name>PT718</name></trkpt>
<trkpt lat="54.499147" lon="-3.187670"><ele>177</ele><time>2024-05-31T09:55:07Z</time><name>PT719</name></trkpt>
<trkpt lat="54.499147" lon="-3.187687"><ele>178</ele><time>2024-05-31T09:55:10Z</time><name>PT720</name></trkpt>
<trkpt lat="54.499147" lon="-3.187699"><ele>178</ele><time>2024-05-31T09:55:18Z</time><name>PT721</name></trkpt>
<trkpt lat="54.499148" lon="-3.187738"><ele>179</ele><time>2024-05-31T09:55:21Z</time><name>PT722</name></trkpt>
<trkpt lat="54.499137" lon="-3.187774"><ele>179</ele><time>2024-05-31T09:55:25Z</time><name>PT723</name></trkpt>
<trkpt lat="54.499128" lon="-3.187786"><ele>180</ele><time>2024-05-31T09:55:28Z</time><name>PT724</name></trkpt>
<trkpt lat="54.499129" lon="-3.187813"><ele>180</ele><time>2024-05-31T09:55:31Z</time><name>PT725</name></trkpt>
<trkpt lat="54.499133" lon="-3.187837"><ele>181</ele><time>2024-05-31T09:55:34Z</time><name>PT726</name></trkpt>
<trkpt lat="54.499140" lon="-3.187864"><ele>182</ele><time>2024-05-31T09:55:38Z</time><name>PT727</name></trkpt>
<trkpt lat="54.499144" lon="-3.187887"><ele>182</ele><time>2024-05-31T09:55:42Z</time><name>PT728</name></trkpt>
<trkpt lat="54.499146" lon="-3.187916"><ele>183</ele><time>2024-05-31T09:55:46Z</time><name>PT729</name></trkpt>
<trkpt lat="54.499143" lon="-3.187930"><ele>183</ele><time>2024-05-31T09:55:50Z</time><name>PT730</name></trkpt>
<trkpt lat="54.499141" lon="-3.187980"><ele>184</ele><time>2024-05-31T09:55:54Z</time><name>PT731</name></trkpt>
<trkpt lat="54.499151" lon="-3.188001"><ele>185</ele><time>2024-05-31T09:55:57Z</time><name>PT732</name></trkpt>
<trkpt lat="54.499166" lon="-3.188036"><ele>186</ele><time>2024-05-31T09:56:01Z</time><name>PT733</name></trkpt>
<trkpt lat="54.499175" lon="-3.188062"><ele>186</ele><time>2024-05-31T09:56:04Z</time><name>PT734</name></trkpt>
<trkpt lat="54.499191" lon="-3.188079"><ele>188</ele><time>2024-05-31T09:56:07Z</time><name>PT735</name></trkpt>
<trkpt lat="54.499207" lon="-3.188101"><ele>190</ele><time>2024-05-31T09:56:11Z</time><name>PT736</name></trkpt>
<trkpt lat="54.499195" lon="-3.188109"><ele>190</ele><time>2024-05-31T09:56:14Z</time><name>PT737</name></trkpt>
<trkpt lat="54.499181" lon="-3.188108"><ele>191</ele><time>2024-05-31T09:56:17Z</time><name>PT738</name></trkpt>
<trkpt lat="54.499166" lon="-3.188122"><ele>192</ele><time>2024-05-31T09:56:24Z</time><name>PT739</name></trkpt>
<trkpt lat="54.499142" lon="-3.188126"><ele>193</ele><time>2024-05-31T09:56:28Z</time><name>PT740</name></trkpt>
<trkpt lat="54.499130" lon="-3.188149"><ele>194</ele><time>2024-05-31T09:56:32Z</time><name>PT741</name></trkpt>
<trkpt lat="54.499122" lon="-3.188174"><ele>195</ele><time>2024-05-31T09:56:35Z</time><name>PT742</name></trkpt>
<trkpt lat="54.499116" lon="-3.188203"><ele>196</ele><time>2024-05-31T09:56:38Z</time><name>PT743</name></trkpt>
<trkpt lat="54.499124" lon="-3.188226"><ele>197</ele><time>2024-05-31T09:56:41Z</time><name>PT744</name></trkpt>
<trkpt lat="54.499124" lon="-3.188238"><ele>197</ele><time>2024-05-31T09:56:45Z</time><name>PT745</name></trkpt>
<trkpt lat="54.499122" lon="-3.188282"><ele>198</ele><time>2024-05-31T09:56:48Z</time><name>PT746</name></trkpt>
<trkpt lat="54.499124" lon="-3.188321"><ele>199</ele><time>2024-05-31T09:56:52Z</time><name>PT747</name></trkpt>
<trkpt lat="54.499110" lon="-3.188341"><ele>199</ele><time>2024-05-31T09:56:55Z</time><name>PT748</name></trkpt>
<trkpt lat="54.499108" lon="-3.188346"><ele>200</ele><time>2024-05-31T09:56:59Z</time><name>PT749</name></trkpt>
<trkpt lat="54.499109" lon="-3.188349"><ele>201</ele><time>2024-05-31T09:57:07Z</time><name>PT750</name></trkpt>
<trkpt lat="54.499123" lon="-3.188388"><ele>201</ele><time>2024-05-31T09:57:10Z</time><name>PT751</name></trkpt>
<trkpt lat="54.499138" lon="-3.188422"><ele>202</ele><time>2024-05-31T09:57:13Z</time><name>PT752</name></trkpt>
<trkpt lat="54.499137" lon="-3.188425"><ele>203</ele><time>2024-05-31T09:57:17Z</time><name>PT753</name></trkpt>
<trkpt lat="54.499152" lon="-3.188442"><ele>205</ele><time>2024-05-31T09:57:24Z</time><name>PT754</name></trkpt>
<trkpt lat="54.499165" lon="-3.188470"><ele>205</ele><time>2024-05-31T09:57:28Z</time><name>PT755</name></trkpt>
<trkpt lat="54.499179" lon="-3.188488"><ele>204</ele><time>2024-05-31T09:57:31Z</time><name>PT756</name></trkpt>
<trkpt lat="54.499213" lon="-3.188545"><ele>205</ele><time>2024-05-31T09:57:35Z</time><name>PT757</name></trkpt>
<trkpt lat="54.499238" lon="-3.188578"><ele>205</ele><time>2024-05-31T09:57:39Z</time><name>PT758</name></trkpt>
<trkpt lat="54.499255" lon="-3.188607"><ele>206</ele><time>2024-05-31T09:57:42Z</time><name>PT759</name></trkpt>
<trkpt lat="54.499284" lon="-3.188631"><ele>206</ele><time>2024-05-31T09:57:46Z</time><name>PT760</name></trkpt>
<trkpt lat="54.499295" lon="-3.188642"><ele>206</ele><time>2024-05-31T09:57:49Z</time><name>PT761</name></trkpt>
<trkpt lat="54.499296" lon="-3.188644"><ele>206</ele><time>2024-05-31T09:57:53Z</time><name>PT762</name></trkpt>
<trkpt lat="54.499304" lon="-3.188670"><ele>206</ele><time>2024-05-31T09:57:56Z</time><name>PT763</name></trkpt>
<trkpt lat="54.499280" lon="-3.188680"><ele>207</ele><time>2024-05-31T09:58:00Z</time><name>PT764</name></trkpt>
<trkpt lat="54.499266" lon="-3.188684"><ele>207</ele><time>2024-05-31T09:58:04Z</time><name>PT765</name></trkpt>
<trkpt lat="54.499249" lon="-3.188689"><ele>207</ele><time>2024-05-31T09:58:08Z</time><name>PT766</name></trkpt>
<trkpt lat="54.499241" lon="-3.188697"><ele>208</ele><time>2024-05-31T09:58:11Z</time><name>PT767</name></trkpt>
<trkpt lat="54.499240" lon="-3.188718"><ele>209</ele><time>2024-05-31T09:58:14Z</time><name>PT768</name></trkpt>
<trkpt lat="54.499232" lon="-3.188726"><ele>210</ele><time>2024-05-31T09:58:18Z</time><name>PT769</name></trkpt>
<trkpt lat="54.499231" lon="-3.188738"><ele>210</ele><time>2024-05-31T09:58:21Z</time><name>PT770</name></trkpt>
<trkpt lat="54.499230" lon="-3.188758"><ele>212</ele><time>2024-05-31T09:58:24Z</time><name>PT771</name></trkpt>
<trkpt lat="54.499228" lon="-3.188774"><ele>212</ele><time>2024-05-31T09:58:27Z</time><name>PT772</name></trkpt>
<trkpt lat="54.499233" lon="-3.188801"><ele>211</ele><time>2024-05-31T09:58:30Z</time><name>PT773</name></trkpt>
<trkpt lat="54.499229" lon="-3.188826"><ele>211</ele><time>2024-05-31T09:58:34Z</time><name>PT774</name></trkpt>
<trkpt lat="54.499221" lon="-3.188859"><ele>211</ele><time>2024-05-31T09:58:38Z</time><name>PT775</name></trkpt>
<trkpt lat="54.499214" lon="-3.188867"><ele>212</ele><time>2024-05-31T09:58:41Z</time><name>PT776</name></trkpt>
<trkpt lat="54.499202" lon="-3.188875"><ele>213</ele><time>2024-05-31T09:58:44Z</time><name>PT777</name></trkpt>
<trkpt lat="54.499204" lon="-3.188895"><ele>213</ele><time>2024-05-31T09:58:48Z</time><name>PT778</name></trkpt>
<trkpt lat="54.499208" lon="-3.188917"><ele>215</ele><time>2024-05-31T09:58:51Z</time><name>PT779</name></trkpt>
<trkpt lat="54.499212" lon="-3.188940"><ele>217</ele><time>2024-05-31T09:58:54Z</time><name>PT780</name></trkpt>
<trkpt lat="54.499217" lon="-3.188960"><ele>218</ele><time>2024-05-31T09:58:58Z</time><name>PT781</name></trkpt>
<trkpt lat="54.499216" lon="-3.188978"><ele>219</ele><time>2024-05-31T09:59:01Z</time><name>PT782</name></trkpt>
<trkpt lat="54.499222" lon="-3.189005"><ele>220</ele><time>2024-05-31T09:59:05Z</time><name>PT783</name></trkpt>
<trkpt lat="54.499232" lon="-3.189026"><ele>221</ele><time>2024-05-31T09:59:09Z</time><name>PT784</name></trkpt>
<trkpt lat="54.499232" lon="-3.189029"><ele>221</ele><time>2024-05-31T09:59:12Z</time><name>PT785</name></trkpt>
<trkpt lat="54.499226" lon="-3.189039"><ele>223</ele><time>2024-05-31T09:59:16Z</time><name>PT786</name></trkpt>
<trkpt lat="54.499230" lon="-3.189066"><ele>224</ele><time>2024-05-31T09:59:20Z</time><name>PT787</name></trkpt>
<trkpt lat="54.499230" lon="-3.189081"><ele>223</ele><time>2024-05-31T09:59:23Z</time><name>PT788</name></trkpt>
<trkpt lat="54.499229" lon="-3.189081"><ele>224</ele><time>2024-05-31T09:59:26Z</time><name>PT789</name></trkpt>
<trkpt lat="54.499230" lon="-3.189090"><ele>225</ele><time>2024-05-31T09:59:29Z</time><name>PT790</name></trkpt>
<trkpt lat="54.499232" lon="-3.189110"><ele>226</ele><time>2024-05-31T09:59:33Z</time><name>PT791</name></trkpt>
<trkpt lat="54.499238" lon="-3.189130"><ele>226</ele><time>2024-05-31T09:59:36Z</time><name>PT792</name></trkpt>
<trkpt lat="54.499238" lon="-3.189133"><ele>228</ele><time>2024-05-31T09:59:40Z</time><name>PT793</name></trkpt>
<trkpt lat="54.499239" lon="-3.189136"><ele>229</ele><time>2024-05-31T09:59:44Z</time><name>PT794</name></trkpt>
<trkpt lat="54.499226" lon="-3.189162"><ele>229</ele><time>2024-05-31T09:59:48Z</time><name>PT795</name></trkpt>
<trkpt lat="54.499247" lon="-3.189171"><ele>230</ele><time>2024-05-31T09:59:51Z</time><name>PT796</name></trkpt>
<trkpt lat="54.499268" lon="-3.189175"><ele>233</ele><time>2024-05-31T09:59:54Z</time><name>PT797</name></trkpt>
<trkpt lat="54.499277" lon="-3.189193"><ele>234</ele><time>2024-05-31T09:59:58Z</time><name>PT798</name></trkpt>
<trkpt lat="54.499290" lon="-3.189222"><ele>235</ele><time>2024-05-31T10:00:02Z</time><name>PT799</name></trkpt>
<trkpt lat="54.499298" lon="-3.189238"><ele>235</ele><time>2024-05-31T10:00:05Z</time><name>PT800</name></trkpt>
<trkpt lat="54.499311" lon="-3.189218"><ele>236</ele><time>2024-05-31T10:00:08Z</time><name>PT801</name></trkpt>
<trkpt lat="54.499325" lon="-3.189219"><ele>237</ele><time>2024-05-31T10:00:11Z</time><name>PT802</name></trkpt>
<trkpt lat="54.499335" lon="-3.189239"><ele>238</ele><time>2024-05-31T10:00:15Z</time><name>PT803</name></trkpt>
<trkpt lat="54.499347" lon="-3.189279"><ele>239</ele><time>2024-05-31T10:00:19Z</time><name>PT804</name></trkpt>
<trkpt lat="54.499352" lon="-3.189297"><ele>241</ele><time>2024-05-31T10:00:23Z</time><name>PT805</name></trkpt>
<trkpt lat="54.499364" lon="-3.189301"><ele>241</ele><time>2024-05-31T10:00:26Z</time><name>PT806</name></trkpt>
<trkpt lat="54.499386" lon="-3.189298"><ele>243</ele><time>2024-05-31T10:00:30Z</time><name>PT807</name></trkpt>
<trkpt lat="54.499401" lon="-3.189319"><ele>243</ele><time>2024-05-31T10:00:33Z</time><name>PT808</name></trkpt>
<trkpt lat="54.499400" lon="-3.189367"><ele>242</ele><time>2024-05-31T10:00:37Z</time><name>PT809</name></trkpt>
<trkpt lat="54.499399" lon="-3.189377"><ele>243</ele><time>2024-05-31T10:00:40Z</time><name>PT810</name></trkpt>
<trkpt lat="54.499395" lon="-3.189376"><ele>243</ele><time>2024-05-31T10:00:43Z</time><name>PT811</name></trkpt>
<trkpt lat="54.499376" lon="-3.189402"><ele>243</ele><time>2024-05-31T10:00:51Z</time><name>PT812</name></trkpt>
<trkpt lat="54.499361" lon="-3.189423"><ele>243</ele><time>2024-05-31T10:00:54Z</time><name>PT813</name></trkpt>
<trkpt lat="54.499362" lon="-3.189449"><ele>244</ele><time>2024-05-31T10:00:58Z</time><name>PT814</name></trkpt>
<trkpt lat="54.499359" lon="-3.189459"><ele>245</ele><time>2024-05-31T10:01:01Z</time><name>PT815</name></trkpt>
<trkpt lat="54.499358" lon="-3.189476"><ele>244</ele><time>2024-05-31T10:01:05Z</time><name>PT816</name></trkpt>
<trkpt lat="54.499360" lon="-3.189497"><ele>247</ele><time>2024-05-31T10:01:08Z</time><name>PT817</name></trkpt>
<trkpt lat="54.499362" lon="-3.189502"><ele>248</ele><time>2024-05-31T10:01:11Z</time><name>PT818</name></trkpt>
<trkpt lat="54.499372" lon="-3.189528"><ele>248</ele><time>2024-05-31T10:01:15Z</time><name>PT819</name></trkpt>
<trkpt lat="54.499377" lon="-3.189542"><ele>248</ele><time>2024-05-31T10:01:18Z</time><name>PT820</name></trkpt>
<trkpt lat="54.499376" lon="-3.189557"><ele>248</ele><time>2024-05-31T10:01:22Z</time><name>PT821</name></trkpt>
<trkpt lat="54.499375" lon="-3.189544"><ele>249</ele><time>2024-05-31T10:01:26Z</time><name>PT822</name></trkpt>
<trkpt lat="54.499376" lon="-3.189567"><ele>250</ele><time>2024-05-31T10:01:29Z</time><name>PT823</name></trkpt>
<trkpt lat="54.499378" lon="-3.189597"><ele>251</ele><time>2024-05-31T10:01:32Z</time><name>PT824</name></trkpt>
<trkpt lat="54.499372" lon="-3.189601"><ele>250</ele><time>2024-05-31T10:01:36Z</time><name>PT825</name></trkpt>
<trkpt lat="54.499376" lon="-3.189604"><ele>251</ele><time>2024-05-31T10:01:39Z</time><name>PT826</name></trkpt>
<trkpt lat="54.499388" lon="-3.189602"><ele>252</ele><time>2024-05-31T10:01:42Z</time><name>PT827</name></trkpt>
<trkpt lat="54.499413" lon="-3.189627"><ele>252</ele><time>2024-05-31T10:01:46Z</time><name>PT828</name></trkpt>
<trkpt lat="54.499425" lon="-3.189626"><ele>255</ele><time>2024-05-31T10:01:50Z</time><name>PT829</name></trkpt>
<trkpt lat="54.499437" lon="-3.189633"><ele>255</ele><time>2024-05-31T10:01:53Z</time><name>PT830</name></trkpt>
<trkpt lat="54.499448" lon="-3.189641"><ele>255</ele><time>2024-05-31T10:01:56Z</time><name>PT831</name></trkpt>
<trkpt lat="54.499448" lon="-3.189651"><ele>255</ele><time>2024-05-31T10:02:00Z</time><name>PT832</name></trkpt>
<trkpt lat="54.499448" lon="-3.189676"><ele>254</ele><time>2024-05-31T10:02:04Z</time><name>PT833</name></trkpt>
<trkpt lat="54.499464" lon="-3.189660"><ele>261</ele><time>2024-05-31T10:02:08Z</time><name>PT834</name></trkpt>
<trkpt lat="54.499460" lon="-3.189653"><ele>263</ele><time>2024-05-31T10:02:11Z</time><name>PT835</name></trkpt>
<trkpt lat="54.499462" lon="-3.189655"><ele>264</ele><time>2024-05-31T10:02:14Z</time><name>PT836</name></trkpt>
<trkpt lat="54.499465" lon="-3.189665"><ele>265</ele><time>2024-05-31T10:02:18Z</time><name>PT837</name></trkpt>
<trkpt lat="54.499461" lon="-3.189681"><ele>265</ele><time>2024-05-31T10:02:21Z</time><name>PT838</name></trkpt>
<trkpt lat="54.499462" lon="-3.189701"><ele>265</ele><time>2024-05-31T10:02:24Z</time><name>PT839</name></trkpt>
<trkpt lat="54.499469" lon="-3.189704"><ele>264</ele><time>2024-05-31T10:02:28Z</time><name>PT840</name></trkpt>
<trkpt lat="54.499463" lon="-3.189704"><ele>264</ele><time>2024-05-31T10:02:32Z</time><name>PT841</name></trkpt>
<trkpt lat="54.499457" lon="-3.189731"><ele>264</ele><time>2024-05-31T10:02:35Z</time><name>PT842</name></trkpt>
<trkpt lat="54.499443" lon="-3.189750"><ele>264</ele><time>2024-05-31T10:02:39Z</time><name>PT843</name></trkpt>
<trkpt lat="54.499462" lon="-3.189763"><ele>265</ele><time>2024-05-31T10:02:43Z</time><name>PT844</name></trkpt>
<trkpt lat="54.499470" lon="-3.189800"><ele>265</ele><time>2024-05-31T10:02:47Z</time><name>PT845</name></trkpt>
<trkpt lat="54.499434" lon="-3.189808"><ele>263</ele><time>2024-05-31T10:02:51Z</time><name>PT846</name></trkpt>
<trkpt lat="54.499430" lon="-3.189814"><ele>263</ele><time>2024-05-31T10:02:55Z</time><name>PT847</name></trkpt>
<trkpt lat="54.499420" lon="-3.189828"><ele>263</ele><time>2024-05-31T10:02:58Z</time><name>PT848</name></trkpt>
<trkpt lat="54.499409" lon="-3.189854"><ele>263</ele><time>2024-05-31T10:03:01Z</time><name>PT849</name></trkpt>
<trkpt lat="54.499401" lon="-3.189874"><ele>262</ele><time>2024-05-31T10:03:05Z</time><name>PT850</name></trkpt>
<trkpt lat="54.499406" lon="-3.189896"><ele>263</ele><time>2024-05-31T10:03:09Z</time><name>PT851</name></trkpt>
<trkpt lat="54.499420" lon="-3.189922"><ele>264</ele><time>2024-05-31T10:03:13Z</time><name>PT852</name></trkpt>
<trkpt lat="54.499435" lon="-3.189948"><ele>264</ele><time>2024-05-31T10:03:17Z</time><name>PT853</name></trkpt>
<trkpt lat="54.499451" lon="-3.189981"><ele>265</ele><time>2024-05-31T10:03:21Z</time><name>PT854</name></trkpt>
<trkpt lat="54.499445" lon="-3.190005"><ele>266</ele><time>2024-05-31T10:03:25Z</time><name>PT855</name></trkpt>
<trkpt lat="54.499434" lon="-3.190010"><ele>266</ele><time>2024-05-31T10:03:28Z</time><name>PT856</name></trkpt>
<trkpt lat="54.499434" lon="-3.190025"><ele>267</ele><time>2024-05-31T10:03:32Z</time><name>PT857</name></trkpt>
<trkpt lat="54.499447" lon="-3.190049"><ele>268</ele><time>2024-05-31T10:03:36Z</time><name>PT858</name></trkpt>
<trkpt lat="54.499466" lon="-3.190064"><ele>269</ele><time>2024-05-31T10:03:40Z</time><name>PT859</name></trkpt>
<trkpt lat="54.499487" lon="-3.190077"><ele>270</ele><time>2024-05-31T10:03:44Z</time><name>PT860</name></trkpt>
<trkpt lat="54.499509" lon="-3.190086"><ele>273</ele><time>2024-05-31T10:03:48Z</time><name>PT861</name></trkpt>
<trkpt lat="54.499508" lon="-3.190094"><ele>274</ele><time>2024-05-31T10:03:52Z</time><name>PT862</name></trkpt>
<trkpt lat="54.499510" lon="-3.190095"><ele>274</ele><time>2024-05-31T10:04:05Z</time><name>PT863</name></trkpt>
<trkpt lat="54.499516" lon="-3.190127"><ele>275</ele><time>2024-05-31T10:04:08Z</time><name>PT864</name></trkpt>
<trkpt lat="54.499517" lon="-3.190178"><ele>278</ele><time>2024-05-31T10:04:12Z</time><name>PT865</name></trkpt>
<trkpt lat="54.499511" lon="-3.190193"><ele>278</ele><time>2024-05-31T10:04:15Z</time><name>PT866</name></trkpt>
<trkpt lat="54.499520" lon="-3.190212"><ele>279</ele><time>2024-05-31T10:04:19Z</time><name>PT867</name></trkpt>
<trkpt lat="54.499527" lon="-3.190228"><ele>279</ele><time>2024-05-31T10:04:22Z</time><name>PT868</name></trkpt>
<trkpt lat="54.499539" lon="-3.190258"><ele>280</ele><time>2024-05-31T10:04:26Z</time><name>PT869</name></trkpt>
<trkpt lat="54.499533" lon="-3.190280"><ele>280</ele><time>2024-05-31T10:04:29Z</time><name>PT870</name></trkpt>
<trkpt lat="54.499530" lon="-3.190294"><ele>280</ele><time>2024-05-31T10:04:33Z</time><name>PT871</name></trkpt>
<trkpt lat="54.499547" lon="-3.190296"><ele>281</ele><time>2024-05-31T10:04:37Z</time><name>PT872</name></trkpt>
<trkpt lat="54.499569" lon="-3.190311"><ele>281</ele><time>2024-05-31T10:04:41Z</time><name>PT873</name></trkpt>
<trkpt lat="54.499584" lon="-3.190328"><ele>281</ele><time>2024-05-31T10:04:45Z</time><name>PT874</name></trkpt>
<trkpt lat="54.499582" lon="-3.190353"><ele>281</ele><time>2024-05-31T10:04:49Z</time><name>PT875</name></trkpt>
<trkpt lat="54.499572" lon="-3.190368"><ele>281</ele><time>2024-05-31T10:04:52Z</time><name>PT876</name></trkpt>
<trkpt lat="54.499557" lon="-3.190383"><ele>282</ele><time>2024-05-31T10:04:56Z</time><name>PT877</name></trkpt>
<trkpt lat="54.499535" lon="-3.190388"><ele>283</ele><time>2024-05-31T10:05:00Z</time><name>PT878</name></trkpt>
<trkpt lat="54.499528" lon="-3.190399"><ele>283</ele><time>2024-05-31T10:05:03Z</time><name>PT879</name></trkpt>
<trkpt lat="54.499518" lon="-3.190404"><ele>282</ele><time>2024-05-31T10:05:06Z</time><name>PT880</name></trkpt>
<trkpt lat="54.499499" lon="-3.190426"><ele>282</ele><time>2024-05-31T10:05:10Z</time><name>PT881</name></trkpt>
<trkpt lat="54.499477" lon="-3.190445"><ele>283</ele><time>2024-05-31T10:05:20Z</time><name>PT882</name></trkpt>
<trkpt lat="54.499458" lon="-3.190467"><ele>284</ele><time>2024-05-31T10:05:23Z</time><name>PT883</name></trkpt>
<trkpt lat="54.499432" lon="-3.190477"><ele>285</ele><time>2024-05-31T10:05:26Z</time><name>PT884</name></trkpt>
<trkpt lat="54.499429" lon="-3.190503"><ele>287</ele><time>2024-05-31T10:05:30Z</time><name>PT885</name></trkpt>
<trkpt lat="54.499423" lon="-3.190526"><ele>288</ele><time>2024-05-31T10:05:33Z</time><name>PT886</name></trkpt>
<trkpt lat="54.499431" lon="-3.190555"><ele>289</ele><time>2024-05-31T10:05:37Z</time><name>PT887</name></trkpt>
<trkpt lat="54.499427" lon="-3.190567"><ele>291</ele><time>2024-05-31T10:05:40Z</time><name>PT888</name></trkpt>
<trkpt lat="54.499408" lon="-3.190585"><ele>292</ele><time>2024-05-31T10:05:51Z</time><name>PT889</name></trkpt>
<trkpt lat="54.499402" lon="-3.190603"><ele>292</ele><time>2024-05-31T10:05:54Z</time><name>PT890</name></trkpt>
<trkpt lat="54.499403" lon="-3.190621"><ele>293</ele><time>2024-05-31T10:05:57Z</time><name>PT891</name></trkpt>
<trkpt lat="54.499402" lon="-3.190641"><ele>294</ele><time>2024-05-31T10:06:01Z</time><name>PT892</name></trkpt>
<trkpt lat="54.499406" lon="-3.190666"><ele>295</ele><time>2024-05-31T10:06:05Z</time><name>PT893</name></trkpt>
<trkpt lat="54.499390" lon="-3.190676"><ele>296</ele><time>2024-05-31T10:06:08Z</time><name>PT894</name></trkpt>
<trkpt lat="54.499382" lon="-3.190674"><ele>296</ele><time>2024-05-31T10:06:11Z</time><name>PT895</name></trkpt>
<trkpt lat="54.499359" lon="-3.190662"><ele>298</ele><time>2024-05-31T10:06:15Z</time><name>PT896</name></trkpt>
<trkpt lat="54.499340" lon="-3.190651"><ele>298</ele><time>2024-05-31T10:06:18Z</time><name>PT897</name></trkpt>
<trkpt lat="54.499323" lon="-3.190647"><ele>299</ele><time>2024-05-31T10:06:21Z</time><name>PT898</name></trkpt>
<trkpt lat="54.499304" lon="-3.190644"><ele>300</ele><time>2024-05-31T10:06:24Z</time><name>PT899</name></trkpt>
<trkpt lat="54.499276" lon="-3.190640"><ele>301</ele><time>2024-05-31T10:06:28Z</time><name>PT900</name></trkpt>
<trkpt lat="54.499248" lon="-3.190621"><ele>302</ele><time>2024-05-31T10:06:31Z</time><name>PT901</name></trkpt>
<trkpt lat="54.499229" lon="-3.190600"><ele>304</ele><time>2024-05-31T10:06:34Z</time><name>PT902</name></trkpt>
<trkpt lat="54.499209" lon="-3.190601"><ele>304</ele><time>2024-05-31T10:06:38Z</time><name>PT903</name></trkpt>
<trkpt lat="54.499186" lon="-3.190618"><ele>302</ele><time>2024-05-31T10:06:42Z</time><name>PT904</name></trkpt>
<trkpt lat="54.499160" lon="-3.190625"><ele>301</ele><time>2024-05-31T10:06:45Z</time><name>PT905</name></trkpt>
<trkpt lat="54.499127" lon="-3.190620"><ele>302</ele><time>2024-05-31T10:06:49Z</time><name>PT906</name></trkpt>
<trkpt lat="54.499100" lon="-3.190610"><ele>303</ele><time>2024-05-31T10:06:53Z</time><name>PT907</name></trkpt>
<trkpt lat="54.499091" lon="-3.190607"><ele>303</ele><time>2024-05-31T10:06:57Z</time><name>PT908</name></trkpt>
<trkpt lat="54.499078" lon="-3.190614"><ele>303</ele><time>2024-05-31T10:07:00Z</time><name>PT909</name></trkpt>
<trkpt lat="54.499057" lon="-3.190623"><ele>303</ele><time>2024-05-31T10:07:04Z</time><name>PT910</name></trkpt>
<trkpt lat="54.499043" lon="-3.190640"><ele>303</ele><time>2024-05-31T10:07:08Z</time><name>PT911</name></trkpt>
<trkpt lat="54.499040" lon="-3.190659"><ele>304</ele><time>2024-05-31T10:07:11Z</time><name>PT912</name></trkpt>
<trkpt lat="54.499037" lon="-3.190663"><ele>305</ele><time>2024-05-31T10:07:14Z</time><name>PT913</name></trkpt>
<trkpt lat="54.499022" lon="-3.190671"><ele>305</ele><time>2024-05-31T10:07:18Z</time><name>PT914</name></trkpt>
<trkpt lat="54.499011" lon="-3.190704"><ele>305</ele><time>2024-05-31T10:07:21Z</time><name>PT915</name></trkpt>
<trkpt lat="54.499027" lon="-3.190731"><ele>306</ele><time>2024-05-31T10:07:25Z</time><name>PT916</name></trkpt>
<trkpt lat="54.499032" lon="-3.190746"><ele>306</ele><time>2024-05-31T10:07:29Z</time><name>PT917</name></trkpt>
<trkpt lat="54.499037" lon="-3.190806"><ele>305</ele><time>2024-05-31T10:07:33Z</time><name>PT918</name></trkpt>
<trkpt lat="54.499060" lon="-3.190837"><ele>305</ele><time>2024-05-31T10:07:36Z</time><name>PT919</name></trkpt>
<trkpt lat="54.499065" lon="-3.190833"><ele>305</ele><time>2024-05-31T10:07:40Z</time><name>PT920</name></trkpt>
<trkpt lat="54.499066" lon="-3.190845"><ele>306</ele><time>2024-05-31T10:08:06Z</time><name>PT921</name></trkpt>
<trkpt lat="54.499066" lon="-3.190894"><ele>306</ele><time>2024-05-31T10:08:09Z</time><name>PT922</name></trkpt>
<trkpt lat="54.499048" lon="-3.190930"><ele>306</ele><time>2024-05-31T10:08:13Z</time><name>PT923</name></trkpt>
<trkpt lat="54.499022" lon="-3.190925"><ele>308</ele><time>2024-05-31T10:08:16Z</time><name>PT924</name></trkpt>
<trkpt lat="54.499005" lon="-3.190948"><ele>309</ele><time>2024-05-31T10:08:20Z</time><name>PT925</name></trkpt>
<trkpt lat="54.498987" lon="-3.190964"><ele>310</ele><time>2024-05-31T10:08:24Z</time><name>PT926</name></trkpt>
<trkpt lat="54.498972" lon="-3.190978"><ele>311</ele><time>2024-05-31T10:08:27Z</time><name>PT927</name></trkpt>
<trkpt lat="54.498960" lon="-3.191006"><ele>311</ele><time>2024-05-31T10:08:31Z</time><name>PT928</name></trkpt>
<trkpt lat="54.498954" lon="-3.191032"><ele>311</ele><time>2024-05-31T10:08:34Z</time><name>PT929</name></trkpt>
<trkpt lat="54.498946" lon="-3.191067"><ele>310</ele><time>2024-05-31T10:08:38Z</time><name>PT930</name></trkpt>
<trkpt lat="54.498943" lon="-3.191076"><ele>312</ele><time>2024-05-31T10:08:41Z</time><name>PT931</name></trkpt>
<trkpt lat="54.498935" lon="-3.191109"><ele>313</ele><time>2024-05-31T10:08:45Z</time><name>PT932</name></trkpt>
<trkpt lat="54.498936" lon="-3.191153"><ele>313</ele><time>2024-05-31T10:08:49Z</time><name>PT933</name></trkpt>
<trkpt lat="54.498941" lon="-3.191178"><ele>314</ele><time>2024-05-31T10:08:52Z</time><name>PT934</name></trkpt>
<trkpt lat="54.498948" lon="-3.191209"><ele>315</ele><time>2024-05-31T10:08:56Z</time><name>PT935</name></trkpt>
<trkpt lat="54.498954" lon="-3.191265"><ele>315</ele><time>2024-05-31T10:09:00Z</time><name>PT936</name></trkpt>
<trkpt lat="54.498969" lon="-3.191297"><ele>314</ele><time>2024-05-31T10:09:03Z</time><name>PT937</name></trkpt>
<trkpt lat="54.498987" lon="-3.191315"><ele>314</ele><time>2024-05-31T10:09:06Z</time><name>PT938</name></trkpt>
<trkpt lat="54.499013" lon="-3.191354"><ele>315</ele><time>2024-05-31T10:09:10Z</time><name>PT939</name></trkpt>
<trkpt lat="54.499030" lon="-3.191386"><ele>315</ele><time>2024-05-31T10:09:13Z</time><name>PT940</name></trkpt>
<trkpt lat="54.499049" lon="-3.191418"><ele>316</ele><time>2024-05-31T10:09:17Z</time><name>PT941</name></trkpt>
<trkpt lat="54.499061" lon="-3.191444"><ele>317</ele><time>2024-05-31T10:09:21Z</time><name>PT942</name></trkpt>
<trkpt lat="54.499064" lon="-3.191459"><ele>318</ele><time>2024-05-31T10:09:24Z</time><name>PT943</name></trkpt>
<trkpt lat="54.499078" lon="-3.191513"><ele>317</ele><time>2024-05-31T10:09:28Z</time><name>PT944</name></trkpt>
<trkpt lat="54.499094" lon="-3.191534"><ele>317</ele><time>2024-05-31T10:09:31Z</time><name>PT945</name></trkpt>
<trkpt lat="54.499109" lon="-3.191568"><ele>317</ele><time>2024-05-31T10:09:35Z</time><name>PT946</name></trkpt>
<trkpt lat="54.499127" lon="-3.191596"><ele>319</ele><time>2024-05-31T10:09:39Z</time><name>PT947</name></trkpt>
<trkpt lat="54.499144" lon="-3.191616"><ele>320</ele><time>2024-05-31T10:09:43Z</time><name>PT948</name></trkpt>
<trkpt lat="54.499162" lon="-3.191642"><ele>322</ele><time>2024-05-31T10:09:47Z</time><name>PT949</name></trkpt>
<trkpt lat="54.499169" lon="-3.191657"><ele>323</ele><time>2024-05-31T10:09:50Z</time><name>PT950</name></trkpt>
<trkpt lat="54.499181" lon="-3.191670"><ele>324</ele><time>2024-05-31T10:09:53Z</time><name>PT951</name></trkpt>
<trkpt lat="54.499191" lon="-3.191674"><ele>324</ele><time>2024-05-31T10:09:57Z</time><name>PT952</name></trkpt>
<trkpt lat="54.499195" lon="-3.191710"><ele>325</ele><time>2024-05-31T10:10:01Z</time><name>PT953</name></trkpt>
<trkpt lat="54.499203" lon="-3.191729"><ele>327</ele><time>2024-05-31T10:10:04Z</time><name>PT954</name></trkpt>
<trkpt lat="54.499215" lon="-3.191753"><ele>327</ele><time>2024-05-31T10:10:07Z</time><name>PT955</name></trkpt>
<trkpt lat="54.499224" lon="-3.191775"><ele>328</ele><time>2024-05-31T10:10:11Z</time><name>PT956</name></trkpt>
<trkpt lat="54.499235" lon="-3.191811"><ele>328</ele><time>2024-05-31T10:10:15Z</time><name>PT957</name></trkpt>
<trkpt lat="54.499237" lon="-3.191821"><ele>328</ele><time>2024-05-31T10:10:18Z</time><name>PT958</name></trkpt>
<trkpt lat="54.499233" lon="-3.191844"><ele>327</ele><time>2024-05-31T10:10:21Z</time><name>PT959</name></trkpt>
<trkpt lat="54.499246" lon="-3.191869"><ele>327</ele><time>2024-05-31T10:10:24Z</time><name>PT960</name></trkpt>
<trkpt lat="54.499259" lon="-3.191913"><ele>327</ele><time>2024-05-31T10:10:28Z</time><name>PT961</name></trkpt>
<trkpt lat="54.499279" lon="-3.191942"><ele>327</ele><time>2024-05-31T10:10:32Z</time><name>PT962</name></trkpt>
<trkpt lat="54.499303" lon="-3.191971"><ele>328</ele><time>2024-05-31T10:10:36Z</time><name>PT963</name></trkpt>
<trkpt lat="54.499313" lon="-3.191999"><ele>327</ele><time>2024-05-31T10:10:39Z</time><name>PT964</name></trkpt>
<trkpt lat="54.499332" lon="-3.192032"><ele>326</ele><time>2024-05-31T10:10:42Z</time><name>PT965</name></trkpt>
<trkpt lat="54.499366" lon="-3.192055"><ele>327</ele><time>2024-05-31T10:10:46Z</time><name>PT966</name></trkpt>
<trkpt lat="54.499388" lon="-3.192057"><ele>328</ele><time>2024-05-31T10:10:49Z</time><name>PT967</name></trkpt>
<trkpt lat="54.499408" lon="-3.192088"><ele>328</ele><time>2024-05-31T10:10:53Z</time><name>PT968</name></trkpt>
<trkpt lat="54.499423" lon="-3.192108"><ele>329</ele><time>2024-05-31T10:10:56Z</time><name>PT969</name></trkpt>
<trkpt lat="54.499433" lon="-3.192128"><ele>330</ele><time>2024-05-31T10:10:59Z</time><name>PT970</name></trkpt>
<trkpt lat="54.499451" lon="-3.192156"><ele>331</ele><time>2024-05-31T10:11:03Z</time><name>PT971</name></trkpt>
<trkpt lat="54.499469" lon="-3.192169"><ele>332</ele><time>2024-05-31T10:11:06Z</time><name>PT972</name></trkpt>
<trkpt lat="54.499482" lon="-3.192192"><ele>333</ele><time>2024-05-31T10:11:09Z</time><name>PT973</name></trkpt>
<trkpt lat="54.499486" lon="-3.192188"><ele>333</ele><time>2024-05-31T10:11:12Z</time><name>PT974</name></trkpt>
<trkpt lat="54.499510" lon="-3.192172"><ele>333</ele><time>2024-05-31T10:11:16Z</time><name>PT975</name></trkpt>
<trkpt lat="54.499530" lon="-3.192185"><ele>332</ele><time>2024-05-31T10:11:20Z</time><name>PT976</name></trkpt>
<trkpt lat="54.499534" lon="-3.192186"><ele>332</ele><time>2024-05-31T10:11:23Z</time><name>PT977</name></trkpt>
<trkpt lat="54.499522" lon="-3.192186"><ele>331</ele><time>2024-05-31T10:11:37Z</time><name>PT978</name></trkpt>
<trkpt lat="54.499506" lon="-3.192184"><ele>333</ele><time>2024-05-31T10:11:41Z</time><name>PT979</name></trkpt>
<trkpt lat="54.499500" lon="-3.192193"><ele>334</ele><time>2024-05-31T10:11:44Z</time><name>PT980</name></trkpt>
<trkpt lat="54.499493" lon="-3.192227"><ele>333</ele><time>2024-05-31T10:11:48Z</time><name>PT981</name></trkpt>
<trkpt lat="54.499474" lon="-3.192231"><ele>334</ele><time>2024-05-31T10:11:52Z</time><name>PT982</name></trkpt>
<trkpt lat="54.499469" lon="-3.192262"><ele>335</ele><time>2024-05-31T10:11:55Z</time><name>PT983</name></trkpt>
<trkpt lat="54.499475" lon="-3.192297"><ele>336</ele><time>2024-05-31T10:11:59Z</time><name>PT984</name></trkpt>
<trkpt lat="54.499476" lon="-3.192323"><ele>337</ele><time>2024-05-31T10:12:02Z</time><name>PT985</name></trkpt>
<trkpt lat="54.499479" lon="-3.192338"><ele>339</ele><time>2024-05-31T10:12:06Z</time><name>PT986</name></trkpt>
<trkpt lat="54.499476" lon="-3.192361"><ele>339</ele><time>2024-05-31T10:12:09Z</time><name>PT987</name></trkpt>
<trkpt lat="54.499461" lon="-3.192386"><ele>340</ele><time>2024-05-31T10:12:13Z</time><name>PT988</name></trkpt>
<trkpt lat="54.499449" lon="-3.192402"><ele>341</ele><time>2024-05-31T10:12:17Z</time><name>PT989</name></trkpt>
<trkpt lat="54.499442" lon="-3.192431"><ele>341</ele><time>2024-05-31T10:12:21Z</time><name>PT990</name></trkpt>
<trkpt lat="54.499437" lon="-3.192455"><ele>342</ele><time>2024-05-31T10:12:25Z</time><name>PT991</name></trkpt>
<trkpt lat="54.499442" lon="-3.192464"><ele>346</ele><time>2024-05-31T10:12:28Z</time><name>PT992</name></trkpt>
<trkpt lat="54.499436" lon="-3.192476"><ele>347</ele><time>2024-05-31T10:12:32Z</time><name>PT993</name></trkpt>
<trkpt lat="54.499420" lon="-3.192490"><ele>347</ele><time>2024-05-31T10:12:35Z</time><name>PT994</name></trkpt>
<trkpt lat="54.499399" lon="-3.192509"><ele>347</ele><time>2024-05-31T10:12:39Z</time><name>PT995</name></trkpt>
<trkpt lat="54.499386" lon="-3.192521"><ele>347</ele><time>2024-05-31T10:12:42Z</time><name>PT996</name></trkpt>
<trkpt lat="54.499381" lon="-3.192537"><ele>348</ele><time>2024-05-31T10:12:46Z</time><name>PT997</name></trkpt>
<trkpt lat="54.499358" lon="-3.192556"><ele>348</ele><time>2024-05-31T10:12:50Z</time><name>PT998</name></trkpt>
<trkpt lat="54.499355" lon="-3.192589"><ele>349</ele><time>2024-05-31T10:12:53Z</time><name>PT999</name></trkpt>
<trkpt lat="54.499359" lon="-3.192628"><ele>349</ele><time>2024-05-31T10:12:57Z</time><name>PT1000</name></trkpt>
<trkpt lat="54.499365" lon="-3.192643"><ele>351</ele><time>2024-05-31T10:13:01Z</time><name>PT1001</name></trkpt>
<trkpt lat="54.499353" lon="-3.192671"><ele>352</ele><time>2024-05-31T10:13:04Z</time><name>PT1002</name></trkpt>
<trkpt lat="54.499353" lon="-3.192694"><ele>353</ele><time>2024-05-31T10:13:07Z</time><name>PT1003</name></trkpt>
<trkpt lat="54.499345" lon="-3.192713"><ele>354</ele><time>2024-05-31T10:13:10Z</time><name>PT1004</name></trkpt>
<trkpt lat="54.499337" lon="-3.192745"><ele>354</ele><time>2024-05-31T10:13:14Z</time><name>PT1005</name></trkpt>
<trkpt lat="54.499337" lon="-3.192770"><ele>355</ele><time>2024-05-31T10:13:17Z</time><name>PT1006</name></trkpt>
<trkpt lat="54.499333" lon="-3.192798"><ele>354</ele><time>2024-05-31T10:13:20Z</time><name>PT1007</name></trkpt>
<trkpt lat="54.499330" lon="-3.192820"><ele>357</ele><time>2024-05-31T10:13:23Z</time><name>PT1008</name></trkpt>
<trkpt lat="54.499331" lon="-3.192854"><ele>358</ele><time>2024-05-31T10:13:27Z</time><name>PT1009</name></trkpt>
<trkpt lat="54.499335" lon="-3.192904"><ele>358</ele><time>2024-05-31T10:13:31Z</time><name>PT1010</name></trkpt>
<trkpt lat="54.499338" lon="-3.192945"><ele>359</ele><time>2024-05-31T10:13:35Z</time><name>PT1011</name></trkpt>
<trkpt lat="54.499336" lon="-3.192975"><ele>359</ele><time>2024-05-31T10:13:38Z</time><name>PT1012</name></trkpt>
<trkpt lat="54.499331" lon="-3.193015"><ele>360</ele><time>2024-05-31T10:13:42Z</time><name>PT1013</name></trkpt>
<trkpt lat="54.499336" lon="-3.193031"><ele>361</ele><time>2024-05-31T10:13:45Z</time><name>PT1014</name></trkpt>
<trkpt lat="54.499354" lon="-3.193052"><ele>362</ele><time>2024-05-31T10:13:49Z</time><name>PT1015</name></trkpt>
<trkpt lat="54.499366" lon="-3.193112"><ele>363</ele><time>2024-05-31T10:14:00Z</time><name>PT1016</name></trkpt>
<trkpt lat="54.499377" lon="-3.193173"><ele>363</ele><time>2024-05-31T10:14:03Z</time><name>PT1017</name></trkpt>
<trkpt lat="54.499380" lon="-3.193242"><ele>365</ele><time>2024-05-31T10:14:07Z</time><name>PT1018</name></trkpt>
<trkpt lat="54.499377" lon="-3.193297"><ele>365</ele><time>2024-05-31T10:14:10Z</time><name>PT1019</name></trkpt>
<trkpt lat="54.499363" lon="-3.193353"><ele>365</ele><time>2024-05-31T10:14:14Z</time><name>PT1020</name></trkpt>
<trkpt lat="54.499351" lon="-3.193390"><ele>365</ele><time>2024-05-31T10:14:17Z</time><name>PT1021</name></trkpt>
<trkpt lat="54.499336" lon="-3.193437"><ele>365</ele><time>2024-05-31T10:14:21Z</time><name>PT1022</name></trkpt>
<trkpt lat="54.499311" lon="-3.193451"><ele>365</ele><time>2024-05-31T10:14:25Z</time><name>PT1023</name></trkpt>
<trkpt lat="54.499296" lon="-3.193474"><ele>365</ele><time>2024-05-31T10:14:28Z</time><name>PT1024</name></trkpt>
<trkpt lat="54.499288" lon="-3.193515"><ele>366</ele><time>2024-05-31T10:14:32Z</time><name>PT1025</name></trkpt>
<trkpt lat="54.499276" lon="-3.193568"><ele>363</ele><time>2024-05-31T10:14:35Z</time><name>PT1026</name></trkpt>
<trkpt lat="54.499268" lon="-3.193603"><ele>366</ele><time>2024-05-31T10:14:39Z</time><name>PT1027</name></trkpt>
<trkpt lat="54.499255" lon="-3.193633"><ele>368</ele><time>2024-05-31T10:14:43Z</time><name>PT1028</name></trkpt>
<trkpt lat="54.499239" lon="-3.193665"><ele>369</ele><time>2024-05-31T10:14:46Z</time><name>PT1029</name></trkpt>
<trkpt lat="54.499224" lon="-3.193678"><ele>370</ele><time>2024-05-31T10:14:50Z</time><name>PT1030</name></trkpt>
<trkpt lat="54.499211" lon="-3.193720"><ele>371</ele><time>2024-05-31T10:14:54Z</time><name>PT1031</name></trkpt>
<trkpt lat="54.499184" lon="-3.193732"><ele>370</ele><time>2024-05-31T10:14:58Z</time><name>PT1032</name></trkpt>
<trkpt lat="54.499165" lon="-3.193744"><ele>370</ele><time>2024-05-31T10:15:01Z</time><name>PT1033</name></trkpt>
<trkpt lat="54.499145" lon="-3.193790"><ele>370</ele><time>2024-05-31T10:15:05Z</time><name>PT1034</name></trkpt>
<trkpt lat="54.499130" lon="-3.193832"><ele>370</ele><time>2024-05-31T10:15:08Z</time><name>PT1035</name></trkpt>
<trkpt lat="54.499126" lon="-3.193866"><ele>370</ele><time>2024-05-31T10:15:11Z</time><name>PT1036</name></trkpt>
<trkpt lat="54.499109" lon="-3.193915"><ele>371</ele><time>2024-05-31T10:15:15Z</time><name>PT1037</name></trkpt>
<trkpt lat="54.499093" lon="-3.193935"><ele>372</ele><time>2024-05-31T10:15:18Z</time><name>PT1038</name></trkpt>
<trkpt lat="54.499065" lon="-3.193954"><ele>374</ele><time>2024-05-31T10:15:22Z</time><name>PT1039</name></trkpt>
<trkpt lat="54.499036" lon="-3.193983"><ele>374</ele><time>2024-05-31T10:15:26Z</time><name>PT1040</name></trkpt>
<trkpt lat="54.499028" lon="-3.194012"><ele>373</ele><time>2024-05-31T10:15:29Z</time><name>PT1041</name></trkpt>
<trkpt lat="54.499005" lon="-3.194033"><ele>372</ele><time>2024-05-31T10:15:33Z</time><name>PT1042</name></trkpt>
<trkpt lat="54.498984" lon="-3.194057"><ele>372</ele><time>2024-05-31T10:15:36Z</time><name>PT1043</name></trkpt>
<trkpt lat="54.498963" lon="-3.194066"><ele>373</ele><time>2024-05-31T10:15:39Z</time><name>PT1044</name></trkpt>
<trkpt lat="54.498948" lon="-3.194102"><ele>371</ele><time>2024-05-31T10:15:42Z</time><name>PT1045</name></trkpt>
<trkpt lat="54.498932" lon="-3.194136"><ele>372</ele><time>2024-05-31T10:15:46Z</time><name>PT1046</name></trkpt>
<trkpt lat="54.498926" lon="-3.194158"><ele>372</ele><time>2024-05-31T10:15:49Z</time><name>PT1047</name></trkpt>
<trkpt lat="54.498935" lon="-3.194134"><ele>377</ele><time>2024-05-31T10:15:53Z</time><name>PT1048</name></trkpt>
<trkpt lat="54.498928" lon="-3.194124"><ele>377</ele><time>2024-05-31T10:15:56Z</time><name>PT1049</name></trkpt>
<trkpt lat="54.498924" lon="-3.194129"><ele>377</ele><time>2024-05-31T10:16:00Z</time><name>PT1050</name></trkpt>
<trkpt lat="54.498924" lon="-3.194125"><ele>377</ele><time>2024-05-31T10:16:03Z</time><name>PT1051</name></trkpt>
<trkpt lat="54.498928" lon="-3.194138"><ele>378</ele><time>2024-05-31T10:16:21Z</time><name>PT1052</name></trkpt>
<trkpt lat="54.498928" lon="-3.194155"><ele>378</ele><time>2024-05-31T10:16:25Z</time><name>PT1053</name></trkpt>
<trkpt lat="54.498931" lon="-3.194140"><ele>378</ele><time>2024-05-31T10:16:32Z</time><name>PT1054</name></trkpt>
<trkpt lat="54.498932" lon="-3.194131"><ele>379</ele><time>2024-05-31T10:16:36Z</time><name>PT1055</name></trkpt>
<trkpt lat="54.498933" lon="-3.194126"><ele>380</ele><time>2024-05-31T10:17:11Z</time><name>PT1056</name></trkpt>
<trkpt lat="54.498935" lon="-3.194123"><ele>380</ele><time>2024-05-31T10:17:14Z</time><name>PT1057</name></trkpt>
<trkpt lat="54.498944" lon="-3.194138"><ele>382</ele><time>2024-05-31T10:25:35Z</time><name>PT1058</name></trkpt>
<trkpt lat="54.498951" lon="-3.194146"><ele>381</ele><time>2024-05-31T10:25:38Z</time><name>PT1059</name></trkpt>
<trkpt lat="54.498951" lon="-3.194148"><ele>381</ele><time>2024-05-31T10:25:42Z</time><name>PT1060</name></trkpt>
<trkpt lat="54.498950" lon="-3.194145"><ele>381</ele><time>2024-05-31T10:26:07Z</time><name>PT1061</name></trkpt>
<trkpt lat="54.498961" lon="-3.194161"><ele>381</ele><time>2024-05-31T10:27:50Z</time><name>PT1062</name></trkpt>
<trkpt lat="54.498960" lon="-3.194165"><ele>381</ele><time>2024-05-31T10:27:54Z</time><name>PT1063</name></trkpt>
<trkpt lat="54.498960" lon="-3.194155"><ele>381</ele><time>2024-05-31T10:30:37Z</time><name>PT1064</name></trkpt>
<trkpt lat="54.498955" lon="-3.194161"><ele>383</ele><time>2024-05-31T10:30:41Z</time><name>PT1065</name></trkpt>
<trkpt lat="54.498954" lon="-3.194156"><ele>382</ele><time>2024-05-31T10:30:44Z</time><name>PT1066</name></trkpt>
<trkpt lat="54.498943" lon="-3.194148"><ele>382</ele><time>2024-05-31T10:30:55Z</time><name>PT1067</name></trkpt>
<trkpt lat="54.498917" lon="-3.194155"><ele>381</ele><time>2024-05-31T10:30:58Z</time><name>PT1068</name></trkpt>
<trkpt lat="54.498892" lon="-3.194169"><ele>382</ele><time>2024-05-31T10:31:02Z</time><name>PT1069</name></trkpt>
<trkpt lat="54.498871" lon="-3.194162"><ele>381</ele><time>2024-05-31T10:31:05Z</time><name>PT1070</name></trkpt>
<trkpt lat="54.498855" lon="-3.194178"><ele>382</ele><time>2024-05-31T10:31:08Z</time><name>PT1071</name></trkpt>
<trkpt lat="54.498830" lon="-3.194182"><ele>382</ele><time>2024-05-31T10:31:11Z</time><name>PT1072</name></trkpt>
<trkpt lat="54.498809" lon="-3.194218"><ele>383</ele><time>2024-05-31T10:31:15Z</time><name>PT1073</name></trkpt>
<trkpt lat="54.498792" lon="-3.194257"><ele>384</ele><time>2024-05-31T10:31:18Z</time><name>PT1074</name></trkpt>
<trkpt lat="54.498755" lon="-3.194310"><ele>386</ele><time>2024-05-31T10:31:22Z</time><name>PT1075</name></trkpt>
<trkpt lat="54.498728" lon="-3.194350"><ele>385</ele><time>2024-05-31T10:31:26Z</time><name>PT1076</name></trkpt>
<trkpt lat="54.498696" lon="-3.194385"><ele>385</ele><time>2024-05-31T10:31:30Z</time><name>PT1077</name></trkpt>
<trkpt lat="54.498670" lon="-3.194405"><ele>385</ele><time>2024-05-31T10:31:33Z</time><name>PT1078</name></trkpt>
<trkpt lat="54.498636" lon="-3.194423"><ele>386</ele><time>2024-05-31T10:31:37Z</time><name>PT1079</name></trkpt>
<trkpt lat="54.498603" lon="-3.194459"><ele>386</ele><time>2024-05-31T10:31:41Z</time><name>PT1080</name></trkpt>
<trkpt lat="54.498572" lon="-3.194492"><ele>385</ele><time>2024-05-31T10:31:45Z</time><name>PT1081</name></trkpt>
<trkpt lat="54.498550" lon="-3.194508"><ele>386</ele><time>2024-05-31T10:31:48Z</time><name>PT1082</name></trkpt>
<trkpt lat="54.498535" lon="-3.194521"><ele>385</ele><time>2024-05-31T10:31:51Z</time><name>PT1083</name></trkpt>
<trkpt lat="54.498507" lon="-3.194528"><ele>386</ele><time>2024-05-31T10:31:55Z</time><name>PT1084</name></trkpt>
<trkpt lat="54.498484" lon="-3.194536"><ele>387</ele><time>2024-05-31T10:31:58Z</time><name>PT1085</name></trkpt>
<trkpt lat="54.498466" lon="-3.194544"><ele>388</ele><time>2024-05-31T10:32:01Z</time><name>PT1086</name></trkpt>
<trkpt lat="54.498445" lon="-3.194554"><ele>389</ele><time>2024-05-31T10:32:05Z</time><name>PT1087</name></trkpt>
<trkpt lat="54.498436" lon="-3.194563"><ele>390</ele><time>2024-05-31T10:32:08Z</time><name>PT1088</name></trkpt>
<trkpt lat="54.498413" lon="-3.194576"><ele>390</ele><time>2024-05-31T10:32:11Z</time><name>PT1089</name></trkpt>
<trkpt lat="54.498392" lon="-3.194608"><ele>391</ele><time>2024-05-31T10:32:14Z</time><name>PT1090</name></trkpt>
<trkpt lat="54.498374" lon="-3.194643"><ele>390</ele><time>2024-05-31T10:32:18Z</time><name>PT1091</name></trkpt>
<trkpt lat="54.498359" lon="-3.194696"><ele>390</ele><time>2024-05-31T10:32:22Z</time><name>PT1092</name></trkpt>
<trkpt lat="54.498337" lon="-3.194729"><ele>390</ele><time>2024-05-31T10:32:25Z</time><name>PT1093</name></trkpt>
<trkpt lat="54.498319" lon="-3.194781"><ele>390</ele><time>2024-05-31T10:32:29Z</time><name>PT1094</name></trkpt>
<trkpt lat="54.498310" lon="-3.194843"><ele>390</ele><time>2024-05-31T10:32:33Z</time><name>PT1095</name></trkpt>
<trkpt lat="54.498299" lon="-3.194889"><ele>390</ele><time>2024-05-31T10:32:37Z</time><name>PT1096</name></trkpt>
<trkpt lat="54.498281" lon="-3.194956"><ele>391</ele><time>2024-05-31T10:32:41Z</time><name>PT1097</name></trkpt>
<trkpt lat="54.498265" lon="-3.194988"><ele>391</ele><time>2024-05-31T10:32:44Z</time><name>PT1098</name></trkpt>
<trkpt lat="54.498248" lon="-3.195018"><ele>392</ele><time>2024-05-31T10:32:47Z</time><name>PT1099</name></trkpt>
<trkpt lat="54.498235" lon="-3.195053"><ele>393</ele><time>2024-05-31T10:32:51Z</time><name>PT1100</name></trkpt>
<trkpt lat="54.498215" lon="-3.195083"><ele>392</ele><time>2024-05-31T10:32:54Z</time><name>PT1101</name></trkpt>
<trkpt lat="54.498203" lon="-3.195112"><ele>392</ele><time>2024-05-31T10:32:57Z</time><name>PT1102</name></trkpt>
<trkpt lat="54.498171" lon="-3.195128"><ele>393</ele><time>2024-05-31T10:33:01Z</time><name>PT1103</name></trkpt>
<trkpt lat="54.498145" lon="-3.195139"><ele>393</ele><time>2024-05-31T10:33:04Z</time><name>PT1104</name></trkpt>
<trkpt lat="54.498124" lon="-3.195167"><ele>393</ele><time>2024-05-31T10:33:07Z</time><name>PT1105</name></trkpt>
<trkpt lat="54.498097" lon="-3.195209"><ele>393</ele><time>2024-05-31T10:33:11Z</time><name>PT1106</name></trkpt>
<trkpt lat="54.498073" lon="-3.195245"><ele>391</ele><time>2024-05-31T10:33:15Z</time><name>PT1107</name></trkpt>
<trkpt lat="54.498057" lon="-3.195280"><ele>391</ele><time>2024-05-31T10:33:18Z</time><name>PT1108</name></trkpt>
<trkpt lat="54.498043" lon="-3.195318"><ele>391</ele><time>2024-05-31T10:33:21Z</time><name>PT1109</name></trkpt>
<trkpt lat="54.498027" lon="-3.195352"><ele>390</ele><time>2024-05-31T10:33:24Z</time><name>PT1110</name></trkpt>
<trkpt lat="54.498002" lon="-3.195397"><ele>390</ele><time>2024-05-31T10:33:28Z</time><name>PT1111</name></trkpt>
<trkpt lat="54.497979" lon="-3.195430"><ele>390</ele><time>2024-05-31T10:33:31Z</time><name>PT1112</name></trkpt>
<trkpt lat="54.497949" lon="-3.195466"><ele>390</ele><time>2024-05-31T10:33:35Z</time><name>PT1113</name></trkpt>
<trkpt lat="54.497925" lon="-3.195488"><ele>390</ele><time>2024-05-31T10:33:38Z</time><name>PT1114</name></trkpt>
<trkpt lat="54.497897" lon="-3.195520"><ele>391</ele><time>2024-05-31T10:33:42Z</time><name>PT1115</name></trkpt>
<trkpt lat="54.497872" lon="-3.195537"><ele>392</ele><time>2024-05-31T10:33:45Z</time><name>PT1116</name></trkpt>
<trkpt lat="54.497841" lon="-3.195570"><ele>392</ele><time>2024-05-31T10:33:49Z</time><name>PT1117</name></trkpt>
<trkpt lat="54.497818" lon="-3.195619"><ele>393</ele><time>2024-05-31T10:33:53Z</time><name>PT1118</name></trkpt>
<trkpt lat="54.497802" lon="-3.195662"><ele>394</ele><time>2024-05-31T10:33:56Z</time><name>PT1119</name></trkpt>
<trkpt lat="54.497784" lon="-3.195715"><ele>395</ele><time>2024-05-31T10:34:00Z</time><name>PT1120</name></trkpt>
<trkpt lat="54.497770" lon="-3.195755"><ele>395</ele><time>2024-05-31T10:34:03Z</time><name>PT1121</name></trkpt>
<trkpt lat="54.497741" lon="-3.195795"><ele>394</ele><time>2024-05-31T10:34:07Z</time><name>PT1122</name></trkpt>
<trkpt lat="54.497725" lon="-3.195826"><ele>395</ele><time>2024-05-31T10:34:10Z</time><name>PT1123</name></trkpt>
<trkpt lat="54.497710" lon="-3.195843"><ele>397</ele><time>2024-05-31T10:34:13Z</time><name>PT1124</name></trkpt>
<trkpt lat="54.497680" lon="-3.195871"><ele>397</ele><time>2024-05-31T10:34:17Z</time><name>PT1125</name></trkpt>
<trkpt lat="54.497661" lon="-3.195899"><ele>397</ele><time>2024-05-31T10:34:20Z</time><name>PT1126</name></trkpt>
<trkpt lat="54.497643" lon="-3.195940"><ele>398</ele><time>2024-05-31T10:34:24Z</time><name>PT1127</name></trkpt>
<trkpt lat="54.497631" lon="-3.195958"><ele>399</ele><time>2024-05-31T10:34:27Z</time><name>PT1128</name></trkpt>
<trkpt lat="54.497602" lon="-3.195966"><ele>399</ele><time>2024-05-31T10:34:31Z</time><name>PT1129</name></trkpt>
<trkpt lat="54.497583" lon="-3.195982"><ele>401</ele><time>2024-05-31T10:34:34Z</time><name>PT1130</name></trkpt>
<trkpt lat="54.497561" lon="-3.196013"><ele>401</ele><time>2024-05-31T10:34:38Z</time><name>PT1131</name></trkpt>
<trkpt lat="54.497543" lon="-3.196067"><ele>402</ele><time>2024-05-31T10:34:42Z</time><name>PT1132</name></trkpt>
<trkpt lat="54.497526" lon="-3.196095"><ele>401</ele><time>2024-05-31T10:34:45Z</time><name>PT1133</name></trkpt>
<trkpt lat="54.497508" lon="-3.196144"><ele>401</ele><time>2024-05-31T10:34:49Z</time><name>PT1134</name></trkpt>
<trkpt lat="54.497484" lon="-3.196177"><ele>401</ele><time>2024-05-31T10:34:52Z</time><name>PT1135</name></trkpt>
<trkpt lat="54.497462" lon="-3.196207"><ele>402</ele><time>2024-05-31T10:34:55Z</time><name>PT1136</name></trkpt>
<trkpt lat="54.497443" lon="-3.196250"><ele>402</ele><time>2024-05-31T10:34:59Z</time><name>PT1137</name></trkpt>
<trkpt lat="54.497425" lon="-3.196290"><ele>403</ele><time>2024-05-31T10:35:02Z</time><name>PT1138</name></trkpt>
<trkpt lat="54.497403" lon="-3.196342"><ele>403</ele><time>2024-05-31T10:35:06Z</time><name>PT1139</name></trkpt>
<trkpt lat="54.497389" lon="-3.196370"><ele>404</ele><time>2024-05-31T10:35:09Z</time><name>PT1140</name></trkpt>
<trkpt lat="54.497370" lon="-3.196428"><ele>403</ele><time>2024-05-31T10:35:13Z</time><name>PT1141</name></trkpt>
<trkpt lat="54.497359" lon="-3.196482"><ele>403</ele><time>2024-05-31T10:35:16Z</time><name>PT1142</name></trkpt>
<trkpt lat="54.497335" lon="-3.196533"><ele>403</ele><time>2024-05-31T10:35:20Z</time><name>PT1143</name></trkpt>
<trkpt lat="54.497311" lon="-3.196558"><ele>403</ele><time>2024-05-31T10:35:23Z</time><name>PT1144</name></trkpt>
<trkpt lat="54.497291" lon="-3.196576"><ele>404</ele><time>2024-05-31T10:35:26Z</time><name>PT1145</name></trkpt>
<trkpt lat="54.497271" lon="-3.196593"><ele>404</ele><time>2024-05-31T10:35:29Z</time><name>PT1146</name></trkpt>
<trkpt lat="54.497248" lon="-3.196630"><ele>406</ele><time>2024-05-31T10:35:33Z</time><name>PT1147</name></trkpt>
<trkpt lat="54.497230" lon="-3.196666"><ele>405</ele><time>2024-05-31T10:35:37Z</time><name>PT1148</name></trkpt>
<trkpt lat="54.497206" lon="-3.196692"><ele>405</ele><time>2024-05-31T10:35:41Z</time><name>PT1149</name></trkpt>
<trkpt lat="54.497184" lon="-3.196708"><ele>406</ele><time>2024-05-31T10:35:44Z</time><name>PT1150</name></trkpt>
<trkpt lat="54.497162" lon="-3.196737"><ele>404</ele><time>2024-05-31T10:35:48Z</time><name>PT1151</name></trkpt>
<trkpt lat="54.497134" lon="-3.196785"><ele>406</ele><time>2024-05-31T10:35:52Z</time><name>PT1152</name></trkpt>
<trkpt lat="54.497116" lon="-3.196822"><ele>405</ele><time>2024-05-31T10:35:55Z</time><name>PT1153</name></trkpt>
<trkpt lat="54.497104" lon="-3.196868"><ele>405</ele><time>2024-05-31T10:35:58Z</time><name>PT1154</name></trkpt>
<trkpt lat="54.497092" lon="-3.196908"><ele>405</ele><time>2024-05-31T10:36:01Z</time><name>PT1155</name></trkpt>
<trkpt lat="54.497085" lon="-3.196958"><ele>405</ele><time>2024-05-31T10:36:04Z</time><name>PT1156</name></trkpt>
<trkpt lat="54.497059" lon="-3.197003"><ele>405</ele><time>2024-05-31T10:36:08Z</time><name>PT1157</name></trkpt>
<trkpt lat="54.497036" lon="-3.197016"><ele>405</ele><time>2024-05-31T10:36:12Z</time><name>PT1158</name></trkpt>
<trkpt lat="54.497017" lon="-3.197033"><ele>406</ele><time>2024-05-31T10:36:15Z</time><name>PT1159</name></trkpt>
<trkpt lat="54.496985" lon="-3.197083"><ele>406</ele><time>2024-05-31T10:36:19Z</time><name>PT1160</name></trkpt>
<trkpt lat="54.496966" lon="-3.197133"><ele>406</ele><time>2024-05-31T10:36:23Z</time><name>PT1161</name></trkpt>
<trkpt lat="54.496944" lon="-3.197179"><ele>407</ele><time>2024-05-31T10:36:27Z</time><name>PT1162</name></trkpt>
<trkpt lat="54.496920" lon="-3.197200"><ele>407</ele><time>2024-05-31T10:36:30Z</time><name>PT1163</name></trkpt>
<trkpt lat="54.496899" lon="-3.197235"><ele>407</ele><time>2024-05-31T10:36:33Z</time><name>PT1164</name></trkpt>
<trkpt lat="54.496878" lon="-3.197263"><ele>407</ele><time>2024-05-31T10:36:37Z</time><name>PT1165</name></trkpt>
<trkpt lat="54.496873" lon="-3.197314"><ele>408</ele><time>2024-05-31T10:36:41Z</time><name>PT1166</name></trkpt>
<trkpt lat="54.496858" lon="-3.197349"><ele>408</ele><time>2024-05-31T10:36:44Z</time><name>PT1167</name></trkpt>
<trkpt lat="54.496834" lon="-3.197399"><ele>408</ele><time>2024-05-31T10:36:48Z</time><name>PT1168</name></trkpt>
<trkpt lat="54.496812" lon="-3.197420"><ele>408</ele><time>2024-05-31T10:36:51Z</time><name>PT1169</name></trkpt>
<trkpt lat="54.496795" lon="-3.197449"><ele>408</ele><time>2024-05-31T10:36:55Z</time><name>PT1170</name></trkpt>
<trkpt lat="54.496779" lon="-3.197468"><ele>408</ele><time>2024-05-31T10:36:58Z</time><name>PT1171</name></trkpt>
<trkpt lat="54.496759" lon="-3.197502"><ele>409</ele><time>2024-05-31T10:37:01Z</time><name>PT1172</name></trkpt>
<trkpt lat="54.496749" lon="-3.197550"><ele>409</ele><time>2024-05-31T10:37:05Z</time><name>PT1173</name></trkpt>
<trkpt lat="54.496731" lon="-3.197581"><ele>409</ele><time>2024-05-31T10:37:09Z</time><name>PT1174</name></trkpt>
<trkpt lat="54.496703" lon="-3.197601"><ele>409</ele><time>2024-05-31T10:37:13Z</time><name>PT1175</name></trkpt>
<trkpt lat="54.496679" lon="-3.197642"><ele>410</ele><time>2024-05-31T10:37:17Z</time><name>PT1176</name></trkpt>
<trkpt lat="54.496650" lon="-3.197677"><ele>409</ele><time>2024-05-31T10:37:21Z</time><name>PT1177</name></trkpt>
<trkpt lat="54.496618" lon="-3.197717"><ele>409</ele><time>2024-05-31T10:37:25Z</time><name>PT1178</name></trkpt>
<trkpt lat="54.496602" lon="-3.197759"><ele>408</ele><time>2024-05-31T10:37:28Z</time><name>PT1179</name></trkpt>
<trkpt lat="54.496596" lon="-3.197810"><ele>408</ele><time>2024-05-31T10:37:31Z</time><name>PT1180</name></trkpt>
<trkpt lat="54.496579" lon="-3.197883"><ele>408</ele><time>2024-05-31T10:37:35Z</time><name>PT1181</name></trkpt>
<trkpt lat="54.496556" lon="-3.197937"><ele>409</ele><time>2024-05-31T10:37:39Z</time><name>PT1182</name></trkpt>
<trkpt lat="54.496538" lon="-3.197967"><ele>408</ele><time>2024-05-31T10:37:42Z</time><name>PT1183</name></trkpt>
<trkpt lat="54.496515" lon="-3.198026"><ele>409</ele><time>2024-05-31T10:37:46Z</time><name>PT1184</name></trkpt>
<trkpt lat="54.496504" lon="-3.198068"><ele>409</ele><time>2024-05-31T10:37:49Z</time><name>PT1185</name></trkpt>
<trkpt lat="54.496493" lon="-3.198114"><ele>410</ele><time>2024-05-31T10:37:52Z</time><name>PT1186</name></trkpt>
<trkpt lat="54.496471" lon="-3.198146"><ele>411</ele><time>2024-05-31T10:37:55Z</time><name>PT1187</name></trkpt>
<trkpt lat="54.496440" lon="-3.198174"><ele>411</ele><time>2024-05-31T10:37:59Z</time><name>PT1188</name></trkpt>
<trkpt lat="54.496418" lon="-3.198193"><ele>410</ele><time>2024-05-31T10:38:02Z</time><name>PT1189</name></trkpt>
<trkpt lat="54.496389" lon="-3.198232"><ele>409</ele><time>2024-05-31T10:38:06Z</time><name>PT1190</name></trkpt>
<trkpt lat="54.496373" lon="-3.198270"><ele>410</ele><time>2024-05-31T10:38:09Z</time><name>PT1191</name></trkpt>
<trkpt lat="54.496338" lon="-3.198311"><ele>410</ele><time>2024-05-31T10:38:13Z</time><name>PT1192</name></trkpt>
<trkpt lat="54.496309" lon="-3.198337"><ele>411</ele><time>2024-05-31T10:38:17Z</time><name>PT1193</name></trkpt>
<trkpt lat="54.496284" lon="-3.198380"><ele>409</ele><time>2024-05-31T10:38:21Z</time><name>PT1194</name></trkpt>
<trkpt lat="54.496266" lon="-3.198433"><ele>408</ele><time>2024-05-31T10:38:25Z</time><name>PT1195</name></trkpt>
<trkpt lat="54.496262" lon="-3.198477"><ele>407</ele><time>2024-05-31T10:38:28Z</time><name>PT1196</name></trkpt>
<trkpt lat="54.496244" lon="-3.198512"><ele>406</ele><time>2024-05-31T10:38:31Z</time><name>PT1197</name></trkpt>
<trkpt lat="54.496219" lon="-3.198577"><ele>406</ele><time>2024-05-31T10:38:35Z</time><name>PT1198</name></trkpt>
<trkpt lat="54.496203" lon="-3.198644"><ele>407</ele><time>2024-05-31T10:38:39Z</time><name>PT1199</name></trkpt>
<trkpt lat="54.496185" lon="-3.198690"><ele>407</ele><time>2024-05-31T10:38:42Z</time><name>PT1200</name></trkpt>
<trkpt lat="54.496178" lon="-3.198727"><ele>407</ele><time>2024-05-31T10:38:45Z</time><name>PT1201</name></trkpt>
<trkpt lat="54.496148" lon="-3.198753"><ele>407</ele><time>2024-05-31T10:38:49Z</time><name>PT1202</name></trkpt>
<trkpt lat="54.496122" lon="-3.198792"><ele>407</ele><time>2024-05-31T10:38:53Z</time><name>PT1203</name></trkpt>
<trkpt lat="54.496101" lon="-3.198820"><ele>407</ele><time>2024-05-31T10:38:56Z</time><name>PT1204</name></trkpt>
<trkpt lat="54.496077" lon="-3.198883"><ele>408</ele><time>2024-05-31T10:39:00Z</time><name>PT1205</name></trkpt>
<trkpt lat="54.496062" lon="-3.198923"><ele>408</ele><time>2024-05-31T10:39:03Z</time><name>PT1206</name></trkpt>
<trkpt lat="54.496053" lon="-3.198953"><ele>408</ele><time>2024-05-31T10:39:06Z</time><name>PT1207</name></trkpt>
<trkpt lat="54.496024" lon="-3.198995"><ele>407</ele><time>2024-05-31T10:39:10Z</time><name>PT1208</name></trkpt>
<trkpt lat="54.496001" lon="-3.199044"><ele>407</ele><time>2024-05-31T10:39:14Z</time><name>PT1209</name></trkpt>
<trkpt lat="54.495987" lon="-3.199089"><ele>407</ele><time>2024-05-31T10:39:17Z</time><name>PT1210</name></trkpt>
<trkpt lat="54.495983" lon="-3.199147"><ele>408</ele><time>2024-05-31T10:39:20Z</time><name>PT1211</name></trkpt>
<trkpt lat="54.495969" lon="-3.199198"><ele>409</ele><time>2024-05-31T10:39:23Z</time><name>PT1212</name></trkpt>
<trkpt lat="54.495950" lon="-3.199265"><ele>410</ele><time>2024-05-31T10:39:27Z</time><name>PT1213</name></trkpt>
<trkpt lat="54.495934" lon="-3.199316"><ele>411</ele><time>2024-05-31T10:39:30Z</time><name>PT1214</name></trkpt>
<trkpt lat="54.495924" lon="-3.199373"><ele>411</ele><time>2024-05-31T10:39:33Z</time><name>PT1215</name></trkpt>
<trkpt lat="54.495907" lon="-3.199418"><ele>411</ele><time>2024-05-31T10:39:36Z</time><name>PT1216</name></trkpt>
<trkpt lat="54.495879" lon="-3.199472"><ele>411</ele><time>2024-05-31T10:39:40Z</time><name>PT1217</name></trkpt>
<trkpt lat="54.495849" lon="-3.199528"><ele>410</ele><time>2024-05-31T10:39:44Z</time><name>PT1218</name></trkpt>
<trkpt lat="54.495837" lon="-3.199588"><ele>410</ele><time>2024-05-31T10:39:48Z</time><name>PT1219</name></trkpt>
<trkpt lat="54.495825" lon="-3.199635"><ele>409</ele><time>2024-05-31T10:39:52Z</time><name>PT1220</name></trkpt>
<trkpt lat="54.495812" lon="-3.199677"><ele>409</ele><time>2024-05-31T10:39:55Z</time><name>PT1221</name></trkpt>
<trkpt lat="54.495776" lon="-3.199725"><ele>409</ele><time>2024-05-31T10:39:59Z</time><name>PT1222</name></trkpt>
<trkpt lat="54.495736" lon="-3.199744"><ele>409</ele><time>2024-05-31T10:40:03Z</time><name>PT1223</name></trkpt>
<trkpt lat="54.495729" lon="-3.199784"><ele>408</ele><time>2024-05-31T10:40:06Z</time><name>PT1224</name></trkpt>
<trkpt lat="54.495715" lon="-3.199820"><ele>409</ele><time>2024-05-31T10:40:09Z</time><name>PT1225</name></trkpt>
<trkpt lat="54.495708" lon="-3.199850"><ele>409</ele><time>2024-05-31T10:40:12Z</time><name>PT1226</name></trkpt>
<trkpt lat="54.495702" lon="-3.199883"><ele>409</ele><time>2024-05-31T10:40:15Z</time><name>PT1227</name></trkpt>
<trkpt lat="54.495692" lon="-3.199918"><ele>409</ele><time>2024-05-31T10:40:19Z</time><name>PT1228</name></trkpt>
<trkpt lat="54.495681" lon="-3.199939"><ele>409</ele><time>2024-05-31T10:40:22Z</time><name>PT1229</name></trkpt>
<trkpt lat="54.495671" lon="-3.199975"><ele>409</ele><time>2024-05-31T10:40:26Z</time><name>PT1230</name></trkpt>
<trkpt lat="54.495656" lon="-3.200029"><ele>408</ele><time>2024-05-31T10:40:30Z</time><name>PT1231</name></trkpt>
<trkpt lat="54.495649" lon="-3.200084"><ele>409</ele><time>2024-05-31T10:40:33Z</time><name>PT1232</name></trkpt>
<trkpt lat="54.495629" lon="-3.200139"><ele>408</ele><time>2024-05-31T10:40:37Z</time><name>PT1233</name></trkpt>
<trkpt lat="54.495623" lon="-3.200194"><ele>408</ele><time>2024-05-31T10:40:40Z</time><name>PT1234</name></trkpt>
<trkpt lat="54.495603" lon="-3.200240"><ele>409</ele><time>2024-05-31T10:40:44Z</time><name>PT1235</name></trkpt>
<trkpt lat="54.495579" lon="-3.200255"><ele>408</ele><time>2024-05-31T10:40:47Z</time><name>PT1236</name></trkpt>
<trkpt lat="54.495563" lon="-3.200281"><ele>409</ele><time>2024-05-31T10:40:50Z</time><name>PT1237</name></trkpt>
<trkpt lat="54.495536" lon="-3.200309"><ele>410</ele><time>2024-05-31T10:40:54Z</time><name>PT1238</name></trkpt>
<trkpt lat="54.495516" lon="-3.200335"><ele>410</ele><time>2024-05-31T10:40:57Z</time><name>PT1239</name></trkpt>
<trkpt lat="54.495498" lon="-3.200371"><ele>411</ele><time>2024-05-31T10:41:01Z</time><name>PT1240</name></trkpt>
<trkpt lat="54.495496" lon="-3.200381"><ele>411</ele><time>2024-05-31T10:41:05Z</time><name>PT1241</name></trkpt>
<trkpt lat="54.495486" lon="-3.200446"><ele>411</ele><time>2024-05-31T10:41:09Z</time><name>PT1242</name></trkpt>
<trkpt lat="54.495475" lon="-3.200502"><ele>412</ele><time>2024-05-31T10:41:13Z</time><name>PT1243</name></trkpt>
<trkpt lat="54.495472" lon="-3.200545"><ele>413</ele><time>2024-05-31T10:41:16Z</time><name>PT1244</name></trkpt>
<trkpt lat="54.495464" lon="-3.200586"><ele>413</ele><time>2024-05-31T10:41:19Z</time><name>PT1245</name></trkpt>
<trkpt lat="54.495473" lon="-3.200637"><ele>414</ele><time>2024-05-31T10:41:23Z</time><name>PT1246</name></trkpt>
<trkpt lat="54.495475" lon="-3.200664"><ele>414</ele><time>2024-05-31T10:41:26Z</time><name>PT1247</name></trkpt>
<trkpt lat="54.495474" lon="-3.200713"><ele>414</ele><time>2024-05-31T10:41:29Z</time><name>PT1248</name></trkpt>
<trkpt lat="54.495482" lon="-3.200785"><ele>415</ele><time>2024-05-31T10:41:33Z</time><name>PT1249</name></trkpt>
<trkpt lat="54.495484" lon="-3.200832"><ele>415</ele><time>2024-05-31T10:41:36Z</time><name>PT1250</name></trkpt>
<trkpt lat="54.495488" lon="-3.200903"><ele>415</ele><time>2024-05-31T10:41:40Z</time><name>PT1251</name></trkpt>
<trkpt lat="54.495486" lon="-3.200952"><ele>415</ele><time>2024-05-31T10:41:43Z</time><name>PT1252</name></trkpt>
<trkpt lat="54.495482" lon="-3.201001"><ele>414</ele><time>2024-05-31T10:41:47Z</time><name>PT1253</name></trkpt>
<trkpt lat="54.495481" lon="-3.201047"><ele>414</ele><time>2024-05-31T10:41:50Z</time><name>PT1254</name></trkpt>
<trkpt lat="54.495479" lon="-3.201103"><ele>413</ele><time>2024-05-31T10:41:53Z</time><name>PT1255</name></trkpt>
<trkpt lat="54.495492" lon="-3.201154"><ele>412</ele><time>2024-05-31T10:41:56Z</time><name>PT1256</name></trkpt>
<trkpt lat="54.495492" lon="-3.201233"><ele>413</ele><time>2024-05-31T10:42:00Z</time><name>PT1257</name></trkpt>
<trkpt lat="54.495483" lon="-3.201282"><ele>413</ele><time>2024-05-31T10:42:03Z</time><name>PT1258</name></trkpt>
<trkpt lat="54.495472" lon="-3.201343"><ele>413</ele><time>2024-05-31T10:42:07Z</time><name>PT1259</name></trkpt>
<trkpt lat="54.495462" lon="-3.201398"><ele>413</ele><time>2024-05-31T10:42:11Z</time><name>PT1260</name></trkpt>
<trkpt lat="54.495457" lon="-3.201439"><ele>413</ele><time>2024-05-31T10:42:14Z</time><name>PT1261</name></trkpt>
<trkpt lat="54.495452" lon="-3.201476"><ele>412</ele><time>2024-05-31T10:42:18Z</time><name>PT1262</name></trkpt>
<trkpt lat="54.495452" lon="-3.201534"><ele>411</ele><time>2024-05-31T10:42:22Z</time><name>PT1263</name></trkpt>
<trkpt lat="54.495450" lon="-3.201575"><ele>411</ele><time>2024-05-31T10:42:25Z</time><name>PT1264</name></trkpt>
<trkpt lat="54.495444" lon="-3.201626"><ele>411</ele><time>2024-05-31T10:42:29Z</time><name>PT1265</name></trkpt>
<trkpt lat="54.495443" lon="-3.201668"><ele>411</ele><time>2024-05-31T10:42:32Z</time><name>PT1266</name></trkpt>
<trkpt lat="54.495446" lon="-3.201724"><ele>412</ele><time>2024-05-31T10:42:36Z</time><name>PT1267</name></trkpt>
<trkpt lat="54.495452" lon="-3.201765"><ele>412</ele><time>2024-05-31T10:42:39Z</time><name>PT1268</name></trkpt>
<trkpt lat="54.495462" lon="-3.201802"><ele>414</ele><time>2024-05-31T10:42:42Z</time><name>PT1269</name></trkpt>
<trkpt lat="54.495479" lon="-3.201853"><ele>415</ele><time>2024-05-31T10:42:46Z</time><name>PT1270</name></trkpt>
<trkpt lat="54.495504" lon="-3.201898"><ele>415</ele><time>2024-05-31T10:42:50Z</time><name>PT1271</name></trkpt>
<trkpt lat="54.495511" lon="-3.201954"><ele>416</ele><time>2024-05-31T10:42:54Z</time><name>PT1272</name></trkpt>
<trkpt lat="54.495502" lon="-3.201986"><ele>416</ele><time>2024-05-31T10:42:57Z</time><name>PT1273</name></trkpt>
<trkpt lat="54.495479" lon="-3.202025"><ele>417</ele><time>2024-05-31T10:43:01Z</time><name>PT1274</name></trkpt>
<trkpt lat="54.495472" lon="-3.202080"><ele>417</ele><time>2024-05-31T10:43:05Z</time><name>PT1275</name></trkpt>
<trkpt lat="54.495473" lon="-3.202139"><ele>418</ele><time>2024-05-31T10:43:09Z</time><name>PT1276</name></trkpt>
<trkpt lat="54.495473" lon="-3.202202"><ele>419</ele><time>2024-05-31T10:43:13Z</time><name>PT1277</name></trkpt>
<trkpt lat="54.495463" lon="-3.202256"><ele>419</ele><time>2024-05-31T10:43:17Z</time><name>PT1278</name></trkpt>
<trkpt lat="54.495447" lon="-3.202288"><ele>419</ele><time>2024-05-31T10:43:20Z</time><name>PT1279</name></trkpt>
<trkpt lat="54.495431" lon="-3.202333"><ele>419</ele><time>2024-05-31T10:43:23Z</time><name>PT1280</name></trkpt>
<trkpt lat="54.495412" lon="-3.202386"><ele>419</ele><time>2024-05-31T10:43:27Z</time><name>PT1281</name></trkpt>
<trkpt lat="54.495385" lon="-3.202438"><ele>418</ele><time>2024-05-31T10:43:31Z</time><name>PT1282</name></trkpt>
<trkpt lat="54.495346" lon="-3.202480"><ele>417</ele><time>2024-05-31T10:43:35Z</time><name>PT1283</name></trkpt>
<trkpt lat="54.495312" lon="-3.202490"><ele>417</ele><time>2024-05-31T10:43:39Z</time><name>PT1284</name></trkpt>
<trkpt lat="54.495287" lon="-3.202509"><ele>417</ele><time>2024-05-31T10:43:42Z</time><name>PT1285</name></trkpt>
<trkpt lat="54.495259" lon="-3.202553"><ele>416</ele><time>2024-05-31T10:43:46Z</time><name>PT1286</name></trkpt>
<trkpt lat="54.495233" lon="-3.202596"><ele>416</ele><time>2024-05-31T10:43:49Z</time><name>PT1287</name></trkpt>
<trkpt lat="54.495204" lon="-3.202612"><ele>417</ele><time>2024-05-31T10:43:52Z</time><name>PT1288</name></trkpt>
<trkpt lat="54.495172" lon="-3.202615"><ele>417</ele><time>2024-05-31T10:43:55Z</time><name>PT1289</name></trkpt>
<trkpt lat="54.495140" lon="-3.202627"><ele>418</ele><time>2024-05-31T10:43:58Z</time><name>PT1290</name></trkpt>
<trkpt lat="54.495116" lon="-3.202650"><ele>417</ele><time>2024-05-31T10:44:01Z</time><name>PT1291</name></trkpt>
<trkpt lat="54.495092" lon="-3.202664"><ele>418</ele><time>2024-05-31T10:44:04Z</time><name>PT1292</name></trkpt>
<trkpt lat="54.495072" lon="-3.202691"><ele>419</ele><time>2024-05-31T10:44:07Z</time><name>PT1293</name></trkpt>
<trkpt lat="54.495046" lon="-3.202709"><ele>419</ele><time>2024-05-31T10:44:11Z</time><name>PT1294</name></trkpt>
<trkpt lat="54.495025" lon="-3.202739"><ele>419</ele><time>2024-05-31T10:44:14Z</time><name>PT1295</name></trkpt>
<trkpt lat="54.494995" lon="-3.202784"><ele>419</ele><time>2024-05-31T10:44:18Z</time><name>PT1296</name></trkpt>
<trkpt lat="54.494967" lon="-3.202817"><ele>419</ele><time>2024-05-31T10:44:21Z</time><name>PT1297</name></trkpt>
<trkpt lat="54.494931" lon="-3.202840"><ele>418</ele><time>2024-05-31T10:44:25Z</time><name>PT1298</name></trkpt>
<trkpt lat="54.494902" lon="-3.202854"><ele>418</ele><time>2024-05-31T10:44:28Z</time><name>PT1299</name></trkpt>
<trkpt lat="54.494862" lon="-3.202861"><ele>418</ele><time>2024-05-31T10:44:32Z</time><name>PT1300</name></trkpt>
<trkpt lat="54.494832" lon="-3.202865"><ele>419</ele><time>2024-05-31T10:44:35Z</time><name>PT1301</name></trkpt>
<trkpt lat="54.494803" lon="-3.202877"><ele>419</ele><time>2024-05-31T10:44:38Z</time><name>PT1302</name></trkpt>
<trkpt lat="54.494766" lon="-3.202872"><ele>419</ele><time>2024-05-31T10:44:42Z</time><name>PT1303</name></trkpt>
<trkpt lat="54.494748" lon="-3.202861"><ele>419</ele><time>2024-05-31T10:44:45Z</time><name>PT1304</name></trkpt>
<trkpt lat="54.494727" lon="-3.202841"><ele>421</ele><time>2024-05-31T10:44:49Z</time><name>PT1305</name></trkpt>
<trkpt lat="54.494709" lon="-3.202844"><ele>423</ele><time>2024-05-31T10:44:52Z</time><name>PT1306</name></trkpt>
<trkpt lat="54.494686" lon="-3.202881"><ele>423</ele><time>2024-05-31T10:44:56Z</time><name>PT1307</name></trkpt>
<trkpt lat="54.494676" lon="-3.202912"><ele>424</ele><time>2024-05-31T10:44:59Z</time><name>PT1308</name></trkpt>
<trkpt lat="54.494655" lon="-3.202961"><ele>424</ele><time>2024-05-31T10:45:03Z</time><name>PT1309</name></trkpt>
<trkpt lat="54.494645" lon="-3.203014"><ele>424</ele><time>2024-05-31T10:45:07Z</time><name>PT1310</name></trkpt>
<trkpt lat="54.494623" lon="-3.203070"><ele>425</ele><time>2024-05-31T10:45:11Z</time><name>PT1311</name></trkpt>
<trkpt lat="54.494621" lon="-3.203105"><ele>425</ele><time>2024-05-31T10:45:14Z</time><name>PT1312</name></trkpt>
<trkpt lat="54.494635" lon="-3.203177"><ele>427</ele><time>2024-05-31T10:45:18Z</time><name>PT1313</name></trkpt>
<trkpt lat="54.494630" lon="-3.203237"><ele>427</ele><time>2024-05-31T10:45:22Z</time><name>PT1314</name></trkpt>
<trkpt lat="54.494617" lon="-3.203274"><ele>429</ele><time>2024-05-31T10:45:26Z</time><name>PT1315</name></trkpt>
<trkpt lat="54.494600" lon="-3.203300"><ele>428</ele><time>2024-05-31T10:45:29Z</time><name>PT1316</name></trkpt>
<trkpt lat="54.494580" lon="-3.203312"><ele>430</ele><time>2024-05-31T10:45:33Z</time><name>PT1317</name></trkpt>
<trkpt lat="54.494564" lon="-3.203327"><ele>430</ele><time>2024-05-31T10:45:36Z</time><name>PT1318</name></trkpt>
<trkpt lat="54.494551" lon="-3.203379"><ele>433</ele><time>2024-05-31T10:45:40Z</time><name>PT1319</name></trkpt>
<trkpt lat="54.494542" lon="-3.203427"><ele>434</ele><time>2024-05-31T10:45:43Z</time><name>PT1320</name></trkpt>
<trkpt lat="54.494523" lon="-3.203484"><ele>435</ele><time>2024-05-31T10:45:47Z</time><name>PT1321</name></trkpt>
<trkpt lat="54.494508" lon="-3.203521"><ele>435</ele><time>2024-05-31T10:45:50Z</time><name>PT1322</name></trkpt>
<trkpt lat="54.494497" lon="-3.203573"><ele>435</ele><time>2024-05-31T10:45:53Z</time><name>PT1323</name></trkpt>
<trkpt lat="54.494480" lon="-3.203614"><ele>435</ele><time>2024-05-31T10:45:56Z</time><name>PT1324</name></trkpt>
<trkpt lat="54.494472" lon="-3.203639"><ele>435</ele><time>2024-05-31T10:46:00Z</time><name>PT1325</name></trkpt>
<trkpt lat="54.494454" lon="-3.203677"><ele>435</ele><time>2024-05-31T10:46:04Z</time><name>PT1326</name></trkpt>
<trkpt lat="54.494430" lon="-3.203711"><ele>435</ele><time>2024-05-31T10:46:07Z</time><name>PT1327</name></trkpt>
<trkpt lat="54.494402" lon="-3.203750"><ele>435</ele><time>2024-05-31T10:46:11Z</time><name>PT1328</name></trkpt>
<trkpt lat="54.494382" lon="-3.203786"><ele>436</ele><time>2024-05-31T10:46:14Z</time><name>PT1329</name></trkpt>
<trkpt lat="54.494351" lon="-3.203818"><ele>437</ele><time>2024-05-31T10:46:18Z</time><name>PT1330</name></trkpt>
<trkpt lat="54.494328" lon="-3.203839"><ele>438</ele><time>2024-05-31T10:46:22Z</time><name>PT1331</name></trkpt>
<trkpt lat="54.494307" lon="-3.203862"><ele>440</ele><time>2024-05-31T10:46:26Z</time><name>PT1332</name></trkpt>
<trkpt lat="54.494287" lon="-3.203882"><ele>442</ele><time>2024-05-31T10:46:30Z</time><name>PT1333</name></trkpt>
<trkpt lat="54.494278" lon="-3.203888"><ele>442</ele><time>2024-05-31T10:46:36Z</time><name>PT1334</name></trkpt>
<trkpt lat="54.494265" lon="-3.203919"><ele>442</ele><time>2024-05-31T10:46:39Z</time><name>PT1335</name></trkpt>
<trkpt lat="54.494242" lon="-3.203963"><ele>442</ele><time>2024-05-31T10:46:43Z</time><name>PT1336</name></trkpt>
<trkpt lat="54.494222" lon="-3.203987"><ele>443</ele><time>2024-05-31T10:46:46Z</time><name>PT1337</name></trkpt>
<trkpt lat="54.494197" lon="-3.204001"><ele>443</ele><time>2024-05-31T10:46:50Z</time><name>PT1338</name></trkpt>
<trkpt lat="54.494164" lon="-3.204018"><ele>443</ele><time>2024-05-31T10:46:54Z</time><name>PT1339</name></trkpt>
<trkpt lat="54.494145" lon="-3.204031"><ele>444</ele><time>2024-05-31T10:46:57Z</time><name>PT1340</name></trkpt>
<trkpt lat="54.494116" lon="-3.204050"><ele>444</ele><time>2024-05-31T10:47:01Z</time><name>PT1341</name></trkpt>
<trkpt lat="54.494090" lon="-3.204083"><ele>445</ele><time>2024-05-31T10:47:05Z</time><name>PT1342</name></trkpt>
<trkpt lat="54.494073" lon="-3.204112"><ele>444</ele><time>2024-05-31T10:47:09Z</time><name>PT1343</name></trkpt>
<trkpt lat="54.494069" lon="-3.204147"><ele>445</ele><time>2024-05-31T10:47:13Z</time><name>PT1344</name></trkpt>
<trkpt lat="54.494062" lon="-3.204157"><ele>446</ele><time>2024-05-31T10:47:16Z</time><name>PT1345</name></trkpt>
<trkpt lat="54.494034" lon="-3.204150"><ele>446</ele><time>2024-05-31T10:47:20Z</time><name>PT1346</name></trkpt>
<trkpt lat="54.494009" lon="-3.204154"><ele>446</ele><time>2024-05-31T10:47:24Z</time><name>PT1347</name></trkpt>
<trkpt lat="54.493996" lon="-3.204164"><ele>446</ele><time>2024-05-31T10:47:27Z</time><name>PT1348</name></trkpt>
<trkpt lat="54.493974" lon="-3.204170"><ele>447</ele><time>2024-05-31T10:47:31Z</time><name>PT1349</name></trkpt>
<trkpt lat="54.493960" lon="-3.204181"><ele>448</ele><time>2024-05-31T10:47:34Z</time><name>PT1350</name></trkpt>
<trkpt lat="54.493936" lon="-3.204197"><ele>448</ele><time>2024-05-31T10:47:38Z</time><name>PT1351</name></trkpt>
<trkpt lat="54.493925" lon="-3.204227"><ele>449</ele><time>2024-05-31T10:47:41Z</time><name>PT1352</name></trkpt>
<trkpt lat="54.493909" lon="-3.204270"><ele>451</ele><time>2024-05-31T10:47:45Z</time><name>PT1353</name></trkpt>
<trkpt lat="54.493897" lon="-3.204301"><ele>451</ele><time>2024-05-31T10:47:48Z</time><name>PT1354</name></trkpt>
<trkpt lat="54.493881" lon="-3.204335"><ele>452</ele><time>2024-05-31T10:47:52Z</time><name>PT1355</name></trkpt>
<trkpt lat="54.493855" lon="-3.204355"><ele>453</ele><time>2024-05-31T10:47:56Z</time><name>PT1356</name></trkpt>
<trkpt lat="54.493829" lon="-3.204371"><ele>452</ele><time>2024-05-31T10:48:00Z</time><name>PT1357</name></trkpt>
<trkpt lat="54.493806" lon="-3.204398"><ele>453</ele><time>2024-05-31T10:48:04Z</time><name>PT1358</name></trkpt>
<trkpt lat="54.493787" lon="-3.204403"><ele>453</ele><time>2024-05-31T10:48:07Z</time><name>PT1359</name></trkpt>
<trkpt lat="54.493760" lon="-3.204418"><ele>454</ele><time>2024-05-31T10:48:11Z</time><name>PT1360</name></trkpt>
<trkpt lat="54.493734" lon="-3.204432"><ele>455</ele><time>2024-05-31T10:48:14Z</time><name>PT1361</name></trkpt>
<trkpt lat="54.493708" lon="-3.204462"><ele>455</ele><time>2024-05-31T10:48:18Z</time><name>PT1362</name></trkpt>
<trkpt lat="54.493679" lon="-3.204486"><ele>455</ele><time>2024-05-31T10:48:22Z</time><name>PT1363</name></trkpt>
<trkpt lat="54.493657" lon="-3.204505"><ele>456</ele><time>2024-05-31T10:48:25Z</time><name>PT1364</name></trkpt>
<trkpt lat="54.493646" lon="-3.204509"><ele>456</ele><time>2024-05-31T10:48:29Z</time><name>PT1365</name></trkpt>
<trkpt lat="54.493645" lon="-3.204513"><ele>457</ele><time>2024-05-31T10:48:32Z</time><name>PT1366</name></trkpt>
<trkpt lat="54.493622" lon="-3.204561"><ele>458</ele><time>2024-05-31T10:48:36Z</time><name>PT1367</name></trkpt>
<trkpt lat="54.493592" lon="-3.204587"><ele>458</ele><time>2024-05-31T10:48:40Z</time><name>PT1368</name></trkpt>
<trkpt lat="54.493567" lon="-3.204596"><ele>459</ele><time>2024-05-31T10:48:44Z</time><name>PT1369</name></trkpt>
<trkpt lat="54.493545" lon="-3.204597"><ele>459</ele><time>2024-05-31T10:48:47Z</time><name>PT1370</name></trkpt>
<trkpt lat="54.493514" lon="-3.204605"><ele>460</ele><time>2024-05-31T10:48:51Z</time><name>PT1371</name></trkpt>
<trkpt lat="54.493484" lon="-3.204592"><ele>461</ele><time>2024-05-31T10:48:55Z</time><name>PT1372</name></trkpt>
<trkpt lat="54.493467" lon="-3.204584"><ele>461</ele><time>2024-05-31T10:48:58Z</time><name>PT1373</name></trkpt>
<trkpt lat="54.493446" lon="-3.204560"><ele>462</ele><time>2024-05-31T10:49:02Z</time><name>PT1374</name></trkpt>
<trkpt lat="54.493441" lon="-3.204551"><ele>462</ele><time>2024-05-31T10:49:06Z</time><name>PT1375</name></trkpt>
<trkpt lat="54.493416" lon="-3.204555"><ele>464</ele><time>2024-05-31T10:49:20Z</time><name>PT1376</name></trkpt>
<trkpt lat="54.493380" lon="-3.204540"><ele>464</ele><time>2024-05-31T10:49:24Z</time><name>PT1377</name></trkpt>
<trkpt lat="54.493354" lon="-3.204528"><ele>466</ele><time>2024-05-31T10:49:27Z</time><name>PT1378</name></trkpt>
<trkpt lat="54.493332" lon="-3.204513"><ele>466</ele><time>2024-05-31T10:49:31Z</time><name>PT1379</name></trkpt>
<trkpt lat="54.493323" lon="-3.204499"><ele>467</ele><time>2024-05-31T10:49:34Z</time><name>PT1380</name></trkpt>
<trkpt lat="54.493306" lon="-3.204502"><ele>467</ele><time>2024-05-31T10:49:38Z</time><name>PT1381</name></trkpt>
<trkpt lat="54.493273" lon="-3.204485"><ele>468</ele><time>2024-05-31T10:49:49Z</time><name>PT1382</name></trkpt>
<trkpt lat="54.493243" lon="-3.204478"><ele>468</ele><time>2024-05-31T10:49:53Z</time><name>PT1383</name></trkpt>
<trkpt lat="54.493217" lon="-3.204481"><ele>470</ele><time>2024-05-31T10:49:57Z</time><name>PT1384</name></trkpt>
<trkpt lat="54.493204" lon="-3.204478"><ele>471</ele><time>2024-05-31T10:50:01Z</time><name>PT1385</name></trkpt>
<trkpt lat="54.493183" lon="-3.204459"><ele>472</ele><time>2024-05-31T10:50:04Z</time><name>PT1386</name></trkpt>
<trkpt lat="54.493151" lon="-3.204466"><ele>472</ele><time>2024-05-31T10:50:08Z</time><name>PT1387</name></trkpt>
<trkpt lat="54.493119" lon="-3.204482"><ele>472</ele><time>2024-05-31T10:50:12Z</time><name>PT1388</name></trkpt>
<trkpt lat="54.493095" lon="-3.204500"><ele>474</ele><time>2024-05-31T10:50:16Z</time><name>PT1389</name></trkpt>
<trkpt lat="54.493061" lon="-3.204510"><ele>476</ele><time>2024-05-31T10:50:20Z</time><name>PT1390</name></trkpt>
<trkpt lat="54.493033" lon="-3.204508"><ele>477</ele><time>2024-05-31T10:50:24Z</time><name>PT1391</name></trkpt>
<trkpt lat="54.493009" lon="-3.204506"><ele>478</ele><time>2024-05-31T10:50:27Z</time><name>PT1392</name></trkpt>
<trkpt lat="54.492993" lon="-3.204515"><ele>479</ele><time>2024-05-31T10:50:30Z</time><name>PT1393</name></trkpt>
<trkpt lat="54.492968" lon="-3.204512"><ele>480</ele><time>2024-05-31T10:50:34Z</time><name>PT1394</name></trkpt>
<trkpt lat="54.492946" lon="-3.204507"><ele>481</ele><time>2024-05-31T10:50:37Z</time><name>PT1395</name></trkpt>
<trkpt lat="54.492922" lon="-3.204498"><ele>481</ele><time>2024-05-31T10:50:41Z</time><name>PT1396</name></trkpt>
<trkpt lat="54.492909" lon="-3.204481"><ele>483</ele><time>2024-05-31T10:50:44Z</time><name>PT1397</name></trkpt>
<trkpt lat="54.492886" lon="-3.204457"><ele>484</ele><time>2024-05-31T10:50:48Z</time><name>PT1398</name></trkpt>
<trkpt lat="54.492866" lon="-3.204436"><ele>483</ele><time>2024-05-31T10:50:52Z</time><name>PT1399</name></trkpt>
<trkpt lat="54.492851" lon="-3.204435"><ele>483</ele><time>2024-05-31T10:50:55Z</time><name>PT1400</name></trkpt>
<trkpt lat="54.492829" lon="-3.204452"><ele>484</ele><time>2024-05-31T10:50:58Z</time><name>PT1401</name></trkpt>
<trkpt lat="54.492803" lon="-3.204479"><ele>485</ele><time>2024-05-31T10:51:02Z</time><name>PT1402</name></trkpt>
<trkpt lat="54.492778" lon="-3.204487"><ele>486</ele><time>2024-05-31T10:51:06Z</time><name>PT1403</name></trkpt>
<trkpt lat="54.492743" lon="-3.204479"><ele>488</ele><time>2024-05-31T10:51:10Z</time><name>PT1404</name></trkpt>
<trkpt lat="54.492710" lon="-3.204501"><ele>489</ele><time>2024-05-31T10:51:14Z</time><name>PT1405</name></trkpt>
<trkpt lat="54.492691" lon="-3.204521"><ele>489</ele><time>2024-05-31T10:51:17Z</time><name>PT1406</name></trkpt>
<trkpt lat="54.492668" lon="-3.204534"><ele>490</ele><time>2024-05-31T10:51:20Z</time><name>PT1407</name></trkpt>
<trkpt lat="54.492635" lon="-3.204535"><ele>490</ele><time>2024-05-31T10:51:24Z</time><name>PT1408</name></trkpt>
<trkpt lat="54.492611" lon="-3.204519"><ele>491</ele><time>2024-05-31T10:51:28Z</time><name>PT1409</name></trkpt>
<trkpt lat="54.492599" lon="-3.204501"><ele>492</ele><time>2024-05-31T10:51:31Z</time><name>PT1410</name></trkpt>
<trkpt lat="54.492595" lon="-3.204487"><ele>492</ele><time>2024-05-31T10:51:34Z</time><name>PT1411</name></trkpt>
<trkpt lat="54.492582" lon="-3.204482"><ele>492</ele><time>2024-05-31T10:51:37Z</time><name>PT1412</name></trkpt>
<trkpt lat="54.492569" lon="-3.204477"><ele>492</ele><time>2024-05-31T10:51:40Z</time><name>PT1413</name></trkpt>
<trkpt lat="54.492554" lon="-3.204461"><ele>493</ele><time>2024-05-31T10:51:43Z</time><name>PT1414</name></trkpt>
<trkpt lat="54.492529" lon="-3.204450"><ele>494</ele><time>2024-05-31T10:51:47Z</time><name>PT1415</name></trkpt>
<trkpt lat="54.492506" lon="-3.204449"><ele>496</ele><time>2024-05-31T10:51:50Z</time><name>PT1416</name></trkpt>
<trkpt lat="54.492483" lon="-3.204460"><ele>497</ele><time>2024-05-31T10:51:54Z</time><name>PT1417</name></trkpt>
<trkpt lat="54.492477" lon="-3.204471"><ele>497</ele><time>2024-05-31T10:51:57Z</time><name>PT1418</name></trkpt>
<trkpt lat="54.492478" lon="-3.204476"><ele>497</ele><time>2024-05-31T10:52:01Z</time><name>PT1419</name></trkpt>
<trkpt lat="54.492474" lon="-3.204474"><ele>497</ele><time>2024-05-31T10:52:22Z</time><name>PT1420</name></trkpt>
<trkpt lat="54.492459" lon="-3.204490"><ele>497</ele><time>2024-05-31T10:52:25Z</time><name>PT1421</name></trkpt>
<trkpt lat="54.492440" lon="-3.204506"><ele>497</ele><time>2024-05-31T10:52:28Z</time><name>PT1422</name></trkpt>
<trkpt lat="54.492405" lon="-3.204539"><ele>497</ele><time>2024-05-31T10:52:32Z</time><name>PT1423</name></trkpt>
<trkpt lat="54.492387" lon="-3.204541"><ele>497</ele><time>2024-05-31T10:52:35Z</time><name>PT1424</name></trkpt>
<trkpt lat="54.492372" lon="-3.204541"><ele>498</ele><time>2024-05-31T10:52:38Z</time><name>PT1425</name></trkpt>
<trkpt lat="54.492341" lon="-3.204544"><ele>498</ele><time>2024-05-31T10:52:42Z</time><name>PT1426</name></trkpt>
<trkpt lat="54.492305" lon="-3.204553"><ele>498</ele><time>2024-05-31T10:52:46Z</time><name>PT1427</name></trkpt>
<trkpt lat="54.492265" lon="-3.204597"><ele>499</ele><time>2024-05-31T10:52:50Z</time><name>PT1428</name></trkpt>
<trkpt lat="54.492236" lon="-3.204624"><ele>500</ele><time>2024-05-31T10:52:53Z</time><name>PT1429</name></trkpt>
<trkpt lat="54.492209" lon="-3.204643"><ele>501</ele><time>2024-05-31T10:52:56Z</time><name>PT1430</name></trkpt>
<trkpt lat="54.492190" lon="-3.204674"><ele>500</ele><time>2024-05-31T10:53:00Z</time><name>PT1431</name></trkpt>
<trkpt lat="54.492170" lon="-3.204701"><ele>501</ele><time>2024-05-31T10:53:03Z</time><name>PT1432</name></trkpt>
<trkpt lat="54.492152" lon="-3.204718"><ele>501</ele><time>2024-05-31T10:53:06Z</time><name>PT1433</name></trkpt>
<trkpt lat="54.492142" lon="-3.204743"><ele>501</ele><time>2024-05-31T10:53:09Z</time><name>PT1434</name></trkpt>
<trkpt lat="54.492138" lon="-3.204758"><ele>501</ele><time>2024-05-31T10:53:12Z</time><name>PT1435</name></trkpt>
<trkpt lat="54.492089" lon="-3.204733"><ele>503</ele><time>2024-05-31T10:53:20Z</time><name>PT1436</name></trkpt>
<trkpt lat="54.492065" lon="-3.204716"><ele>503</ele><time>2024-05-31T10:53:23Z</time><name>PT1437</name></trkpt>
<trkpt lat="54.492040" lon="-3.204699"><ele>503</ele><time>2024-05-31T10:53:27Z</time><name>PT1438</name></trkpt>
<trkpt lat="54.492028" lon="-3.204687"><ele>503</ele><time>2024-05-31T10:53:30Z</time><name>PT1439</name></trkpt>
<trkpt lat="54.492026" lon="-3.204663"><ele>504</ele><time>2024-05-31T10:53:37Z</time><name>PT1440</name></trkpt>
<trkpt lat="54.492009" lon="-3.204659"><ele>504</ele><time>2024-05-31T10:53:40Z</time><name>PT1441</name></trkpt>
<trkpt lat="54.491998" lon="-3.204695"><ele>506</ele><time>2024-05-31T10:53:43Z</time><name>PT1442</name></trkpt>
<trkpt lat="54.491970" lon="-3.204690"><ele>505</ele><time>2024-05-31T10:53:46Z</time><name>PT1443</name></trkpt>
<trkpt lat="54.491946" lon="-3.204707"><ele>505</ele><time>2024-05-31T10:53:49Z</time><name>PT1444</name></trkpt>
<trkpt lat="54.491921" lon="-3.204705"><ele>506</ele><time>2024-05-31T10:53:52Z</time><name>PT1445</name></trkpt>
<trkpt lat="54.491896" lon="-3.204689"><ele>506</ele><time>2024-05-31T10:53:56Z</time><name>PT1446</name></trkpt>
<trkpt lat="54.491875" lon="-3.204659"><ele>506</ele><time>2024-05-31T10:54:00Z</time><name>PT1447</name></trkpt>
<trkpt lat="54.491850" lon="-3.204638"><ele>506</ele><time>2024-05-31T10:54:04Z</time><name>PT1448</name></trkpt>
<trkpt lat="54.491830" lon="-3.204642"><ele>506</ele><time>2024-05-31T10:54:07Z</time><name>PT1449</name></trkpt>
<trkpt lat="54.491799" lon="-3.204641"><ele>507</ele><time>2024-05-31T10:54:11Z</time><name>PT1450</name></trkpt>
<trkpt lat="54.491772" lon="-3.204633"><ele>508</ele><time>2024-05-31T10:54:14Z</time><name>PT1451</name></trkpt>
<trkpt lat="54.491749" lon="-3.204617"><ele>508</ele><time>2024-05-31T10:54:18Z</time><name>PT1452</name></trkpt>
<trkpt lat="54.491744" lon="-3.204616"><ele>508</ele><time>2024-05-31T10:54:21Z</time><name>PT1453</name></trkpt>
<trkpt lat="54.491737" lon="-3.204610"><ele>509</ele><time>2024-05-31T10:54:24Z</time><name>PT1454</name></trkpt>
<trkpt lat="54.491714" lon="-3.204592"><ele>508</ele><time>2024-05-31T10:54:27Z</time><name>PT1455</name></trkpt>
<trkpt lat="54.491685" lon="-3.204581"><ele>509</ele><time>2024-05-31T10:54:31Z</time><name>PT1456</name></trkpt>
<trkpt lat="54.491672" lon="-3.204589"><ele>511</ele><time>2024-05-31T10:54:34Z</time><name>PT1457</name></trkpt>
<trkpt lat="54.491649" lon="-3.204601"><ele>513</ele><time>2024-05-31T10:54:38Z</time><name>PT1458</name></trkpt>
<trkpt lat="54.491630" lon="-3.204613"><ele>513</ele><time>2024-05-31T10:54:41Z</time><name>PT1459</name></trkpt>
<trkpt lat="54.491610" lon="-3.204607"><ele>515</ele><time>2024-05-31T10:54:44Z</time><name>PT1460</name></trkpt>
<trkpt lat="54.491590" lon="-3.204578"><ele>515</ele><time>2024-05-31T10:54:48Z</time><name>PT1461</name></trkpt>
<trkpt lat="54.491574" lon="-3.204555"><ele>516</ele><time>2024-05-31T10:54:52Z</time><name>PT1462</name></trkpt>
<trkpt lat="54.491558" lon="-3.204521"><ele>517</ele><time>2024-05-31T10:54:56Z</time><name>PT1463</name></trkpt>
<trkpt lat="54.491545" lon="-3.204499"><ele>517</ele><time>2024-05-31T10:54:59Z</time><name>PT1464</name></trkpt>
<trkpt lat="54.491521" lon="-3.204485"><ele>518</ele><time>2024-05-31T10:55:03Z</time><name>PT1465</name></trkpt>
<trkpt lat="54.491499" lon="-3.204477"><ele>519</ele><time>2024-05-31T10:55:06Z</time><name>PT1466</name></trkpt>
<trkpt lat="54.491475" lon="-3.204475"><ele>518</ele><time>2024-05-31T10:55:09Z</time><name>PT1467</name></trkpt>
<trkpt lat="54.491458" lon="-3.204494"><ele>519</ele><time>2024-05-31T10:55:12Z</time><name>PT1468</name></trkpt>
<trkpt lat="54.491439" lon="-3.204538"><ele>522</ele><time>2024-05-31T10:55:16Z</time><name>PT1469</name></trkpt>
<trkpt lat="54.491425" lon="-3.204559"><ele>524</ele><time>2024-05-31T10:55:19Z</time><name>PT1470</name></trkpt>
<trkpt lat="54.491404" lon="-3.204574"><ele>524</ele><time>2024-05-31T10:55:22Z</time><name>PT1471</name></trkpt>
<trkpt lat="54.491393" lon="-3.204565"><ele>523</ele><time>2024-05-31T10:55:25Z</time><name>PT1472</name></trkpt>
<trkpt lat="54.491377" lon="-3.204540"><ele>523</ele><time>2024-05-31T10:55:29Z</time><name>PT1473</name></trkpt>
<trkpt lat="54.491369" lon="-3.204519"><ele>524</ele><time>2024-05-31T10:55:32Z</time><name>PT1474</name></trkpt>
<trkpt lat="54.491352" lon="-3.204499"><ele>524</ele><time>2024-05-31T10:55:35Z</time><name>PT1475</name></trkpt>
<trkpt lat="54.491328" lon="-3.204485"><ele>527</ele><time>2024-05-31T10:55:39Z</time><name>PT1476</name></trkpt>
<trkpt lat="54.491307" lon="-3.204480"><ele>528</ele><time>2024-05-31T10:55:43Z</time><name>PT1477</name></trkpt>
<trkpt lat="54.491298" lon="-3.204474"><ele>529</ele><time>2024-05-31T10:55:47Z</time><name>PT1478</name></trkpt>
<trkpt lat="54.491262" lon="-3.204455"><ele>528</ele><time>2024-05-31T10:55:51Z</time><name>PT1479</name></trkpt>
<trkpt lat="54.491243" lon="-3.204434"><ele>528</ele><time>2024-05-31T10:55:54Z</time><name>PT1480</name></trkpt>
<trkpt lat="54.491232" lon="-3.204415"><ele>528</ele><time>2024-05-31T10:55:58Z</time><name>PT1481</name></trkpt>
<trkpt lat="54.491212" lon="-3.204410"><ele>528</ele><time>2024-05-31T10:56:01Z</time><name>PT1482</name></trkpt>
<trkpt lat="54.491196" lon="-3.204403"><ele>529</ele><time>2024-05-31T10:56:04Z</time><name>PT1483</name></trkpt>
<trkpt lat="54.491181" lon="-3.204395"><ele>529</ele><time>2024-05-31T10:56:07Z</time><name>PT1484</name></trkpt>
<trkpt lat="54.491165" lon="-3.204393"><ele>531</ele><time>2024-05-31T10:56:10Z</time><name>PT1485</name></trkpt>
<trkpt lat="54.491156" lon="-3.204400"><ele>532</ele><time>2024-05-31T10:56:13Z</time><name>PT1486</name></trkpt>
<trkpt lat="54.491132" lon="-3.204396"><ele>534</ele><time>2024-05-31T10:56:17Z</time><name>PT1487</name></trkpt>
<trkpt lat="54.491113" lon="-3.204389"><ele>534</ele><time>2024-05-31T10:56:20Z</time><name>PT1488</name></trkpt>
<trkpt lat="54.491089" lon="-3.204372"><ele>535</ele><time>2024-05-31T10:56:24Z</time><name>PT1489</name></trkpt>
<trkpt lat="54.491061" lon="-3.204363"><ele>536</ele><time>2024-05-31T10:56:28Z</time><name>PT1490</name></trkpt>
<trkpt lat="54.491040" lon="-3.204360"><ele>537</ele><time>2024-05-31T10:56:31Z</time><name>PT1491</name></trkpt>
<trkpt lat="54.491020" lon="-3.204353"><ele>537</ele><time>2024-05-31T10:56:34Z</time><name>PT1492</name></trkpt>
<trkpt lat="54.491002" lon="-3.204342"><ele>537</ele><time>2024-05-31T10:56:37Z</time><name>PT1493</name></trkpt>
<trkpt lat="54.490984" lon="-3.204324"><ele>538</ele><time>2024-05-31T10:56:41Z</time><name>PT1494</name></trkpt>
<trkpt lat="54.490972" lon="-3.204303"><ele>539</ele><time>2024-05-31T10:56:44Z</time><name>PT1495</name></trkpt>
<trkpt lat="54.490956" lon="-3.204284"><ele>539</ele><time>2024-05-31T10:56:48Z</time><name>PT1496</name></trkpt>
<trkpt lat="54.490950" lon="-3.204290"><ele>541</ele><time>2024-05-31T10:56:55Z</time><name>PT1497</name></trkpt>
<trkpt lat="54.490912" lon="-3.204270"><ele>541</ele><time>2024-05-31T10:56:59Z</time><name>PT1498</name></trkpt>
<trkpt lat="54.490884" lon="-3.204260"><ele>541</ele><time>2024-05-31T10:57:02Z</time><name>PT1499</name></trkpt>
<trkpt lat="54.490864" lon="-3.204245"><ele>544</ele><time>2024-05-31T10:57:05Z</time><name>PT1500</name></trkpt>
<trkpt lat="54.490839" lon="-3.204244"><ele>546</ele><time>2024-05-31T10:57:09Z</time><name>PT1501</name></trkpt>
<trkpt lat="54.490820" lon="-3.204245"><ele>546</ele><time>2024-05-31T10:57:12Z</time><name>PT1502</name></trkpt>
<trkpt lat="54.490802" lon="-3.204252"><ele>546</ele><time>2024-05-31T10:57:15Z</time><name>PT1503</name></trkpt>
<trkpt lat="54.490777" lon="-3.204252"><ele>545</ele><time>2024-05-31T10:57:19Z</time><name>PT1504</name></trkpt>
<trkpt lat="54.490759" lon="-3.204252"><ele>548</ele><time>2024-05-31T10:57:23Z</time><name>PT1505</name></trkpt>
<trkpt lat="54.490745" lon="-3.204239"><ele>549</ele><time>2024-05-31T10:57:26Z</time><name>PT1506</name></trkpt>
<trkpt lat="54.490725" lon="-3.204227"><ele>550</ele><time>2024-05-31T10:57:29Z</time><name>PT1507</name></trkpt>
<trkpt lat="54.490701" lon="-3.204222"><ele>551</ele><time>2024-05-31T10:57:33Z</time><name>PT1508</name></trkpt>
<trkpt lat="54.490688" lon="-3.204215"><ele>552</ele><time>2024-05-31T10:57:36Z</time><name>PT1509</name></trkpt>
<trkpt lat="54.490665" lon="-3.204208"><ele>554</ele><time>2024-05-31T10:57:40Z</time><name>PT1510</name></trkpt>
<trkpt lat="54.490639" lon="-3.204223"><ele>556</ele><time>2024-05-31T10:57:44Z</time><name>PT1511</name></trkpt>
<trkpt lat="54.490639" lon="-3.204256"><ele>553</ele><time>2024-05-31T10:57:48Z</time><name>PT1512</name></trkpt>
<trkpt lat="54.490637" lon="-3.204255"><ele>553</ele><time>2024-05-31T10:57:52Z</time><name>PT1513</name></trkpt>
<trkpt lat="54.490614" lon="-3.204261"><ele>553</ele><time>2024-05-31T10:57:56Z</time><name>PT1514</name></trkpt>
<trkpt lat="54.490587" lon="-3.204281"><ele>553</ele><time>2024-05-31T10:58:00Z</time><name>PT1515</name></trkpt>
<trkpt lat="54.490570" lon="-3.204269"><ele>556</ele><time>2024-05-31T10:58:03Z</time><name>PT1516</name></trkpt>
<trkpt lat="54.490544" lon="-3.204293"><ele>557</ele><time>2024-05-31T10:58:07Z</time><name>PT1517</name></trkpt>
<trkpt lat="54.490518" lon="-3.204306"><ele>558</ele><time>2024-05-31T10:58:11Z</time><name>PT1518</name></trkpt>
<trkpt lat="54.490496" lon="-3.204323"><ele>560</ele><time>2024-05-31T10:58:14Z</time><name>PT1519</name></trkpt>
<trkpt lat="54.490479" lon="-3.204325"><ele>561</ele><time>2024-05-31T10:58:17Z</time><name>PT1520</name></trkpt>
<trkpt lat="54.490463" lon="-3.204329"><ele>562</ele><time>2024-05-31T10:58:20Z</time><name>PT1521</name></trkpt>
<trkpt lat="54.490446" lon="-3.204317"><ele>564</ele><time>2024-05-31T10:58:24Z</time><name>PT1522</name></trkpt>
<trkpt lat="54.490433" lon="-3.204301"><ele>565</ele><time>2024-05-31T10:58:27Z</time><name>PT1523</name></trkpt>
<trkpt lat="54.490419" lon="-3.204295"><ele>566</ele><time>2024-05-31T10:58:30Z</time><name>PT1524</name></trkpt>
<trkpt lat="54.490387" lon="-3.204298"><ele>567</ele><time>2024-05-31T10:58:34Z</time><name>PT1525</name></trkpt>
<trkpt lat="54.490369" lon="-3.204307"><ele>567</ele><time>2024-05-31T10:58:37Z</time><name>PT1526</name></trkpt>
<trkpt lat="54.490350" lon="-3.204311"><ele>569</ele><time>2024-05-31T10:58:41Z</time><name>PT1527</name></trkpt>
<trkpt lat="54.490334" lon="-3.204313"><ele>570</ele><time>2024-05-31T10:58:44Z</time><name>PT1528</name></trkpt>
<trkpt lat="54.490329" lon="-3.204308"><ele>570</ele><time>2024-05-31T10:58:48Z</time><name>PT1529</name></trkpt>
<trkpt lat="54.490307" lon="-3.204310"><ele>571</ele><time>2024-05-31T10:58:51Z</time><name>PT1530</name></trkpt>
<trkpt lat="54.490285" lon="-3.204307"><ele>571</ele><time>2024-05-31T10:58:55Z</time><name>PT1531</name></trkpt>
<trkpt lat="54.490265" lon="-3.204306"><ele>572</ele><time>2024-05-31T10:58:58Z</time><name>PT1532</name></trkpt>
<trkpt lat="54.490251" lon="-3.204308"><ele>572</ele><time>2024-05-31T10:59:02Z</time><name>PT1533</name></trkpt>
<trkpt lat="54.490232" lon="-3.204311"><ele>573</ele><time>2024-05-31T10:59:06Z</time><name>PT1534</name></trkpt>
<trkpt lat="54.490221" lon="-3.204339"><ele>572</ele><time>2024-05-31T10:59:10Z</time><name>PT1535</name></trkpt>
<trkpt lat="54.490214" lon="-3.204357"><ele>573</ele><time>2024-05-31T10:59:13Z</time><name>PT1536</name></trkpt>
<trkpt lat="54.490196" lon="-3.204371"><ele>575</ele><time>2024-05-31T10:59:16Z</time><name>PT1537</name></trkpt>
<trkpt lat="54.490177" lon="-3.204381"><ele>576</ele><time>2024-05-31T10:59:19Z</time><name>PT1538</name></trkpt>
<trkpt lat="54.490164" lon="-3.204395"><ele>578</ele><time>2024-05-31T10:59:22Z</time><name>PT1539</name></trkpt>
<trkpt lat="54.490145" lon="-3.204411"><ele>577</ele><time>2024-05-31T10:59:26Z</time><name>PT1540</name></trkpt>
<trkpt lat="54.490135" lon="-3.204431"><ele>577</ele><time>2024-05-31T10:59:29Z</time><name>PT1541</name></trkpt>
<trkpt lat="54.490122" lon="-3.204431"><ele>579</ele><time>2024-05-31T10:59:32Z</time><name>PT1542</name></trkpt>
<trkpt lat="54.490117" lon="-3.204440"><ele>580</ele><time>2024-05-31T10:59:35Z</time><name>PT1543</name></trkpt>
<trkpt lat="54.490113" lon="-3.204444"><ele>580</ele><time>2024-05-31T10:59:39Z</time><name>PT1544</name></trkpt>
<trkpt lat="54.490103" lon="-3.204454"><ele>582</ele><time>2024-05-31T10:59:46Z</time><name>PT1545</name></trkpt>
<trkpt lat="54.490091" lon="-3.204482"><ele>584</ele><time>2024-05-31T10:59:56Z</time><name>PT1546</name></trkpt>
<trkpt lat="54.490071" lon="-3.204500"><ele>584</ele><time>2024-05-31T10:59:59Z</time><name>PT1547</name></trkpt>
<trkpt lat="54.490051" lon="-3.204516"><ele>583</ele><time>2024-05-31T11:00:02Z</time><name>PT1548</name></trkpt>
<trkpt lat="54.490030" lon="-3.204541"><ele>585</ele><time>2024-05-31T11:00:06Z</time><name>PT1549</name></trkpt>
<trkpt lat="54.490013" lon="-3.204558"><ele>585</ele><time>2024-05-31T11:00:10Z</time><name>PT1550</name></trkpt>
<trkpt lat="54.489992" lon="-3.204575"><ele>587</ele><time>2024-05-31T11:00:14Z</time><name>PT1551</name></trkpt>
<trkpt lat="54.489978" lon="-3.204599"><ele>587</ele><time>2024-05-31T11:00:18Z</time><name>PT1552</name></trkpt>
<trkpt lat="54.489962" lon="-3.204624"><ele>588</ele><time>2024-05-31T11:00:25Z</time><name>PT1553</name></trkpt>
<trkpt lat="54.489956" lon="-3.204643"><ele>588</ele><time>2024-05-31T11:00:29Z</time><name>PT1554</name></trkpt>
<trkpt lat="54.489938" lon="-3.204657"><ele>589</ele><time>2024-05-31T11:00:32Z</time><name>PT1555</name></trkpt>
<trkpt lat="54.489936" lon="-3.204662"><ele>589</ele><time>2024-05-31T11:00:36Z</time><name>PT1556</name></trkpt>
<trkpt lat="54.489909" lon="-3.204688"><ele>591</ele><time>2024-05-31T11:00:49Z</time><name>PT1557</name></trkpt>
<trkpt lat="54.489892" lon="-3.204704"><ele>591</ele><time>2024-05-31T11:00:52Z</time><name>PT1558</name></trkpt>
<trkpt lat="54.489874" lon="-3.204724"><ele>592</ele><time>2024-05-31T11:00:56Z</time><name>PT1559</name></trkpt>
<trkpt lat="54.489854" lon="-3.204744"><ele>592</ele><time>2024-05-31T11:00:59Z</time><name>PT1560</name></trkpt>
<trkpt lat="54.489845" lon="-3.204764"><ele>592</ele><time>2024-05-31T11:01:02Z</time><name>PT1561</name></trkpt>
<trkpt lat="54.489831" lon="-3.204800"><ele>593</ele><time>2024-05-31T11:01:06Z</time><name>PT1562</name></trkpt>
<trkpt lat="54.489813" lon="-3.204813"><ele>594</ele><time>2024-05-31T11:01:10Z</time><name>PT1563</name></trkpt>
<trkpt lat="54.489807" lon="-3.204796"><ele>593</ele><time>2024-05-31T11:01:13Z</time><name>PT1564</name></trkpt>
<trkpt lat="54.489804" lon="-3.204793"><ele>594</ele><time>2024-05-31T11:01:17Z</time><name>PT1565</name></trkpt>
<trkpt lat="54.489796" lon="-3.204774"><ele>594</ele><time>2024-05-31T11:01:20Z</time><name>PT1566</name></trkpt>
<trkpt lat="54.489789" lon="-3.204732"><ele>595</ele><time>2024-05-31T11:01:24Z</time><name>PT1567</name></trkpt>
<trkpt lat="54.489783" lon="-3.204687"><ele>597</ele><time>2024-05-31T11:01:28Z</time><name>PT1568</name></trkpt>
<trkpt lat="54.489770" lon="-3.204661"><ele>598</ele><time>2024-05-31T11:01:32Z</time><name>PT1569</name></trkpt>
<trkpt lat="54.489766" lon="-3.204652"><ele>598</ele><time>2024-05-31T11:01:35Z</time><name>PT1570</name></trkpt>
<trkpt lat="54.489756" lon="-3.204616"><ele>601</ele><time>2024-05-31T11:01:46Z</time><name>PT1571</name></trkpt>
<trkpt lat="54.489745" lon="-3.204555"><ele>601</ele><time>2024-05-31T11:01:49Z</time><name>PT1572</name></trkpt>
<trkpt lat="54.489731" lon="-3.204518"><ele>602</ele><time>2024-05-31T11:01:52Z</time><name>PT1573</name></trkpt>
<trkpt lat="54.489727" lon="-3.204479"><ele>602</ele><time>2024-05-31T11:01:55Z</time><name>PT1574</name></trkpt>
<trkpt lat="54.489731" lon="-3.204427"><ele>603</ele><time>2024-05-31T11:01:59Z</time><name>PT1575</name></trkpt>
<trkpt lat="54.489737" lon="-3.204379"><ele>603</ele><time>2024-05-31T11:02:02Z</time><name>PT1576</name></trkpt>
<trkpt lat="54.489737" lon="-3.204320"><ele>603</ele><time>2024-05-31T11:02:05Z</time><name>PT1577</name></trkpt>
<trkpt lat="54.489737" lon="-3.204243"><ele>605</ele><time>2024-05-31T11:02:09Z</time><name>PT1578</name></trkpt>
<trkpt lat="54.489736" lon="-3.204207"><ele>606</ele><time>2024-05-31T11:02:13Z</time><name>PT1579</name></trkpt>
<trkpt lat="54.489730" lon="-3.204194"><ele>606</ele><time>2024-05-31T11:02:17Z</time><name>PT1580</name></trkpt>
<trkpt lat="54.489727" lon="-3.204138"><ele>606</ele><time>2024-05-31T11:02:20Z</time><name>PT1581</name></trkpt>
<trkpt lat="54.489720" lon="-3.204075"><ele>607</ele><time>2024-05-31T11:02:24Z</time><name>PT1582</name></trkpt>
<trkpt lat="54.489714" lon="-3.204019"><ele>607</ele><time>2024-05-31T11:02:28Z</time><name>PT1583</name></trkpt>
<trkpt lat="54.489708" lon="-3.203980"><ele>608</ele><time>2024-05-31T11:02:31Z</time><name>PT1584</name></trkpt>
<trkpt lat="54.489694" lon="-3.203949"><ele>608</ele><time>2024-05-31T11:02:34Z</time><name>PT1585</name></trkpt>
<trkpt lat="54.489674" lon="-3.203919"><ele>608</ele><time>2024-05-31T11:02:38Z</time><name>PT1586</name></trkpt>
<trkpt lat="54.489665" lon="-3.203912"><ele>607</ele><time>2024-05-31T11:02:41Z</time><name>PT1587</name></trkpt>
<trkpt lat="54.489642" lon="-3.203893"><ele>608</ele><time>2024-05-31T11:02:44Z</time><name>PT1588</name></trkpt>
<trkpt lat="54.489644" lon="-3.203875"><ele>610</ele><time>2024-05-31T11:02:47Z</time><name>PT1589</name></trkpt>
<trkpt lat="54.489648" lon="-3.203886"><ele>608</ele><time>2024-05-31T11:02:51Z</time><name>PT1590</name></trkpt>
<trkpt lat="54.489647" lon="-3.203886"><ele>608</ele><time>2024-05-31T11:03:03Z</time><name>PT1591</name></trkpt>
<trkpt lat="54.489645" lon="-3.203869"><ele>608</ele><time>2024-05-31T11:03:06Z</time><name>PT1592</name></trkpt>
<trkpt lat="54.489643" lon="-3.203862"><ele>608</ele><time>2024-05-31T11:03:09Z</time><name>PT1593</name></trkpt>
<trkpt lat="54.489643" lon="-3.203860"><ele>608</ele><time>2024-05-31T11:03:12Z</time><name>PT1594</name></trkpt>
<trkpt lat="54.489641" lon="-3.203870"><ele>608</ele><time>2024-05-31T11:03:16Z</time><name>PT1595</name></trkpt>
<trkpt lat="54.489639" lon="-3.203865"><ele>608</ele><time>2024-05-31T11:04:05Z</time><name>PT1596</name></trkpt>
<trkpt lat="54.489642" lon="-3.203854"><ele>608</ele><time>2024-05-31T11:04:09Z</time><name>PT1597</name></trkpt>
<trkpt lat="54.489646" lon="-3.203851"><ele>609</ele><time>2024-05-31T11:04:12Z</time><name>PT1598</name></trkpt>
<trkpt lat="54.489644" lon="-3.203850"><ele>609</ele><time>2024-05-31T11:04:36Z</time><name>PT1599</name></trkpt>
<trkpt lat="54.489621" lon="-3.203827"><ele>610</ele><time>2024-05-31T11:04:40Z</time><name>PT1600</name></trkpt>
<trkpt lat="54.489619" lon="-3.203821"><ele>610</ele><time>2024-05-31T11:04:44Z</time><name>PT1601</name></trkpt>
<trkpt lat="54.489620" lon="-3.203815"><ele>610</ele><time>2024-05-31T11:04:58Z</time><name>PT1602</name></trkpt>
<trkpt lat="54.489627" lon="-3.203821"><ele>610</ele><time>2024-05-31T11:05:02Z</time><name>PT1603</name></trkpt>
<trkpt lat="54.489627" lon="-3.203821"><ele>610</ele><time>2024-05-31T11:05:05Z</time><name>PT1604</name></trkpt>
<trkpt lat="54.489623" lon="-3.203826"><ele>610</ele><time>2024-05-31T11:05:13Z</time><name>PT1605</name></trkpt>
<trkpt lat="54.489625" lon="-3.203817"><ele>611</ele><time>2024-05-31T11:05:25Z</time><name>PT1606</name></trkpt>
<trkpt lat="54.489623" lon="-3.203818"><ele>611</ele><time>2024-05-31T11:05:39Z</time><name>PT1607</name></trkpt>
<trkpt lat="54.489622" lon="-3.203821"><ele>610</ele><time>2024-05-31T11:05:42Z</time><name>PT1608</name></trkpt>
<trkpt lat="54.489625" lon="-3.203818"><ele>610</ele><time>2024-05-31T11:07:11Z</time><name>PT1609</name></trkpt>
<trkpt lat="54.489625" lon="-3.203821"><ele>610</ele><time>2024-05-31T11:07:15Z</time><name>PT1610</name></trkpt>
<trkpt lat="54.489617" lon="-3.203827"><ele>610</ele><time>2024-05-31T11:13:41Z</time><name>PT1611</name></trkpt>
<trkpt lat="54.489595" lon="-3.203861"><ele>610</ele><time>2024-05-31T11:13:45Z</time><name>PT1612</name></trkpt>
<trkpt lat="54.489579" lon="-3.203900"><ele>610</ele><time>2024-05-31T11:13:48Z</time><name>PT1613</name></trkpt>
<trkpt lat="54.489561" lon="-3.203960"><ele>611</ele><time>2024-05-31T11:13:52Z</time><name>PT1614</name></trkpt>
<trkpt lat="54.489542" lon="-3.203982"><ele>611</ele><time>2024-05-31T11:13:55Z</time><name>PT1615</name></trkpt>
<trkpt lat="54.489523" lon="-3.204017"><ele>612</ele><time>2024-05-31T11:13:59Z</time><name>PT1616</name></trkpt>
<trkpt lat="54.489509" lon="-3.204060"><ele>612</ele><time>2024-05-31T11:14:02Z</time><name>PT1617</name></trkpt>
<trkpt lat="54.489489" lon="-3.204103"><ele>613</ele><time>2024-05-31T11:14:06Z</time><name>PT1618</name></trkpt>
<trkpt lat="54.489470" lon="-3.204131"><ele>613</ele><time>2024-05-31T11:14:09Z</time><name>PT1619</name></trkpt>
<trkpt lat="54.489451" lon="-3.204181"><ele>613</ele><time>2024-05-31T11:14:13Z</time><name>PT1620</name></trkpt>
<trkpt lat="54.489430" lon="-3.204240"><ele>613</ele><time>2024-05-31T11:14:17Z</time><name>PT1621</name></trkpt>
<trkpt lat="54.489405" lon="-3.204294"><ele>613</ele><time>2024-05-31T11:14:21Z</time><name>PT1622</name></trkpt>
<trkpt lat="54.489380" lon="-3.204345"><ele>614</ele><time>2024-05-31T11:14:25Z</time><name>PT1623</name></trkpt>
<trkpt lat="54.489361" lon="-3.204388"><ele>614</ele><time>2024-05-31T11:14:29Z</time><name>PT1624</name></trkpt>
<trkpt lat="54.489340" lon="-3.204429"><ele>614</ele><time>2024-05-31T11:14:33Z</time><name>PT1625</name></trkpt>
<trkpt lat="54.489319" lon="-3.204457"><ele>614</ele><time>2024-05-31T11:14:36Z</time><name>PT1626</name></trkpt>
<trkpt lat="54.489298" lon="-3.204480"><ele>615</ele><time>2024-05-31T11:14:39Z</time><name>PT1627</name></trkpt>
<trkpt lat="54.489286" lon="-3.204512"><ele>616</ele><time>2024-05-31T11:14:42Z</time><name>PT1628</name></trkpt>
<trkpt lat="54.489275" lon="-3.204560"><ele>617</ele><time>2024-05-31T11:14:46Z</time><name>PT1629</name></trkpt>
<trkpt lat="54.489272" lon="-3.204598"><ele>618</ele><time>2024-05-31T11:14:49Z</time><name>PT1630</name></trkpt>
<trkpt lat="54.489258" lon="-3.204651"><ele>619</ele><time>2024-05-31T11:14:53Z</time><name>PT1631</name></trkpt>
<trkpt lat="54.489246" lon="-3.204688"><ele>619</ele><time>2024-05-31T11:14:56Z</time><name>PT1632</name></trkpt>
<trkpt lat="54.489235" lon="-3.204716"><ele>620</ele><time>2024-05-31T11:14:59Z</time><name>PT1633</name></trkpt>
<trkpt lat="54.489227" lon="-3.204745"><ele>620</ele><time>2024-05-31T11:15:02Z</time><name>PT1634</name></trkpt>
<trkpt lat="54.489218" lon="-3.204776"><ele>622</ele><time>2024-05-31T11:15:06Z</time><name>PT1635</name></trkpt>
<trkpt lat="54.489207" lon="-3.204812"><ele>621</ele><time>2024-05-31T11:15:09Z</time><name>PT1636</name></trkpt>
<trkpt lat="54.489195" lon="-3.204852"><ele>622</ele><time>2024-05-31T11:15:13Z</time><name>PT1637</name></trkpt>
<trkpt lat="54.489181" lon="-3.204884"><ele>623</ele><time>2024-05-31T11:15:17Z</time><name>PT1638</name></trkpt>
<trkpt lat="54.489165" lon="-3.204913"><ele>623</ele><time>2024-05-31T11:15:21Z</time><name>PT1639</name></trkpt>
<trkpt lat="54.489154" lon="-3.204941"><ele>624</ele><time>2024-05-31T11:15:24Z</time><name>PT1640</name></trkpt>
<trkpt lat="54.489136" lon="-3.204960"><ele>624</ele><time>2024-05-31T11:15:27Z</time><name>PT1641</name></trkpt>
<trkpt lat="54.489121" lon="-3.204993"><ele>625</ele><time>2024-05-31T11:15:31Z</time><name>PT1642</name></trkpt>
<trkpt lat="54.489110" lon="-3.205014"><ele>625</ele><time>2024-05-31T11:15:34Z</time><name>PT1643</name></trkpt>
<trkpt lat="54.489095" lon="-3.205047"><ele>626</ele><time>2024-05-31T11:15:38Z</time><name>PT1644</name></trkpt>
<trkpt lat="54.489081" lon="-3.205069"><ele>626</ele><time>2024-05-31T11:15:41Z</time><name>PT1645</name></trkpt>
<trkpt lat="54.489068" lon="-3.205094"><ele>628</ele><time>2024-05-31T11:15:44Z</time><name>PT1646</name></trkpt>
<trkpt lat="54.489057" lon="-3.205121"><ele>628</ele><time>2024-05-31T11:15:47Z</time><name>PT1647</name></trkpt>
<trkpt lat="54.489039" lon="-3.205162"><ele>629</ele><time>2024-05-31T11:15:51Z</time><name>PT1648</name></trkpt>
<trkpt lat="54.489023" lon="-3.205188"><ele>629</ele><time>2024-05-31T11:15:54Z</time><name>PT1649</name></trkpt>
<trkpt lat="54.489006" lon="-3.205215"><ele>629</ele><time>2024-05-31T11:15:57Z</time><name>PT1650</name></trkpt>
<trkpt lat="54.488982" lon="-3.205247"><ele>630</ele><time>2024-05-31T11:16:00Z</time><name>PT1651</name></trkpt>
<trkpt lat="54.488965" lon="-3.205271"><ele>630</ele><time>2024-05-31T11:16:04Z</time><name>PT1652</name></trkpt>
<trkpt lat="54.488952" lon="-3.205296"><ele>631</ele><time>2024-05-31T11:16:07Z</time><name>PT1653</name></trkpt>
<trkpt lat="54.488932" lon="-3.205324"><ele>631</ele><time>2024-05-31T11:16:11Z</time><name>PT1654</name></trkpt>
<trkpt lat="54.488917" lon="-3.205347"><ele>631</ele><time>2024-05-31T11:16:14Z</time><name>PT1655</name></trkpt>
<trkpt lat="54.488905" lon="-3.205374"><ele>632</ele><time>2024-05-31T11:16:17Z</time><name>PT1656</name></trkpt>
<trkpt lat="54.488895" lon="-3.205395"><ele>632</ele><time>2024-05-31T11:16:20Z</time><name>PT1657</name></trkpt>
<trkpt lat="54.488883" lon="-3.205415"><ele>633</ele><time>2024-05-31T11:16:23Z</time><name>PT1658</name></trkpt>
<trkpt lat="54.488874" lon="-3.205437"><ele>634</ele><time>2024-05-31T11:16:26Z</time><name>PT1659</name></trkpt>
<trkpt lat="54.488860" lon="-3.205433"><ele>635</ele><time>2024-05-31T11:16:30Z</time><name>PT1660</name></trkpt>
<trkpt lat="54.488839" lon="-3.205440"><ele>635</ele><time>2024-05-31T11:16:33Z</time><name>PT1661</name></trkpt>
<trkpt lat="54.488813" lon="-3.205464"><ele>636</ele><time>2024-05-31T11:16:37Z</time><name>PT1662</name></trkpt>
<trkpt lat="54.488794" lon="-3.205485"><ele>637</ele><time>2024-05-31T11:16:40Z</time><name>PT1663</name></trkpt>
<trkpt lat="54.488777" lon="-3.205507"><ele>638</ele><time>2024-05-31T11:16:43Z</time><name>PT1664</name></trkpt>
<trkpt lat="54.488757" lon="-3.205529"><ele>638</ele><time>2024-05-31T11:16:47Z</time><name>PT1665</name></trkpt>
<trkpt lat="54.488731" lon="-3.205562"><ele>638</ele><time>2024-05-31T11:16:51Z</time><name>PT1666</name></trkpt>
<trkpt lat="54.488714" lon="-3.205585"><ele>638</ele><time>2024-05-31T11:16:54Z</time><name>PT1667</name></trkpt>
<trkpt lat="54.488701" lon="-3.205612"><ele>639</ele><time>2024-05-31T11:16:57Z</time><name>PT1668</name></trkpt>
<trkpt lat="54.488687" lon="-3.205648"><ele>640</ele><time>2024-05-31T11:17:01Z</time><name>PT1669</name></trkpt>
<trkpt lat="54.488670" lon="-3.205686"><ele>640</ele><time>2024-05-31T11:17:05Z</time><name>PT1670</name></trkpt>
<trkpt lat="54.488661" lon="-3.205727"><ele>641</ele><time>2024-05-31T11:17:09Z</time><name>PT1671</name></trkpt>
<trkpt lat="54.488650" lon="-3.205745"><ele>641</ele><time>2024-05-31T11:17:12Z</time><name>PT1672</name></trkpt>
<trkpt lat="54.488635" lon="-3.205759"><ele>642</ele><time>2024-05-31T11:17:15Z</time><name>PT1673</name></trkpt>
<trkpt lat="54.488620" lon="-3.205768"><ele>643</ele><time>2024-05-31T11:17:18Z</time><name>PT1674</name></trkpt>
<trkpt lat="54.488616" lon="-3.205797"><ele>643</ele><time>2024-05-31T11:17:21Z</time><name>PT1675</name></trkpt>
<trkpt lat="54.488614" lon="-3.205838"><ele>644</ele><time>2024-05-31T11:17:25Z</time><name>PT1676</name></trkpt>
<trkpt lat="54.488608" lon="-3.205879"><ele>645</ele><time>2024-05-31T11:17:29Z</time><name>PT1677</name></trkpt>
<trkpt lat="54.488606" lon="-3.205909"><ele>645</ele><time>2024-05-31T11:17:32Z</time><name>PT1678</name></trkpt>
<trkpt lat="54.488607" lon="-3.205943"><ele>646</ele><time>2024-05-31T11:17:35Z</time><name>PT1679</name></trkpt>
<trkpt lat="54.488604" lon="-3.205975"><ele>646</ele><time>2024-05-31T11:17:38Z</time><name>PT1680</name></trkpt>
<trkpt lat="54.488595" lon="-3.206007"><ele>647</ele><time>2024-05-31T11:17:42Z</time><name>PT1681</name></trkpt>
<trkpt lat="54.488597" lon="-3.206014"><ele>647</ele><time>2024-05-31T11:17:46Z</time><name>PT1682</name></trkpt>
<trkpt lat="54.488585" lon="-3.206040"><ele>648</ele><time>2024-05-31T11:17:49Z</time><name>PT1683</name></trkpt>
<trkpt lat="54.488569" lon="-3.206048"><ele>648</ele><time>2024-05-31T11:17:52Z</time><name>PT1684</name></trkpt>
<trkpt lat="54.488561" lon="-3.206070"><ele>649</ele><time>2024-05-31T11:17:55Z</time><name>PT1685</name></trkpt>
<trkpt lat="54.488546" lon="-3.206098"><ele>649</ele><time>2024-05-31T11:17:59Z</time><name>PT1686</name></trkpt>
<trkpt lat="54.488530" lon="-3.206136"><ele>650</ele><time>2024-05-31T11:18:03Z</time><name>PT1687</name></trkpt>
<trkpt lat="54.488521" lon="-3.206162"><ele>651</ele><time>2024-05-31T11:18:06Z</time><name>PT1688</name></trkpt>
<trkpt lat="54.488520" lon="-3.206191"><ele>651</ele><time>2024-05-31T11:18:09Z</time><name>PT1689</name></trkpt>
<trkpt lat="54.488517" lon="-3.206216"><ele>652</ele><time>2024-05-31T11:18:12Z</time><name>PT1690</name></trkpt>
<trkpt lat="54.488516" lon="-3.206237"><ele>653</ele><time>2024-05-31T11:18:15Z</time><name>PT1691</name></trkpt>
<trkpt lat="54.488517" lon="-3.206271"><ele>654</ele><time>2024-05-31T11:18:19Z</time><name>PT1692</name></trkpt>
<trkpt lat="54.488510" lon="-3.206297"><ele>655</ele><time>2024-05-31T11:18:23Z</time><name>PT1693</name></trkpt>
<trkpt lat="54.488509" lon="-3.206319"><ele>655</ele><time>2024-05-31T11:18:26Z</time><name>PT1694</name></trkpt>
<trkpt lat="54.488492" lon="-3.206348"><ele>655</ele><time>2024-05-31T11:18:30Z</time><name>PT1695</name></trkpt>
<trkpt lat="54.488480" lon="-3.206377"><ele>657</ele><time>2024-05-31T11:18:34Z</time><name>PT1696</name></trkpt>
<trkpt lat="54.488459" lon="-3.206402"><ele>657</ele><time>2024-05-31T11:18:38Z</time><name>PT1697</name></trkpt>
<trkpt lat="54.488442" lon="-3.206409"><ele>657</ele><time>2024-05-31T11:18:42Z</time><name>PT1698</name></trkpt>
<trkpt lat="54.488425" lon="-3.206427"><ele>657</ele><time>2024-05-31T11:18:45Z</time><name>PT1699</name></trkpt>
<trkpt lat="54.488412" lon="-3.206461"><ele>657</ele><time>2024-05-31T11:18:48Z</time><name>PT1700</name></trkpt>
<trkpt lat="54.488392" lon="-3.206485"><ele>658</ele><time>2024-05-31T11:18:52Z</time><name>PT1701</name></trkpt>
<trkpt lat="54.488372" lon="-3.206491"><ele>658</ele><time>2024-05-31T11:18:55Z</time><name>PT1702</name></trkpt>
<trkpt lat="54.488352" lon="-3.206505"><ele>658</ele><time>2024-05-31T11:18:58Z</time><name>PT1703</name></trkpt>
<trkpt lat="54.488338" lon="-3.206534"><ele>659</ele><time>2024-05-31T11:19:02Z</time><name>PT1704</name></trkpt>
<trkpt lat="54.488323" lon="-3.206599"><ele>661</ele><time>2024-05-31T11:19:14Z</time><name>PT1705</name></trkpt>
<trkpt lat="54.488317" lon="-3.206623"><ele>661</ele><time>2024-05-31T11:19:17Z</time><name>PT1706</name></trkpt>
<trkpt lat="54.488312" lon="-3.206654"><ele>662</ele><time>2024-05-31T11:19:20Z</time><name>PT1707</name></trkpt>
<trkpt lat="54.488306" lon="-3.206688"><ele>663</ele><time>2024-05-31T11:19:24Z</time><name>PT1708</name></trkpt>
<trkpt lat="54.488300" lon="-3.206718"><ele>664</ele><time>2024-05-31T11:19:27Z</time><name>PT1709</name></trkpt>
<trkpt lat="54.488304" lon="-3.206757"><ele>665</ele><time>2024-05-31T11:19:31Z</time><name>PT1710</name></trkpt>
<trkpt lat="54.488299" lon="-3.206781"><ele>665</ele><time>2024-05-31T11:19:34Z</time><name>PT1711</name></trkpt>
<trkpt lat="54.488286" lon="-3.206815"><ele>666</ele><time>2024-05-31T11:19:38Z</time><name>PT1712</name></trkpt>
<trkpt lat="54.488274" lon="-3.206832"><ele>666</ele><time>2024-05-31T11:19:41Z</time><name>PT1713</name></trkpt>
<trkpt lat="54.488265" lon="-3.206860"><ele>667</ele><time>2024-05-31T11:19:44Z</time><name>PT1714</name></trkpt>
<trkpt lat="54.488255" lon="-3.206893"><ele>668</ele><time>2024-05-31T11:19:47Z</time><name>PT1715</name></trkpt>
<trkpt lat="54.488241" lon="-3.206917"><ele>669</ele><time>2024-05-31T11:19:51Z</time><name>PT1716</name></trkpt>
<trkpt lat="54.488235" lon="-3.206950"><ele>670</ele><time>2024-05-31T11:19:55Z</time><name>PT1717</name></trkpt>
<trkpt lat="54.488234" lon="-3.206995"><ele>671</ele><time>2024-05-31T11:19:59Z</time><name>PT1718</name></trkpt>
<trkpt lat="54.488227" lon="-3.207020"><ele>672</ele><time>2024-05-31T11:20:02Z</time><name>PT1719</name></trkpt>
<trkpt lat="54.488218" lon="-3.207041"><ele>672</ele><time>2024-05-31T11:20:05Z</time><name>PT1720</name></trkpt>
<trkpt lat="54.488202" lon="-3.207066"><ele>673</ele><time>2024-05-31T11:20:09Z</time><name>PT1721</name></trkpt>
<trkpt lat="54.488184" lon="-3.207090"><ele>674</ele><time>2024-05-31T11:20:13Z</time><name>PT1722</name></trkpt>
<trkpt lat="54.488178" lon="-3.207113"><ele>675</ele><time>2024-05-31T11:20:16Z</time><name>PT1723</name></trkpt>
<trkpt lat="54.488167" lon="-3.207135"><ele>676</ele><time>2024-05-31T11:20:19Z</time><name>PT1724</name></trkpt>
<trkpt lat="54.488153" lon="-3.207150"><ele>677</ele><time>2024-05-31T11:20:22Z</time><name>PT1725</name></trkpt>
<trkpt lat="54.488135" lon="-3.207158"><ele>678</ele><time>2024-05-31T11:20:26Z</time><name>PT1726</name></trkpt>
<trkpt lat="54.488115" lon="-3.207162"><ele>678</ele><time>2024-05-31T11:20:33Z</time><name>PT1727</name></trkpt>
<trkpt lat="54.488101" lon="-3.207167"><ele>678</ele><time>2024-05-31T11:20:36Z</time><name>PT1728</name></trkpt>
<trkpt lat="54.488089" lon="-3.207184"><ele>679</ele><time>2024-05-31T11:20:47Z</time><name>PT1729</name></trkpt>
<trkpt lat="54.488086" lon="-3.207191"><ele>679</ele><time>2024-05-31T11:20:50Z</time><name>PT1730</name></trkpt>
<trkpt lat="54.488070" lon="-3.207221"><ele>680</ele><time>2024-05-31T11:20:54Z</time><name>PT1731</name></trkpt>
<trkpt lat="54.488062" lon="-3.207245"><ele>680</ele><time>2024-05-31T11:20:57Z</time><name>PT1732</name></trkpt>
<trkpt lat="54.488054" lon="-3.207280"><ele>681</ele><time>2024-05-31T11:21:00Z</time><name>PT1733</name></trkpt>
<trkpt lat="54.488040" lon="-3.207306"><ele>681</ele><time>2024-05-31T11:21:03Z</time><name>PT1734</name></trkpt>
<trkpt lat="54.488036" lon="-3.207333"><ele>682</ele><time>2024-05-31T11:21:06Z</time><name>PT1735</name></trkpt>
<trkpt lat="54.488031" lon="-3.207357"><ele>682</ele><time>2024-05-31T11:21:10Z</time><name>PT1736</name></trkpt>
<trkpt lat="54.488026" lon="-3.207383"><ele>682</ele><time>2024-05-31T11:21:14Z</time><name>PT1737</name></trkpt>
<trkpt lat="54.488024" lon="-3.207398"><ele>682</ele><time>2024-05-31T11:21:17Z</time><name>PT1738</name></trkpt>
<trkpt lat="54.488025" lon="-3.207401"><ele>682</ele><time>2024-05-31T11:21:21Z</time><name>PT1739</name></trkpt>
<trkpt lat="54.488008" lon="-3.207433"><ele>684</ele><time>2024-05-31T11:21:30Z</time><name>PT1740</name></trkpt>
<trkpt lat="54.488006" lon="-3.207471"><ele>684</ele><time>2024-05-31T11:21:33Z</time><name>PT1741</name></trkpt>
<trkpt lat="54.487994" lon="-3.207511"><ele>684</ele><time>2024-05-31T11:21:37Z</time><name>PT1742</name></trkpt>
<trkpt lat="54.487996" lon="-3.207542"><ele>684</ele><time>2024-05-31T11:21:41Z</time><name>PT1743</name></trkpt>
<trkpt lat="54.488006" lon="-3.207560"><ele>685</ele><time>2024-05-31T11:21:45Z</time><name>PT1744</name></trkpt>
<trkpt lat="54.488018" lon="-3.207581"><ele>686</ele><time>2024-05-31T11:21:48Z</time><name>PT1745</name></trkpt>
<trkpt lat="54.488023" lon="-3.207597"><ele>686</ele><time>2024-05-31T11:21:52Z</time><name>PT1746</name></trkpt>
<trkpt lat="54.488023" lon="-3.207600"><ele>686</ele><time>2024-05-31T11:21:55Z</time><name>PT1747</name></trkpt>
<trkpt lat="54.488025" lon="-3.207600"><ele>686</ele><time>2024-05-31T11:21:59Z</time><name>PT1748</name></trkpt>
<trkpt lat="54.488025" lon="-3.207602"><ele>686</ele><time>2024-05-31T11:22:02Z</time><name>PT1749</name></trkpt>
<trkpt lat="54.488022" lon="-3.207600"><ele>686</ele><time>2024-05-31T11:22:09Z</time><name>PT1750</name></trkpt>
<trkpt lat="54.488014" lon="-3.207602"><ele>686</ele><time>2024-05-31T11:22:13Z</time><name>PT1751</name></trkpt>
<trkpt lat="54.488018" lon="-3.207608"><ele>686</ele><time>2024-05-31T11:22:17Z</time><name>PT1752</name></trkpt>
<trkpt lat="54.488018" lon="-3.207607"><ele>686</ele><time>2024-05-31T11:22:21Z</time><name>PT1753</name></trkpt>
<trkpt lat="54.488025" lon="-3.207632"><ele>686</ele><time>2024-05-31T11:23:23Z</time><name>PT1754</name></trkpt>
<trkpt lat="54.488028" lon="-3.207636"><ele>685</ele><time>2024-05-31T11:23:26Z</time><name>PT1755</name></trkpt>
<trkpt lat="54.488030" lon="-3.207636"><ele>685</ele><time>2024-05-31T11:23:55Z</time><name>PT1756</name></trkpt>
<trkpt lat="54.488030" lon="-3.207636"><ele>685</ele><time>2024-05-31T11:23:59Z</time><name>PT1757</name></trkpt>
<trkpt lat="54.488031" lon="-3.207632"><ele>685</ele><time>2024-05-31T11:24:15Z</time><name>PT1758</name></trkpt>
<trkpt lat="54.488030" lon="-3.207627"><ele>686</ele><time>2024-05-31T11:33:11Z</time><name>PT1759</name></trkpt>
<trkpt lat="54.488030" lon="-3.207622"><ele>685</ele><time>2024-05-31T11:33:14Z</time><name>PT1760</name></trkpt>
<trkpt lat="54.488030" lon="-3.207617"><ele>686</ele><time>2024-05-31T11:33:17Z</time><name>PT1761</name></trkpt>
<trkpt lat="54.488035" lon="-3.207620"><ele>686</ele><time>2024-05-31T11:35:11Z</time><name>PT1762</name></trkpt>
<trkpt lat="54.488045" lon="-3.207626"><ele>686</ele><time>2024-05-31T11:35:18Z</time><name>PT1763</name></trkpt>
<trkpt lat="54.488048" lon="-3.207632"><ele>686</ele><time>2024-05-31T11:35:21Z</time><name>PT1764</name></trkpt>
<trkpt lat="54.488049" lon="-3.207628"><ele>687</ele><time>2024-05-31T11:35:26Z</time><name>PT1765</name></trkpt>
<trkpt lat="54.488049" lon="-3.207627"><ele>687</ele><time>2024-05-31T11:35:29Z</time><name>PT1766</name></trkpt>
<trkpt lat="54.488050" lon="-3.207619"><ele>687</ele><time>2024-05-31T11:36:14Z</time><name>PT1767</name></trkpt>
<trkpt lat="54.488043" lon="-3.207617"><ele>687</ele><time>2024-05-31T11:36:17Z</time><name>PT1768</name></trkpt>
<trkpt lat="54.488045" lon="-3.207616"><ele>688</ele><time>2024-05-31T11:38:55Z</time><name>PT1769</name></trkpt>
<trkpt lat="54.488036" lon="-3.207610"><ele>688</ele><time>2024-05-31T11:38:58Z</time><name>PT1770</name></trkpt>
<trkpt lat="54.488033" lon="-3.207606"><ele>689</ele><time>2024-05-31T11:39:02Z</time><name>PT1771</name></trkpt>
<trkpt lat="54.488021" lon="-3.207608"><ele>689</ele><time>2024-05-31T11:41:10Z</time><name>PT1772</name></trkpt>
<trkpt lat="54.488016" lon="-3.207621"><ele>689</ele><time>2024-05-31T11:41:13Z</time><name>PT1773</name></trkpt>
<trkpt lat="54.487996" lon="-3.207648"><ele>690</ele><time>2024-05-31T11:41:21Z</time><name>PT1774</name></trkpt>
<trkpt lat="54.487985" lon="-3.207673"><ele>691</ele><time>2024-05-31T11:41:24Z</time><name>PT1775</name></trkpt>
<trkpt lat="54.487954" lon="-3.207709"><ele>691</ele><time>2024-05-31T11:41:27Z</time><name>PT1776</name></trkpt>
<trkpt lat="54.487940" lon="-3.207760"><ele>692</ele><time>2024-05-31T11:41:31Z</time><name>PT1777</name></trkpt>
<trkpt lat="54.487927" lon="-3.207801"><ele>694</ele><time>2024-05-31T11:41:35Z</time><name>PT1778</name></trkpt>
<trkpt lat="54.487914" lon="-3.207838"><ele>693</ele><time>2024-05-31T11:41:39Z</time><name>PT1779</name></trkpt>
<trkpt lat="54.487914" lon="-3.207853"><ele>693</ele><time>2024-05-31T11:41:43Z</time><name>PT1780</name></trkpt>
<trkpt lat="54.487902" lon="-3.207895"><ele>694</ele><time>2024-05-31T11:41:47Z</time><name>PT1781</name></trkpt>
<trkpt lat="54.487892" lon="-3.207946"><ele>694</ele><time>2024-05-31T11:41:51Z</time><name>PT1782</name></trkpt>
<trkpt lat="54.487894" lon="-3.207975"><ele>695</ele><time>2024-05-31T11:41:57Z</time><name>PT1783</name></trkpt>
<trkpt lat="54.487882" lon="-3.208014"><ele>697</ele><time>2024-05-31T11:42:01Z</time><name>PT1784</name></trkpt>
<trkpt lat="54.487866" lon="-3.208054"><ele>697</ele><time>2024-05-31T11:42:04Z</time><name>PT1785</name></trkpt>
<trkpt lat="54.487857" lon="-3.208073"><ele>698</ele><time>2024-05-31T11:42:08Z</time><name>PT1786</name></trkpt>
<trkpt lat="54.487854" lon="-3.208098"><ele>700</ele><time>2024-05-31T11:42:11Z</time><name>PT1787</name></trkpt>
<trkpt lat="54.487850" lon="-3.208114"><ele>701</ele><time>2024-05-31T11:42:14Z</time><name>PT1788</name></trkpt>
<trkpt lat="54.487835" lon="-3.208142"><ele>701</ele><time>2024-05-31T11:42:18Z</time><name>PT1789</name></trkpt>
<trkpt lat="54.487815" lon="-3.208169"><ele>702</ele><time>2024-05-31T11:42:22Z</time><name>PT1790</name></trkpt>
<trkpt lat="54.487807" lon="-3.208180"><ele>702</ele><time>2024-05-31T11:42:25Z</time><name>PT1791</name></trkpt>
<trkpt lat="54.487805" lon="-3.208190"><ele>702</ele><time>2024-05-31T11:42:28Z</time><name>PT1792</name></trkpt>
<trkpt lat="54.487807" lon="-3.208216"><ele>702</ele><time>2024-05-31T11:42:31Z</time><name>PT1793</name></trkpt>
<trkpt lat="54.487814" lon="-3.208253"><ele>702</ele><time>2024-05-31T11:42:36Z</time><name>PT1794</name></trkpt>
<trkpt lat="54.487822" lon="-3.208275"><ele>704</ele><time>2024-05-31T11:42:39Z</time><name>PT1795</name></trkpt>
<trkpt lat="54.487829" lon="-3.208302"><ele>705</ele><time>2024-05-31T11:42:42Z</time><name>PT1796</name></trkpt>
<trkpt lat="54.487827" lon="-3.208321"><ele>706</ele><time>2024-05-31T11:42:45Z</time><name>PT1797</name></trkpt>
<trkpt lat="54.487818" lon="-3.208351"><ele>706</ele><time>2024-05-31T11:42:49Z</time><name>PT1798</name></trkpt>
<trkpt lat="54.487811" lon="-3.208373"><ele>706</ele><time>2024-05-31T11:42:52Z</time><name>PT1799</name></trkpt>
<trkpt lat="54.487810" lon="-3.208379"><ele>707</ele><time>2024-05-31T11:42:55Z</time><name>PT1800</name></trkpt>
<trkpt lat="54.487811" lon="-3.208392"><ele>707</ele><time>2024-05-31T11:42:59Z</time><name>PT1801</name></trkpt>
<trkpt lat="54.487812" lon="-3.208419"><ele>708</ele><time>2024-05-31T11:43:02Z</time><name>PT1802</name></trkpt>
<trkpt lat="54.487812" lon="-3.208440"><ele>708</ele><time>2024-05-31T11:43:05Z</time><name>PT1803</name></trkpt>
<trkpt lat="54.487811" lon="-3.208479"><ele>710</ele><time>2024-05-31T11:43:09Z</time><name>PT1804</name></trkpt>
<trkpt lat="54.487804" lon="-3.208494"><ele>710</ele><time>2024-05-31T11:43:12Z</time><name>PT1805</name></trkpt>
<trkpt lat="54.487795" lon="-3.208508"><ele>710</ele><time>2024-05-31T11:43:15Z</time><name>PT1806</name></trkpt>
<trkpt lat="54.487779" lon="-3.208533"><ele>710</ele><time>2024-05-31T11:43:18Z</time><name>PT1807</name></trkpt>
<trkpt lat="54.487764" lon="-3.208555"><ele>710</ele><time>2024-05-31T11:43:21Z</time><name>PT1808</name></trkpt>
<trkpt lat="54.487751" lon="-3.208575"><ele>710</ele><time>2024-05-31T11:43:26Z</time><name>PT1809</name></trkpt>
<trkpt lat="54.487752" lon="-3.208615"><ele>711</ele><time>2024-05-31T11:43:33Z</time><name>PT1810</name></trkpt>
<trkpt lat="54.487751" lon="-3.208620"><ele>711</ele><time>2024-05-31T11:43:37Z</time><name>PT1811</name></trkpt>
<trkpt lat="54.487746" lon="-3.208687"><ele>713</ele><time>2024-05-31T11:43:55Z</time><name>PT1812</name></trkpt>
<trkpt lat="54.487756" lon="-3.208731"><ele>714</ele><time>2024-05-31T11:43:58Z</time><name>PT1813</name></trkpt>
<trkpt lat="54.487757" lon="-3.208759"><ele>715</ele><time>2024-05-31T11:44:01Z</time><name>PT1814</name></trkpt>
<trkpt lat="54.487761" lon="-3.208789"><ele>715</ele><time>2024-05-31T11:44:06Z</time><name>PT1815</name></trkpt>
<trkpt lat="54.487758" lon="-3.208821"><ele>715</ele><time>2024-05-31T11:44:09Z</time><name>PT1816</name></trkpt>
<trkpt lat="54.487757" lon="-3.208853"><ele>716</ele><time>2024-05-31T11:44:12Z</time><name>PT1817</name></trkpt>
<trkpt lat="54.487755" lon="-3.208876"><ele>716</ele><time>2024-05-31T11:44:15Z</time><name>PT1818</name></trkpt>
<trkpt lat="54.487752" lon="-3.208912"><ele>718</ele><time>2024-05-31T11:44:21Z</time><name>PT1819</name></trkpt>
<trkpt lat="54.487754" lon="-3.208960"><ele>720</ele><time>2024-05-31T11:44:26Z</time><name>PT1820</name></trkpt>
<trkpt lat="54.487752" lon="-3.208980"><ele>720</ele><time>2024-05-31T11:44:29Z</time><name>PT1821</name></trkpt>
<trkpt lat="54.487743" lon="-3.209030"><ele>721</ele><time>2024-05-31T11:44:33Z</time><name>PT1822</name></trkpt>
<trkpt lat="54.487735" lon="-3.209115"><ele>722</ele><time>2024-05-31T11:44:44Z</time><name>PT1823</name></trkpt>
<trkpt lat="54.487738" lon="-3.209153"><ele>723</ele><time>2024-05-31T11:44:47Z</time><name>PT1824</name></trkpt>
<trkpt lat="54.487728" lon="-3.209193"><ele>724</ele><time>2024-05-31T11:44:50Z</time><name>PT1825</name></trkpt>
<trkpt lat="54.487713" lon="-3.209229"><ele>724</ele><time>2024-05-31T11:44:53Z</time><name>PT1826</name></trkpt>
<trkpt lat="54.487699" lon="-3.209272"><ele>725</ele><time>2024-05-31T11:44:58Z</time><name>PT1827</name></trkpt>
<trkpt lat="54.487688" lon="-3.209315"><ele>725</ele><time>2024-05-31T11:45:02Z</time><name>PT1828</name></trkpt>
<trkpt lat="54.487671" lon="-3.209336"><ele>726</ele><time>2024-05-31T11:45:05Z</time><name>PT1829</name></trkpt>
<trkpt lat="54.487661" lon="-3.209358"><ele>727</ele><time>2024-05-31T11:45:08Z</time><name>PT1830</name></trkpt>
<trkpt lat="54.487647" lon="-3.209403"><ele>728</ele><time>2024-05-31T11:45:11Z</time><name>PT1831</name></trkpt>
<trkpt lat="54.487642" lon="-3.209430"><ele>729</ele><time>2024-05-31T11:45:14Z</time><name>PT1832</name></trkpt>
<trkpt lat="54.487650" lon="-3.209458"><ele>730</ele><time>2024-05-31T11:45:17Z</time><name>PT1833</name></trkpt>
<trkpt lat="54.487648" lon="-3.209501"><ele>731</ele><time>2024-05-31T11:45:22Z</time><name>PT1834</name></trkpt>
<trkpt lat="54.487646" lon="-3.209528"><ele>731</ele><time>2024-05-31T11:45:25Z</time><name>PT1835</name></trkpt>
<trkpt lat="54.487645" lon="-3.209536"><ele>731</ele><time>2024-05-31T11:45:29Z</time><name>PT1836</name></trkpt>
<trkpt lat="54.487638" lon="-3.209576"><ele>732</ele><time>2024-05-31T11:45:32Z</time><name>PT1837</name></trkpt>
<trkpt lat="54.487624" lon="-3.209606"><ele>733</ele><time>2024-05-31T11:45:35Z</time><name>PT1838</name></trkpt>
<trkpt lat="54.487616" lon="-3.209629"><ele>734</ele><time>2024-05-31T11:45:38Z</time><name>PT1839</name></trkpt>
<trkpt lat="54.487619" lon="-3.209674"><ele>734</ele><time>2024-05-31T11:45:41Z</time><name>PT1840</name></trkpt>
<trkpt lat="54.487622" lon="-3.209708"><ele>735</ele><time>2024-05-31T11:45:44Z</time><name>PT1841</name></trkpt>
<trkpt lat="54.487620" lon="-3.209751"><ele>735</ele><time>2024-05-31T11:45:49Z</time><name>PT1842</name></trkpt>
<trkpt lat="54.487625" lon="-3.209801"><ele>736</ele><time>2024-05-31T11:45:53Z</time><name>PT1843</name></trkpt>
<trkpt lat="54.487620" lon="-3.209844"><ele>737</ele><time>2024-05-31T11:45:56Z</time><name>PT1844</name></trkpt>
<trkpt lat="54.487616" lon="-3.209872"><ele>737</ele><time>2024-05-31T11:45:59Z</time><name>PT1845</name></trkpt>
<trkpt lat="54.487612" lon="-3.209903"><ele>738</ele><time>2024-05-31T11:46:04Z</time><name>PT1846</name></trkpt>
<trkpt lat="54.487604" lon="-3.209940"><ele>739</ele><time>2024-05-31T11:46:07Z</time><name>PT1847</name></trkpt>
<trkpt lat="54.487602" lon="-3.209979"><ele>739</ele><time>2024-05-31T11:46:10Z</time><name>PT1848</name></trkpt>
<trkpt lat="54.487601" lon="-3.210009"><ele>740</ele><time>2024-05-31T11:46:13Z</time><name>PT1849</name></trkpt>
<trkpt lat="54.487602" lon="-3.210050"><ele>740</ele><time>2024-05-31T11:46:17Z</time><name>PT1850</name></trkpt>
<trkpt lat="54.487603" lon="-3.210059"><ele>740</ele><time>2024-05-31T11:46:20Z</time><name>PT1851</name></trkpt>
<trkpt lat="54.487607" lon="-3.210099"><ele>741</ele><time>2024-05-31T11:46:26Z</time><name>PT1852</name></trkpt>
<trkpt lat="54.487609" lon="-3.210111"><ele>742</ele><time>2024-05-31T11:46:30Z</time><name>PT1853</name></trkpt>
<trkpt lat="54.487608" lon="-3.210154"><ele>743</ele><time>2024-05-31T11:46:33Z</time><name>PT1854</name></trkpt>
<trkpt lat="54.487615" lon="-3.210216"><ele>744</ele><time>2024-05-31T11:46:37Z</time><name>PT1855</name></trkpt>
<trkpt lat="54.487616" lon="-3.210254"><ele>745</ele><time>2024-05-31T11:46:40Z</time><name>PT1856</name></trkpt>
<trkpt lat="54.487612" lon="-3.210292"><ele>745</ele><time>2024-05-31T11:46:43Z</time><name>PT1857</name></trkpt>
<trkpt lat="54.487606" lon="-3.210319"><ele>746</ele><time>2024-05-31T11:46:46Z</time><name>PT1858</name></trkpt>
<trkpt lat="54.487595" lon="-3.210355"><ele>746</ele><time>2024-05-31T11:46:51Z</time><name>PT1859</name></trkpt>
<trkpt lat="54.487585" lon="-3.210386"><ele>747</ele><time>2024-05-31T11:46:54Z</time><name>PT1860</name></trkpt>
<trkpt lat="54.487576" lon="-3.210425"><ele>747</ele><time>2024-05-31T11:46:57Z</time><name>PT1861</name></trkpt>
<trkpt lat="54.487559" lon="-3.210460"><ele>746</ele><time>2024-05-31T11:47:00Z</time><name>PT1862</name></trkpt>
<trkpt lat="54.487541" lon="-3.210483"><ele>746</ele><time>2024-05-31T11:47:03Z</time><name>PT1863</name></trkpt>
<trkpt lat="54.487524" lon="-3.210520"><ele>746</ele><time>2024-05-31T11:47:06Z</time><name>PT1864</name></trkpt>
<trkpt lat="54.487511" lon="-3.210570"><ele>747</ele><time>2024-05-31T11:47:09Z</time><name>PT1865</name></trkpt>
<trkpt lat="54.487505" lon="-3.210625"><ele>748</ele><time>2024-05-31T11:47:14Z</time><name>PT1866</name></trkpt>
<trkpt lat="54.487505" lon="-3.210659"><ele>748</ele><time>2024-05-31T11:47:17Z</time><name>PT1867</name></trkpt>
<trkpt lat="54.487508" lon="-3.210708"><ele>749</ele><time>2024-05-31T11:47:21Z</time><name>PT1868</name></trkpt>
<trkpt lat="54.487513" lon="-3.210757"><ele>751</ele><time>2024-05-31T11:47:24Z</time><name>PT1869</name></trkpt>
<trkpt lat="54.487519" lon="-3.210790"><ele>751</ele><time>2024-05-31T11:47:27Z</time><name>PT1870</name></trkpt>
<trkpt lat="54.487523" lon="-3.210833"><ele>752</ele><time>2024-05-31T11:47:30Z</time><name>PT1871</name></trkpt>
<trkpt lat="54.487520" lon="-3.210890"><ele>753</ele><time>2024-05-31T11:47:35Z</time><name>PT1872</name></trkpt>
<trkpt lat="54.487511" lon="-3.210946"><ele>754</ele><time>2024-05-31T11:47:39Z</time><name>PT1873</name></trkpt>
<trkpt lat="54.487513" lon="-3.210992"><ele>755</ele><time>2024-05-31T11:47:42Z</time><name>PT1874</name></trkpt>
<trkpt lat="54.487511" lon="-3.211050"><ele>755</ele><time>2024-05-31T11:47:46Z</time><name>PT1875</name></trkpt>
<trkpt lat="54.487524" lon="-3.211115"><ele>756</ele><time>2024-05-31T11:47:50Z</time><name>PT1876</name></trkpt>
<trkpt lat="54.487533" lon="-3.211175"><ele>757</ele><time>2024-05-31T11:47:54Z</time><name>PT1877</name></trkpt>
<trkpt lat="54.487533" lon="-3.211217"><ele>757</ele><time>2024-05-31T11:47:57Z</time><name>PT1878</name></trkpt>
<trkpt lat="54.487525" lon="-3.211251"><ele>758</ele><time>2024-05-31T11:48:00Z</time><name>PT1879</name></trkpt>
<trkpt lat="54.487517" lon="-3.211304"><ele>758</ele><time>2024-05-31T11:48:04Z</time><name>PT1880</name></trkpt>
<trkpt lat="54.487509" lon="-3.211376"><ele>758</ele><time>2024-05-31T11:48:08Z</time><name>PT1881</name></trkpt>
<trkpt lat="54.487503" lon="-3.211444"><ele>758</ele><time>2024-05-31T11:48:12Z</time><name>PT1882</name></trkpt>
<trkpt lat="54.487504" lon="-3.211501"><ele>758</ele><time>2024-05-31T11:48:15Z</time><name>PT1883</name></trkpt>
<trkpt lat="54.487497" lon="-3.211554"><ele>760</ele><time>2024-05-31T11:48:19Z</time><name>PT1884</name></trkpt>
<trkpt lat="54.487485" lon="-3.211597"><ele>761</ele><time>2024-05-31T11:48:22Z</time><name>PT1885</name></trkpt>
<trkpt lat="54.487462" lon="-3.211640"><ele>762</ele><time>2024-05-31T11:48:25Z</time><name>PT1886</name></trkpt>
<trkpt lat="54.487438" lon="-3.211697"><ele>762</ele><time>2024-05-31T11:48:30Z</time><name>PT1887</name></trkpt>
<trkpt lat="54.487416" lon="-3.211742"><ele>762</ele><time>2024-05-31T11:48:33Z</time><name>PT1888</name></trkpt>
<trkpt lat="54.487380" lon="-3.211782"><ele>763</ele><time>2024-05-31T11:48:37Z</time><name>PT1889</name></trkpt>
<trkpt lat="54.487345" lon="-3.211824"><ele>763</ele><time>2024-05-31T11:48:40Z</time><name>PT1890</name></trkpt>
<trkpt lat="54.487311" lon="-3.211862"><ele>763</ele><time>2024-05-31T11:48:45Z</time><name>PT1891</name></trkpt>
<trkpt lat="54.487289" lon="-3.211898"><ele>764</ele><time>2024-05-31T11:48:48Z</time><name>PT1892</name></trkpt>
<trkpt lat="54.487266" lon="-3.211930"><ele>765</ele><time>2024-05-31T11:48:51Z</time><name>PT1893</name></trkpt>
<trkpt lat="54.487246" lon="-3.211960"><ele>764</ele><time>2024-05-31T11:48:54Z</time><name>PT1894</name></trkpt>
<trkpt lat="54.487215" lon="-3.212008"><ele>765</ele><time>2024-05-31T11:48:57Z</time><name>PT1895</name></trkpt>
<trkpt lat="54.487188" lon="-3.212041"><ele>766</ele><time>2024-05-31T11:49:00Z</time><name>PT1896</name></trkpt>
<trkpt lat="54.487152" lon="-3.212082"><ele>766</ele><time>2024-05-31T11:49:05Z</time><name>PT1897</name></trkpt>
<trkpt lat="54.487116" lon="-3.212120"><ele>766</ele><time>2024-05-31T11:49:09Z</time><name>PT1898</name></trkpt>
<trkpt lat="54.487087" lon="-3.212149"><ele>766</ele><time>2024-05-31T11:49:12Z</time><name>PT1899</name></trkpt>
<trkpt lat="54.487063" lon="-3.212175"><ele>766</ele><time>2024-05-31T11:49:15Z</time><name>PT1900</name></trkpt>
<trkpt lat="54.487033" lon="-3.212219"><ele>766</ele><time>2024-05-31T11:49:18Z</time><name>PT1901</name></trkpt>
<trkpt lat="54.487001" lon="-3.212253"><ele>767</ele><time>2024-05-31T11:49:23Z</time><name>PT1902</name></trkpt>
<trkpt lat="54.486980" lon="-3.212281"><ele>768</ele><time>2024-05-31T11:49:26Z</time><name>PT1903</name></trkpt>
<trkpt lat="54.486957" lon="-3.212306"><ele>769</ele><time>2024-05-31T11:49:29Z</time><name>PT1904</name></trkpt>
<trkpt lat="54.486932" lon="-3.212362"><ele>770</ele><time>2024-05-31T11:49:32Z</time><name>PT1905</name></trkpt>
<trkpt lat="54.486903" lon="-3.212395"><ele>770</ele><time>2024-05-31T11:49:37Z</time><name>PT1906</name></trkpt>
<trkpt lat="54.486878" lon="-3.212422"><ele>771</ele><time>2024-05-31T11:49:40Z</time><name>PT1907</name></trkpt>
<trkpt lat="54.486852" lon="-3.212435"><ele>771</ele><time>2024-05-31T11:49:43Z</time><name>PT1908</name></trkpt>
<trkpt lat="54.486834" lon="-3.212453"><ele>771</ele><time>2024-05-31T11:49:46Z</time><name>PT1909</name></trkpt>
<trkpt lat="54.486812" lon="-3.212486"><ele>772</ele><time>2024-05-31T11:49:49Z</time><name>PT1910</name></trkpt>
<trkpt lat="54.486791" lon="-3.212506"><ele>772</ele><time>2024-05-31T11:49:52Z</time><name>PT1911</name></trkpt>
<trkpt lat="54.486762" lon="-3.212529"><ele>773</ele><time>2024-05-31T11:49:55Z</time><name>PT1912</name></trkpt>
<trkpt lat="54.486730" lon="-3.212548"><ele>773</ele><time>2024-05-31T11:50:00Z</time><name>PT1913</name></trkpt>
<trkpt lat="54.486710" lon="-3.212563"><ele>773</ele><time>2024-05-31T11:50:03Z</time><name>PT1914</name></trkpt>
<trkpt lat="54.486685" lon="-3.212590"><ele>774</ele><time>2024-05-31T11:50:07Z</time><name>PT1915</name></trkpt>
<trkpt lat="54.486660" lon="-3.212623"><ele>775</ele><time>2024-05-31T11:50:10Z</time><name>PT1916</name></trkpt>
<trkpt lat="54.486639" lon="-3.212645"><ele>776</ele><time>2024-05-31T11:50:13Z</time><name>PT1917</name></trkpt>
<trkpt lat="54.486622" lon="-3.212658"><ele>777</ele><time>2024-05-31T11:50:16Z</time><name>PT1918</name></trkpt>
<trkpt lat="54.486601" lon="-3.212689"><ele>778</ele><time>2024-05-31T11:50:21Z</time><name>PT1919</name></trkpt>
<trkpt lat="54.486587" lon="-3.212712"><ele>778</ele><time>2024-05-31T11:50:24Z</time><name>PT1920</name></trkpt>
<trkpt lat="54.486567" lon="-3.212750"><ele>779</ele><time>2024-05-31T11:50:28Z</time><name>PT1921</name></trkpt>
<trkpt lat="54.486551" lon="-3.212778"><ele>780</ele><time>2024-05-31T11:50:31Z</time><name>PT1922</name></trkpt>
<trkpt lat="54.486535" lon="-3.212800"><ele>781</ele><time>2024-05-31T11:50:34Z</time><name>PT1923</name></trkpt>
<trkpt lat="54.486513" lon="-3.212815"><ele>781</ele><time>2024-05-31T11:50:37Z</time><name>PT1924</name></trkpt>
<trkpt lat="54.486492" lon="-3.212841"><ele>782</ele><time>2024-05-31T11:50:42Z</time><name>PT1925</name></trkpt>
<trkpt lat="54.486479" lon="-3.212863"><ele>782</ele><time>2024-05-31T11:50:45Z</time><name>PT1926</name></trkpt>
<trkpt lat="54.486458" lon="-3.212887"><ele>782</ele><time>2024-05-31T11:50:48Z</time><name>PT1927</name></trkpt>
<trkpt lat="54.486445" lon="-3.212913"><ele>783</ele><time>2024-05-31T11:50:53Z</time><name>PT1928</name></trkpt>
<trkpt lat="54.486424" lon="-3.212955"><ele>784</ele><time>2024-05-31T11:50:57Z</time><name>PT1929</name></trkpt>
<trkpt lat="54.486406" lon="-3.212978"><ele>784</ele><time>2024-05-31T11:51:00Z</time><name>PT1930</name></trkpt>
<trkpt lat="54.486380" lon="-3.213004"><ele>785</ele><time>2024-05-31T11:51:03Z</time><name>PT1931</name></trkpt>
<trkpt lat="54.486366" lon="-3.213028"><ele>786</ele><time>2024-05-31T11:51:07Z</time><name>PT1932</name></trkpt>
<trkpt lat="54.486348" lon="-3.213052"><ele>787</ele><time>2024-05-31T11:51:10Z</time><name>PT1933</name></trkpt>
<trkpt lat="54.486323" lon="-3.213078"><ele>788</ele><time>2024-05-31T11:51:14Z</time><name>PT1934</name></trkpt>
<trkpt lat="54.486307" lon="-3.213091"><ele>788</ele><time>2024-05-31T11:51:17Z</time><name>PT1935</name></trkpt>
<trkpt lat="54.486301" lon="-3.213102"><ele>788</ele><time>2024-05-31T11:51:20Z</time><name>PT1936</name></trkpt>
<trkpt lat="54.486301" lon="-3.213114"><ele>788</ele><time>2024-05-31T11:51:23Z</time><name>PT1937</name></trkpt>
<trkpt lat="54.486284" lon="-3.213140"><ele>789</ele><time>2024-05-31T11:51:26Z</time><name>PT1938</name></trkpt>
<trkpt lat="54.486257" lon="-3.213188"><ele>789</ele><time>2024-05-31T11:51:29Z</time><name>PT1939</name></trkpt>
<trkpt lat="54.486227" lon="-3.213222"><ele>790</ele><time>2024-05-31T11:51:34Z</time><name>PT1940</name></trkpt>
<trkpt lat="54.486207" lon="-3.213237"><ele>790</ele><time>2024-05-31T11:51:37Z</time><name>PT1941</name></trkpt>
<trkpt lat="54.486189" lon="-3.213269"><ele>791</ele><time>2024-05-31T11:51:41Z</time><name>PT1942</name></trkpt>
<trkpt lat="54.486171" lon="-3.213287"><ele>791</ele><time>2024-05-31T11:51:44Z</time><name>PT1943</name></trkpt>
<trkpt lat="54.486149" lon="-3.213301"><ele>791</ele><time>2024-05-31T11:51:47Z</time><name>PT1944</name></trkpt>
<trkpt lat="54.486127" lon="-3.213319"><ele>792</ele><time>2024-05-31T11:51:50Z</time><name>PT1945</name></trkpt>
<trkpt lat="54.486100" lon="-3.213335"><ele>793</ele><time>2024-05-31T11:51:53Z</time><name>PT1946</name></trkpt>
<trkpt lat="54.486079" lon="-3.213342"><ele>793</ele><time>2024-05-31T11:51:56Z</time><name>PT1947</name></trkpt>
<trkpt lat="54.486058" lon="-3.213358"><ele>794</ele><time>2024-05-31T11:52:00Z</time><name>PT1948</name></trkpt>
<trkpt lat="54.486041" lon="-3.213381"><ele>795</ele><time>2024-05-31T11:52:03Z</time><name>PT1949</name></trkpt>
<trkpt lat="54.486018" lon="-3.213420"><ele>796</ele><time>2024-05-31T11:52:07Z</time><name>PT1950</name></trkpt>
<trkpt lat="54.486002" lon="-3.213447"><ele>797</ele><time>2024-05-31T11:52:10Z</time><name>PT1951</name></trkpt>
<trkpt lat="54.485987" lon="-3.213485"><ele>796</ele><time>2024-05-31T11:52:13Z</time><name>PT1952</name></trkpt>
<trkpt lat="54.485969" lon="-3.213523"><ele>797</ele><time>2024-05-31T11:52:18Z</time><name>PT1953</name></trkpt>
<trkpt lat="54.485955" lon="-3.213556"><ele>797</ele><time>2024-05-31T11:52:21Z</time><name>PT1954</name></trkpt>
<trkpt lat="54.485929" lon="-3.213590"><ele>797</ele><time>2024-05-31T11:52:25Z</time><name>PT1955</name></trkpt>
<trkpt lat="54.485923" lon="-3.213611"><ele>798</ele><time>2024-05-31T11:52:28Z</time><name>PT1956</name></trkpt>
<trkpt lat="54.485921" lon="-3.213612"><ele>798</ele><time>2024-05-31T11:52:31Z</time><name>PT1957</name></trkpt>
<trkpt lat="54.485905" lon="-3.213647"><ele>798</ele><time>2024-05-31T11:52:36Z</time><name>PT1958</name></trkpt>
<trkpt lat="54.485888" lon="-3.213656"><ele>798</ele><time>2024-05-31T11:52:39Z</time><name>PT1959</name></trkpt>
<trkpt lat="54.485862" lon="-3.213676"><ele>799</ele><time>2024-05-31T11:52:43Z</time><name>PT1960</name></trkpt>
<trkpt lat="54.485840" lon="-3.213695"><ele>800</ele><time>2024-05-31T11:52:47Z</time><name>PT1961</name></trkpt>
<trkpt lat="54.485810" lon="-3.213702"><ele>800</ele><time>2024-05-31T11:52:51Z</time><name>PT1962</name></trkpt>
<trkpt lat="54.485782" lon="-3.213705"><ele>800</ele><time>2024-05-31T11:52:55Z</time><name>PT1963</name></trkpt>
<trkpt lat="54.485773" lon="-3.213704"><ele>801</ele><time>2024-05-31T11:52:58Z</time><name>PT1964</name></trkpt>
<trkpt lat="54.485755" lon="-3.213722"><ele>801</ele><time>2024-05-31T11:53:09Z</time><name>PT1965</name></trkpt>
<trkpt lat="54.485734" lon="-3.213742"><ele>801</ele><time>2024-05-31T11:53:13Z</time><name>PT1966</name></trkpt>
<trkpt lat="54.485727" lon="-3.213746"><ele>802</ele><time>2024-05-31T11:53:31Z</time><name>PT1967</name></trkpt>
<trkpt lat="54.485723" lon="-3.213754"><ele>802</ele><time>2024-05-31T11:54:15Z</time><name>PT1968</name></trkpt>
<trkpt lat="54.485720" lon="-3.213757"><ele>803</ele><time>2024-05-31T11:54:18Z</time><name>PT1969</name></trkpt>
<trkpt lat="54.485711" lon="-3.213764"><ele>803</ele><time>2024-05-31T11:54:28Z</time><name>PT1970</name></trkpt>
<trkpt lat="54.485704" lon="-3.213766"><ele>803</ele><time>2024-05-31T11:54:31Z</time><name>PT1971</name></trkpt>
<trkpt lat="54.485702" lon="-3.213765"><ele>803</ele><time>2024-05-31T11:55:02Z</time><name>PT1972</name></trkpt>
<trkpt lat="54.485691" lon="-3.213756"><ele>803</ele><time>2024-05-31T11:55:06Z</time><name>PT1973</name></trkpt>
<trkpt lat="54.485684" lon="-3.213754"><ele>803</ele><time>2024-05-31T11:55:38Z</time><name>PT1974</name></trkpt>
<trkpt lat="54.485684" lon="-3.213755"><ele>803</ele><time>2024-05-31T11:55:41Z</time><name>PT1975</name></trkpt>
<trkpt lat="54.485681" lon="-3.213744"><ele>804</ele><time>2024-05-31T11:56:05Z</time><name>PT1976</name></trkpt>
<trkpt lat="54.485679" lon="-3.213743"><ele>804</ele><time>2024-05-31T11:56:08Z</time><name>PT1977</name></trkpt>
<trkpt lat="54.485676" lon="-3.213741"><ele>804</ele><time>2024-05-31T11:56:22Z</time><name>PT1978</name></trkpt>
<trkpt lat="54.485672" lon="-3.213741"><ele>804</ele><time>2024-05-31T11:56:25Z</time><name>PT1979</name></trkpt>
<trkpt lat="54.485669" lon="-3.213740"><ele>804</ele><time>2024-05-31T11:56:28Z</time><name>PT1980</name></trkpt>
<trkpt lat="54.485661" lon="-3.213730"><ele>803</ele><time>2024-05-31T11:56:33Z</time><name>PT1981</name></trkpt>
<trkpt lat="54.485657" lon="-3.213727"><ele>803</ele><time>2024-05-31T11:56:36Z</time><name>PT1982</name></trkpt>
<trkpt lat="54.485658" lon="-3.213725"><ele>803</ele><time>2024-05-31T11:57:07Z</time><name>PT1983</name></trkpt>
<trkpt lat="54.485656" lon="-3.213716"><ele>802</ele><time>2024-05-31T11:57:10Z</time><name>PT1984</name></trkpt>
<trkpt lat="54.485647" lon="-3.213677"><ele>802</ele><time>2024-05-31T11:57:13Z</time><name>PT1985</name></trkpt>
<trkpt lat="54.485644" lon="-3.213660"><ele>802</ele><time>2024-05-31T11:57:16Z</time><name>PT1986</name></trkpt>
<trkpt lat="54.485631" lon="-3.213637"><ele>802</ele><time>2024-05-31T11:57:21Z</time><name>PT1987</name></trkpt>
<trkpt lat="54.485626" lon="-3.213638"><ele>802</ele><time>2024-05-31T11:57:24Z</time><name>PT1988</name></trkpt>
<trkpt lat="54.485619" lon="-3.213625"><ele>802</ele><time>2024-05-31T11:57:28Z</time><name>PT1989</name></trkpt>
<trkpt lat="54.485597" lon="-3.213604"><ele>802</ele><time>2024-05-31T11:57:31Z</time><name>PT1990</name></trkpt>
<trkpt lat="54.485585" lon="-3.213608"><ele>802</ele><time>2024-05-31T11:57:34Z</time><name>PT1991</name></trkpt>
<trkpt lat="54.485575" lon="-3.213605"><ele>802</ele><time>2024-05-31T11:57:39Z</time><name>PT1992</name></trkpt>
<trkpt lat="54.485549" lon="-3.213587"><ele>802</ele><time>2024-05-31T11:57:42Z</time><name>PT1993</name></trkpt>
<trkpt lat="54.485531" lon="-3.213558"><ele>802</ele><time>2024-05-31T11:57:45Z</time><name>PT1994</name></trkpt>
<trkpt lat="54.485508" lon="-3.213524"><ele>801</ele><time>2024-05-31T11:57:49Z</time><name>PT1995</name></trkpt>
<trkpt lat="54.485487" lon="-3.213502"><ele>801</ele><time>2024-05-31T11:57:53Z</time><name>PT1996</name></trkpt>
<trkpt lat="54.485465" lon="-3.213453"><ele>801</ele><time>2024-05-31T11:57:57Z</time><name>PT1997</name></trkpt>
<trkpt lat="54.485439" lon="-3.213403"><ele>800</ele><time>2024-05-31T11:58:01Z</time><name>PT1998</name></trkpt>
<trkpt lat="54.485407" lon="-3.213363"><ele>799</ele><time>2024-05-31T11:58:04Z</time><name>PT1999</name></trkpt>
<trkpt lat="54.485381" lon="-3.213363"><ele>799</ele><time>2024-05-31T11:58:07Z</time><name>PT2000</name></trkpt>
<trkpt lat="54.485349" lon="-3.213354"><ele>799</ele><time>2024-05-31T11:58:12Z</time><name>PT2001</name></trkpt>
<trkpt lat="54.485320" lon="-3.213338"><ele>798</ele><time>2024-05-31T11:58:15Z</time><name>PT2002</name></trkpt>
<trkpt lat="54.485280" lon="-3.213335"><ele>798</ele><time>2024-05-31T11:58:19Z</time><name>PT2003</name></trkpt>
<trkpt lat="54.485240" lon="-3.213335"><ele>797</ele><time>2024-05-31T11:58:23Z</time><name>PT2004</name></trkpt>
<trkpt lat="54.485212" lon="-3.213335"><ele>797</ele><time>2024-05-31T11:58:26Z</time><name>PT2005</name></trkpt>
<trkpt lat="54.485174" lon="-3.213354"><ele>797</ele><time>2024-05-31T11:58:30Z</time><name>PT2006</name></trkpt>
<trkpt lat="54.485139" lon="-3.213348"><ele>797</ele><time>2024-05-31T11:58:34Z</time><name>PT2007</name></trkpt>
<trkpt lat="54.485117" lon="-3.213370"><ele>796</ele><time>2024-05-31T11:58:37Z</time><name>PT2008</name></trkpt>
<trkpt lat="54.485084" lon="-3.213390"><ele>795</ele><time>2024-05-31T11:58:41Z</time><name>PT2009</name></trkpt>
<trkpt lat="54.485064" lon="-3.213413"><ele>795</ele><time>2024-05-31T11:58:44Z</time><name>PT2010</name></trkpt>
<trkpt lat="54.485052" lon="-3.213420"><ele>794</ele><time>2024-05-31T11:58:48Z</time><name>PT2011</name></trkpt>
<trkpt lat="54.485057" lon="-3.213430"><ele>795</ele><time>2024-05-31T11:58:51Z</time><name>PT2012</name></trkpt>
<trkpt lat="54.485058" lon="-3.213431"><ele>795</ele><time>2024-05-31T11:58:54Z</time><name>PT2013</name></trkpt>
<trkpt lat="54.485039" lon="-3.213438"><ele>794</ele><time>2024-05-31T11:59:29Z</time><name>PT2014</name></trkpt>
<trkpt lat="54.485009" lon="-3.213443"><ele>793</ele><time>2024-05-31T11:59:32Z</time><name>PT2015</name></trkpt>
<trkpt lat="54.484979" lon="-3.213452"><ele>793</ele><time>2024-05-31T11:59:35Z</time><name>PT2016</name></trkpt>
<trkpt lat="54.484945" lon="-3.213462"><ele>792</ele><time>2024-05-31T11:59:39Z</time><name>PT2017</name></trkpt>
<trkpt lat="54.484906" lon="-3.213451"><ele>792</ele><time>2024-05-31T11:59:43Z</time><name>PT2018</name></trkpt>
<trkpt lat="54.484880" lon="-3.213450"><ele>791</ele><time>2024-05-31T11:59:46Z</time><name>PT2019</name></trkpt>
<trkpt lat="54.484859" lon="-3.213442"><ele>791</ele><time>2024-05-31T11:59:49Z</time><name>PT2020</name></trkpt>
<trkpt lat="54.484839" lon="-3.213411"><ele>791</ele><time>2024-05-31T11:59:52Z</time><name>PT2021</name></trkpt>
<trkpt lat="54.484815" lon="-3.213395"><ele>790</ele><time>2024-05-31T11:59:55Z</time><name>PT2022</name></trkpt>
<trkpt lat="54.484786" lon="-3.213375"><ele>789</ele><time>2024-05-31T12:00:00Z</time><name>PT2023</name></trkpt>
<trkpt lat="54.484766" lon="-3.213391"><ele>789</ele><time>2024-05-31T12:00:03Z</time><name>PT2024</name></trkpt>
<trkpt lat="54.484749" lon="-3.213407"><ele>788</ele><time>2024-05-31T12:00:06Z</time><name>PT2025</name></trkpt>
<trkpt lat="54.484735" lon="-3.213438"><ele>787</ele><time>2024-05-31T12:00:10Z</time><name>PT2026</name></trkpt>
<trkpt lat="54.484724" lon="-3.213473"><ele>786</ele><time>2024-05-31T12:00:13Z</time><name>PT2027</name></trkpt>
<trkpt lat="54.484713" lon="-3.213499"><ele>785</ele><time>2024-05-31T12:00:17Z</time><name>PT2028</name></trkpt>
<trkpt lat="54.484705" lon="-3.213528"><ele>784</ele><time>2024-05-31T12:00:20Z</time><name>PT2029</name></trkpt>
<trkpt lat="54.484691" lon="-3.213541"><ele>784</ele><time>2024-05-31T12:00:23Z</time><name>PT2030</name></trkpt>
<trkpt lat="54.484680" lon="-3.213556"><ele>783</ele><time>2024-05-31T12:00:26Z</time><name>PT2031</name></trkpt>
<trkpt lat="54.484673" lon="-3.213570"><ele>783</ele><time>2024-05-31T12:00:29Z</time><name>PT2032</name></trkpt>
<trkpt lat="54.484659" lon="-3.213578"><ele>782</ele><time>2024-05-31T12:00:33Z</time><name>PT2033</name></trkpt>
<trkpt lat="54.484647" lon="-3.213578"><ele>782</ele><time>2024-05-31T12:00:36Z</time><name>PT2034</name></trkpt>
<trkpt lat="54.484627" lon="-3.213569"><ele>781</ele><time>2024-05-31T12:00:39Z</time><name>PT2035</name></trkpt>
<trkpt lat="54.484605" lon="-3.213564"><ele>779</ele><time>2024-05-31T12:00:44Z</time><name>PT2036</name></trkpt>
<trkpt lat="54.484596" lon="-3.213574"><ele>779</ele><time>2024-05-31T12:00:47Z</time><name>PT2037</name></trkpt>
<trkpt lat="54.484586" lon="-3.213600"><ele>778</ele><time>2024-05-31T12:00:51Z</time><name>PT2038</name></trkpt>
<trkpt lat="54.484570" lon="-3.213621"><ele>776</ele><time>2024-05-31T12:00:55Z</time><name>PT2039</name></trkpt>
<trkpt lat="54.484576" lon="-3.213644"><ele>775</ele><time>2024-05-31T12:00:58Z</time><name>PT2040</name></trkpt>
<trkpt lat="54.484567" lon="-3.213672"><ele>774</ele><time>2024-05-31T12:01:02Z</time><name>PT2041</name></trkpt>
<trkpt lat="54.484549" lon="-3.213677"><ele>773</ele><time>2024-05-31T12:01:05Z</time><name>PT2042</name></trkpt>
<trkpt lat="54.484532" lon="-3.213692"><ele>772</ele><time>2024-05-31T12:01:08Z</time><name>PT2043</name></trkpt>
<trkpt lat="54.484526" lon="-3.213710"><ele>773</ele><time>2024-05-31T12:01:13Z</time><name>PT2044</name></trkpt>
<trkpt lat="54.484530" lon="-3.213728"><ele>772</ele><time>2024-05-31T12:01:16Z</time><name>PT2045</name></trkpt>
<trkpt lat="54.484525" lon="-3.213739"><ele>772</ele><time>2024-05-31T12:01:26Z</time><name>PT2046</name></trkpt>
<trkpt lat="54.484507" lon="-3.213759"><ele>773</ele><time>2024-05-31T12:01:33Z</time><name>PT2047</name></trkpt>
<trkpt lat="54.484503" lon="-3.213776"><ele>772</ele><time>2024-05-31T12:01:37Z</time><name>PT2048</name></trkpt>
<trkpt lat="54.484497" lon="-3.213798"><ele>771</ele><time>2024-05-31T12:01:40Z</time><name>PT2049</name></trkpt>
<trkpt lat="54.484492" lon="-3.213811"><ele>771</ele><time>2024-05-31T12:01:46Z</time><name>PT2050</name></trkpt>
<trkpt lat="54.484480" lon="-3.213843"><ele>770</ele><time>2024-05-31T12:01:49Z</time><name>PT2051</name></trkpt>
<trkpt lat="54.484483" lon="-3.213868"><ele>769</ele><time>2024-05-31T12:01:54Z</time><name>PT2052</name></trkpt>
<trkpt lat="54.484464" lon="-3.213889"><ele>769</ele><time>2024-05-31T12:01:57Z</time><name>PT2053</name></trkpt>
<trkpt lat="54.484451" lon="-3.213882"><ele>768</ele><time>2024-05-31T12:02:00Z</time><name>PT2054</name></trkpt>
<trkpt lat="54.484438" lon="-3.213896"><ele>768</ele><time>2024-05-31T12:02:03Z</time><name>PT2055</name></trkpt>
<trkpt lat="54.484434" lon="-3.213910"><ele>767</ele><time>2024-05-31T12:02:06Z</time><name>PT2056</name></trkpt>
<trkpt lat="54.484429" lon="-3.213931"><ele>766</ele><time>2024-05-31T12:02:09Z</time><name>PT2057</name></trkpt>
<trkpt lat="54.484422" lon="-3.213936"><ele>765</ele><time>2024-05-31T12:02:13Z</time><name>PT2058</name></trkpt>
<trkpt lat="54.484415" lon="-3.213939"><ele>766</ele><time>2024-05-31T12:02:16Z</time><name>PT2059</name></trkpt>
<trkpt lat="54.484409" lon="-3.213971"><ele>764</ele><time>2024-05-31T12:02:19Z</time><name>PT2060</name></trkpt>
<trkpt lat="54.484390" lon="-3.213980"><ele>764</ele><time>2024-05-31T12:02:22Z</time><name>PT2061</name></trkpt>
<trkpt lat="54.484370" lon="-3.213998"><ele>764</ele><time>2024-05-31T12:02:25Z</time><name>PT2062</name></trkpt>
<trkpt lat="54.484372" lon="-3.214023"><ele>763</ele><time>2024-05-31T12:02:28Z</time><name>PT2063</name></trkpt>
<trkpt lat="54.484353" lon="-3.214044"><ele>762</ele><time>2024-05-31T12:02:33Z</time><name>PT2064</name></trkpt>
<trkpt lat="54.484339" lon="-3.214073"><ele>761</ele><time>2024-05-31T12:02:37Z</time><name>PT2065</name></trkpt>
<trkpt lat="54.484328" lon="-3.214091"><ele>761</ele><time>2024-05-31T12:02:40Z</time><name>PT2066</name></trkpt>
<trkpt lat="54.484319" lon="-3.214108"><ele>760</ele><time>2024-05-31T12:02:43Z</time><name>PT2067</name></trkpt>
<trkpt lat="54.484306" lon="-3.214122"><ele>759</ele><time>2024-05-31T12:02:46Z</time><name>PT2068</name></trkpt>
<trkpt lat="54.484292" lon="-3.214140"><ele>758</ele><time>2024-05-31T12:02:49Z</time><name>PT2069</name></trkpt>
<trkpt lat="54.484276" lon="-3.214168"><ele>757</ele><time>2024-05-31T12:02:54Z</time><name>PT2070</name></trkpt>
<trkpt lat="54.484263" lon="-3.214180"><ele>757</ele><time>2024-05-31T12:02:57Z</time><name>PT2071</name></trkpt>
<trkpt lat="54.484252" lon="-3.214202"><ele>756</ele><time>2024-05-31T12:03:00Z</time><name>PT2072</name></trkpt>
<trkpt lat="54.484240" lon="-3.214233"><ele>755</ele><time>2024-05-31T12:03:04Z</time><name>PT2073</name></trkpt>
<trkpt lat="54.484237" lon="-3.214235"><ele>755</ele><time>2024-05-31T12:03:07Z</time><name>PT2074</name></trkpt>
<trkpt lat="54.484233" lon="-3.214220"><ele>756</ele><time>2024-05-31T12:03:10Z</time><name>PT2075</name></trkpt>
<trkpt lat="54.484202" lon="-3.214276"><ele>754</ele><time>2024-05-31T12:03:18Z</time><name>PT2076</name></trkpt>
<trkpt lat="54.484190" lon="-3.214316"><ele>754</ele><time>2024-05-31T12:03:21Z</time><name>PT2077</name></trkpt>
<trkpt lat="54.484192" lon="-3.214334"><ele>755</ele><time>2024-05-31T12:03:24Z</time><name>PT2078</name></trkpt>
<trkpt lat="54.484187" lon="-3.214345"><ele>756</ele><time>2024-05-31T12:03:27Z</time><name>PT2079</name></trkpt>
<trkpt lat="54.484178" lon="-3.214348"><ele>756</ele><time>2024-05-31T12:03:38Z</time><name>PT2080</name></trkpt>
<trkpt lat="54.484167" lon="-3.214363"><ele>756</ele><time>2024-05-31T12:03:42Z</time><name>PT2081</name></trkpt>
<trkpt lat="54.484157" lon="-3.214367"><ele>756</ele><time>2024-05-31T12:03:54Z</time><name>PT2082</name></trkpt>
<trkpt lat="54.484146" lon="-3.214403"><ele>757</ele><time>2024-05-31T12:03:57Z</time><name>PT2083</name></trkpt>
<trkpt lat="54.484118" lon="-3.214423"><ele>757</ele><time>2024-05-31T12:04:02Z</time><name>PT2084</name></trkpt>
<trkpt lat="54.484091" lon="-3.214424"><ele>758</ele><time>2024-05-31T12:04:06Z</time><name>PT2085</name></trkpt>
<trkpt lat="54.484072" lon="-3.214429"><ele>759</ele><time>2024-05-31T12:04:09Z</time><name>PT2086</name></trkpt>
<trkpt lat="54.484047" lon="-3.214437"><ele>760</ele><time>2024-05-31T12:04:12Z</time><name>PT2087</name></trkpt>
<trkpt lat="54.484027" lon="-3.214441"><ele>760</ele><time>2024-05-31T12:04:15Z</time><name>PT2088</name></trkpt>
<trkpt lat="54.483995" lon="-3.214425"><ele>761</ele><time>2024-05-31T12:04:18Z</time><name>PT2089</name></trkpt>
<trkpt lat="54.483968" lon="-3.214422"><ele>761</ele><time>2024-05-31T12:04:21Z</time><name>PT2090</name></trkpt>
<trkpt lat="54.483929" lon="-3.214420"><ele>762</ele><time>2024-05-31T12:04:26Z</time><name>PT2091</name></trkpt>
<trkpt lat="54.483905" lon="-3.214435"><ele>762</ele><time>2024-05-31T12:04:29Z</time><name>PT2092</name></trkpt>
<trkpt lat="54.483881" lon="-3.214442"><ele>762</ele><time>2024-05-31T12:04:32Z</time><name>PT2093</name></trkpt>
<trkpt lat="54.483858" lon="-3.214446"><ele>762</ele><time>2024-05-31T12:04:35Z</time><name>PT2094</name></trkpt>
<trkpt lat="54.483836" lon="-3.214463"><ele>763</ele><time>2024-05-31T12:04:39Z</time><name>PT2095</name></trkpt>
<trkpt lat="54.483813" lon="-3.214482"><ele>765</ele><time>2024-05-31T12:04:42Z</time><name>PT2096</name></trkpt>
<trkpt lat="54.483796" lon="-3.214492"><ele>765</ele><time>2024-05-31T12:04:45Z</time><name>PT2097</name></trkpt>
<trkpt lat="54.483779" lon="-3.214516"><ele>765</ele><time>2024-05-31T12:04:50Z</time><name>PT2098</name></trkpt>
<trkpt lat="54.483768" lon="-3.214533"><ele>765</ele><time>2024-05-31T12:04:53Z</time><name>PT2099</name></trkpt>
<trkpt lat="54.483752" lon="-3.214545"><ele>765</ele><time>2024-05-31T12:04:56Z</time><name>PT2100</name></trkpt>
<trkpt lat="54.483733" lon="-3.214549"><ele>765</ele><time>2024-05-31T12:04:59Z</time><name>PT2101</name></trkpt>
<trkpt lat="54.483720" lon="-3.214554"><ele>765</ele><time>2024-05-31T12:05:02Z</time><name>PT2102</name></trkpt>
<trkpt lat="54.483711" lon="-3.214558"><ele>765</ele><time>2024-05-31T12:05:07Z</time><name>PT2103</name></trkpt>
<trkpt lat="54.483698" lon="-3.214576"><ele>766</ele><time>2024-05-31T12:05:11Z</time><name>PT2104</name></trkpt>
<trkpt lat="54.483684" lon="-3.214590"><ele>767</ele><time>2024-05-31T12:05:14Z</time><name>PT2105</name></trkpt>
<trkpt lat="54.483669" lon="-3.214599"><ele>768</ele><time>2024-05-31T12:05:17Z</time><name>PT2106</name></trkpt>
<trkpt lat="54.483661" lon="-3.214619"><ele>769</ele><time>2024-05-31T12:05:20Z</time><name>PT2107</name></trkpt>
<trkpt lat="54.483647" lon="-3.214626"><ele>770</ele><time>2024-05-31T12:05:23Z</time><name>PT2108</name></trkpt>
<trkpt lat="54.483628" lon="-3.214644"><ele>770</ele><time>2024-05-31T12:05:28Z</time><name>PT2109</name></trkpt>
<trkpt lat="54.483619" lon="-3.214654"><ele>771</ele><time>2024-05-31T12:05:31Z</time><name>PT2110</name></trkpt>
<trkpt lat="54.483603" lon="-3.214657"><ele>772</ele><time>2024-05-31T12:05:35Z</time><name>PT2111</name></trkpt>
<trkpt lat="54.483587" lon="-3.214675"><ele>773</ele><time>2024-05-31T12:05:38Z</time><name>PT2112</name></trkpt>
<trkpt lat="54.483584" lon="-3.214674"><ele>773</ele><time>2024-05-31T12:05:41Z</time><name>PT2113</name></trkpt>
<trkpt lat="54.483534" lon="-3.214691"><ele>776</ele><time>2024-05-31T12:06:02Z</time><name>PT2114</name></trkpt>
<trkpt lat="54.483525" lon="-3.214713"><ele>775</ele><time>2024-05-31T12:06:10Z</time><name>PT2115</name></trkpt>
<trkpt lat="54.483524" lon="-3.214726"><ele>776</ele><time>2024-05-31T12:06:13Z</time><name>PT2116</name></trkpt>
<trkpt lat="54.483525" lon="-3.214788"><ele>776</ele><time>2024-05-31T12:06:17Z</time><name>PT2117</name></trkpt>
<trkpt lat="54.483518" lon="-3.214808"><ele>776</ele><time>2024-05-31T12:06:20Z</time><name>PT2118</name></trkpt>
<trkpt lat="54.483513" lon="-3.214827"><ele>776</ele><time>2024-05-31T12:06:23Z</time><name>PT2119</name></trkpt>
<trkpt lat="54.483511" lon="-3.214871"><ele>776</ele><time>2024-05-31T12:06:26Z</time><name>PT2120</name></trkpt>
<trkpt lat="54.483508" lon="-3.214863"><ele>778</ele><time>2024-05-31T12:06:29Z</time><name>PT2121</name></trkpt>
<trkpt lat="54.483506" lon="-3.214871"><ele>779</ele><time>2024-05-31T12:06:34Z</time><name>PT2122</name></trkpt>
<trkpt lat="54.483495" lon="-3.214887"><ele>779</ele><time>2024-05-31T12:06:37Z</time><name>PT2123</name></trkpt>
<trkpt lat="54.483497" lon="-3.214884"><ele>780</ele><time>2024-05-31T12:06:40Z</time><name>PT2124</name></trkpt>
<trkpt lat="54.483495" lon="-3.214899"><ele>780</ele><time>2024-05-31T12:06:43Z</time><name>PT2125</name></trkpt>
<trkpt lat="54.483492" lon="-3.214911"><ele>780</ele><time>2024-05-31T12:06:46Z</time><name>PT2126</name></trkpt>
<trkpt lat="54.483476" lon="-3.214931"><ele>781</ele><time>2024-05-31T12:06:51Z</time><name>PT2127</name></trkpt>
<trkpt lat="54.483464" lon="-3.214932"><ele>782</ele><time>2024-05-31T12:06:55Z</time><name>PT2128</name></trkpt>
<trkpt lat="54.483462" lon="-3.214946"><ele>782</ele><time>2024-05-31T12:06:58Z</time><name>PT2129</name></trkpt>
<trkpt lat="54.483456" lon="-3.214957"><ele>785</ele><time>2024-05-31T12:07:01Z</time><name>PT2130</name></trkpt>
<trkpt lat="54.483457" lon="-3.214977"><ele>786</ele><time>2024-05-31T12:07:04Z</time><name>PT2131</name></trkpt>
<trkpt lat="54.483459" lon="-3.214983"><ele>786</ele><time>2024-05-31T12:07:09Z</time><name>PT2132</name></trkpt>
<trkpt lat="54.483457" lon="-3.215008"><ele>787</ele><time>2024-05-31T12:07:12Z</time><name>PT2133</name></trkpt>
<trkpt lat="54.483461" lon="-3.215023"><ele>788</ele><time>2024-05-31T12:07:16Z</time><name>PT2134</name></trkpt>
<trkpt lat="54.483458" lon="-3.215035"><ele>789</ele><time>2024-05-31T12:07:19Z</time><name>PT2135</name></trkpt>
<trkpt lat="54.483458" lon="-3.215046"><ele>789</ele><time>2024-05-31T12:07:22Z</time><name>PT2136</name></trkpt>
<trkpt lat="54.483453" lon="-3.215060"><ele>790</ele><time>2024-05-31T12:07:25Z</time><name>PT2137</name></trkpt>
<trkpt lat="54.483457" lon="-3.215068"><ele>790</ele><time>2024-05-31T12:07:28Z</time><name>PT2138</name></trkpt>
<trkpt lat="54.483473" lon="-3.215076"><ele>789</ele><time>2024-05-31T12:07:31Z</time><name>PT2139</name></trkpt>
<trkpt lat="54.483473" lon="-3.215085"><ele>790</ele><time>2024-05-31T12:07:36Z</time><name>PT2140</name></trkpt>
<trkpt lat="54.483473" lon="-3.215088"><ele>790</ele><time>2024-05-31T12:07:39Z</time><name>PT2141</name></trkpt>
<trkpt lat="54.483474" lon="-3.215105"><ele>792</ele><time>2024-05-31T12:07:43Z</time><name>PT2142</name></trkpt>
<trkpt lat="54.483476" lon="-3.215105"><ele>791</ele><time>2024-05-31T12:07:46Z</time><name>PT2143</name></trkpt>
<trkpt lat="54.483475" lon="-3.215106"><ele>792</ele><time>2024-05-31T12:07:52Z</time><name>PT2144</name></trkpt>
<trkpt lat="54.483474" lon="-3.215125"><ele>792</ele><time>2024-05-31T12:07:55Z</time><name>PT2145</name></trkpt>
<trkpt lat="54.483472" lon="-3.215135"><ele>792</ele><time>2024-05-31T12:08:00Z</time><name>PT2146</name></trkpt>
<trkpt lat="54.483472" lon="-3.215143"><ele>792</ele><time>2024-05-31T12:08:13Z</time><name>PT2147</name></trkpt>
<trkpt lat="54.483470" lon="-3.215166"><ele>794</ele><time>2024-05-31T12:08:17Z</time><name>PT2148</name></trkpt>
<trkpt lat="54.483471" lon="-3.215189"><ele>794</ele><time>2024-05-31T12:08:20Z</time><name>PT2149</name></trkpt>
<trkpt lat="54.483477" lon="-3.215200"><ele>795</ele><time>2024-05-31T12:08:23Z</time><name>PT2150</name></trkpt>
<trkpt lat="54.483481" lon="-3.215213"><ele>796</ele><time>2024-05-31T12:08:27Z</time><name>PT2151</name></trkpt>
<trkpt lat="54.483479" lon="-3.215213"><ele>797</ele><time>2024-05-31T12:08:30Z</time><name>PT2152</name></trkpt>
<trkpt lat="54.483455" lon="-3.215258"><ele>798</ele><time>2024-05-31T12:08:55Z</time><name>PT2153</name></trkpt>
<trkpt lat="54.483444" lon="-3.215274"><ele>800</ele><time>2024-05-31T12:08:59Z</time><name>PT2154</name></trkpt>
<trkpt lat="54.483442" lon="-3.215281"><ele>800</ele><time>2024-05-31T12:09:02Z</time><name>PT2155</name></trkpt>
<trkpt lat="54.483442" lon="-3.215288"><ele>801</ele><time>2024-05-31T12:09:05Z</time><name>PT2156</name></trkpt>
<trkpt lat="54.483436" lon="-3.215295"><ele>801</ele><time>2024-05-31T12:09:13Z</time><name>PT2157</name></trkpt>
<trkpt lat="54.483432" lon="-3.215318"><ele>802</ele><time>2024-05-31T12:09:16Z</time><name>PT2158</name></trkpt>
<trkpt lat="54.483426" lon="-3.215342"><ele>802</ele><time>2024-05-31T12:09:19Z</time><name>PT2159</name></trkpt>
<trkpt lat="54.483407" lon="-3.215346"><ele>803</ele><time>2024-05-31T12:09:23Z</time><name>PT2160</name></trkpt>
<trkpt lat="54.483391" lon="-3.215350"><ele>803</ele><time>2024-05-31T12:09:26Z</time><name>PT2161</name></trkpt>
<trkpt lat="54.483378" lon="-3.215354"><ele>803</ele><time>2024-05-31T12:09:29Z</time><name>PT2162</name></trkpt>
<trkpt lat="54.483366" lon="-3.215374"><ele>803</ele><time>2024-05-31T12:09:33Z</time><name>PT2163</name></trkpt>
<trkpt lat="54.483354" lon="-3.215390"><ele>805</ele><time>2024-05-31T12:09:36Z</time><name>PT2164</name></trkpt>
<trkpt lat="54.483337" lon="-3.215403"><ele>805</ele><time>2024-05-31T12:09:40Z</time><name>PT2165</name></trkpt>
<trkpt lat="54.483323" lon="-3.215424"><ele>806</ele><time>2024-05-31T12:09:43Z</time><name>PT2166</name></trkpt>
<trkpt lat="54.483320" lon="-3.215431"><ele>807</ele><time>2024-05-31T12:09:51Z</time><name>PT2167</name></trkpt>
<trkpt lat="54.483305" lon="-3.215488"><ele>810</ele><time>2024-05-31T12:09:54Z</time><name>PT2168</name></trkpt>
<trkpt lat="54.483311" lon="-3.215541"><ele>811</ele><time>2024-05-31T12:09:58Z</time><name>PT2169</name></trkpt>
<trkpt lat="54.483313" lon="-3.215563"><ele>812</ele><time>2024-05-31T12:10:01Z</time><name>PT2170</name></trkpt>
<trkpt lat="54.483320" lon="-3.215597"><ele>813</ele><time>2024-05-31T12:10:04Z</time><name>PT2171</name></trkpt>
<trkpt lat="54.483311" lon="-3.215633"><ele>814</ele><time>2024-05-31T12:10:09Z</time><name>PT2172</name></trkpt>
<trkpt lat="54.483307" lon="-3.215638"><ele>814</ele><time>2024-05-31T12:10:13Z</time><name>PT2173</name></trkpt>
<trkpt lat="54.483301" lon="-3.215671"><ele>815</ele><time>2024-05-31T12:10:19Z</time><name>PT2174</name></trkpt>
<trkpt lat="54.483301" lon="-3.215703"><ele>817</ele><time>2024-05-31T12:10:22Z</time><name>PT2175</name></trkpt>
<trkpt lat="54.483300" lon="-3.215726"><ele>816</ele><time>2024-05-31T12:10:25Z</time><name>PT2176</name></trkpt>
<trkpt lat="54.483305" lon="-3.215779"><ele>818</ele><time>2024-05-31T12:10:34Z</time><name>PT2177</name></trkpt>
<trkpt lat="54.483316" lon="-3.215827"><ele>819</ele><time>2024-05-31T12:10:41Z</time><name>PT2178</name></trkpt>
<trkpt lat="54.483329" lon="-3.215875"><ele>820</ele><time>2024-05-31T12:10:45Z</time><name>PT2179</name></trkpt>
<trkpt lat="54.483325" lon="-3.215903"><ele>821</ele><time>2024-05-31T12:10:48Z</time><name>PT2180</name></trkpt>
<trkpt lat="54.483315" lon="-3.215929"><ele>822</ele><time>2024-05-31T12:10:51Z</time><name>PT2181</name></trkpt>
<trkpt lat="54.483302" lon="-3.215940"><ele>822</ele><time>2024-05-31T12:10:54Z</time><name>PT2182</name></trkpt>
<trkpt lat="54.483296" lon="-3.215966"><ele>824</ele><time>2024-05-31T12:10:59Z</time><name>PT2183</name></trkpt>
<trkpt lat="54.483287" lon="-3.215983"><ele>824</ele><time>2024-05-31T12:11:02Z</time><name>PT2184</name></trkpt>
<trkpt lat="54.483270" lon="-3.215997"><ele>824</ele><time>2024-05-31T12:11:06Z</time><name>PT2185</name></trkpt>
<trkpt lat="54.483263" lon="-3.216016"><ele>823</ele><time>2024-05-31T12:11:09Z</time><name>PT2186</name></trkpt>
<trkpt lat="54.483236" lon="-3.216050"><ele>825</ele><time>2024-05-31T12:11:22Z</time><name>PT2187</name></trkpt>
<trkpt lat="54.483225" lon="-3.216089"><ele>825</ele><time>2024-05-31T12:11:25Z</time><name>PT2188</name></trkpt>
<trkpt lat="54.483221" lon="-3.216098"><ele>825</ele><time>2024-05-31T12:11:29Z</time><name>PT2189</name></trkpt>
<trkpt lat="54.483196" lon="-3.216155"><ele>827</ele><time>2024-05-31T12:11:43Z</time><name>PT2190</name></trkpt>
<trkpt lat="54.483186" lon="-3.216196"><ele>826</ele><time>2024-05-31T12:11:46Z</time><name>PT2191</name></trkpt>
<trkpt lat="54.483156" lon="-3.216225"><ele>826</ele><time>2024-05-31T12:11:50Z</time><name>PT2192</name></trkpt>
<trkpt lat="54.483137" lon="-3.216241"><ele>827</ele><time>2024-05-31T12:11:53Z</time><name>PT2193</name></trkpt>
<trkpt lat="54.483130" lon="-3.216264"><ele>828</ele><time>2024-05-31T12:11:58Z</time><name>PT2194</name></trkpt>
<trkpt lat="54.483122" lon="-3.216297"><ele>829</ele><time>2024-05-31T12:12:01Z</time><name>PT2195</name></trkpt>
<trkpt lat="54.483116" lon="-3.216310"><ele>830</ele><time>2024-05-31T12:12:04Z</time><name>PT2196</name></trkpt>
<trkpt lat="54.483104" lon="-3.216333"><ele>830</ele><time>2024-05-31T12:12:07Z</time><name>PT2197</name></trkpt>
<trkpt lat="54.483097" lon="-3.216348"><ele>830</ele><time>2024-05-31T12:12:10Z</time><name>PT2198</name></trkpt>
<trkpt lat="54.483090" lon="-3.216361"><ele>831</ele><time>2024-05-31T12:12:13Z</time><name>PT2199</name></trkpt>
<trkpt lat="54.483086" lon="-3.216397"><ele>832</ele><time>2024-05-31T12:12:16Z</time><name>PT2200</name></trkpt>
<trkpt lat="54.483081" lon="-3.216426"><ele>832</ele><time>2024-05-31T12:12:21Z</time><name>PT2201</name></trkpt>
<trkpt lat="54.483068" lon="-3.216438"><ele>833</ele><time>2024-05-31T12:12:25Z</time><name>PT2202</name></trkpt>
<trkpt lat="54.483053" lon="-3.216477"><ele>835</ele><time>2024-05-31T12:12:39Z</time><name>PT2203</name></trkpt>
<trkpt lat="54.483047" lon="-3.216511"><ele>836</ele><time>2024-05-31T12:12:43Z</time><name>PT2204</name></trkpt>
<trkpt lat="54.483054" lon="-3.216536"><ele>837</ele><time>2024-05-31T12:12:46Z</time><name>PT2205</name></trkpt>
<trkpt lat="54.483043" lon="-3.216556"><ele>838</ele><time>2024-05-31T12:12:49Z</time><name>PT2206</name></trkpt>
<trkpt lat="54.483039" lon="-3.216593"><ele>840</ele><time>2024-05-31T12:12:54Z</time><name>PT2207</name></trkpt>
<trkpt lat="54.483041" lon="-3.216625"><ele>842</ele><time>2024-05-31T12:13:04Z</time><name>PT2208</name></trkpt>
<trkpt lat="54.483042" lon="-3.216639"><ele>843</ele><time>2024-05-31T12:13:19Z</time><name>PT2209</name></trkpt>
<trkpt lat="54.483045" lon="-3.216655"><ele>843</ele><time>2024-05-31T12:13:22Z</time><name>PT2210</name></trkpt>
<trkpt lat="54.483043" lon="-3.216660"><ele>844</ele><time>2024-05-31T12:13:25Z</time><name>PT2211</name></trkpt>
<trkpt lat="54.483037" lon="-3.216682"><ele>845</ele><time>2024-05-31T12:13:30Z</time><name>PT2212</name></trkpt>
<trkpt lat="54.483042" lon="-3.216706"><ele>846</ele><time>2024-05-31T12:13:33Z</time><name>PT2213</name></trkpt>
<trkpt lat="54.483037" lon="-3.216714"><ele>847</ele><time>2024-05-31T12:13:37Z</time><name>PT2214</name></trkpt>
<trkpt lat="54.483028" lon="-3.216728"><ele>846</ele><time>2024-05-31T12:13:40Z</time><name>PT2215</name></trkpt>
<trkpt lat="54.483024" lon="-3.216748"><ele>848</ele><time>2024-05-31T12:13:43Z</time><name>PT2216</name></trkpt>
<trkpt lat="54.483034" lon="-3.216786"><ele>849</ele><time>2024-05-31T12:13:46Z</time><name>PT2217</name></trkpt>
<trkpt lat="54.483036" lon="-3.216800"><ele>850</ele><time>2024-05-31T12:13:51Z</time><name>PT2218</name></trkpt>
<trkpt lat="54.483031" lon="-3.216813"><ele>851</ele><time>2024-05-31T12:13:57Z</time><name>PT2219</name></trkpt>
<trkpt lat="54.483036" lon="-3.216850"><ele>852</ele><time>2024-05-31T12:14:01Z</time><name>PT2220</name></trkpt>
<trkpt lat="54.483043" lon="-3.216886"><ele>852</ele><time>2024-05-31T12:14:04Z</time><name>PT2221</name></trkpt>
<trkpt lat="54.483044" lon="-3.216921"><ele>853</ele><time>2024-05-31T12:14:09Z</time><name>PT2222</name></trkpt>
<trkpt lat="54.483051" lon="-3.216945"><ele>855</ele><time>2024-05-31T12:14:13Z</time><name>PT2223</name></trkpt>
<trkpt lat="54.483061" lon="-3.216955"><ele>856</ele><time>2024-05-31T12:14:16Z</time><name>PT2224</name></trkpt>
<trkpt lat="54.483066" lon="-3.216971"><ele>856</ele><time>2024-05-31T12:14:19Z</time><name>PT2225</name></trkpt>
<trkpt lat="54.483066" lon="-3.216980"><ele>857</ele><time>2024-05-31T12:14:22Z</time><name>PT2226</name></trkpt>
<trkpt lat="54.483070" lon="-3.217008"><ele>858</ele><time>2024-05-31T12:14:26Z</time><name>PT2227</name></trkpt>
<trkpt lat="54.483073" lon="-3.217015"><ele>858</ele><time>2024-05-31T12:14:30Z</time><name>PT2228</name></trkpt>
<trkpt lat="54.483066" lon="-3.217029"><ele>859</ele><time>2024-05-31T12:14:37Z</time><name>PT2229</name></trkpt>
<trkpt lat="54.483065" lon="-3.217032"><ele>859</ele><time>2024-05-31T12:14:41Z</time><name>PT2230</name></trkpt>
<trkpt lat="54.483079" lon="-3.217046"><ele>862</ele><time>2024-05-31T12:14:44Z</time><name>PT2231</name></trkpt>
<trkpt lat="54.483083" lon="-3.217068"><ele>863</ele><time>2024-05-31T12:14:47Z</time><name>PT2232</name></trkpt>
<trkpt lat="54.483101" lon="-3.217089"><ele>863</ele><time>2024-05-31T12:14:52Z</time><name>PT2233</name></trkpt>
<trkpt lat="54.483106" lon="-3.217115"><ele>865</ele><time>2024-05-31T12:14:55Z</time><name>PT2234</name></trkpt>
<trkpt lat="54.483106" lon="-3.217126"><ele>865</ele><time>2024-05-31T12:14:58Z</time><name>PT2235</name></trkpt>
<trkpt lat="54.483123" lon="-3.217177"><ele>865</ele><time>2024-05-31T12:15:05Z</time><name>PT2236</name></trkpt>
<trkpt lat="54.483125" lon="-3.217193"><ele>866</ele><time>2024-05-31T12:15:09Z</time><name>PT2237</name></trkpt>
<trkpt lat="54.483145" lon="-3.217248"><ele>868</ele><time>2024-05-31T12:15:24Z</time><name>PT2238</name></trkpt>
<trkpt lat="54.483149" lon="-3.217253"><ele>868</ele><time>2024-05-31T12:15:28Z</time><name>PT2239</name></trkpt>
<trkpt lat="54.483156" lon="-3.217307"><ele>870</ele><time>2024-05-31T12:15:35Z</time><name>PT2240</name></trkpt>
<trkpt lat="54.483160" lon="-3.217347"><ele>871</ele><time>2024-05-31T12:15:38Z</time><name>PT2241</name></trkpt>
<trkpt lat="54.483169" lon="-3.217400"><ele>872</ele><time>2024-05-31T12:15:41Z</time><name>PT2242</name></trkpt>
<trkpt lat="54.483164" lon="-3.217441"><ele>873</ele><time>2024-05-31T12:15:46Z</time><name>PT2243</name></trkpt>
<trkpt lat="54.483159" lon="-3.217468"><ele>873</ele><time>2024-05-31T12:15:49Z</time><name>PT2244</name></trkpt>
<trkpt lat="54.483153" lon="-3.217497"><ele>873</ele><time>2024-05-31T12:15:52Z</time><name>PT2245</name></trkpt>
<trkpt lat="54.483146" lon="-3.217528"><ele>874</ele><time>2024-05-31T12:15:55Z</time><name>PT2246</name></trkpt>
<trkpt lat="54.483147" lon="-3.217556"><ele>875</ele><time>2024-05-31T12:15:58Z</time><name>PT2247</name></trkpt>
<trkpt lat="54.483146" lon="-3.217599"><ele>875</ele><time>2024-05-31T12:16:03Z</time><name>PT2248</name></trkpt>
<trkpt lat="54.483150" lon="-3.217648"><ele>877</ele><time>2024-05-31T12:16:07Z</time><name>PT2249</name></trkpt>
<trkpt lat="54.483163" lon="-3.217687"><ele>879</ele><time>2024-05-31T12:16:10Z</time><name>PT2250</name></trkpt>
<trkpt lat="54.483161" lon="-3.217715"><ele>879</ele><time>2024-05-31T12:16:14Z</time><name>PT2251</name></trkpt>
<trkpt lat="54.483170" lon="-3.217755"><ele>880</ele><time>2024-05-31T12:16:18Z</time><name>PT2252</name></trkpt>
<trkpt lat="54.483163" lon="-3.217798"><ele>880</ele><time>2024-05-31T12:16:22Z</time><name>PT2253</name></trkpt>
<trkpt lat="54.483159" lon="-3.217827"><ele>881</ele><time>2024-05-31T12:16:25Z</time><name>PT2254</name></trkpt>
<trkpt lat="54.483152" lon="-3.217847"><ele>881</ele><time>2024-05-31T12:16:28Z</time><name>PT2255</name></trkpt>
<trkpt lat="54.483144" lon="-3.217878"><ele>882</ele><time>2024-05-31T12:16:31Z</time><name>PT2256</name></trkpt>
<trkpt lat="54.483131" lon="-3.217930"><ele>883</ele><time>2024-05-31T12:16:41Z</time><name>PT2257</name></trkpt>
<trkpt lat="54.483123" lon="-3.217972"><ele>882</ele><time>2024-05-31T12:16:44Z</time><name>PT2258</name></trkpt>
<trkpt lat="54.483117" lon="-3.218018"><ele>883</ele><time>2024-05-31T12:16:47Z</time><name>PT2259</name></trkpt>
<trkpt lat="54.483104" lon="-3.218060"><ele>884</ele><time>2024-05-31T12:16:50Z</time><name>PT2260</name></trkpt>
<trkpt lat="54.483092" lon="-3.218093"><ele>884</ele><time>2024-05-31T12:16:54Z</time><name>PT2261</name></trkpt>
<trkpt lat="54.483079" lon="-3.218146"><ele>883</ele><time>2024-05-31T12:16:58Z</time><name>PT2262</name></trkpt>
<trkpt lat="54.483071" lon="-3.218195"><ele>884</ele><time>2024-05-31T12:17:02Z</time><name>PT2263</name></trkpt>
<trkpt lat="54.483065" lon="-3.218233"><ele>884</ele><time>2024-05-31T12:17:05Z</time><name>PT2264</name></trkpt>
<trkpt lat="54.483057" lon="-3.218278"><ele>885</ele><time>2024-05-31T12:17:08Z</time><name>PT2265</name></trkpt>
<trkpt lat="54.483030" lon="-3.218318"><ele>886</ele><time>2024-05-31T12:17:12Z</time><name>PT2266</name></trkpt>
<trkpt lat="54.483013" lon="-3.218350"><ele>886</ele><time>2024-05-31T12:17:15Z</time><name>PT2267</name></trkpt>
<trkpt lat="54.483005" lon="-3.218389"><ele>886</ele><time>2024-05-31T12:17:18Z</time><name>PT2268</name></trkpt>
<trkpt lat="54.482990" lon="-3.218448"><ele>886</ele><time>2024-05-31T12:17:22Z</time><name>PT2269</name></trkpt>
<trkpt lat="54.482978" lon="-3.218488"><ele>887</ele><time>2024-05-31T12:17:25Z</time><name>PT2270</name></trkpt>
<trkpt lat="54.482972" lon="-3.218536"><ele>887</ele><time>2024-05-31T12:17:28Z</time><name>PT2271</name></trkpt>
<trkpt lat="54.482961" lon="-3.218577"><ele>887</ele><time>2024-05-31T12:17:31Z</time><name>PT2272</name></trkpt>
<trkpt lat="54.482928" lon="-3.218611"><ele>887</ele><time>2024-05-31T12:17:35Z</time><name>PT2273</name></trkpt>
<trkpt lat="54.482905" lon="-3.218638"><ele>888</ele><time>2024-05-31T12:17:38Z</time><name>PT2274</name></trkpt>
<trkpt lat="54.482885" lon="-3.218657"><ele>888</ele><time>2024-05-31T12:17:41Z</time><name>PT2275</name></trkpt>
<trkpt lat="54.482871" lon="-3.218690"><ele>889</ele><time>2024-05-31T12:17:44Z</time><name>PT2276</name></trkpt>
<trkpt lat="54.482856" lon="-3.218722"><ele>889</ele><time>2024-05-31T12:17:47Z</time><name>PT2277</name></trkpt>
<trkpt lat="54.482829" lon="-3.218763"><ele>889</ele><time>2024-05-31T12:17:51Z</time><name>PT2278</name></trkpt>
<trkpt lat="54.482809" lon="-3.218797"><ele>889</ele><time>2024-05-31T12:17:54Z</time><name>PT2279</name></trkpt>
<trkpt lat="54.482789" lon="-3.218820"><ele>889</ele><time>2024-05-31T12:17:58Z</time><name>PT2280</name></trkpt>
<trkpt lat="54.482768" lon="-3.218846"><ele>890</ele><time>2024-05-31T12:18:01Z</time><name>PT2281</name></trkpt>
<trkpt lat="54.482733" lon="-3.218877"><ele>891</ele><time>2024-05-31T12:18:05Z</time><name>PT2282</name></trkpt>
<trkpt lat="54.482703" lon="-3.218887"><ele>891</ele><time>2024-05-31T12:18:08Z</time><name>PT2283</name></trkpt>
<trkpt lat="54.482663" lon="-3.218902"><ele>891</ele><time>2024-05-31T12:18:12Z</time><name>PT2284</name></trkpt>
<trkpt lat="54.482629" lon="-3.218927"><ele>891</ele><time>2024-05-31T12:18:16Z</time><name>PT2285</name></trkpt>
<trkpt lat="54.482589" lon="-3.218955"><ele>892</ele><time>2024-05-31T12:18:20Z</time><name>PT2286</name></trkpt>
<trkpt lat="54.482567" lon="-3.218981"><ele>893</ele><time>2024-05-31T12:18:23Z</time><name>PT2287</name></trkpt>
<trkpt lat="54.482543" lon="-3.219010"><ele>893</ele><time>2024-05-31T12:18:26Z</time><name>PT2288</name></trkpt>
<trkpt lat="54.482508" lon="-3.219036"><ele>893</ele><time>2024-05-31T12:18:29Z</time><name>PT2289</name></trkpt>
<trkpt lat="54.482482" lon="-3.219062"><ele>894</ele><time>2024-05-31T12:18:33Z</time><name>PT2290</name></trkpt>
<trkpt lat="54.482456" lon="-3.219085"><ele>894</ele><time>2024-05-31T12:18:36Z</time><name>PT2291</name></trkpt>
<trkpt lat="54.482428" lon="-3.219097"><ele>894</ele><time>2024-05-31T12:18:39Z</time><name>PT2292</name></trkpt>
<trkpt lat="54.482390" lon="-3.219106"><ele>894</ele><time>2024-05-31T12:18:43Z</time><name>PT2293</name></trkpt>
<trkpt lat="54.482358" lon="-3.219119"><ele>894</ele><time>2024-05-31T12:18:47Z</time><name>PT2294</name></trkpt>
<trkpt lat="54.482338" lon="-3.219133"><ele>894</ele><time>2024-05-31T12:18:50Z</time><name>PT2295</name></trkpt>
<trkpt lat="54.482308" lon="-3.219146"><ele>895</ele><time>2024-05-31T12:18:53Z</time><name>PT2296</name></trkpt>
<trkpt lat="54.482282" lon="-3.219168"><ele>894</ele><time>2024-05-31T12:18:56Z</time><name>PT2297</name></trkpt>
<trkpt lat="54.482251" lon="-3.219180"><ele>895</ele><time>2024-05-31T12:18:59Z</time><name>PT2298</name></trkpt>
<trkpt lat="54.482225" lon="-3.219179"><ele>897</ele><time>2024-05-31T12:19:02Z</time><name>PT2299</name></trkpt>
<trkpt lat="54.482205" lon="-3.219173"><ele>898</ele><time>2024-05-31T12:19:06Z</time><name>PT2300</name></trkpt>
<trkpt lat="54.482185" lon="-3.219179"><ele>898</ele><time>2024-05-31T12:19:09Z</time><name>PT2301</name></trkpt>
<trkpt lat="54.482170" lon="-3.219177"><ele>899</ele><time>2024-05-31T12:19:13Z</time><name>PT2302</name></trkpt>
<trkpt lat="54.482155" lon="-3.219192"><ele>900</ele><time>2024-05-31T12:19:21Z</time><name>PT2303</name></trkpt>
<trkpt lat="54.482122" lon="-3.219231"><ele>901</ele><time>2024-05-31T12:19:25Z</time><name>PT2304</name></trkpt>
<trkpt lat="54.482104" lon="-3.219244"><ele>902</ele><time>2024-05-31T12:19:29Z</time><name>PT2305</name></trkpt>
<trkpt lat="54.482102" lon="-3.219246"><ele>902</ele><time>2024-05-31T12:19:32Z</time><name>PT2306</name></trkpt>
<trkpt lat="54.482102" lon="-3.219245"><ele>902</ele><time>2024-05-31T12:19:35Z</time><name>PT2307</name></trkpt>
<trkpt lat="54.482102" lon="-3.219244"><ele>902</ele><time>2024-05-31T12:19:39Z</time><name>PT2308</name></trkpt>
<trkpt lat="54.482100" lon="-3.219248"><ele>902</ele><time>2024-05-31T12:20:18Z</time><name>PT2309</name></trkpt>
<trkpt lat="54.482098" lon="-3.219252"><ele>902</ele><time>2024-05-31T12:20:21Z</time><name>PT2310</name></trkpt>
<trkpt lat="54.482093" lon="-3.219254"><ele>902</ele><time>2024-05-31T12:20:47Z</time><name>PT2311</name></trkpt>
<trkpt lat="54.482093" lon="-3.219253"><ele>902</ele><time>2024-05-31T12:20:50Z</time><name>PT2312</name></trkpt>
<trkpt lat="54.482089" lon="-3.219257"><ele>902</ele><time>2024-05-31T12:21:04Z</time><name>PT2313</name></trkpt>
<trkpt lat="54.482090" lon="-3.219255"><ele>902</ele><time>2024-05-31T12:21:08Z</time><name>PT2314</name></trkpt>
<trkpt lat="54.482092" lon="-3.219252"><ele>902</ele><time>2024-05-31T12:21:38Z</time><name>PT2315</name></trkpt>
<trkpt lat="54.482088" lon="-3.219250"><ele>903</ele><time>2024-05-31T12:21:41Z</time><name>PT2316</name></trkpt>
<trkpt lat="54.482080" lon="-3.219261"><ele>903</ele><time>2024-05-31T12:21:47Z</time><name>PT2317</name></trkpt>
<trkpt lat="54.482077" lon="-3.219267"><ele>903</ele><time>2024-05-31T12:21:51Z</time><name>PT2318</name></trkpt>
<trkpt lat="54.482064" lon="-3.219276"><ele>901</ele><time>2024-05-31T12:21:55Z</time><name>PT2319</name></trkpt>
<trkpt lat="54.482064" lon="-3.219295"><ele>900</ele><time>2024-05-31T12:21:59Z</time><name>PT2320</name></trkpt>
<trkpt lat="54.482065" lon="-3.219295"><ele>901</ele><time>2024-05-31T12:22:02Z</time><name>PT2321</name></trkpt>
<trkpt lat="54.482065" lon="-3.219298"><ele>901</ele><time>2024-05-31T12:22:05Z</time><name>PT2322</name></trkpt>
<trkpt lat="54.482060" lon="-3.219292"><ele>901</ele><time>2024-05-31T12:22:09Z</time><name>PT2323</name></trkpt>
<trkpt lat="54.482061" lon="-3.219295"><ele>901</ele><time>2024-05-31T12:22:12Z</time><name>PT2324</name></trkpt>
<trkpt lat="54.482064" lon="-3.219301"><ele>901</ele><time>2024-05-31T12:22:28Z</time><name>PT2325</name></trkpt>
<trkpt lat="54.482064" lon="-3.219289"><ele>902</ele><time>2024-05-31T12:22:32Z</time><name>PT2326</name></trkpt>
<trkpt lat="54.482065" lon="-3.219281"><ele>901</ele><time>2024-05-31T12:22:35Z</time><name>PT2327</name></trkpt>
<trkpt lat="54.482069" lon="-3.219280"><ele>901</ele><time>2024-05-31T12:22:38Z</time><name>PT2328</name></trkpt>
<trkpt lat="54.482075" lon="-3.219274"><ele>902</ele><time>2024-05-31T12:23:57Z</time><name>PT2329</name></trkpt>
<trkpt lat="54.482074" lon="-3.219267"><ele>902</ele><time>2024-05-31T12:24:00Z</time><name>PT2330</name></trkpt>
<trkpt lat="54.482073" lon="-3.219266"><ele>902</ele><time>2024-05-31T12:24:42Z</time><name>PT2331</name></trkpt>
<trkpt lat="54.482074" lon="-3.219253"><ele>901</ele><time>2024-05-31T12:24:47Z</time><name>PT2332</name></trkpt>
<trkpt lat="54.482074" lon="-3.219262"><ele>901</ele><time>2024-05-31T12:24:58Z</time><name>PT2333</name></trkpt>
<trkpt lat="54.482081" lon="-3.219286"><ele>901</ele><time>2024-05-31T12:25:01Z</time><name>PT2334</name></trkpt>
<trkpt lat="54.482080" lon="-3.219303"><ele>901</ele><time>2024-05-31T12:25:05Z</time><name>PT2335</name></trkpt>
<trkpt lat="54.482082" lon="-3.219317"><ele>900</ele><time>2024-05-31T12:25:08Z</time><name>PT2336</name></trkpt>
<trkpt lat="54.482082" lon="-3.219324"><ele>900</ele><time>2024-05-31T12:25:12Z</time><name>PT2337</name></trkpt>
<trkpt lat="54.482082" lon="-3.219323"><ele>900</ele><time>2024-05-31T12:25:16Z</time><name>PT2338</name></trkpt>
<trkpt lat="54.482081" lon="-3.219352"><ele>901</ele><time>2024-05-31T12:25:46Z</time><name>PT2339</name></trkpt>
<trkpt lat="54.482079" lon="-3.219355"><ele>901</ele><time>2024-05-31T12:25:49Z</time><name>PT2340</name></trkpt>
<trkpt lat="54.482087" lon="-3.219371"><ele>901</ele><time>2024-05-31T12:26:18Z</time><name>PT2341</name></trkpt>
<trkpt lat="54.482092" lon="-3.219383"><ele>901</ele><time>2024-05-31T12:26:21Z</time><name>PT2342</name></trkpt>
<trkpt lat="54.482095" lon="-3.219390"><ele>901</ele><time>2024-05-31T12:26:25Z</time><name>PT2343</name></trkpt>
<trkpt lat="54.482096" lon="-3.219393"><ele>900</ele><time>2024-05-31T12:26:28Z</time><name>PT2344</name></trkpt>
<trkpt lat="54.482096" lon="-3.219395"><ele>900</ele><time>2024-05-31T12:26:31Z</time><name>PT2345</name></trkpt>
<trkpt lat="54.482102" lon="-3.219384"><ele>900</ele><time>2024-05-31T12:26:35Z</time><name>PT2346</name></trkpt>
<trkpt lat="54.482112" lon="-3.219372"><ele>899</ele><time>2024-05-31T12:26:38Z</time><name>PT2347</name></trkpt>
<trkpt lat="54.482117" lon="-3.219373"><ele>900</ele><time>2024-05-31T12:26:42Z</time><name>PT2348</name></trkpt>
<trkpt lat="54.482130" lon="-3.219366"><ele>899</ele><time>2024-05-31T12:26:49Z</time><name>PT2349</name></trkpt>
<trkpt lat="54.482149" lon="-3.219346"><ele>899</ele><time>2024-05-31T12:26:53Z</time><name>PT2350</name></trkpt>
<trkpt lat="54.482158" lon="-3.219321"><ele>898</ele><time>2024-05-31T12:26:57Z</time><name>PT2351</name></trkpt>
<trkpt lat="54.482163" lon="-3.219310"><ele>899</ele><time>2024-05-31T12:27:00Z</time><name>PT2352</name></trkpt>
<trkpt lat="54.482176" lon="-3.219316"><ele>899</ele><time>2024-05-31T12:27:14Z</time><name>PT2353</name></trkpt>
<trkpt lat="54.482183" lon="-3.219296"><ele>900</ele><time>2024-05-31T12:30:08Z</time><name>PT2354</name></trkpt>
<trkpt lat="54.482184" lon="-3.219284"><ele>900</ele><time>2024-05-31T12:30:12Z</time><name>PT2355</name></trkpt>
<trkpt lat="54.482200" lon="-3.219270"><ele>901</ele><time>2024-05-31T12:30:15Z</time><name>PT2356</name></trkpt>
<trkpt lat="54.482211" lon="-3.219274"><ele>901</ele><time>2024-05-31T12:30:19Z</time><name>PT2357</name></trkpt>
<trkpt lat="54.482216" lon="-3.219271"><ele>901</ele><time>2024-05-31T12:30:27Z</time><name>PT2358</name></trkpt>
<trkpt lat="54.482226" lon="-3.219257"><ele>901</ele><time>2024-05-31T12:30:30Z</time><name>PT2359</name></trkpt>
<trkpt lat="54.482235" lon="-3.219245"><ele>900</ele><time>2024-05-31T12:30:33Z</time><name>PT2360</name></trkpt>
<trkpt lat="54.482270" lon="-3.219215"><ele>900</ele><time>2024-05-31T12:30:47Z</time><name>PT2361</name></trkpt>
<trkpt lat="54.482297" lon="-3.219194"><ele>899</ele><time>2024-05-31T12:30:50Z</time><name>PT2362</name></trkpt>
<trkpt lat="54.482329" lon="-3.219168"><ele>899</ele><time>2024-05-31T12:30:54Z</time><name>PT2363</name></trkpt>
<trkpt lat="54.482360" lon="-3.219140"><ele>899</ele><time>2024-05-31T12:30:58Z</time><name>PT2364</name></trkpt>
<trkpt lat="54.482377" lon="-3.219114"><ele>899</ele><time>2024-05-31T12:31:01Z</time><name>PT2365</name></trkpt>
<trkpt lat="54.482396" lon="-3.219100"><ele>899</ele><time>2024-05-31T12:31:04Z</time><name>PT2366</name></trkpt>
<trkpt lat="54.482416" lon="-3.219104"><ele>899</ele><time>2024-05-31T12:31:07Z</time><name>PT2367</name></trkpt>
<trkpt lat="54.482442" lon="-3.219110"><ele>899</ele><time>2024-05-31T12:31:10Z</time><name>PT2368</name></trkpt>
<trkpt lat="54.482474" lon="-3.219110"><ele>899</ele><time>2024-05-31T12:31:15Z</time><name>PT2369</name></trkpt>
<trkpt lat="54.482488" lon="-3.219092"><ele>898</ele><time>2024-05-31T12:31:18Z</time><name>PT2370</name></trkpt>
<trkpt lat="54.482513" lon="-3.219059"><ele>898</ele><time>2024-05-31T12:31:22Z</time><name>PT2371</name></trkpt>
<trkpt lat="54.482533" lon="-3.219028"><ele>897</ele><time>2024-05-31T12:31:26Z</time><name>PT2372</name></trkpt>
<trkpt lat="54.482551" lon="-3.219006"><ele>897</ele><time>2024-05-31T12:31:29Z</time><name>PT2373</name></trkpt>
<trkpt lat="54.482569" lon="-3.218985"><ele>896</ele><time>2024-05-31T12:31:32Z</time><name>PT2374</name></trkpt>
<trkpt lat="54.482604" lon="-3.218966"><ele>896</ele><time>2024-05-31T12:31:36Z</time><name>PT2375</name></trkpt>
<trkpt lat="54.482628" lon="-3.218962"><ele>896</ele><time>2024-05-31T12:31:39Z</time><name>PT2376</name></trkpt>
<trkpt lat="54.482666" lon="-3.218953"><ele>895</ele><time>2024-05-31T12:31:43Z</time><name>PT2377</name></trkpt>
<trkpt lat="54.482700" lon="-3.218932"><ele>894</ele><time>2024-05-31T12:31:47Z</time><name>PT2378</name></trkpt>
<trkpt lat="54.482733" lon="-3.218919"><ele>894</ele><time>2024-05-31T12:31:51Z</time><name>PT2379</name></trkpt>
<trkpt lat="54.482763" lon="-3.218893"><ele>894</ele><time>2024-05-31T12:31:55Z</time><name>PT2380</name></trkpt>
<trkpt lat="54.482784" lon="-3.218868"><ele>893</ele><time>2024-05-31T12:31:58Z</time><name>PT2381</name></trkpt>
<trkpt lat="54.482806" lon="-3.218839"><ele>893</ele><time>2024-05-31T12:32:01Z</time><name>PT2382</name></trkpt>
<trkpt lat="54.482825" lon="-3.218806"><ele>893</ele><time>2024-05-31T12:32:04Z</time><name>PT2383</name></trkpt>
<trkpt lat="54.482847" lon="-3.218771"><ele>893</ele><time>2024-05-31T12:32:08Z</time><name>PT2384</name></trkpt>
<trkpt lat="54.482870" lon="-3.218740"><ele>892</ele><time>2024-05-31T12:32:12Z</time><name>PT2385</name></trkpt>
<trkpt lat="54.482895" lon="-3.218713"><ele>892</ele><time>2024-05-31T12:32:16Z</time><name>PT2386</name></trkpt>
<trkpt lat="54.482928" lon="-3.218690"><ele>892</ele><time>2024-05-31T12:32:20Z</time><name>PT2387</name></trkpt>
<trkpt lat="54.482943" lon="-3.218659"><ele>891</ele><time>2024-05-31T12:32:23Z</time><name>PT2388</name></trkpt>
<trkpt lat="54.482959" lon="-3.218612"><ele>891</ele><time>2024-05-31T12:32:27Z</time><name>PT2389</name></trkpt>
<trkpt lat="54.482972" lon="-3.218567"><ele>891</ele><time>2024-05-31T12:32:31Z</time><name>PT2390</name></trkpt>
<trkpt lat="54.482976" lon="-3.218523"><ele>891</ele><time>2024-05-31T12:32:35Z</time><name>PT2391</name></trkpt>
<trkpt lat="54.482985" lon="-3.218486"><ele>891</ele><time>2024-05-31T12:32:38Z</time><name>PT2392</name></trkpt>
<trkpt lat="54.482993" lon="-3.218446"><ele>891</ele><time>2024-05-31T12:32:42Z</time><name>PT2393</name></trkpt>
<trkpt lat="54.483015" lon="-3.218417"><ele>890</ele><time>2024-05-31T12:32:46Z</time><name>PT2394</name></trkpt>
<trkpt lat="54.483034" lon="-3.218393"><ele>890</ele><time>2024-05-31T12:32:49Z</time><name>PT2395</name></trkpt>
<trkpt lat="54.483047" lon="-3.218357"><ele>889</ele><time>2024-05-31T12:32:53Z</time><name>PT2396</name></trkpt>
<trkpt lat="54.483042" lon="-3.218314"><ele>888</ele><time>2024-05-31T12:32:57Z</time><name>PT2397</name></trkpt>
<trkpt lat="54.483047" lon="-3.218289"><ele>887</ele><time>2024-05-31T12:33:00Z</time><name>PT2398</name></trkpt>
<trkpt lat="54.483051" lon="-3.218263"><ele>887</ele><time>2024-05-31T12:33:03Z</time><name>PT2399</name></trkpt>
<trkpt lat="54.483068" lon="-3.218230"><ele>887</ele><time>2024-05-31T12:33:07Z</time><name>PT2400</name></trkpt>
<trkpt lat="54.483079" lon="-3.218197"><ele>887</ele><time>2024-05-31T12:33:11Z</time><name>PT2401</name></trkpt>
<trkpt lat="54.483098" lon="-3.218161"><ele>886</ele><time>2024-05-31T12:33:14Z</time><name>PT2402</name></trkpt>
<trkpt lat="54.483105" lon="-3.218121"><ele>886</ele><time>2024-05-31T12:33:17Z</time><name>PT2403</name></trkpt>
<trkpt lat="54.483118" lon="-3.218088"><ele>886</ele><time>2024-05-31T12:33:20Z</time><name>PT2404</name></trkpt>
<trkpt lat="54.483132" lon="-3.218054"><ele>885</ele><time>2024-05-31T12:33:23Z</time><name>PT2405</name></trkpt>
<trkpt lat="54.483137" lon="-3.218031"><ele>885</ele><time>2024-05-31T12:33:27Z</time><name>PT2406</name></trkpt>
<trkpt lat="54.483133" lon="-3.218000"><ele>885</ele><time>2024-05-31T12:33:30Z</time><name>PT2407</name></trkpt>
<trkpt lat="54.483136" lon="-3.217962"><ele>884</ele><time>2024-05-31T12:33:33Z</time><name>PT2408</name></trkpt>
<trkpt lat="54.483148" lon="-3.217929"><ele>884</ele><time>2024-05-31T12:33:36Z</time><name>PT2409</name></trkpt>
<trkpt lat="54.483155" lon="-3.217900"><ele>884</ele><time>2024-05-31T12:33:39Z</time><name>PT2410</name></trkpt>
<trkpt lat="54.483155" lon="-3.217876"><ele>883</ele><time>2024-05-31T12:33:43Z</time><name>PT2411</name></trkpt>
<trkpt lat="54.483162" lon="-3.217842"><ele>882</ele><time>2024-05-31T12:33:47Z</time><name>PT2412</name></trkpt>
<trkpt lat="54.483168" lon="-3.217810"><ele>881</ele><time>2024-05-31T12:33:51Z</time><name>PT2413</name></trkpt>
<trkpt lat="54.483173" lon="-3.217781"><ele>881</ele><time>2024-05-31T12:33:54Z</time><name>PT2414</name></trkpt>
<trkpt lat="54.483168" lon="-3.217755"><ele>880</ele><time>2024-05-31T12:33:57Z</time><name>PT2415</name></trkpt>
<trkpt lat="54.483167" lon="-3.217737"><ele>879</ele><time>2024-05-31T12:34:01Z</time><name>PT2416</name></trkpt>
<trkpt lat="54.483163" lon="-3.217700"><ele>878</ele><time>2024-05-31T12:34:04Z</time><name>PT2417</name></trkpt>
<trkpt lat="54.483165" lon="-3.217670"><ele>878</ele><time>2024-05-31T12:34:07Z</time><name>PT2418</name></trkpt>
<trkpt lat="54.483169" lon="-3.217645"><ele>878</ele><time>2024-05-31T12:34:10Z</time><name>PT2419</name></trkpt>
<trkpt lat="54.483174" lon="-3.217610"><ele>877</ele><time>2024-05-31T12:34:13Z</time><name>PT2420</name></trkpt>
<trkpt lat="54.483182" lon="-3.217568"><ele>877</ele><time>2024-05-31T12:34:17Z</time><name>PT2421</name></trkpt>
<trkpt lat="54.483182" lon="-3.217524"><ele>876</ele><time>2024-05-31T12:34:21Z</time><name>PT2422</name></trkpt>
<trkpt lat="54.483183" lon="-3.217481"><ele>875</ele><time>2024-05-31T12:34:25Z</time><name>PT2423</name></trkpt>
<trkpt lat="54.483183" lon="-3.217452"><ele>875</ele><time>2024-05-31T12:34:28Z</time><name>PT2424</name></trkpt>
<trkpt lat="54.483188" lon="-3.217436"><ele>876</ele><time>2024-05-31T12:34:32Z</time><name>PT2425</name></trkpt>
<trkpt lat="54.483191" lon="-3.217430"><ele>876</ele><time>2024-05-31T12:34:36Z</time><name>PT2426</name></trkpt>
<trkpt lat="54.483189" lon="-3.217403"><ele>875</ele><time>2024-05-31T12:34:40Z</time><name>PT2427</name></trkpt>
<trkpt lat="54.483192" lon="-3.217410"><ele>874</ele><time>2024-05-31T12:34:43Z</time><name>PT2428</name></trkpt>
<trkpt lat="54.483187" lon="-3.217386"><ele>873</ele><time>2024-05-31T12:34:46Z</time><name>PT2429</name></trkpt>
<trkpt lat="54.483172" lon="-3.217364"><ele>872</ele><time>2024-05-31T12:34:50Z</time><name>PT2430</name></trkpt>
<trkpt lat="54.483161" lon="-3.217346"><ele>871</ele><time>2024-05-31T12:34:53Z</time><name>PT2431</name></trkpt>
<trkpt lat="54.483162" lon="-3.217332"><ele>870</ele><time>2024-05-31T12:34:56Z</time><name>PT2432</name></trkpt>
<trkpt lat="54.483159" lon="-3.217314"><ele>869</ele><time>2024-05-31T12:34:59Z</time><name>PT2433</name></trkpt>
<trkpt lat="54.483147" lon="-3.217290"><ele>869</ele><time>2024-05-31T12:35:02Z</time><name>PT2434</name></trkpt>
<trkpt lat="54.483141" lon="-3.217268"><ele>868</ele><time>2024-05-31T12:35:05Z</time><name>PT2435</name></trkpt>
<trkpt lat="54.483129" lon="-3.217246"><ele>868</ele><time>2024-05-31T12:35:08Z</time><name>PT2436</name></trkpt>
<trkpt lat="54.483125" lon="-3.217224"><ele>867</ele><time>2024-05-31T12:35:13Z</time><name>PT2437</name></trkpt>
<trkpt lat="54.483119" lon="-3.217189"><ele>865</ele><time>2024-05-31T12:35:17Z</time><name>PT2438</name></trkpt>
<trkpt lat="54.483102" lon="-3.217156"><ele>864</ele><time>2024-05-31T12:35:20Z</time><name>PT2439</name></trkpt>
<trkpt lat="54.483089" lon="-3.217154"><ele>863</ele><time>2024-05-31T12:35:25Z</time><name>PT2440</name></trkpt>
<trkpt lat="54.483081" lon="-3.217148"><ele>862</ele><time>2024-05-31T12:35:28Z</time><name>PT2441</name></trkpt>
<trkpt lat="54.483081" lon="-3.217120"><ele>862</ele><time>2024-05-31T12:35:32Z</time><name>PT2442</name></trkpt>
<trkpt lat="54.483081" lon="-3.217116"><ele>863</ele><time>2024-05-31T12:35:35Z</time><name>PT2443</name></trkpt>
<trkpt lat="54.483074" lon="-3.217093"><ele>862</ele><time>2024-05-31T12:35:40Z</time><name>PT2444</name></trkpt>
<trkpt lat="54.483074" lon="-3.217070"><ele>862</ele><time>2024-05-31T12:35:43Z</time><name>PT2445</name></trkpt>
<trkpt lat="54.483076" lon="-3.217072"><ele>862</ele><time>2024-05-31T12:35:47Z</time><name>PT2446</name></trkpt>
<trkpt lat="54.483071" lon="-3.217058"><ele>862</ele><time>2024-05-31T12:35:51Z</time><name>PT2447</name></trkpt>
<trkpt lat="54.483068" lon="-3.217040"><ele>862</ele><time>2024-05-31T12:35:55Z</time><name>PT2448</name></trkpt>
<trkpt lat="54.483067" lon="-3.217029"><ele>860</ele><time>2024-05-31T12:35:58Z</time><name>PT2449</name></trkpt>
<trkpt lat="54.483058" lon="-3.217008"><ele>860</ele><time>2024-05-31T12:36:10Z</time><name>PT2450</name></trkpt>
<trkpt lat="54.483055" lon="-3.217004"><ele>859</ele><time>2024-05-31T12:36:13Z</time><name>PT2451</name></trkpt>
<trkpt lat="54.483056" lon="-3.216976"><ele>859</ele><time>2024-05-31T12:36:16Z</time><name>PT2452</name></trkpt>
<trkpt lat="54.483050" lon="-3.216973"><ele>858</ele><time>2024-05-31T12:36:19Z</time><name>PT2453</name></trkpt>
<trkpt lat="54.483051" lon="-3.216960"><ele>857</ele><time>2024-05-31T12:36:23Z</time><name>PT2454</name></trkpt>
<trkpt lat="54.483051" lon="-3.216956"><ele>856</ele><time>2024-05-31T12:36:29Z</time><name>PT2455</name></trkpt>
<trkpt lat="54.483044" lon="-3.216931"><ele>855</ele><time>2024-05-31T12:36:32Z</time><name>PT2456</name></trkpt>
<trkpt lat="54.483052" lon="-3.216907"><ele>855</ele><time>2024-05-31T12:36:35Z</time><name>PT2457</name></trkpt>
<trkpt lat="54.483050" lon="-3.216871"><ele>853</ele><time>2024-05-31T12:36:38Z</time><name>PT2458</name></trkpt>
<trkpt lat="54.483041" lon="-3.216832"><ele>852</ele><time>2024-05-31T12:36:41Z</time><name>PT2459</name></trkpt>
<trkpt lat="54.483028" lon="-3.216809"><ele>850</ele><time>2024-05-31T12:36:46Z</time><name>PT2460</name></trkpt>
<trkpt lat="54.483025" lon="-3.216791"><ele>850</ele><time>2024-05-31T12:36:49Z</time><name>PT2461</name></trkpt>
<trkpt lat="54.483016" lon="-3.216789"><ele>849</ele><time>2024-05-31T12:36:52Z</time><name>PT2462</name></trkpt>
<trkpt lat="54.483009" lon="-3.216768"><ele>847</ele><time>2024-05-31T12:36:55Z</time><name>PT2463</name></trkpt>
<trkpt lat="54.482996" lon="-3.216744"><ele>846</ele><time>2024-05-31T12:36:58Z</time><name>PT2464</name></trkpt>
<trkpt lat="54.482993" lon="-3.216722"><ele>846</ele><time>2024-05-31T12:37:01Z</time><name>PT2465</name></trkpt>
<trkpt lat="54.483000" lon="-3.216707"><ele>845</ele><time>2024-05-31T12:37:06Z</time><name>PT2466</name></trkpt>
<trkpt lat="54.483008" lon="-3.216691"><ele>845</ele><time>2024-05-31T12:37:09Z</time><name>PT2467</name></trkpt>
<trkpt lat="54.483014" lon="-3.216687"><ele>845</ele><time>2024-05-31T12:37:12Z</time><name>PT2468</name></trkpt>
<trkpt lat="54.483022" lon="-3.216672"><ele>845</ele><time>2024-05-31T12:37:15Z</time><name>PT2469</name></trkpt>
<trkpt lat="54.483030" lon="-3.216657"><ele>844</ele><time>2024-05-31T12:37:18Z</time><name>PT2470</name></trkpt>
<trkpt lat="54.483025" lon="-3.216641"><ele>844</ele><time>2024-05-31T12:37:21Z</time><name>PT2471</name></trkpt>
<trkpt lat="54.483033" lon="-3.216644"><ele>844</ele><time>2024-05-31T12:37:24Z</time><name>PT2472</name></trkpt>
<trkpt lat="54.483043" lon="-3.216647"><ele>844</ele><time>2024-05-31T12:37:27Z</time><name>PT2473</name></trkpt>
<trkpt lat="54.483045" lon="-3.216637"><ele>844</ele><time>2024-05-31T12:37:30Z</time><name>PT2474</name></trkpt>
<trkpt lat="54.483044" lon="-3.216627"><ele>843</ele><time>2024-05-31T12:37:35Z</time><name>PT2475</name></trkpt>
<trkpt lat="54.483053" lon="-3.216604"><ele>842</ele><time>2024-05-31T12:37:38Z</time><name>PT2476</name></trkpt>
<trkpt lat="54.483045" lon="-3.216575"><ele>841</ele><time>2024-05-31T12:37:42Z</time><name>PT2477</name></trkpt>
<trkpt lat="54.483050" lon="-3.216555"><ele>838</ele><time>2024-05-31T12:37:45Z</time><name>PT2478</name></trkpt>
<trkpt lat="54.483050" lon="-3.216531"><ele>838</ele><time>2024-05-31T12:37:48Z</time><name>PT2479</name></trkpt>
<trkpt lat="54.483054" lon="-3.216512"><ele>837</ele><time>2024-05-31T12:37:52Z</time><name>PT2480</name></trkpt>
<trkpt lat="54.483057" lon="-3.216512"><ele>837</ele><time>2024-05-31T12:37:55Z</time><name>PT2481</name></trkpt>
<trkpt lat="54.483062" lon="-3.216514"><ele>835</ele><time>2024-05-31T12:37:59Z</time><name>PT2482</name></trkpt>
<trkpt lat="54.483064" lon="-3.216496"><ele>836</ele><time>2024-05-31T12:38:02Z</time><name>PT2483</name></trkpt>
<trkpt lat="54.483065" lon="-3.216488"><ele>836</ele><time>2024-05-31T12:38:05Z</time><name>PT2484</name></trkpt>
<trkpt lat="54.483073" lon="-3.216466"><ele>836</ele><time>2024-05-31T12:38:08Z</time><name>PT2485</name></trkpt>
<trkpt lat="54.483077" lon="-3.216466"><ele>836</ele><time>2024-05-31T12:38:13Z</time><name>PT2486</name></trkpt>
<trkpt lat="54.483091" lon="-3.216450"><ele>834</ele><time>2024-05-31T12:38:17Z</time><name>PT2487</name></trkpt>
<trkpt lat="54.483097" lon="-3.216422"><ele>833</ele><time>2024-05-31T12:38:20Z</time><name>PT2488</name></trkpt>
<trkpt lat="54.483113" lon="-3.216400"><ele>833</ele><time>2024-05-31T12:38:23Z</time><name>PT2489</name></trkpt>
<trkpt lat="54.483121" lon="-3.216382"><ele>833</ele><time>2024-05-31T12:38:28Z</time><name>PT2490</name></trkpt>
<trkpt lat="54.483140" lon="-3.216355"><ele>831</ele><time>2024-05-31T12:38:32Z</time><name>PT2491</name></trkpt>
<trkpt lat="54.483145" lon="-3.216319"><ele>830</ele><time>2024-05-31T12:38:43Z</time><name>PT2492</name></trkpt>
<trkpt lat="54.483146" lon="-3.216295"><ele>830</ele><time>2024-05-31T12:38:46Z</time><name>PT2493</name></trkpt>
<trkpt lat="54.483150" lon="-3.216271"><ele>829</ele><time>2024-05-31T12:38:49Z</time><name>PT2494</name></trkpt>
<trkpt lat="54.483161" lon="-3.216248"><ele>829</ele><time>2024-05-31T12:38:52Z</time><name>PT2495</name></trkpt>
<trkpt lat="54.483169" lon="-3.216218"><ele>828</ele><time>2024-05-31T12:38:55Z</time><name>PT2496</name></trkpt>
<trkpt lat="54.483183" lon="-3.216190"><ele>828</ele><time>2024-05-31T12:38:58Z</time><name>PT2497</name></trkpt>
<trkpt lat="54.483191" lon="-3.216170"><ele>827</ele><time>2024-05-31T12:39:01Z</time><name>PT2498</name></trkpt>
<trkpt lat="54.483212" lon="-3.216151"><ele>827</ele><time>2024-05-31T12:39:06Z</time><name>PT2499</name></trkpt>
<trkpt lat="54.483228" lon="-3.216131"><ele>825</ele><time>2024-05-31T12:39:09Z</time><name>PT2500</name></trkpt>
<trkpt lat="54.483244" lon="-3.216120"><ele>825</ele><time>2024-05-31T12:39:12Z</time><name>PT2501</name></trkpt>
<trkpt lat="54.483265" lon="-3.216101"><ele>824</ele><time>2024-05-31T12:39:15Z</time><name>PT2502</name></trkpt>
<trkpt lat="54.483268" lon="-3.216077"><ele>824</ele><time>2024-05-31T12:39:18Z</time><name>PT2503</name></trkpt>
<trkpt lat="54.483283" lon="-3.216060"><ele>824</ele><time>2024-05-31T12:39:21Z</time><name>PT2504</name></trkpt>
<trkpt lat="54.483304" lon="-3.216016"><ele>824</ele><time>2024-05-31T12:39:26Z</time><name>PT2505</name></trkpt>
<trkpt lat="54.483322" lon="-3.215975"><ele>824</ele><time>2024-05-31T12:39:30Z</time><name>PT2506</name></trkpt>
<trkpt lat="54.483318" lon="-3.215938"><ele>823</ele><time>2024-05-31T12:39:33Z</time><name>PT2507</name></trkpt>
<trkpt lat="54.483316" lon="-3.215923"><ele>822</ele><time>2024-05-31T12:39:36Z</time><name>PT2508</name></trkpt>
<trkpt lat="54.483311" lon="-3.215890"><ele>821</ele><time>2024-05-31T12:39:41Z</time><name>PT2509</name></trkpt>
<trkpt lat="54.483304" lon="-3.215869"><ele>820</ele><time>2024-05-31T12:39:44Z</time><name>PT2510</name></trkpt>
<trkpt lat="54.483297" lon="-3.215846"><ele>819</ele><time>2024-05-31T12:39:47Z</time><name>PT2511</name></trkpt>
<trkpt lat="54.483294" lon="-3.215825"><ele>818</ele><time>2024-05-31T12:39:50Z</time><name>PT2512</name></trkpt>
<trkpt lat="54.483284" lon="-3.215805"><ele>817</ele><time>2024-05-31T12:39:53Z</time><name>PT2513</name></trkpt>
<trkpt lat="54.483291" lon="-3.215789"><ele>816</ele><time>2024-05-31T12:40:01Z</time><name>PT2514</name></trkpt>
<trkpt lat="54.483279" lon="-3.215752"><ele>815</ele><time>2024-05-31T12:40:04Z</time><name>PT2515</name></trkpt>
<trkpt lat="54.483286" lon="-3.215723"><ele>815</ele><time>2024-05-31T12:40:08Z</time><name>PT2516</name></trkpt>
<trkpt lat="54.483296" lon="-3.215694"><ele>815</ele><time>2024-05-31T12:40:11Z</time><name>PT2517</name></trkpt>
<trkpt lat="54.483295" lon="-3.215649"><ele>814</ele><time>2024-05-31T12:40:14Z</time><name>PT2518</name></trkpt>
<trkpt lat="54.483293" lon="-3.215624"><ele>813</ele><time>2024-05-31T12:40:19Z</time><name>PT2519</name></trkpt>
<trkpt lat="54.483290" lon="-3.215603"><ele>813</ele><time>2024-05-31T12:40:22Z</time><name>PT2520</name></trkpt>
<trkpt lat="54.483288" lon="-3.215595"><ele>813</ele><time>2024-05-31T12:40:26Z</time><name>PT2521</name></trkpt>
<trkpt lat="54.483309" lon="-3.215557"><ele>813</ele><time>2024-05-31T12:40:41Z</time><name>PT2522</name></trkpt>
<trkpt lat="54.483331" lon="-3.215525"><ele>812</ele><time>2024-05-31T12:40:44Z</time><name>PT2523</name></trkpt>
<trkpt lat="54.483345" lon="-3.215496"><ele>812</ele><time>2024-05-31T12:40:47Z</time><name>PT2524</name></trkpt>
<trkpt lat="54.483363" lon="-3.215481"><ele>811</ele><time>2024-05-31T12:40:50Z</time><name>PT2525</name></trkpt>
<trkpt lat="54.483383" lon="-3.215468"><ele>811</ele><time>2024-05-31T12:40:55Z</time><name>PT2526</name></trkpt>
<trkpt lat="54.483384" lon="-3.215454"><ele>811</ele><time>2024-05-31T12:40:58Z</time><name>PT2527</name></trkpt>
<trkpt lat="54.483386" lon="-3.215442"><ele>811</ele><time>2024-05-31T12:41:05Z</time><name>PT2528</name></trkpt>
<trkpt lat="54.483382" lon="-3.215408"><ele>809</ele><time>2024-05-31T12:41:08Z</time><name>PT2529</name></trkpt>
<trkpt lat="54.483398" lon="-3.215380"><ele>809</ele><time>2024-05-31T12:41:11Z</time><name>PT2530</name></trkpt>
<trkpt lat="54.483404" lon="-3.215372"><ele>809</ele><time>2024-05-31T12:41:14Z</time><name>PT2531</name></trkpt>
<trkpt lat="54.483418" lon="-3.215352"><ele>808</ele><time>2024-05-31T12:41:19Z</time><name>PT2532</name></trkpt>
<trkpt lat="54.483424" lon="-3.215344"><ele>808</ele><time>2024-05-31T12:41:23Z</time><name>PT2533</name></trkpt>
<trkpt lat="54.483430" lon="-3.215341"><ele>808</ele><time>2024-05-31T12:41:27Z</time><name>PT2534</name></trkpt>
<trkpt lat="54.483435" lon="-3.215327"><ele>808</ele><time>2024-05-31T12:41:34Z</time><name>PT2535</name></trkpt>
<trkpt lat="54.483440" lon="-3.215318"><ele>807</ele><time>2024-05-31T12:41:37Z</time><name>PT2536</name></trkpt>
<trkpt lat="54.483440" lon="-3.215297"><ele>807</ele><time>2024-05-31T12:41:40Z</time><name>PT2537</name></trkpt>
<trkpt lat="54.483440" lon="-3.215285"><ele>806</ele><time>2024-05-31T12:41:43Z</time><name>PT2538</name></trkpt>
<trkpt lat="54.483443" lon="-3.215274"><ele>803</ele><time>2024-05-31T12:41:48Z</time><name>PT2539</name></trkpt>
<trkpt lat="54.483438" lon="-3.215253"><ele>803</ele><time>2024-05-31T12:41:52Z</time><name>PT2540</name></trkpt>
<trkpt lat="54.483434" lon="-3.215248"><ele>802</ele><time>2024-05-31T12:41:55Z</time><name>PT2541</name></trkpt>
<trkpt lat="54.483431" lon="-3.215239"><ele>801</ele><time>2024-05-31T12:41:58Z</time><name>PT2542</name></trkpt>
<trkpt lat="54.483421" lon="-3.215222"><ele>801</ele><time>2024-05-31T12:42:01Z</time><name>PT2543</name></trkpt>
<trkpt lat="54.483407" lon="-3.215204"><ele>801</ele><time>2024-05-31T12:42:06Z</time><name>PT2544</name></trkpt>
<trkpt lat="54.483406" lon="-3.215187"><ele>798</ele><time>2024-05-31T12:42:10Z</time><name>PT2545</name></trkpt>
<trkpt lat="54.483401" lon="-3.215168"><ele>799</ele><time>2024-05-31T12:42:13Z</time><name>PT2546</name></trkpt>
<trkpt lat="54.483405" lon="-3.215155"><ele>798</ele><time>2024-05-31T12:42:28Z</time><name>PT2547</name></trkpt>
<trkpt lat="54.483413" lon="-3.215138"><ele>798</ele><time>2024-05-31T12:42:31Z</time><name>PT2548</name></trkpt>
<trkpt lat="54.483420" lon="-3.215117"><ele>798</ele><time>2024-05-31T12:42:34Z</time><name>PT2549</name></trkpt>
<trkpt lat="54.483426" lon="-3.215091"><ele>796</ele><time>2024-05-31T12:42:39Z</time><name>PT2550</name></trkpt>
<trkpt lat="54.483437" lon="-3.215084"><ele>795</ele><time>2024-05-31T12:42:43Z</time><name>PT2551</name></trkpt>
<trkpt lat="54.483438" lon="-3.215081"><ele>794</ele><time>2024-05-31T12:42:46Z</time><name>PT2552</name></trkpt>
<trkpt lat="54.483434" lon="-3.215067"><ele>793</ele><time>2024-05-31T12:42:49Z</time><name>PT2553</name></trkpt>
<trkpt lat="54.483434" lon="-3.215065"><ele>793</ele><time>2024-05-31T12:42:54Z</time><name>PT2554</name></trkpt>
<trkpt lat="54.483432" lon="-3.215057"><ele>792</ele><time>2024-05-31T12:42:57Z</time><name>PT2555</name></trkpt>
<trkpt lat="54.483428" lon="-3.215048"><ele>791</ele><time>2024-05-31T12:43:00Z</time><name>PT2556</name></trkpt>
<trkpt lat="54.483426" lon="-3.215045"><ele>791</ele><time>2024-05-31T12:43:03Z</time><name>PT2557</name></trkpt>
<trkpt lat="54.483427" lon="-3.215041"><ele>790</ele><time>2024-05-31T12:43:06Z</time><name>PT2558</name></trkpt>
<trkpt lat="54.483434" lon="-3.215034"><ele>789</ele><time>2024-05-31T12:43:17Z</time><name>PT2559</name></trkpt>
<trkpt lat="54.483439" lon="-3.215034"><ele>789</ele><time>2024-05-31T12:43:21Z</time><name>PT2560</name></trkpt>
<trkpt lat="54.483445" lon="-3.215032"><ele>789</ele><time>2024-05-31T12:43:35Z</time><name>PT2561</name></trkpt>
<trkpt lat="54.483441" lon="-3.215016"><ele>788</ele><time>2024-05-31T12:43:38Z</time><name>PT2562</name></trkpt>
<trkpt lat="54.483441" lon="-3.215015"><ele>787</ele><time>2024-05-31T12:43:41Z</time><name>PT2563</name></trkpt>
<trkpt lat="54.483462" lon="-3.215008"><ele>786</ele><time>2024-05-31T12:43:51Z</time><name>PT2564</name></trkpt>
<trkpt lat="54.483470" lon="-3.214984"><ele>786</ele><time>2024-05-31T12:43:54Z</time><name>PT2565</name></trkpt>
<trkpt lat="54.483485" lon="-3.214973"><ele>785</ele><time>2024-05-31T12:43:59Z</time><name>PT2566</name></trkpt>
<trkpt lat="54.483501" lon="-3.214971"><ele>783</ele><time>2024-05-31T12:44:03Z</time><name>PT2567</name></trkpt>
<trkpt lat="54.483506" lon="-3.214955"><ele>784</ele><time>2024-05-31T12:44:06Z</time><name>PT2568</name></trkpt>
<trkpt lat="54.483494" lon="-3.214903"><ele>782</ele><time>2024-05-31T12:44:23Z</time><name>PT2569</name></trkpt>
<trkpt lat="54.483498" lon="-3.214896"><ele>781</ele><time>2024-05-31T12:44:27Z</time><name>PT2570</name></trkpt>
<trkpt lat="54.483489" lon="-3.214875"><ele>780</ele><time>2024-05-31T12:44:30Z</time><name>PT2571</name></trkpt>
<trkpt lat="54.483474" lon="-3.214859"><ele>779</ele><time>2024-05-31T12:44:33Z</time><name>PT2572</name></trkpt>
<trkpt lat="54.483460" lon="-3.214841"><ele>778</ele><time>2024-05-31T12:44:36Z</time><name>PT2573</name></trkpt>
<trkpt lat="54.483451" lon="-3.214829"><ele>777</ele><time>2024-05-31T12:44:41Z</time><name>PT2574</name></trkpt>
<trkpt lat="54.483450" lon="-3.214819"><ele>777</ele><time>2024-05-31T12:44:44Z</time><name>PT2575</name></trkpt>
<trkpt lat="54.483459" lon="-3.214800"><ele>776</ele><time>2024-05-31T12:44:47Z</time><name>PT2576</name></trkpt>
<trkpt lat="54.483480" lon="-3.214780"><ele>776</ele><time>2024-05-31T12:44:51Z</time><name>PT2577</name></trkpt>
<trkpt lat="54.483488" lon="-3.214764"><ele>775</ele><time>2024-05-31T12:44:54Z</time><name>PT2578</name></trkpt>
<trkpt lat="54.483503" lon="-3.214758"><ele>775</ele><time>2024-05-31T12:44:57Z</time><name>PT2579</name></trkpt>
<trkpt lat="54.483513" lon="-3.214763"><ele>774</ele><time>2024-05-31T12:45:00Z</time><name>PT2580</name></trkpt>
<trkpt lat="54.483533" lon="-3.214749"><ele>773</ele><time>2024-05-31T12:45:03Z</time><name>PT2581</name></trkpt>
<trkpt lat="54.483551" lon="-3.214750"><ele>772</ele><time>2024-05-31T12:45:08Z</time><name>PT2582</name></trkpt>
<trkpt lat="54.483574" lon="-3.214747"><ele>772</ele><time>2024-05-31T12:45:12Z</time><name>PT2583</name></trkpt>
<trkpt lat="54.483586" lon="-3.214743"><ele>769</ele><time>2024-05-31T12:45:15Z</time><name>PT2584</name></trkpt>
<trkpt lat="54.483606" lon="-3.214739"><ele>770</ele><time>2024-05-31T12:45:20Z</time><name>PT2585</name></trkpt>
<trkpt lat="54.483623" lon="-3.214731"><ele>768</ele><time>2024-05-31T12:45:23Z</time><name>PT2586</name></trkpt>
<trkpt lat="54.483634" lon="-3.214725"><ele>767</ele><time>2024-05-31T12:45:26Z</time><name>PT2587</name></trkpt>
<trkpt lat="54.483635" lon="-3.214721"><ele>767</ele><time>2024-05-31T12:45:30Z</time><name>PT2588</name></trkpt>
<trkpt lat="54.483654" lon="-3.214714"><ele>766</ele><time>2024-05-31T12:45:33Z</time><name>PT2589</name></trkpt>
<trkpt lat="54.483664" lon="-3.214707"><ele>764</ele><time>2024-05-31T12:45:36Z</time><name>PT2590</name></trkpt>
<trkpt lat="54.483687" lon="-3.214690"><ele>764</ele><time>2024-05-31T12:45:41Z</time><name>PT2591</name></trkpt>
<trkpt lat="54.483712" lon="-3.214683"><ele>764</ele><time>2024-05-31T12:45:44Z</time><name>PT2592</name></trkpt>
<trkpt lat="54.483736" lon="-3.214674"><ele>763</ele><time>2024-05-31T12:45:47Z</time><name>PT2593</name></trkpt>
<trkpt lat="54.483754" lon="-3.214663"><ele>762</ele><time>2024-05-31T12:45:50Z</time><name>PT2594</name></trkpt>
<trkpt lat="54.483781" lon="-3.214635"><ele>761</ele><time>2024-05-31T12:45:54Z</time><name>PT2595</name></trkpt>
<trkpt lat="54.483789" lon="-3.214612"><ele>761</ele><time>2024-05-31T12:45:57Z</time><name>PT2596</name></trkpt>
<trkpt lat="54.483802" lon="-3.214588"><ele>761</ele><time>2024-05-31T12:46:06Z</time><name>PT2597</name></trkpt>
<trkpt lat="54.483824" lon="-3.214545"><ele>759</ele><time>2024-05-31T12:46:09Z</time><name>PT2598</name></trkpt>
<trkpt lat="54.483857" lon="-3.214502"><ele>758</ele><time>2024-05-31T12:46:14Z</time><name>PT2599</name></trkpt>
<trkpt lat="54.483888" lon="-3.214475"><ele>757</ele><time>2024-05-31T12:46:17Z</time><name>PT2600</name></trkpt>
<trkpt lat="54.483925" lon="-3.214460"><ele>756</ele><time>2024-05-31T12:46:21Z</time><name>PT2601</name></trkpt>
<trkpt lat="54.483960" lon="-3.214464"><ele>756</ele><time>2024-05-31T12:46:24Z</time><name>PT2602</name></trkpt>
<trkpt lat="54.483985" lon="-3.214479"><ele>756</ele><time>2024-05-31T12:46:27Z</time><name>PT2603</name></trkpt>
<trkpt lat="54.484016" lon="-3.214469"><ele>757</ele><time>2024-05-31T12:46:30Z</time><name>PT2604</name></trkpt>
<trkpt lat="54.484037" lon="-3.214456"><ele>757</ele><time>2024-05-31T12:46:33Z</time><name>PT2605</name></trkpt>
<trkpt lat="54.484066" lon="-3.214449"><ele>756</ele><time>2024-05-31T12:46:38Z</time><name>PT2606</name></trkpt>
<trkpt lat="54.484090" lon="-3.214448"><ele>756</ele><time>2024-05-31T12:46:41Z</time><name>PT2607</name></trkpt>
<trkpt lat="54.484118" lon="-3.214426"><ele>755</ele><time>2024-05-31T12:46:45Z</time><name>PT2608</name></trkpt>
<trkpt lat="54.484147" lon="-3.214385"><ele>755</ele><time>2024-05-31T12:46:48Z</time><name>PT2609</name></trkpt>
<trkpt lat="54.484158" lon="-3.214362"><ele>755</ele><time>2024-05-31T12:46:51Z</time><name>PT2610</name></trkpt>
<trkpt lat="54.484161" lon="-3.214361"><ele>755</ele><time>2024-05-31T12:46:55Z</time><name>PT2611</name></trkpt>
<trkpt lat="54.484176" lon="-3.214331"><ele>755</ele><time>2024-05-31T12:46:59Z</time><name>PT2612</name></trkpt>
<trkpt lat="54.484200" lon="-3.214283"><ele>755</ele><time>2024-05-31T12:47:02Z</time><name>PT2613</name></trkpt>
<trkpt lat="54.484218" lon="-3.214254"><ele>755</ele><time>2024-05-31T12:47:05Z</time><name>PT2614</name></trkpt>
<trkpt lat="54.484234" lon="-3.214231"><ele>756</ele><time>2024-05-31T12:47:08Z</time><name>PT2615</name></trkpt>
<trkpt lat="54.484247" lon="-3.214212"><ele>756</ele><time>2024-05-31T12:47:11Z</time><name>PT2616</name></trkpt>
<trkpt lat="54.484262" lon="-3.214194"><ele>758</ele><time>2024-05-31T12:47:14Z</time><name>PT2617</name></trkpt>
<trkpt lat="54.484274" lon="-3.214167"><ele>758</ele><time>2024-05-31T12:47:19Z</time><name>PT2618</name></trkpt>
<trkpt lat="54.484288" lon="-3.214134"><ele>759</ele><time>2024-05-31T12:47:23Z</time><name>PT2619</name></trkpt>
<trkpt lat="54.484309" lon="-3.214116"><ele>760</ele><time>2024-05-31T12:47:26Z</time><name>PT2620</name></trkpt>
<trkpt lat="54.484313" lon="-3.214112"><ele>759</ele><time>2024-05-31T12:47:29Z</time><name>PT2621</name></trkpt>
<trkpt lat="54.484317" lon="-3.214107"><ele>760</ele><time>2024-05-31T12:47:33Z</time><name>PT2622</name></trkpt>
<trkpt lat="54.484332" lon="-3.214079"><ele>761</ele><time>2024-05-31T12:47:37Z</time><name>PT2623</name></trkpt>
<trkpt lat="54.484347" lon="-3.214065"><ele>762</ele><time>2024-05-31T12:47:40Z</time><name>PT2624</name></trkpt>
<trkpt lat="54.484349" lon="-3.214051"><ele>762</ele><time>2024-05-31T12:47:43Z</time><name>PT2625</name></trkpt>
<trkpt lat="54.484364" lon="-3.214031"><ele>763</ele><time>2024-05-31T12:47:46Z</time><name>PT2626</name></trkpt>
<trkpt lat="54.484380" lon="-3.214021"><ele>764</ele><time>2024-05-31T12:47:51Z</time><name>PT2627</name></trkpt>
<trkpt lat="54.484379" lon="-3.213998"><ele>764</ele><time>2024-05-31T12:47:55Z</time><name>PT2628</name></trkpt>
<trkpt lat="54.484378" lon="-3.213989"><ele>765</ele><time>2024-05-31T12:47:58Z</time><name>PT2629</name></trkpt>
<trkpt lat="54.484381" lon="-3.213972"><ele>765</ele><time>2024-05-31T12:48:06Z</time><name>PT2630</name></trkpt>
<trkpt lat="54.484391" lon="-3.213955"><ele>766</ele><time>2024-05-31T12:48:09Z</time><name>PT2631</name></trkpt>
<trkpt lat="54.484408" lon="-3.213956"><ele>767</ele><time>2024-05-31T12:48:12Z</time><name>PT2632</name></trkpt>
<trkpt lat="54.484427" lon="-3.213953"><ele>767</ele><time>2024-05-31T12:48:15Z</time><name>PT2633</name></trkpt>
<trkpt lat="54.484433" lon="-3.213936"><ele>768</ele><time>2024-05-31T12:48:18Z</time><name>PT2634</name></trkpt>
<trkpt lat="54.484435" lon="-3.213918"><ele>768</ele><time>2024-05-31T12:48:23Z</time><name>PT2635</name></trkpt>
<trkpt lat="54.484440" lon="-3.213887"><ele>769</ele><time>2024-05-31T12:48:30Z</time><name>PT2636</name></trkpt>
<trkpt lat="54.484449" lon="-3.213874"><ele>769</ele><time>2024-05-31T12:48:33Z</time><name>PT2637</name></trkpt>
<trkpt lat="54.484470" lon="-3.213858"><ele>770</ele><time>2024-05-31T12:48:38Z</time><name>PT2638</name></trkpt>
<trkpt lat="54.484473" lon="-3.213850"><ele>770</ele><time>2024-05-31T12:48:42Z</time><name>PT2639</name></trkpt>
<trkpt lat="54.484473" lon="-3.213824"><ele>771</ele><time>2024-05-31T12:48:45Z</time><name>PT2640</name></trkpt>
<trkpt lat="54.484474" lon="-3.213801"><ele>771</ele><time>2024-05-31T12:48:49Z</time><name>PT2641</name></trkpt>
<trkpt lat="54.484485" lon="-3.213781"><ele>772</ele><time>2024-05-31T12:48:59Z</time><name>PT2642</name></trkpt>
<trkpt lat="54.484506" lon="-3.213752"><ele>773</ele><time>2024-05-31T12:49:02Z</time><name>PT2643</name></trkpt>
<trkpt lat="54.484513" lon="-3.213730"><ele>774</ele><time>2024-05-31T12:49:05Z</time><name>PT2644</name></trkpt>
<trkpt lat="54.484524" lon="-3.213698"><ele>775</ele><time>2024-05-31T12:49:10Z</time><name>PT2645</name></trkpt>
<trkpt lat="54.484544" lon="-3.213679"><ele>775</ele><time>2024-05-31T12:49:14Z</time><name>PT2646</name></trkpt>
<trkpt lat="54.484552" lon="-3.213658"><ele>776</ele><time>2024-05-31T12:49:17Z</time><name>PT2647</name></trkpt>
<trkpt lat="54.484553" lon="-3.213649"><ele>776</ele><time>2024-05-31T12:49:20Z</time><name>PT2648</name></trkpt>
<trkpt lat="54.484566" lon="-3.213640"><ele>777</ele><time>2024-05-31T12:49:31Z</time><name>PT2649</name></trkpt>
<trkpt lat="54.484591" lon="-3.213620"><ele>778</ele><time>2024-05-31T12:49:34Z</time><name>PT2650</name></trkpt>
<trkpt lat="54.484614" lon="-3.213598"><ele>780</ele><time>2024-05-31T12:49:42Z</time><name>PT2651</name></trkpt>
<trkpt lat="54.484634" lon="-3.213583"><ele>782</ele><time>2024-05-31T12:49:49Z</time><name>PT2652</name></trkpt>
<trkpt lat="54.484653" lon="-3.213560"><ele>782</ele><time>2024-05-31T12:49:52Z</time><name>PT2653</name></trkpt>
<trkpt lat="54.484678" lon="-3.213534"><ele>783</ele><time>2024-05-31T12:49:55Z</time><name>PT2654</name></trkpt>
<trkpt lat="54.484694" lon="-3.213506"><ele>784</ele><time>2024-05-31T12:50:00Z</time><name>PT2655</name></trkpt>
<trkpt lat="54.484705" lon="-3.213499"><ele>785</ele><time>2024-05-31T12:50:03Z</time><name>PT2656</name></trkpt>
<trkpt lat="54.484739" lon="-3.213485"><ele>786</ele><time>2024-05-31T12:50:28Z</time><name>PT2657</name></trkpt>
<trkpt lat="54.484793" lon="-3.213479"><ele>788</ele><time>2024-05-31T12:50:32Z</time><name>PT2658</name></trkpt>
<trkpt lat="54.484823" lon="-3.213476"><ele>788</ele><time>2024-05-31T12:50:35Z</time><name>PT2659</name></trkpt>
<trkpt lat="54.484866" lon="-3.213474"><ele>789</ele><time>2024-05-31T12:50:38Z</time><name>PT2660</name></trkpt>
<trkpt lat="54.484897" lon="-3.213469"><ele>790</ele><time>2024-05-31T12:50:42Z</time><name>PT2661</name></trkpt>
<trkpt lat="54.484932" lon="-3.213462"><ele>791</ele><time>2024-05-31T12:50:46Z</time><name>PT2662</name></trkpt>
<trkpt lat="54.484962" lon="-3.213454"><ele>793</ele><time>2024-05-31T12:50:49Z</time><name>PT2663</name></trkpt>
<trkpt lat="54.484992" lon="-3.213444"><ele>793</ele><time>2024-05-31T12:50:53Z</time><name>PT2664</name></trkpt>
<trkpt lat="54.485022" lon="-3.213438"><ele>794</ele><time>2024-05-31T12:50:56Z</time><name>PT2665</name></trkpt>
<trkpt lat="54.485045" lon="-3.213435"><ele>794</ele><time>2024-05-31T12:51:01Z</time><name>PT2666</name></trkpt>
<trkpt lat="54.485063" lon="-3.213435"><ele>794</ele><time>2024-05-31T12:51:05Z</time><name>PT2667</name></trkpt>
<trkpt lat="54.485066" lon="-3.213435"><ele>795</ele><time>2024-05-31T12:51:08Z</time><name>PT2668</name></trkpt>
<trkpt lat="54.485084" lon="-3.213441"><ele>795</ele><time>2024-05-31T12:51:19Z</time><name>PT2669</name></trkpt>
<trkpt lat="54.485094" lon="-3.213446"><ele>795</ele><time>2024-05-31T12:51:22Z</time><name>PT2670</name></trkpt>
<trkpt lat="54.485098" lon="-3.213450"><ele>795</ele><time>2024-05-31T12:51:25Z</time><name>PT2671</name></trkpt>
<trkpt lat="54.485099" lon="-3.213449"><ele>795</ele><time>2024-05-31T12:51:28Z</time><name>PT2672</name></trkpt>
<trkpt lat="54.485106" lon="-3.213442"><ele>794</ele><time>2024-05-31T12:58:32Z</time><name>PT2673</name></trkpt>
<trkpt lat="54.485117" lon="-3.213452"><ele>793</ele><time>2024-05-31T13:17:40Z</time><name>PT2674</name></trkpt>
<trkpt lat="54.485122" lon="-3.213473"><ele>793</ele><time>2024-05-31T13:17:43Z</time><name>PT2675</name></trkpt>
<trkpt lat="54.485135" lon="-3.213451"><ele>794</ele><time>2024-05-31T13:17:56Z</time><name>PT2676</name></trkpt>
<trkpt lat="54.485130" lon="-3.213448"><ele>795</ele><time>2024-05-31T13:18:01Z</time><name>PT2677</name></trkpt>
<trkpt lat="54.485134" lon="-3.213435"><ele>795</ele><time>2024-05-31T13:18:14Z</time><name>PT2678</name></trkpt>
<trkpt lat="54.485133" lon="-3.213432"><ele>795</ele><time>2024-05-31T13:18:19Z</time><name>PT2679</name></trkpt>
<trkpt lat="54.485136" lon="-3.213437"><ele>794</ele><time>2024-05-31T13:20:37Z</time><name>PT2680</name></trkpt>
<trkpt lat="54.485136" lon="-3.213434"><ele>794</ele><time>2024-05-31T13:20:40Z</time><name>PT2681</name></trkpt>
<trkpt lat="54.485143" lon="-3.213431"><ele>794</ele><time>2024-05-31T13:20:57Z</time><name>PT2682</name></trkpt>
<trkpt lat="54.485164" lon="-3.213418"><ele>794</ele><time>2024-05-31T13:21:47Z</time><name>PT2683</name></trkpt>
<trkpt lat="54.485197" lon="-3.213389"><ele>795</ele><time>2024-05-31T13:21:50Z</time><name>PT2684</name></trkpt>
<trkpt lat="54.485220" lon="-3.213378"><ele>796</ele><time>2024-05-31T13:21:53Z</time><name>PT2685</name></trkpt>
<trkpt lat="54.485257" lon="-3.213376"><ele>796</ele><time>2024-05-31T13:21:56Z</time><name>PT2686</name></trkpt>
<trkpt lat="54.485282" lon="-3.213372"><ele>796</ele><time>2024-05-31T13:21:59Z</time><name>PT2687</name></trkpt>
<trkpt lat="54.485307" lon="-3.213364"><ele>797</ele><time>2024-05-31T13:22:02Z</time><name>PT2688</name></trkpt>
<trkpt lat="54.485343" lon="-3.213354"><ele>798</ele><time>2024-05-31T13:22:07Z</time><name>PT2689</name></trkpt>
<trkpt lat="54.485369" lon="-3.213364"><ele>798</ele><time>2024-05-31T13:22:10Z</time><name>PT2690</name></trkpt>
<trkpt lat="54.485403" lon="-3.213384"><ele>798</ele><time>2024-05-31T13:22:13Z</time><name>PT2691</name></trkpt>
<trkpt lat="54.485421" lon="-3.213407"><ele>798</ele><time>2024-05-31T13:22:16Z</time><name>PT2692</name></trkpt>
<trkpt lat="54.485436" lon="-3.213425"><ele>798</ele><time>2024-05-31T13:22:21Z</time><name>PT2693</name></trkpt>
<trkpt lat="54.485444" lon="-3.213432"><ele>798</ele><time>2024-05-31T13:22:28Z</time><name>PT2694</name></trkpt>
<trkpt lat="54.485452" lon="-3.213446"><ele>799</ele><time>2024-05-31T13:22:31Z</time><name>PT2695</name></trkpt>
<trkpt lat="54.485488" lon="-3.213478"><ele>798</ele><time>2024-05-31T13:22:36Z</time><name>PT2696</name></trkpt>
<trkpt lat="54.485496" lon="-3.213486"><ele>798</ele><time>2024-05-31T13:22:40Z</time><name>PT2697</name></trkpt>
<trkpt lat="54.485520" lon="-3.213506"><ele>798</ele><time>2024-05-31T13:22:43Z</time><name>PT2698</name></trkpt>
<trkpt lat="54.485521" lon="-3.213511"><ele>798</ele><time>2024-05-31T13:22:46Z</time><name>PT2699</name></trkpt>
<trkpt lat="54.485556" lon="-3.213557"><ele>798</ele><time>2024-05-31T13:22:49Z</time><name>PT2700</name></trkpt>
<trkpt lat="54.485588" lon="-3.213580"><ele>799</ele><time>2024-05-31T13:22:54Z</time><name>PT2701</name></trkpt>
<trkpt lat="54.485611" lon="-3.213602"><ele>799</ele><time>2024-05-31T13:22:57Z</time><name>PT2702</name></trkpt>
<trkpt lat="54.485633" lon="-3.213643"><ele>799</ele><time>2024-05-31T13:23:01Z</time><name>PT2703</name></trkpt>
<trkpt lat="54.485655" lon="-3.213668"><ele>800</ele><time>2024-05-31T13:23:04Z</time><name>PT2704</name></trkpt>
<trkpt lat="54.485681" lon="-3.213694"><ele>800</ele><time>2024-05-31T13:23:07Z</time><name>PT2705</name></trkpt>
<trkpt lat="54.485697" lon="-3.213703"><ele>800</ele><time>2024-05-31T13:23:12Z</time><name>PT2706</name></trkpt>
<trkpt lat="54.485701" lon="-3.213702"><ele>801</ele><time>2024-05-31T13:23:15Z</time><name>PT2707</name></trkpt>
<trkpt lat="54.485719" lon="-3.213708"><ele>800</ele><time>2024-05-31T13:23:18Z</time><name>PT2708</name></trkpt>
<trkpt lat="54.485755" lon="-3.213703"><ele>800</ele><time>2024-05-31T13:23:22Z</time><name>PT2709</name></trkpt>
<trkpt lat="54.485784" lon="-3.213695"><ele>800</ele><time>2024-05-31T13:23:25Z</time><name>PT2710</name></trkpt>
<trkpt lat="54.485812" lon="-3.213680"><ele>800</ele><time>2024-05-31T13:23:30Z</time><name>PT2711</name></trkpt>
<trkpt lat="54.485831" lon="-3.213671"><ele>799</ele><time>2024-05-31T13:23:33Z</time><name>PT2712</name></trkpt>
<trkpt lat="54.485849" lon="-3.213641"><ele>799</ele><time>2024-05-31T13:23:37Z</time><name>PT2713</name></trkpt>
<trkpt lat="54.485864" lon="-3.213619"><ele>798</ele><time>2024-05-31T13:23:40Z</time><name>PT2714</name></trkpt>
<trkpt lat="54.485904" lon="-3.213586"><ele>797</ele><time>2024-05-31T13:23:43Z</time><name>PT2715</name></trkpt>
<trkpt lat="54.485923" lon="-3.213564"><ele>798</ele><time>2024-05-31T13:23:48Z</time><name>PT2716</name></trkpt>
<trkpt lat="54.485949" lon="-3.213519"><ele>797</ele><time>2024-05-31T13:23:52Z</time><name>PT2717</name></trkpt>
<trkpt lat="54.485965" lon="-3.213481"><ele>796</ele><time>2024-05-31T13:23:55Z</time><name>PT2718</name></trkpt>
<trkpt lat="54.485985" lon="-3.213454"><ele>795</ele><time>2024-05-31T13:23:58Z</time><name>PT2719</name></trkpt>
<trkpt lat="54.485996" lon="-3.213407"><ele>795</ele><time>2024-05-31T13:24:03Z</time><name>PT2720</name></trkpt>
<trkpt lat="54.486018" lon="-3.213376"><ele>795</ele><time>2024-05-31T13:24:06Z</time><name>PT2721</name></trkpt>
<trkpt lat="54.486041" lon="-3.213350"><ele>794</ele><time>2024-05-31T13:24:09Z</time><name>PT2722</name></trkpt>
<trkpt lat="54.486072" lon="-3.213333"><ele>794</ele><time>2024-05-31T13:24:13Z</time><name>PT2723</name></trkpt>
<trkpt lat="54.486104" lon="-3.213320"><ele>794</ele><time>2024-05-31T13:24:16Z</time><name>PT2724</name></trkpt>
<trkpt lat="54.486125" lon="-3.213294"><ele>793</ele><time>2024-05-31T13:24:19Z</time><name>PT2725</name></trkpt>
<trkpt lat="54.486154" lon="-3.213267"><ele>792</ele><time>2024-05-31T13:24:24Z</time><name>PT2726</name></trkpt>
<trkpt lat="54.486172" lon="-3.213250"><ele>793</ele><time>2024-05-31T13:24:27Z</time><name>PT2727</name></trkpt>
<trkpt lat="54.486198" lon="-3.213229"><ele>792</ele><time>2024-05-31T13:24:31Z</time><name>PT2728</name></trkpt>
<trkpt lat="54.486224" lon="-3.213206"><ele>791</ele><time>2024-05-31T13:24:34Z</time><name>PT2729</name></trkpt>
<trkpt lat="54.486249" lon="-3.213169"><ele>790</ele><time>2024-05-31T13:24:39Z</time><name>PT2730</name></trkpt>
<trkpt lat="54.486266" lon="-3.213141"><ele>789</ele><time>2024-05-31T13:24:42Z</time><name>PT2731</name></trkpt>
<trkpt lat="54.486279" lon="-3.213097"><ele>787</ele><time>2024-05-31T13:24:46Z</time><name>PT2732</name></trkpt>
<trkpt lat="54.486294" lon="-3.213072"><ele>786</ele><time>2024-05-31T13:24:49Z</time><name>PT2733</name></trkpt>
<trkpt lat="54.486315" lon="-3.213051"><ele>786</ele><time>2024-05-31T13:24:52Z</time><name>PT2734</name></trkpt>
<trkpt lat="54.486341" lon="-3.213020"><ele>785</ele><time>2024-05-31T13:24:55Z</time><name>PT2735</name></trkpt>
<trkpt lat="54.486368" lon="-3.212988"><ele>786</ele><time>2024-05-31T13:24:58Z</time><name>PT2736</name></trkpt>
<trkpt lat="54.486395" lon="-3.212950"><ele>785</ele><time>2024-05-31T13:25:03Z</time><name>PT2737</name></trkpt>
<trkpt lat="54.486415" lon="-3.212926"><ele>784</ele><time>2024-05-31T13:25:07Z</time><name>PT2738</name></trkpt>
<trkpt lat="54.486434" lon="-3.212901"><ele>782</ele><time>2024-05-31T13:25:10Z</time><name>PT2739</name></trkpt>
<trkpt lat="54.486443" lon="-3.212877"><ele>782</ele><time>2024-05-31T13:25:13Z</time><name>PT2740</name></trkpt>
<trkpt lat="54.486463" lon="-3.212856"><ele>781</ele><time>2024-05-31T13:25:18Z</time><name>PT2741</name></trkpt>
<trkpt lat="54.486484" lon="-3.212837"><ele>781</ele><time>2024-05-31T13:25:21Z</time><name>PT2742</name></trkpt>
<trkpt lat="54.486508" lon="-3.212808"><ele>780</ele><time>2024-05-31T13:25:25Z</time><name>PT2743</name></trkpt>
<trkpt lat="54.486521" lon="-3.212785"><ele>779</ele><time>2024-05-31T13:25:28Z</time><name>PT2744</name></trkpt>
<trkpt lat="54.486544" lon="-3.212752"><ele>778</ele><time>2024-05-31T13:25:31Z</time><name>PT2745</name></trkpt>
<trkpt lat="54.486556" lon="-3.212726"><ele>777</ele><time>2024-05-31T13:25:34Z</time><name>PT2746</name></trkpt>
<trkpt lat="54.486577" lon="-3.212720"><ele>777</ele><time>2024-05-31T13:25:37Z</time><name>PT2747</name></trkpt>
<trkpt lat="54.486607" lon="-3.212722"><ele>776</ele><time>2024-05-31T13:25:40Z</time><name>PT2748</name></trkpt>
<trkpt lat="54.486651" lon="-3.212703"><ele>776</ele><time>2024-05-31T13:25:45Z</time><name>PT2749</name></trkpt>
<trkpt lat="54.486681" lon="-3.212678"><ele>775</ele><time>2024-05-31T13:25:48Z</time><name>PT2750</name></trkpt>
<trkpt lat="54.486719" lon="-3.212643"><ele>774</ele><time>2024-05-31T13:25:52Z</time><name>PT2751</name></trkpt>
<trkpt lat="54.486748" lon="-3.212614"><ele>774</ele><time>2024-05-31T13:25:55Z</time><name>PT2752</name></trkpt>
<trkpt lat="54.486787" lon="-3.212598"><ele>773</ele><time>2024-05-31T13:25:58Z</time><name>PT2753</name></trkpt>
<trkpt lat="54.486810" lon="-3.212579"><ele>773</ele><time>2024-05-31T13:26:01Z</time><name>PT2754</name></trkpt>
<trkpt lat="54.486833" lon="-3.212554"><ele>771</ele><time>2024-05-31T13:26:06Z</time><name>PT2755</name></trkpt>
<trkpt lat="54.486859" lon="-3.212538"><ele>770</ele><time>2024-05-31T13:26:10Z</time><name>PT2756</name></trkpt>
<trkpt lat="54.486898" lon="-3.212509"><ele>770</ele><time>2024-05-31T13:26:13Z</time><name>PT2757</name></trkpt>
<trkpt lat="54.486921" lon="-3.212475"><ele>770</ele><time>2024-05-31T13:26:16Z</time><name>PT2758</name></trkpt>
<trkpt lat="54.486940" lon="-3.212442"><ele>770</ele><time>2024-05-31T13:26:19Z</time><name>PT2759</name></trkpt>
<trkpt lat="54.486965" lon="-3.212411"><ele>769</ele><time>2024-05-31T13:26:22Z</time><name>PT2760</name></trkpt>
<trkpt lat="54.486994" lon="-3.212363"><ele>768</ele><time>2024-05-31T13:26:27Z</time><name>PT2761</name></trkpt>
<trkpt lat="54.487024" lon="-3.212334"><ele>767</ele><time>2024-05-31T13:26:30Z</time><name>PT2762</name></trkpt>
<trkpt lat="54.487061" lon="-3.212308"><ele>768</ele><time>2024-05-31T13:26:33Z</time><name>PT2763</name></trkpt>
<trkpt lat="54.487094" lon="-3.212282"><ele>768</ele><time>2024-05-31T13:26:36Z</time><name>PT2764</name></trkpt>
<trkpt lat="54.487139" lon="-3.212249"><ele>769</ele><time>2024-05-31T13:26:40Z</time><name>PT2765</name></trkpt>
<trkpt lat="54.487177" lon="-3.212234"><ele>769</ele><time>2024-05-31T13:26:43Z</time><name>PT2766</name></trkpt>
<trkpt lat="54.487221" lon="-3.212205"><ele>768</ele><time>2024-05-31T13:26:46Z</time><name>PT2767</name></trkpt>
<trkpt lat="54.487259" lon="-3.212188"><ele>770</ele><time>2024-05-31T13:26:49Z</time><name>PT2768</name></trkpt>
<trkpt lat="54.487305" lon="-3.212179"><ele>770</ele><time>2024-05-31T13:26:54Z</time><name>PT2769</name></trkpt>
<trkpt lat="54.487337" lon="-3.212164"><ele>768</ele><time>2024-05-31T13:26:57Z</time><name>PT2770</name></trkpt>
<trkpt lat="54.487373" lon="-3.212149"><ele>768</ele><time>2024-05-31T13:27:00Z</time><name>PT2771</name></trkpt>
<trkpt lat="54.487414" lon="-3.212143"><ele>767</ele><time>2024-05-31T13:27:03Z</time><name>PT2772</name></trkpt>
<trkpt lat="54.487444" lon="-3.212139"><ele>767</ele><time>2024-05-31T13:27:08Z</time><name>PT2773</name></trkpt>
<trkpt lat="54.487474" lon="-3.212131"><ele>766</ele><time>2024-05-31T13:27:12Z</time><name>PT2774</name></trkpt>
<trkpt lat="54.487497" lon="-3.212130"><ele>765</ele><time>2024-05-31T13:27:15Z</time><name>PT2775</name></trkpt>
<trkpt lat="54.487529" lon="-3.212127"><ele>765</ele><time>2024-05-31T13:27:18Z</time><name>PT2776</name></trkpt>
<trkpt lat="54.487560" lon="-3.212100"><ele>763</ele><time>2024-05-31T13:27:21Z</time><name>PT2777</name></trkpt>
<trkpt lat="54.487578" lon="-3.212082"><ele>762</ele><time>2024-05-31T13:27:24Z</time><name>PT2778</name></trkpt>
<trkpt lat="54.487605" lon="-3.212074"><ele>761</ele><time>2024-05-31T13:27:29Z</time><name>PT2779</name></trkpt>
<trkpt lat="54.487639" lon="-3.212067"><ele>761</ele><time>2024-05-31T13:27:32Z</time><name>PT2780</name></trkpt>
<trkpt lat="54.487666" lon="-3.212061"><ele>760</ele><time>2024-05-31T13:27:35Z</time><name>PT2781</name></trkpt>
<trkpt lat="54.487708" lon="-3.212059"><ele>759</ele><time>2024-05-31T13:27:39Z</time><name>PT2782</name></trkpt>
<trkpt lat="54.487736" lon="-3.212066"><ele>759</ele><time>2024-05-31T13:27:42Z</time><name>PT2783</name></trkpt>
<trkpt lat="54.487774" lon="-3.212096"><ele>759</ele><time>2024-05-31T13:27:45Z</time><name>PT2784</name></trkpt>
<trkpt lat="54.487808" lon="-3.212092"><ele>759</ele><time>2024-05-31T13:27:50Z</time><name>PT2785</name></trkpt>
<trkpt lat="54.487838" lon="-3.212085"><ele>758</ele><time>2024-05-31T13:27:54Z</time><name>PT2786</name></trkpt>
<trkpt lat="54.487866" lon="-3.212094"><ele>757</ele><time>2024-05-31T13:27:57Z</time><name>PT2787</name></trkpt>
<trkpt lat="54.487892" lon="-3.212103"><ele>757</ele><time>2024-05-31T13:28:00Z</time><name>PT2788</name></trkpt>
<trkpt lat="54.487935" lon="-3.212109"><ele>757</ele><time>2024-05-31T13:28:03Z</time><name>PT2789</name></trkpt>
<trkpt lat="54.487970" lon="-3.212105"><ele>757</ele><time>2024-05-31T13:28:06Z</time><name>PT2790</name></trkpt>
<trkpt lat="54.488004" lon="-3.212111"><ele>757</ele><time>2024-05-31T13:28:09Z</time><name>PT2791</name></trkpt>
<trkpt lat="54.488043" lon="-3.212116"><ele>756</ele><time>2024-05-31T13:28:14Z</time><name>PT2792</name></trkpt>
<trkpt lat="54.488073" lon="-3.212121"><ele>756</ele><time>2024-05-31T13:28:17Z</time><name>PT2793</name></trkpt>
<trkpt lat="54.488115" lon="-3.212130"><ele>756</ele><time>2024-05-31T13:28:21Z</time><name>PT2794</name></trkpt>
<trkpt lat="54.488143" lon="-3.212145"><ele>756</ele><time>2024-05-31T13:28:24Z</time><name>PT2795</name></trkpt>
<trkpt lat="54.488178" lon="-3.212142"><ele>755</ele><time>2024-05-31T13:28:27Z</time><name>PT2796</name></trkpt>
<trkpt lat="54.488209" lon="-3.212149"><ele>755</ele><time>2024-05-31T13:28:30Z</time><name>PT2797</name></trkpt>
<trkpt lat="54.488245" lon="-3.212150"><ele>755</ele><time>2024-05-31T13:28:35Z</time><name>PT2798</name></trkpt>
<trkpt lat="54.488279" lon="-3.212150"><ele>755</ele><time>2024-05-31T13:28:38Z</time><name>PT2799</name></trkpt>
<trkpt lat="54.488308" lon="-3.212142"><ele>754</ele><time>2024-05-31T13:28:42Z</time><name>PT2800</name></trkpt>
<trkpt lat="54.488341" lon="-3.212135"><ele>753</ele><time>2024-05-31T13:28:45Z</time><name>PT2801</name></trkpt>
<trkpt lat="54.488384" lon="-3.212140"><ele>754</ele><time>2024-05-31T13:28:50Z</time><name>PT2802</name></trkpt>
<trkpt lat="54.488431" lon="-3.212142"><ele>753</ele><time>2024-05-31T13:28:54Z</time><name>PT2803</name></trkpt>
<trkpt lat="54.488474" lon="-3.212141"><ele>752</ele><time>2024-05-31T13:28:57Z</time><name>PT2804</name></trkpt>
<trkpt lat="54.488505" lon="-3.212132"><ele>752</ele><time>2024-05-31T13:29:02Z</time><name>PT2805</name></trkpt>
<trkpt lat="54.488536" lon="-3.212113"><ele>752</ele><time>2024-05-31T13:29:06Z</time><name>PT2806</name></trkpt>
<trkpt lat="54.488560" lon="-3.212108"><ele>752</ele><time>2024-05-31T13:29:09Z</time><name>PT2807</name></trkpt>
<trkpt lat="54.488572" lon="-3.212097"><ele>751</ele><time>2024-05-31T13:29:12Z</time><name>PT2808</name></trkpt>
<trkpt lat="54.488576" lon="-3.212090"><ele>751</ele><time>2024-05-31T13:29:17Z</time><name>PT2809</name></trkpt>
<trkpt lat="54.488587" lon="-3.212066"><ele>750</ele><time>2024-05-31T13:29:20Z</time><name>PT2810</name></trkpt>
<trkpt lat="54.488616" lon="-3.212038"><ele>751</ele><time>2024-05-31T13:29:23Z</time><name>PT2811</name></trkpt>
<trkpt lat="54.488638" lon="-3.212005"><ele>751</ele><time>2024-05-31T13:29:26Z</time><name>PT2812</name></trkpt>
<trkpt lat="54.488658" lon="-3.212016"><ele>750</ele><time>2024-05-31T13:29:29Z</time><name>PT2813</name></trkpt>
<trkpt lat="54.488690" lon="-3.212039"><ele>749</ele><time>2024-05-31T13:29:33Z</time><name>PT2814</name></trkpt>
<trkpt lat="54.488718" lon="-3.212054"><ele>747</ele><time>2024-05-31T13:29:36Z</time><name>PT2815</name></trkpt>
<trkpt lat="54.488745" lon="-3.212070"><ele>746</ele><time>2024-05-31T13:29:39Z</time><name>PT2816</name></trkpt>
<trkpt lat="54.488785" lon="-3.212093"><ele>745</ele><time>2024-05-31T13:29:44Z</time><name>PT2817</name></trkpt>
<trkpt lat="54.488813" lon="-3.212109"><ele>744</ele><time>2024-05-31T13:29:47Z</time><name>PT2818</name></trkpt>
<trkpt lat="54.488846" lon="-3.212114"><ele>743</ele><time>2024-05-31T13:29:51Z</time><name>PT2819</name></trkpt>
<trkpt lat="54.488872" lon="-3.212122"><ele>742</ele><time>2024-05-31T13:29:54Z</time><name>PT2820</name></trkpt>
<trkpt lat="54.488897" lon="-3.212138"><ele>742</ele><time>2024-05-31T13:29:57Z</time><name>PT2821</name></trkpt>
<trkpt lat="54.488921" lon="-3.212147"><ele>741</ele><time>2024-05-31T13:30:00Z</time><name>PT2822</name></trkpt>
<trkpt lat="54.488951" lon="-3.212160"><ele>741</ele><time>2024-05-31T13:30:05Z</time><name>PT2823</name></trkpt>
<trkpt lat="54.488983" lon="-3.212168"><ele>740</ele><time>2024-05-31T13:30:09Z</time><name>PT2824</name></trkpt>
<trkpt lat="54.489008" lon="-3.212161"><ele>739</ele><time>2024-05-31T13:30:12Z</time><name>PT2825</name></trkpt>
<trkpt lat="54.489042" lon="-3.212138"><ele>740</ele><time>2024-05-31T13:30:15Z</time><name>PT2826</name></trkpt>
<trkpt lat="54.489067" lon="-3.212119"><ele>740</ele><time>2024-05-31T13:30:18Z</time><name>PT2827</name></trkpt>
<trkpt lat="54.489088" lon="-3.212094"><ele>740</ele><time>2024-05-31T13:30:21Z</time><name>PT2828</name></trkpt>
<trkpt lat="54.489120" lon="-3.212076"><ele>739</ele><time>2024-05-31T13:30:26Z</time><name>PT2829</name></trkpt>
<trkpt lat="54.489137" lon="-3.212072"><ele>738</ele><time>2024-05-31T13:30:29Z</time><name>PT2830</name></trkpt>
<trkpt lat="54.489161" lon="-3.212052"><ele>738</ele><time>2024-05-31T13:30:33Z</time><name>PT2831</name></trkpt>
<trkpt lat="54.489178" lon="-3.212037"><ele>738</ele><time>2024-05-31T13:30:36Z</time><name>PT2832</name></trkpt>
<trkpt lat="54.489208" lon="-3.212047"><ele>737</ele><time>2024-05-31T13:30:39Z</time><name>PT2833</name></trkpt>
<trkpt lat="54.489236" lon="-3.212066"><ele>737</ele><time>2024-05-31T13:30:44Z</time><name>PT2834</name></trkpt>
<trkpt lat="54.489273" lon="-3.212073"><ele>738</ele><time>2024-05-31T13:30:48Z</time><name>PT2835</name></trkpt>
<trkpt lat="54.489308" lon="-3.212076"><ele>738</ele><time>2024-05-31T13:30:51Z</time><name>PT2836</name></trkpt>
<trkpt lat="54.489330" lon="-3.212074"><ele>738</ele><time>2024-05-31T13:30:54Z</time><name>PT2837</name></trkpt>
<trkpt lat="54.489361" lon="-3.212078"><ele>737</ele><time>2024-05-31T13:30:59Z</time><name>PT2838</name></trkpt>
<trkpt lat="54.489389" lon="-3.212078"><ele>737</ele><time>2024-05-31T13:31:02Z</time><name>PT2839</name></trkpt>
<trkpt lat="54.489415" lon="-3.212076"><ele>737</ele><time>2024-05-31T13:31:06Z</time><name>PT2840</name></trkpt>
<trkpt lat="54.489439" lon="-3.212081"><ele>737</ele><time>2024-05-31T13:31:09Z</time><name>PT2841</name></trkpt>
<trkpt lat="54.489464" lon="-3.212087"><ele>736</ele><time>2024-05-31T13:31:12Z</time><name>PT2842</name></trkpt>
<trkpt lat="54.489490" lon="-3.212094"><ele>736</ele><time>2024-05-31T13:31:17Z</time><name>PT2843</name></trkpt>
<trkpt lat="54.489510" lon="-3.212088"><ele>735</ele><time>2024-05-31T13:31:20Z</time><name>PT2844</name></trkpt>
<trkpt lat="54.489526" lon="-3.212109"><ele>735</ele><time>2024-05-31T13:31:23Z</time><name>PT2845</name></trkpt>
<trkpt lat="54.489556" lon="-3.212127"><ele>734</ele><time>2024-05-31T13:31:27Z</time><name>PT2846</name></trkpt>
<trkpt lat="54.489585" lon="-3.212119"><ele>733</ele><time>2024-05-31T13:31:30Z</time><name>PT2847</name></trkpt>
<trkpt lat="54.489617" lon="-3.212126"><ele>732</ele><time>2024-05-31T13:31:35Z</time><name>PT2848</name></trkpt>
<trkpt lat="54.489651" lon="-3.212140"><ele>732</ele><time>2024-05-31T13:31:39Z</time><name>PT2849</name></trkpt>
<trkpt lat="54.489668" lon="-3.212157"><ele>731</ele><time>2024-05-31T13:31:42Z</time><name>PT2850</name></trkpt>
<trkpt lat="54.489696" lon="-3.212164"><ele>730</ele><time>2024-05-31T13:31:45Z</time><name>PT2851</name></trkpt>
<trkpt lat="54.489708" lon="-3.212175"><ele>729</ele><time>2024-05-31T13:31:48Z</time><name>PT2852</name></trkpt>
<trkpt lat="54.489736" lon="-3.212185"><ele>729</ele><time>2024-05-31T13:31:53Z</time><name>PT2853</name></trkpt>
<trkpt lat="54.489756" lon="-3.212191"><ele>728</ele><time>2024-05-31T13:31:56Z</time><name>PT2854</name></trkpt>
<trkpt lat="54.489774" lon="-3.212211"><ele>727</ele><time>2024-05-31T13:31:59Z</time><name>PT2855</name></trkpt>
<trkpt lat="54.489802" lon="-3.212244"><ele>727</ele><time>2024-05-31T13:32:03Z</time><name>PT2856</name></trkpt>
<trkpt lat="54.489821" lon="-3.212272"><ele>726</ele><time>2024-05-31T13:32:06Z</time><name>PT2857</name></trkpt>
<trkpt lat="54.489836" lon="-3.212306"><ele>725</ele><time>2024-05-31T13:32:09Z</time><name>PT2858</name></trkpt>
<trkpt lat="54.489849" lon="-3.212344"><ele>725</ele><time>2024-05-31T13:32:12Z</time><name>PT2859</name></trkpt>
<trkpt lat="54.489875" lon="-3.212378"><ele>725</ele><time>2024-05-31T13:32:15Z</time><name>PT2860</name></trkpt>
<trkpt lat="54.489892" lon="-3.212384"><ele>724</ele><time>2024-05-31T13:32:18Z</time><name>PT2861</name></trkpt>
<trkpt lat="54.489912" lon="-3.212366"><ele>723</ele><time>2024-05-31T13:32:23Z</time><name>PT2862</name></trkpt>
<trkpt lat="54.489931" lon="-3.212352"><ele>723</ele><time>2024-05-31T13:32:26Z</time><name>PT2863</name></trkpt>
<trkpt lat="54.489956" lon="-3.212327"><ele>722</ele><time>2024-05-31T13:32:30Z</time><name>PT2864</name></trkpt>
<trkpt lat="54.489975" lon="-3.212303"><ele>722</ele><time>2024-05-31T13:32:33Z</time><name>PT2865</name></trkpt>
<trkpt lat="54.489993" lon="-3.212282"><ele>721</ele><time>2024-05-31T13:32:36Z</time><name>PT2866</name></trkpt>
<trkpt lat="54.490016" lon="-3.212265"><ele>720</ele><time>2024-05-31T13:32:39Z</time><name>PT2867</name></trkpt>
<trkpt lat="54.490042" lon="-3.212265"><ele>720</ele><time>2024-05-31T13:32:42Z</time><name>PT2868</name></trkpt>
<trkpt lat="54.490065" lon="-3.212272"><ele>720</ele><time>2024-05-31T13:32:46Z</time><name>PT2869</name></trkpt>
<trkpt lat="54.490100" lon="-3.212293"><ele>720</ele><time>2024-05-31T13:32:50Z</time><name>PT2870</name></trkpt>
<trkpt lat="54.490136" lon="-3.212302"><ele>719</ele><time>2024-05-31T13:32:54Z</time><name>PT2871</name></trkpt>
<trkpt lat="54.490158" lon="-3.212299"><ele>719</ele><time>2024-05-31T13:32:58Z</time><name>PT2872</name></trkpt>
<trkpt lat="54.490166" lon="-3.212295"><ele>719</ele><time>2024-05-31T13:33:02Z</time><name>PT2873</name></trkpt>
<trkpt lat="54.490166" lon="-3.212292"><ele>719</ele><time>2024-05-31T13:33:05Z</time><name>PT2874</name></trkpt>
<trkpt lat="54.490175" lon="-3.212307"><ele>718</ele><time>2024-05-31T13:33:13Z</time><name>PT2875</name></trkpt>
<trkpt lat="54.490189" lon="-3.212333"><ele>717</ele><time>2024-05-31T13:33:16Z</time><name>PT2876</name></trkpt>
<trkpt lat="54.490201" lon="-3.212314"><ele>716</ele><time>2024-05-31T13:33:20Z</time><name>PT2877</name></trkpt>
<trkpt lat="54.490212" lon="-3.212305"><ele>715</ele><time>2024-05-31T13:33:23Z</time><name>PT2878</name></trkpt>
<trkpt lat="54.490223" lon="-3.212283"><ele>715</ele><time>2024-05-31T13:33:26Z</time><name>PT2879</name></trkpt>
<trkpt lat="54.490248" lon="-3.212265"><ele>714</ele><time>2024-05-31T13:33:31Z</time><name>PT2880</name></trkpt>
<trkpt lat="54.490267" lon="-3.212273"><ele>713</ele><time>2024-05-31T13:33:34Z</time><name>PT2881</name></trkpt>
<trkpt lat="54.490279" lon="-3.212306"><ele>712</ele><time>2024-05-31T13:33:38Z</time><name>PT2882</name></trkpt>
<trkpt lat="54.490293" lon="-3.212310"><ele>711</ele><time>2024-05-31T13:33:41Z</time><name>PT2883</name></trkpt>
<trkpt lat="54.490315" lon="-3.212315"><ele>710</ele><time>2024-05-31T13:33:44Z</time><name>PT2884</name></trkpt>
<trkpt lat="54.490331" lon="-3.212341"><ele>709</ele><time>2024-05-31T13:33:47Z</time><name>PT2885</name></trkpt>
<trkpt lat="54.490345" lon="-3.212357"><ele>709</ele><time>2024-05-31T13:33:52Z</time><name>PT2886</name></trkpt>
<trkpt lat="54.490357" lon="-3.212355"><ele>708</ele><time>2024-05-31T13:33:55Z</time><name>PT2887</name></trkpt>
<trkpt lat="54.490363" lon="-3.212351"><ele>708</ele><time>2024-05-31T13:33:59Z</time><name>PT2888</name></trkpt>
<trkpt lat="54.490368" lon="-3.212366"><ele>707</ele><time>2024-05-31T13:34:02Z</time><name>PT2889</name></trkpt>
<trkpt lat="54.490384" lon="-3.212393"><ele>707</ele><time>2024-05-31T13:34:05Z</time><name>PT2890</name></trkpt>
<trkpt lat="54.490386" lon="-3.212395"><ele>707</ele><time>2024-05-31T13:34:08Z</time><name>PT2891</name></trkpt>
<trkpt lat="54.490403" lon="-3.212388"><ele>706</ele><time>2024-05-31T13:34:13Z</time><name>PT2892</name></trkpt>
<trkpt lat="54.490429" lon="-3.212401"><ele>705</ele><time>2024-05-31T13:34:17Z</time><name>PT2893</name></trkpt>
<trkpt lat="54.490451" lon="-3.212419"><ele>705</ele><time>2024-05-31T13:34:20Z</time><name>PT2894</name></trkpt>
<trkpt lat="54.490466" lon="-3.212448"><ele>703</ele><time>2024-05-31T13:34:23Z</time><name>PT2895</name></trkpt>
<trkpt lat="54.490486" lon="-3.212453"><ele>703</ele><time>2024-05-31T13:34:26Z</time><name>PT2896</name></trkpt>
<trkpt lat="54.490493" lon="-3.212441"><ele>702</ele><time>2024-05-31T13:34:29Z</time><name>PT2897</name></trkpt>
<trkpt lat="54.490512" lon="-3.212419"><ele>702</ele><time>2024-05-31T13:34:34Z</time><name>PT2898</name></trkpt>
<trkpt lat="54.490529" lon="-3.212419"><ele>701</ele><time>2024-05-31T13:34:37Z</time><name>PT2899</name></trkpt>
<trkpt lat="54.490546" lon="-3.212435"><ele>700</ele><time>2024-05-31T13:34:41Z</time><name>PT2900</name></trkpt>
<trkpt lat="54.490559" lon="-3.212444"><ele>700</ele><time>2024-05-31T13:34:44Z</time><name>PT2901</name></trkpt>
<trkpt lat="54.490577" lon="-3.212487"><ele>698</ele><time>2024-05-31T13:34:49Z</time><name>PT2902</name></trkpt>
<trkpt lat="54.490600" lon="-3.212513"><ele>698</ele><time>2024-05-31T13:34:53Z</time><name>PT2903</name></trkpt>
<trkpt lat="54.490609" lon="-3.212507"><ele>697</ele><time>2024-05-31T13:34:56Z</time><name>PT2904</name></trkpt>
<trkpt lat="54.490618" lon="-3.212506"><ele>697</ele><time>2024-05-31T13:35:00Z</time><name>PT2905</name></trkpt>
<trkpt lat="54.490616" lon="-3.212492"><ele>697</ele><time>2024-05-31T13:35:03Z</time><name>PT2906</name></trkpt>
<trkpt lat="54.490634" lon="-3.212456"><ele>697</ele><time>2024-05-31T13:35:07Z</time><name>PT2907</name></trkpt>
<trkpt lat="54.490658" lon="-3.212443"><ele>696</ele><time>2024-05-31T13:35:10Z</time><name>PT2908</name></trkpt>
<trkpt lat="54.490703" lon="-3.212442"><ele>695</ele><time>2024-05-31T13:35:13Z</time><name>PT2909</name></trkpt>
<trkpt lat="54.490749" lon="-3.212444"><ele>695</ele><time>2024-05-31T13:35:18Z</time><name>PT2910</name></trkpt>
<trkpt lat="54.490778" lon="-3.212445"><ele>695</ele><time>2024-05-31T13:35:21Z</time><name>PT2911</name></trkpt>
<trkpt lat="54.490801" lon="-3.212455"><ele>694</ele><time>2024-05-31T13:35:25Z</time><name>PT2912</name></trkpt>
<trkpt lat="54.490812" lon="-3.212463"><ele>694</ele><time>2024-05-31T13:35:28Z</time><name>PT2913</name></trkpt>
<trkpt lat="54.490839" lon="-3.212458"><ele>693</ele><time>2024-05-31T13:35:31Z</time><name>PT2914</name></trkpt>
<trkpt lat="54.490872" lon="-3.212435"><ele>693</ele><time>2024-05-31T13:35:36Z</time><name>PT2915</name></trkpt>
<trkpt lat="54.490905" lon="-3.212430"><ele>693</ele><time>2024-05-31T13:35:39Z</time><name>PT2916</name></trkpt>
<trkpt lat="54.490942" lon="-3.212435"><ele>692</ele><time>2024-05-31T13:35:42Z</time><name>PT2917</name></trkpt>
<trkpt lat="54.490965" lon="-3.212427"><ele>692</ele><time>2024-05-31T13:35:45Z</time><name>PT2918</name></trkpt>
<trkpt lat="54.490989" lon="-3.212442"><ele>691</ele><time>2024-05-31T13:35:50Z</time><name>PT2919</name></trkpt>
<trkpt lat="54.491015" lon="-3.212455"><ele>690</ele><time>2024-05-31T13:35:54Z</time><name>PT2920</name></trkpt>
<trkpt lat="54.491025" lon="-3.212459"><ele>690</ele><time>2024-05-31T13:35:57Z</time><name>PT2921</name></trkpt>
<trkpt lat="54.491041" lon="-3.212460"><ele>689</ele><time>2024-05-31T13:36:00Z</time><name>PT2922</name></trkpt>
<trkpt lat="54.491061" lon="-3.212472"><ele>689</ele><time>2024-05-31T13:36:03Z</time><name>PT2923</name></trkpt>
<trkpt lat="54.491070" lon="-3.212471"><ele>689</ele><time>2024-05-31T13:36:08Z</time><name>PT2924</name></trkpt>
<trkpt lat="54.491080" lon="-3.212471"><ele>689</ele><time>2024-05-31T13:36:11Z</time><name>PT2925</name></trkpt>
<trkpt lat="54.491094" lon="-3.212480"><ele>688</ele><time>2024-05-31T13:36:14Z</time><name>PT2926</name></trkpt>
<trkpt lat="54.491117" lon="-3.212491"><ele>688</ele><time>2024-05-31T13:36:18Z</time><name>PT2927</name></trkpt>
<trkpt lat="54.491135" lon="-3.212502"><ele>687</ele><time>2024-05-31T13:36:21Z</time><name>PT2928</name></trkpt>
<trkpt lat="54.491140" lon="-3.212532"><ele>686</ele><time>2024-05-31T13:36:26Z</time><name>PT2929</name></trkpt>
<trkpt lat="54.491157" lon="-3.212536"><ele>686</ele><time>2024-05-31T13:36:30Z</time><name>PT2930</name></trkpt>
<trkpt lat="54.491171" lon="-3.212510"><ele>686</ele><time>2024-05-31T13:36:33Z</time><name>PT2931</name></trkpt>
<trkpt lat="54.491188" lon="-3.212490"><ele>686</ele><time>2024-05-31T13:36:36Z</time><name>PT2932</name></trkpt>
<trkpt lat="54.491199" lon="-3.212485"><ele>686</ele><time>2024-05-31T13:36:39Z</time><name>PT2933</name></trkpt>
<trkpt lat="54.491206" lon="-3.212485"><ele>686</ele><time>2024-05-31T13:36:42Z</time><name>PT2934</name></trkpt>
<trkpt lat="54.491214" lon="-3.212498"><ele>686</ele><time>2024-05-31T13:36:45Z</time><name>PT2935</name></trkpt>
<trkpt lat="54.491232" lon="-3.212519"><ele>685</ele><time>2024-05-31T13:36:50Z</time><name>PT2936</name></trkpt>
<trkpt lat="54.491269" lon="-3.212517"><ele>683</ele><time>2024-05-31T13:36:54Z</time><name>PT2937</name></trkpt>
<trkpt lat="54.491290" lon="-3.212523"><ele>683</ele><time>2024-05-31T13:36:57Z</time><name>PT2938</name></trkpt>
<trkpt lat="54.491328" lon="-3.212506"><ele>683</ele><time>2024-05-31T13:37:00Z</time><name>PT2939</name></trkpt>
<trkpt lat="54.491355" lon="-3.212496"><ele>682</ele><time>2024-05-31T13:37:03Z</time><name>PT2940</name></trkpt>
<trkpt lat="54.491390" lon="-3.212501"><ele>682</ele><time>2024-05-31T13:37:08Z</time><name>PT2941</name></trkpt>
<trkpt lat="54.491421" lon="-3.212484"><ele>682</ele><time>2024-05-31T13:37:12Z</time><name>PT2942</name></trkpt>
<trkpt lat="54.491450" lon="-3.212464"><ele>681</ele><time>2024-05-31T13:37:15Z</time><name>PT2943</name></trkpt>
<trkpt lat="54.491485" lon="-3.212436"><ele>681</ele><time>2024-05-31T13:37:20Z</time><name>PT2944</name></trkpt>
<trkpt lat="54.491488" lon="-3.212381"><ele>681</ele><time>2024-05-31T13:37:24Z</time><name>PT2945</name></trkpt>
<trkpt lat="54.491503" lon="-3.212356"><ele>680</ele><time>2024-05-31T13:37:27Z</time><name>PT2946</name></trkpt>
<trkpt lat="54.491522" lon="-3.212374"><ele>678</ele><time>2024-05-31T13:37:30Z</time><name>PT2947</name></trkpt>
<trkpt lat="54.491550" lon="-3.212363"><ele>678</ele><time>2024-05-31T13:37:33Z</time><name>PT2948</name></trkpt>
<trkpt lat="54.491587" lon="-3.212374"><ele>677</ele><time>2024-05-31T13:37:38Z</time><name>PT2949</name></trkpt>
<trkpt lat="54.491618" lon="-3.212399"><ele>676</ele><time>2024-05-31T13:37:42Z</time><name>PT2950</name></trkpt>
<trkpt lat="54.491640" lon="-3.212435"><ele>675</ele><time>2024-05-31T13:37:45Z</time><name>PT2951</name></trkpt>
<trkpt lat="54.491666" lon="-3.212464"><ele>675</ele><time>2024-05-31T13:37:50Z</time><name>PT2952</name></trkpt>
<trkpt lat="54.491702" lon="-3.212453"><ele>673</ele><time>2024-05-31T13:37:54Z</time><name>PT2953</name></trkpt>
<trkpt lat="54.491723" lon="-3.212488"><ele>672</ele><time>2024-05-31T13:37:57Z</time><name>PT2954</name></trkpt>
<trkpt lat="54.491741" lon="-3.212521"><ele>671</ele><time>2024-05-31T13:38:00Z</time><name>PT2955</name></trkpt>
<trkpt lat="54.491763" lon="-3.212571"><ele>669</ele><time>2024-05-31T13:38:05Z</time><name>PT2956</name></trkpt>
<trkpt lat="54.491779" lon="-3.212601"><ele>669</ele><time>2024-05-31T13:38:09Z</time><name>PT2957</name></trkpt>
<trkpt lat="54.491802" lon="-3.212589"><ele>668</ele><time>2024-05-31T13:38:12Z</time><name>PT2958</name></trkpt>
<trkpt lat="54.491817" lon="-3.212599"><ele>668</ele><time>2024-05-31T13:38:15Z</time><name>PT2959</name></trkpt>
<trkpt lat="54.491846" lon="-3.212620"><ele>667</ele><time>2024-05-31T13:38:20Z</time><name>PT2960</name></trkpt>
<trkpt lat="54.491869" lon="-3.212641"><ele>666</ele><time>2024-05-31T13:38:24Z</time><name>PT2961</name></trkpt>
<trkpt lat="54.491897" lon="-3.212646"><ele>665</ele><time>2024-05-31T13:38:27Z</time><name>PT2962</name></trkpt>
<trkpt lat="54.491931" lon="-3.212632"><ele>664</ele><time>2024-05-31T13:38:30Z</time><name>PT2963</name></trkpt>
<trkpt lat="54.491957" lon="-3.212618"><ele>664</ele><time>2024-05-31T13:38:33Z</time><name>PT2964</name></trkpt>
<trkpt lat="54.491982" lon="-3.212616"><ele>664</ele><time>2024-05-31T13:38:36Z</time><name>PT2965</name></trkpt>
<trkpt lat="54.492020" lon="-3.212617"><ele>663</ele><time>2024-05-31T13:38:41Z</time><name>PT2966</name></trkpt>
<trkpt lat="54.492062" lon="-3.212615"><ele>662</ele><time>2024-05-31T13:38:45Z</time><name>PT2967</name></trkpt>
<trkpt lat="54.492104" lon="-3.212596"><ele>661</ele><time>2024-05-31T13:38:48Z</time><name>PT2968</name></trkpt>
<trkpt lat="54.492148" lon="-3.212571"><ele>661</ele><time>2024-05-31T13:38:53Z</time><name>PT2969</name></trkpt>
<trkpt lat="54.492192" lon="-3.212565"><ele>660</ele><time>2024-05-31T13:38:57Z</time><name>PT2970</name></trkpt>
<trkpt lat="54.492234" lon="-3.212545"><ele>660</ele><time>2024-05-31T13:39:00Z</time><name>PT2971</name></trkpt>
<trkpt lat="54.492263" lon="-3.212541"><ele>660</ele><time>2024-05-31T13:39:03Z</time><name>PT2972</name></trkpt>
<trkpt lat="54.492309" lon="-3.212536"><ele>660</ele><time>2024-05-31T13:39:08Z</time><name>PT2973</name></trkpt>
<trkpt lat="54.492345" lon="-3.212536"><ele>660</ele><time>2024-05-31T13:39:11Z</time><name>PT2974</name></trkpt>
<trkpt lat="54.492379" lon="-3.212532"><ele>660</ele><time>2024-05-31T13:39:14Z</time><name>PT2975</name></trkpt>
<trkpt lat="54.492404" lon="-3.212525"><ele>660</ele><time>2024-05-31T13:39:17Z</time><name>PT2976</name></trkpt>
<trkpt lat="54.492431" lon="-3.212516"><ele>660</ele><time>2024-05-31T13:39:20Z</time><name>PT2977</name></trkpt>
<trkpt lat="54.492461" lon="-3.212507"><ele>660</ele><time>2024-05-31T13:39:23Z</time><name>PT2978</name></trkpt>
<trkpt lat="54.492491" lon="-3.212507"><ele>659</ele><time>2024-05-31T13:39:26Z</time><name>PT2979</name></trkpt>
<trkpt lat="54.492531" lon="-3.212491"><ele>660</ele><time>2024-05-31T13:39:29Z</time><name>PT2980</name></trkpt>
<trkpt lat="54.492569" lon="-3.212485"><ele>660</ele><time>2024-05-31T13:39:34Z</time><name>PT2981</name></trkpt>
<trkpt lat="54.492601" lon="-3.212474"><ele>661</ele><time>2024-05-31T13:39:37Z</time><name>PT2982</name></trkpt>
<trkpt lat="54.492634" lon="-3.212454"><ele>661</ele><time>2024-05-31T13:39:41Z</time><name>PT2983</name></trkpt>
<trkpt lat="54.492650" lon="-3.212430"><ele>662</ele><time>2024-05-31T13:39:44Z</time><name>PT2984</name></trkpt>
<trkpt lat="54.492661" lon="-3.212411"><ele>662</ele><time>2024-05-31T13:39:47Z</time><name>PT2985</name></trkpt>
<trkpt lat="54.492683" lon="-3.212383"><ele>663</ele><time>2024-05-31T13:39:50Z</time><name>PT2986</name></trkpt>
<trkpt lat="54.492714" lon="-3.212343"><ele>663</ele><time>2024-05-31T13:39:53Z</time><name>PT2987</name></trkpt>
<trkpt lat="54.492753" lon="-3.212316"><ele>664</ele><time>2024-05-31T13:39:58Z</time><name>PT2988</name></trkpt>
<trkpt lat="54.492782" lon="-3.212303"><ele>663</ele><time>2024-05-31T13:40:01Z</time><name>PT2989</name></trkpt>
<trkpt lat="54.492818" lon="-3.212306"><ele>663</ele><time>2024-05-31T13:40:05Z</time><name>PT2990</name></trkpt>
<trkpt lat="54.492848" lon="-3.212312"><ele>663</ele><time>2024-05-31T13:40:08Z</time><name>PT2991</name></trkpt>
<trkpt lat="54.492868" lon="-3.212319"><ele>663</ele><time>2024-05-31T13:40:11Z</time><name>PT2992</name></trkpt>
<trkpt lat="54.492898" lon="-3.212323"><ele>661</ele><time>2024-05-31T13:40:16Z</time><name>PT2993</name></trkpt>
<trkpt lat="54.492918" lon="-3.212313"><ele>661</ele><time>2024-05-31T13:40:19Z</time><name>PT2994</name></trkpt>
<trkpt lat="54.492945" lon="-3.212311"><ele>660</ele><time>2024-05-31T13:40:22Z</time><name>PT2995</name></trkpt>
<trkpt lat="54.492977" lon="-3.212282"><ele>660</ele><time>2024-05-31T13:40:26Z</time><name>PT2996</name></trkpt>
<trkpt lat="54.493020" lon="-3.212276"><ele>659</ele><time>2024-05-31T13:40:29Z</time><name>PT2997</name></trkpt>
<trkpt lat="54.493059" lon="-3.212289"><ele>658</ele><time>2024-05-31T13:40:34Z</time><name>PT2998</name></trkpt>
<trkpt lat="54.493084" lon="-3.212293"><ele>657</ele><time>2024-05-31T13:40:37Z</time><name>PT2999</name></trkpt>
<trkpt lat="54.493112" lon="-3.212303"><ele>658</ele><time>2024-05-31T13:40:40Z</time><name>PT3000</name></trkpt>
<trkpt lat="54.493135" lon="-3.212332"><ele>656</ele><time>2024-05-31T13:40:44Z</time><name>PT3001</name></trkpt>
<trkpt lat="54.493163" lon="-3.212377"><ele>657</ele><time>2024-05-31T13:40:47Z</time><name>PT3002</name></trkpt>
<trkpt lat="54.493188" lon="-3.212375"><ele>657</ele><time>2024-05-31T13:40:50Z</time><name>PT3003</name></trkpt>
<trkpt lat="54.493218" lon="-3.212359"><ele>657</ele><time>2024-05-31T13:40:55Z</time><name>PT3004</name></trkpt>
<trkpt lat="54.493256" lon="-3.212351"><ele>657</ele><time>2024-05-31T13:40:59Z</time><name>PT3005</name></trkpt>
<trkpt lat="54.493282" lon="-3.212342"><ele>657</ele><time>2024-05-31T13:41:02Z</time><name>PT3006</name></trkpt>
<trkpt lat="54.493308" lon="-3.212337"><ele>657</ele><time>2024-05-31T13:41:05Z</time><name>PT3007</name></trkpt>
<trkpt lat="54.493333" lon="-3.212317"><ele>657</ele><time>2024-05-31T13:41:08Z</time><name>PT3008</name></trkpt>
<trkpt lat="54.493366" lon="-3.212300"><ele>658</ele><time>2024-05-31T13:41:13Z</time><name>PT3009</name></trkpt>
<trkpt lat="54.493389" lon="-3.212281"><ele>659</ele><time>2024-05-31T13:41:16Z</time><name>PT3010</name></trkpt>
<trkpt lat="54.493412" lon="-3.212252"><ele>660</ele><time>2024-05-31T13:41:20Z</time><name>PT3011</name></trkpt>
<trkpt lat="54.493422" lon="-3.212223"><ele>660</ele><time>2024-05-31T13:41:23Z</time><name>PT3012</name></trkpt>
<trkpt lat="54.493457" lon="-3.212199"><ele>661</ele><time>2024-05-31T13:41:26Z</time><name>PT3013</name></trkpt>
<trkpt lat="54.493482" lon="-3.212200"><ele>660</ele><time>2024-05-31T13:41:29Z</time><name>PT3014</name></trkpt>
<trkpt lat="54.493517" lon="-3.212188"><ele>661</ele><time>2024-05-31T13:41:34Z</time><name>PT3015</name></trkpt>
<trkpt lat="54.493533" lon="-3.212168"><ele>662</ele><time>2024-05-31T13:41:37Z</time><name>PT3016</name></trkpt>
<trkpt lat="54.493563" lon="-3.212143"><ele>662</ele><time>2024-05-31T13:41:41Z</time><name>PT3017</name></trkpt>
<trkpt lat="54.493595" lon="-3.212137"><ele>662</ele><time>2024-05-31T13:41:44Z</time><name>PT3018</name></trkpt>
<trkpt lat="54.493631" lon="-3.212128"><ele>663</ele><time>2024-05-31T13:41:49Z</time><name>PT3019</name></trkpt>
<trkpt lat="54.493660" lon="-3.212111"><ele>663</ele><time>2024-05-31T13:41:52Z</time><name>PT3020</name></trkpt>
<trkpt lat="54.493688" lon="-3.212103"><ele>663</ele><time>2024-05-31T13:41:55Z</time><name>PT3021</name></trkpt>
<trkpt lat="54.493728" lon="-3.212092"><ele>662</ele><time>2024-05-31T13:41:59Z</time><name>PT3022</name></trkpt>
<trkpt lat="54.493749" lon="-3.212101"><ele>662</ele><time>2024-05-31T13:42:02Z</time><name>PT3023</name></trkpt>
<trkpt lat="54.493786" lon="-3.212091"><ele>663</ele><time>2024-05-31T13:42:05Z</time><name>PT3024</name></trkpt>
<trkpt lat="54.493802" lon="-3.212076"><ele>663</ele><time>2024-05-31T13:42:09Z</time><name>PT3025</name></trkpt>
<trkpt lat="54.493829" lon="-3.212070"><ele>664</ele><time>2024-05-31T13:42:13Z</time><name>PT3026</name></trkpt>
<trkpt lat="54.493855" lon="-3.212053"><ele>665</ele><time>2024-05-31T13:42:16Z</time><name>PT3027</name></trkpt>
<trkpt lat="54.493879" lon="-3.212031"><ele>666</ele><time>2024-05-31T13:42:19Z</time><name>PT3028</name></trkpt>
<trkpt lat="54.493907" lon="-3.212003"><ele>667</ele><time>2024-05-31T13:42:22Z</time><name>PT3029</name></trkpt>
<trkpt lat="54.493942" lon="-3.212003"><ele>668</ele><time>2024-05-31T13:42:27Z</time><name>PT3030</name></trkpt>
<trkpt lat="54.493965" lon="-3.212024"><ele>668</ele><time>2024-05-31T13:42:30Z</time><name>PT3031</name></trkpt>
<trkpt lat="54.493988" lon="-3.212047"><ele>668</ele><time>2024-05-31T13:42:33Z</time><name>PT3032</name></trkpt>
<trkpt lat="54.494013" lon="-3.212074"><ele>668</ele><time>2024-05-31T13:42:37Z</time><name>PT3033</name></trkpt>
<trkpt lat="54.494031" lon="-3.212095"><ele>668</ele><time>2024-05-31T13:42:40Z</time><name>PT3034</name></trkpt>
<trkpt lat="54.494058" lon="-3.212126"><ele>668</ele><time>2024-05-31T13:42:43Z</time><name>PT3035</name></trkpt>
<trkpt lat="54.494078" lon="-3.212154"><ele>668</ele><time>2024-05-31T13:42:46Z</time><name>PT3036</name></trkpt>
<trkpt lat="54.494108" lon="-3.212187"><ele>668</ele><time>2024-05-31T13:42:51Z</time><name>PT3037</name></trkpt>
<trkpt lat="54.494125" lon="-3.212209"><ele>668</ele><time>2024-05-31T13:42:54Z</time><name>PT3038</name></trkpt>
<trkpt lat="54.494138" lon="-3.212227"><ele>668</ele><time>2024-05-31T13:42:57Z</time><name>PT3039</name></trkpt>
<trkpt lat="54.494151" lon="-3.212267"><ele>669</ele><time>2024-05-31T13:43:01Z</time><name>PT3040</name></trkpt>
<trkpt lat="54.494169" lon="-3.212297"><ele>669</ele><time>2024-05-31T13:43:04Z</time><name>PT3041</name></trkpt>
<trkpt lat="54.494182" lon="-3.212321"><ele>669</ele><time>2024-05-31T13:43:09Z</time><name>PT3042</name></trkpt>
<trkpt lat="54.494199" lon="-3.212344"><ele>669</ele><time>2024-05-31T13:43:12Z</time><name>PT3043</name></trkpt>
<trkpt lat="54.494211" lon="-3.212365"><ele>670</ele><time>2024-05-31T13:43:15Z</time><name>PT3044</name></trkpt>
<trkpt lat="54.494224" lon="-3.212386"><ele>671</ele><time>2024-05-31T13:43:18Z</time><name>PT3045</name></trkpt>
<trkpt lat="54.494245" lon="-3.212421"><ele>671</ele><time>2024-05-31T13:43:21Z</time><name>PT3046</name></trkpt>
<trkpt lat="54.494272" lon="-3.212430"><ele>672</ele><time>2024-05-31T13:43:26Z</time><name>PT3047</name></trkpt>
<trkpt lat="54.494288" lon="-3.212447"><ele>672</ele><time>2024-05-31T13:43:29Z</time><name>PT3048</name></trkpt>
<trkpt lat="54.494309" lon="-3.212470"><ele>672</ele><time>2024-05-31T13:43:32Z</time><name>PT3049</name></trkpt>
<trkpt lat="54.494326" lon="-3.212497"><ele>673</ele><time>2024-05-31T13:43:35Z</time><name>PT3050</name></trkpt>
<trkpt lat="54.494351" lon="-3.212530"><ele>673</ele><time>2024-05-31T13:43:39Z</time><name>PT3051</name></trkpt>
<trkpt lat="54.494361" lon="-3.212560"><ele>672</ele><time>2024-05-31T13:43:42Z</time><name>PT3052</name></trkpt>
<trkpt lat="54.494378" lon="-3.212611"><ele>674</ele><time>2024-05-31T13:43:45Z</time><name>PT3053</name></trkpt>
<trkpt lat="54.494394" lon="-3.212641"><ele>674</ele><time>2024-05-31T13:43:48Z</time><name>PT3054</name></trkpt>
<trkpt lat="54.494426" lon="-3.212644"><ele>674</ele><time>2024-05-31T13:43:53Z</time><name>PT3055</name></trkpt>
<trkpt lat="54.494448" lon="-3.212624"><ele>674</ele><time>2024-05-31T13:43:56Z</time><name>PT3056</name></trkpt>
<trkpt lat="54.494477" lon="-3.212629"><ele>675</ele><time>2024-05-31T13:44:00Z</time><name>PT3057</name></trkpt>
<trkpt lat="54.494500" lon="-3.212640"><ele>676</ele><time>2024-05-31T13:44:03Z</time><name>PT3058</name></trkpt>
<trkpt lat="54.494513" lon="-3.212647"><ele>676</ele><time>2024-05-31T13:44:06Z</time><name>PT3059</name></trkpt>
<trkpt lat="54.494521" lon="-3.212653"><ele>677</ele><time>2024-05-31T13:44:11Z</time><name>PT3060</name></trkpt>
<trkpt lat="54.494523" lon="-3.212651"><ele>676</ele><time>2024-05-31T13:44:14Z</time><name>PT3061</name></trkpt>
<trkpt lat="54.494556" lon="-3.212653"><ele>677</ele><time>2024-05-31T13:44:18Z</time><name>PT3062</name></trkpt>
<trkpt lat="54.494590" lon="-3.212678"><ele>677</ele><time>2024-05-31T13:44:21Z</time><name>PT3063</name></trkpt>
<trkpt lat="54.494621" lon="-3.212669"><ele>678</ele><time>2024-05-31T13:44:26Z</time><name>PT3064</name></trkpt>
<trkpt lat="54.494655" lon="-3.212657"><ele>679</ele><time>2024-05-31T13:44:30Z</time><name>PT3065</name></trkpt>
<trkpt lat="54.494683" lon="-3.212646"><ele>679</ele><time>2024-05-31T13:44:33Z</time><name>PT3066</name></trkpt>
<trkpt lat="54.494718" lon="-3.212645"><ele>680</ele><time>2024-05-31T13:44:36Z</time><name>PT3067</name></trkpt>
<trkpt lat="54.494751" lon="-3.212644"><ele>680</ele><time>2024-05-31T13:44:41Z</time><name>PT3068</name></trkpt>
<trkpt lat="54.494775" lon="-3.212633"><ele>681</ele><time>2024-05-31T13:44:44Z</time><name>PT3069</name></trkpt>
<trkpt lat="54.494808" lon="-3.212638"><ele>681</ele><time>2024-05-31T13:44:48Z</time><name>PT3070</name></trkpt>
<trkpt lat="54.494830" lon="-3.212640"><ele>682</ele><time>2024-05-31T13:44:51Z</time><name>PT3071</name></trkpt>
<trkpt lat="54.494856" lon="-3.212647"><ele>683</ele><time>2024-05-31T13:44:54Z</time><name>PT3072</name></trkpt>
<trkpt lat="54.494887" lon="-3.212637"><ele>684</ele><time>2024-05-31T13:44:59Z</time><name>PT3073</name></trkpt>
<trkpt lat="54.494909" lon="-3.212635"><ele>684</ele><time>2024-05-31T13:45:02Z</time><name>PT3074</name></trkpt>
<trkpt lat="54.494932" lon="-3.212638"><ele>684</ele><time>2024-05-31T13:45:06Z</time><name>PT3075</name></trkpt>
<trkpt lat="54.494954" lon="-3.212633"><ele>685</ele><time>2024-05-31T13:45:09Z</time><name>PT3076</name></trkpt>
<trkpt lat="54.494972" lon="-3.212635"><ele>686</ele><time>2024-05-31T13:45:12Z</time><name>PT3077</name></trkpt>
<trkpt lat="54.495001" lon="-3.212628"><ele>687</ele><time>2024-05-31T13:45:15Z</time><name>PT3078</name></trkpt>
<trkpt lat="54.495018" lon="-3.212635"><ele>687</ele><time>2024-05-31T13:45:18Z</time><name>PT3079</name></trkpt>
<trkpt lat="54.495047" lon="-3.212634"><ele>689</ele><time>2024-05-31T13:45:23Z</time><name>PT3080</name></trkpt>
<trkpt lat="54.495072" lon="-3.212629"><ele>690</ele><time>2024-05-31T13:45:27Z</time><name>PT3081</name></trkpt>
<trkpt lat="54.495094" lon="-3.212620"><ele>691</ele><time>2024-05-31T13:45:30Z</time><name>PT3082</name></trkpt>
<trkpt lat="54.495121" lon="-3.212603"><ele>693</ele><time>2024-05-31T13:45:33Z</time><name>PT3083</name></trkpt>
<trkpt lat="54.495149" lon="-3.212594"><ele>694</ele><time>2024-05-31T13:45:38Z</time><name>PT3084</name></trkpt>
<trkpt lat="54.495169" lon="-3.212594"><ele>694</ele><time>2024-05-31T13:45:41Z</time><name>PT3085</name></trkpt>
<trkpt lat="54.495196" lon="-3.212587"><ele>694</ele><time>2024-05-31T13:45:45Z</time><name>PT3086</name></trkpt>
<trkpt lat="54.495216" lon="-3.212586"><ele>694</ele><time>2024-05-31T13:45:48Z</time><name>PT3087</name></trkpt>
<trkpt lat="54.495239" lon="-3.212584"><ele>695</ele><time>2024-05-31T13:45:51Z</time><name>PT3088</name></trkpt>
<trkpt lat="54.495269" lon="-3.212579"><ele>695</ele><time>2024-05-31T13:45:56Z</time><name>PT3089</name></trkpt>
<trkpt lat="54.495299" lon="-3.212580"><ele>696</ele><time>2024-05-31T13:46:00Z</time><name>PT3090</name></trkpt>
<trkpt lat="54.495319" lon="-3.212580"><ele>696</ele><time>2024-05-31T13:46:03Z</time><name>PT3091</name></trkpt>
<trkpt lat="54.495338" lon="-3.212572"><ele>697</ele><time>2024-05-31T13:46:06Z</time><name>PT3092</name></trkpt>
<trkpt lat="54.495374" lon="-3.212554"><ele>697</ele><time>2024-05-31T13:46:09Z</time><name>PT3093</name></trkpt>
<trkpt lat="54.495396" lon="-3.212549"><ele>698</ele><time>2024-05-31T13:46:12Z</time><name>PT3094</name></trkpt>
<trkpt lat="54.495423" lon="-3.212552"><ele>699</ele><time>2024-05-31T13:46:17Z</time><name>PT3095</name></trkpt>
<trkpt lat="54.495452" lon="-3.212571"><ele>699</ele><time>2024-05-31T13:46:21Z</time><name>PT3096</name></trkpt>
<trkpt lat="54.495471" lon="-3.212577"><ele>700</ele><time>2024-05-31T13:46:24Z</time><name>PT3097</name></trkpt>
<trkpt lat="54.495483" lon="-3.212592"><ele>701</ele><time>2024-05-31T13:46:36Z</time><name>PT3098</name></trkpt>
<trkpt lat="54.495510" lon="-3.212599"><ele>701</ele><time>2024-05-31T13:46:39Z</time><name>PT3099</name></trkpt>
<trkpt lat="54.495546" lon="-3.212609"><ele>701</ele><time>2024-05-31T13:46:45Z</time><name>PT3100</name></trkpt>
<trkpt lat="54.495597" lon="-3.212654"><ele>701</ele><time>2024-05-31T13:46:48Z</time><name>PT3101</name></trkpt>
<trkpt lat="54.495624" lon="-3.212708"><ele>701</ele><time>2024-05-31T13:46:53Z</time><name>PT3102</name></trkpt>
<trkpt lat="54.495645" lon="-3.212734"><ele>702</ele><time>2024-05-31T13:46:56Z</time><name>PT3103</name></trkpt>
<trkpt lat="54.495678" lon="-3.212765"><ele>703</ele><time>2024-05-31T13:47:00Z</time><name>PT3104</name></trkpt>
<trkpt lat="54.495701" lon="-3.212806"><ele>703</ele><time>2024-05-31T13:47:03Z</time><name>PT3105</name></trkpt>
<trkpt lat="54.495733" lon="-3.212850"><ele>703</ele><time>2024-05-31T13:47:08Z</time><name>PT3106</name></trkpt>
<trkpt lat="54.495756" lon="-3.212877"><ele>704</ele><time>2024-05-31T13:47:11Z</time><name>PT3107</name></trkpt>
<trkpt lat="54.495780" lon="-3.212914"><ele>704</ele><time>2024-05-31T13:47:15Z</time><name>PT3108</name></trkpt>
<trkpt lat="54.495799" lon="-3.212939"><ele>705</ele><time>2024-05-31T13:47:18Z</time><name>PT3109</name></trkpt>
<trkpt lat="54.495816" lon="-3.212961"><ele>706</ele><time>2024-05-31T13:47:21Z</time><name>PT3110</name></trkpt>
<trkpt lat="54.495840" lon="-3.212993"><ele>707</ele><time>2024-05-31T13:47:24Z</time><name>PT3111</name></trkpt>
<trkpt lat="54.495860" lon="-3.213036"><ele>707</ele><time>2024-05-31T13:47:29Z</time><name>PT3112</name></trkpt>
<trkpt lat="54.495878" lon="-3.213071"><ele>708</ele><time>2024-05-31T13:47:32Z</time><name>PT3113</name></trkpt>
<trkpt lat="54.495897" lon="-3.213112"><ele>709</ele><time>2024-05-31T13:47:35Z</time><name>PT3114</name></trkpt>
<trkpt lat="54.495908" lon="-3.213148"><ele>708</ele><time>2024-05-31T13:47:38Z</time><name>PT3115</name></trkpt>
<trkpt lat="54.495915" lon="-3.213193"><ele>708</ele><time>2024-05-31T13:47:41Z</time><name>PT3116</name></trkpt>
<trkpt lat="54.495934" lon="-3.213236"><ele>709</ele><time>2024-05-31T13:47:46Z</time><name>PT3117</name></trkpt>
<trkpt lat="54.495956" lon="-3.213283"><ele>710</ele><time>2024-05-31T13:47:50Z</time><name>PT3118</name></trkpt>
<trkpt lat="54.495963" lon="-3.213307"><ele>710</ele><time>2024-05-31T13:47:53Z</time><name>PT3119</name></trkpt>
<trkpt lat="54.495980" lon="-3.213337"><ele>710</ele><time>2024-05-31T13:47:56Z</time><name>PT3120</name></trkpt>
<trkpt lat="54.496003" lon="-3.213340"><ele>711</ele><time>2024-05-31T13:48:01Z</time><name>PT3121</name></trkpt>
<trkpt lat="54.496009" lon="-3.213345"><ele>711</ele><time>2024-05-31T13:48:04Z</time><name>PT3122</name></trkpt>
<trkpt lat="54.496031" lon="-3.213335"><ele>711</ele><time>2024-05-31T13:48:07Z</time><name>PT3123</name></trkpt>
<trkpt lat="54.496045" lon="-3.213310"><ele>711</ele><time>2024-05-31T13:48:11Z</time><name>PT3124</name></trkpt>
<trkpt lat="54.496062" lon="-3.213319"><ele>712</ele><time>2024-05-31T13:48:15Z</time><name>PT3125</name></trkpt>
<trkpt lat="54.496065" lon="-3.213326"><ele>712</ele><time>2024-05-31T13:48:18Z</time><name>PT3126</name></trkpt>
<trkpt lat="54.496071" lon="-3.213326"><ele>712</ele><time>2024-05-31T13:48:21Z</time><name>PT3127</name></trkpt>
<trkpt lat="54.496085" lon="-3.213321"><ele>712</ele><time>2024-05-31T13:48:24Z</time><name>PT3128</name></trkpt>
<trkpt lat="54.496087" lon="-3.213322"><ele>712</ele><time>2024-05-31T13:48:27Z</time><name>PT3129</name></trkpt>
<trkpt lat="54.496089" lon="-3.213322"><ele>714</ele><time>2024-05-31T13:48:34Z</time><name>PT3130</name></trkpt>
<trkpt lat="54.496100" lon="-3.213311"><ele>714</ele><time>2024-05-31T13:48:37Z</time><name>PT3131</name></trkpt>
<trkpt lat="54.496106" lon="-3.213296"><ele>714</ele><time>2024-05-31T13:48:40Z</time><name>PT3132</name></trkpt>
<trkpt lat="54.496132" lon="-3.213298"><ele>713</ele><time>2024-05-31T13:48:45Z</time><name>PT3133</name></trkpt>
<trkpt lat="54.496157" lon="-3.213308"><ele>713</ele><time>2024-05-31T13:48:48Z</time><name>PT3134</name></trkpt>
<trkpt lat="54.496183" lon="-3.213312"><ele>712</ele><time>2024-05-31T13:48:51Z</time><name>PT3135</name></trkpt>
<trkpt lat="54.496222" lon="-3.213321"><ele>713</ele><time>2024-05-31T13:48:55Z</time><name>PT3136</name></trkpt>
<trkpt lat="54.496247" lon="-3.213338"><ele>712</ele><time>2024-05-31T13:48:58Z</time><name>PT3137</name></trkpt>
<trkpt lat="54.496276" lon="-3.213375"><ele>712</ele><time>2024-05-31T13:49:01Z</time><name>PT3138</name></trkpt>
<trkpt lat="54.496305" lon="-3.213395"><ele>712</ele><time>2024-05-31T13:49:04Z</time><name>PT3139</name></trkpt>
<trkpt lat="54.496341" lon="-3.213405"><ele>712</ele><time>2024-05-31T13:49:09Z</time><name>PT3140</name></trkpt>
<trkpt lat="54.496356" lon="-3.213425"><ele>711</ele><time>2024-05-31T13:49:12Z</time><name>PT3141</name></trkpt>
<trkpt lat="54.496377" lon="-3.213466"><ele>711</ele><time>2024-05-31T13:49:15Z</time><name>PT3142</name></trkpt>
<trkpt lat="54.496416" lon="-3.213507"><ele>711</ele><time>2024-05-31T13:49:19Z</time><name>PT3143</name></trkpt>
<trkpt lat="54.496444" lon="-3.213533"><ele>711</ele><time>2024-05-31T13:49:22Z</time><name>PT3144</name></trkpt>
<trkpt lat="54.496472" lon="-3.213583"><ele>712</ele><time>2024-05-31T13:49:25Z</time><name>PT3145</name></trkpt>
<trkpt lat="54.496504" lon="-3.213617"><ele>714</ele><time>2024-05-31T13:49:28Z</time><name>PT3146</name></trkpt>
<trkpt lat="54.496531" lon="-3.213646"><ele>714</ele><time>2024-05-31T13:49:33Z</time><name>PT3147</name></trkpt>
<trkpt lat="54.496555" lon="-3.213672"><ele>714</ele><time>2024-05-31T13:49:37Z</time><name>PT3148</name></trkpt>
<trkpt lat="54.496578" lon="-3.213694"><ele>714</ele><time>2024-05-31T13:49:40Z</time><name>PT3149</name></trkpt>
<trkpt lat="54.496599" lon="-3.213706"><ele>714</ele><time>2024-05-31T13:49:45Z</time><name>PT3150</name></trkpt>
<trkpt lat="54.496611" lon="-3.213728"><ele>714</ele><time>2024-05-31T13:49:49Z</time><name>PT3151</name></trkpt>
<trkpt lat="54.496612" lon="-3.213728"><ele>715</ele><time>2024-05-31T13:49:52Z</time><name>PT3152</name></trkpt>
<trkpt lat="54.496611" lon="-3.213736"><ele>715</ele><time>2024-05-31T13:49:58Z</time><name>PT3153</name></trkpt>
<trkpt lat="54.496611" lon="-3.213735"><ele>715</ele><time>2024-05-31T13:50:01Z</time><name>PT3154</name></trkpt>
<trkpt lat="54.496605" lon="-3.213725"><ele>715</ele><time>2024-05-31T13:50:10Z</time><name>PT3155</name></trkpt>
<trkpt lat="54.496601" lon="-3.213725"><ele>715</ele><time>2024-05-31T13:50:13Z</time><name>PT3156</name></trkpt>
<trkpt lat="54.496601" lon="-3.213724"><ele>715</ele><time>2024-05-31T13:50:18Z</time><name>PT3157</name></trkpt>
<trkpt lat="54.496593" lon="-3.213701"><ele>715</ele><time>2024-05-31T13:50:53Z</time><name>PT3158</name></trkpt>
<trkpt lat="54.496591" lon="-3.213691"><ele>715</ele><time>2024-05-31T13:50:56Z</time><name>PT3159</name></trkpt>
<trkpt lat="54.496590" lon="-3.213690"><ele>716</ele><time>2024-05-31T13:50:59Z</time><name>PT3160</name></trkpt>
<trkpt lat="54.496603" lon="-3.213682"><ele>715</ele><time>2024-05-31T13:53:00Z</time><name>PT3161</name></trkpt>
<trkpt lat="54.496611" lon="-3.213667"><ele>715</ele><time>2024-05-31T13:53:04Z</time><name>PT3162</name></trkpt>
<trkpt lat="54.496620" lon="-3.213644"><ele>715</ele><time>2024-05-31T13:53:07Z</time><name>PT3163</name></trkpt>
<trkpt lat="54.496623" lon="-3.213640"><ele>715</ele><time>2024-05-31T13:53:10Z</time><name>PT3164</name></trkpt>
<trkpt lat="54.496641" lon="-3.213628"><ele>714</ele><time>2024-05-31T13:53:16Z</time><name>PT3165</name></trkpt>
<trkpt lat="54.496669" lon="-3.213581"><ele>714</ele><time>2024-05-31T13:53:19Z</time><name>PT3166</name></trkpt>
<trkpt lat="54.496704" lon="-3.213572"><ele>713</ele><time>2024-05-31T13:53:22Z</time><name>PT3167</name></trkpt>
<trkpt lat="54.496737" lon="-3.213563"><ele>712</ele><time>2024-05-31T13:53:25Z</time><name>PT3168</name></trkpt>
<trkpt lat="54.496786" lon="-3.213531"><ele>713</ele><time>2024-05-31T13:53:30Z</time><name>PT3169</name></trkpt>
<trkpt lat="54.496816" lon="-3.213515"><ele>712</ele><time>2024-05-31T13:53:33Z</time><name>PT3170</name></trkpt>
<trkpt lat="54.496855" lon="-3.213494"><ele>712</ele><time>2024-05-31T13:53:36Z</time><name>PT3171</name></trkpt>
<trkpt lat="54.496897" lon="-3.213469"><ele>712</ele><time>2024-05-31T13:53:39Z</time><name>PT3172</name></trkpt>
<trkpt lat="54.496939" lon="-3.213434"><ele>712</ele><time>2024-05-31T13:53:42Z</time><name>PT3173</name></trkpt>
<trkpt lat="54.496973" lon="-3.213399"><ele>712</ele><time>2024-05-31T13:53:45Z</time><name>PT3174</name></trkpt>
<trkpt lat="54.497007" lon="-3.213365"><ele>711</ele><time>2024-05-31T13:53:50Z</time><name>PT3175</name></trkpt>
<trkpt lat="54.497043" lon="-3.213347"><ele>711</ele><time>2024-05-31T13:53:54Z</time><name>PT3176</name></trkpt>
<trkpt lat="54.497074" lon="-3.213318"><ele>710</ele><time>2024-05-31T13:53:57Z</time><name>PT3177</name></trkpt>
<trkpt lat="54.497121" lon="-3.213296"><ele>710</ele><time>2024-05-31T13:54:00Z</time><name>PT3178</name></trkpt>
<trkpt lat="54.497169" lon="-3.213284"><ele>710</ele><time>2024-05-31T13:54:05Z</time><name>PT3179</name></trkpt>
<trkpt lat="54.497207" lon="-3.213267"><ele>711</ele><time>2024-05-31T13:54:08Z</time><name>PT3180</name></trkpt>
<trkpt lat="54.497244" lon="-3.213254"><ele>711</ele><time>2024-05-31T13:54:11Z</time><name>PT3181</name></trkpt>
<trkpt lat="54.497290" lon="-3.213225"><ele>711</ele><time>2024-05-31T13:54:15Z</time><name>PT3182</name></trkpt>
<trkpt lat="54.497332" lon="-3.213196"><ele>710</ele><time>2024-05-31T13:54:18Z</time><name>PT3183</name></trkpt>
<trkpt lat="54.497372" lon="-3.213163"><ele>709</ele><time>2024-05-31T13:54:23Z</time><name>PT3184</name></trkpt>
<trkpt lat="54.497421" lon="-3.213125"><ele>708</ele><time>2024-05-31T13:54:27Z</time><name>PT3185</name></trkpt>
<trkpt lat="54.497455" lon="-3.213089"><ele>708</ele><time>2024-05-31T13:54:30Z</time><name>PT3186</name></trkpt>
<trkpt lat="54.497498" lon="-3.213045"><ele>708</ele><time>2024-05-31T13:54:33Z</time><name>PT3187</name></trkpt>
<trkpt lat="54.497531" lon="-3.213010"><ele>707</ele><time>2024-05-31T13:54:36Z</time><name>PT3188</name></trkpt>
<trkpt lat="54.497576" lon="-3.212966"><ele>707</ele><time>2024-05-31T13:54:41Z</time><name>PT3189</name></trkpt>
<trkpt lat="54.497613" lon="-3.212945"><ele>709</ele><time>2024-05-31T13:54:45Z</time><name>PT3190</name></trkpt>
<trkpt lat="54.497631" lon="-3.212925"><ele>709</ele><time>2024-05-31T13:54:48Z</time><name>PT3191</name></trkpt>
<trkpt lat="54.497670" lon="-3.212892"><ele>710</ele><time>2024-05-31T13:54:51Z</time><name>PT3192</name></trkpt>
<trkpt lat="54.497705" lon="-3.212858"><ele>710</ele><time>2024-05-31T13:54:56Z</time><name>PT3193</name></trkpt>
<trkpt lat="54.497724" lon="-3.212807"><ele>710</ele><time>2024-05-31T13:55:00Z</time><name>PT3194</name></trkpt>
<trkpt lat="54.497744" lon="-3.212773"><ele>710</ele><time>2024-05-31T13:55:03Z</time><name>PT3195</name></trkpt>
<trkpt lat="54.497776" lon="-3.212724"><ele>709</ele><time>2024-05-31T13:55:06Z</time><name>PT3196</name></trkpt>
<trkpt lat="54.497809" lon="-3.212692"><ele>709</ele><time>2024-05-31T13:55:11Z</time><name>PT3197</name></trkpt>
<trkpt lat="54.497830" lon="-3.212668"><ele>708</ele><time>2024-05-31T13:55:14Z</time><name>PT3198</name></trkpt>
<trkpt lat="54.497855" lon="-3.212628"><ele>708</ele><time>2024-05-31T13:55:18Z</time><name>PT3199</name></trkpt>
<trkpt lat="54.497871" lon="-3.212582"><ele>707</ele><time>2024-05-31T13:55:21Z</time><name>PT3200</name></trkpt>
<trkpt lat="54.497898" lon="-3.212557"><ele>706</ele><time>2024-05-31T13:55:26Z</time><name>PT3201</name></trkpt>
<trkpt lat="54.497918" lon="-3.212535"><ele>705</ele><time>2024-05-31T13:55:29Z</time><name>PT3202</name></trkpt>
<trkpt lat="54.497944" lon="-3.212502"><ele>705</ele><time>2024-05-31T13:55:33Z</time><name>PT3203</name></trkpt>
<trkpt lat="54.497970" lon="-3.212468"><ele>704</ele><time>2024-05-31T13:55:36Z</time><name>PT3204</name></trkpt>
<trkpt lat="54.497988" lon="-3.212438"><ele>704</ele><time>2024-05-31T13:55:39Z</time><name>PT3205</name></trkpt>
<trkpt lat="54.498014" lon="-3.212402"><ele>703</ele><time>2024-05-31T13:55:44Z</time><name>PT3206</name></trkpt>
<trkpt lat="54.498037" lon="-3.212355"><ele>702</ele><time>2024-05-31T13:55:47Z</time><name>PT3207</name></trkpt>
<trkpt lat="54.498063" lon="-3.212302"><ele>701</ele><time>2024-05-31T13:55:51Z</time><name>PT3208</name></trkpt>
<trkpt lat="54.498106" lon="-3.212256"><ele>700</ele><time>2024-05-31T13:55:54Z</time><name>PT3209</name></trkpt>
<trkpt lat="54.498165" lon="-3.212226"><ele>700</ele><time>2024-05-31T13:55:59Z</time><name>PT3210</name></trkpt>
<trkpt lat="54.498213" lon="-3.212207"><ele>700</ele><time>2024-05-31T13:56:03Z</time><name>PT3211</name></trkpt>
<trkpt lat="54.498258" lon="-3.212188"><ele>699</ele><time>2024-05-31T13:56:06Z</time><name>PT3212</name></trkpt>
<trkpt lat="54.498309" lon="-3.212181"><ele>699</ele><time>2024-05-31T13:56:11Z</time><name>PT3213</name></trkpt>
<trkpt lat="54.498340" lon="-3.212147"><ele>699</ele><time>2024-05-31T13:56:15Z</time><name>PT3214</name></trkpt>
<trkpt lat="54.498359" lon="-3.212103"><ele>698</ele><time>2024-05-31T13:56:19Z</time><name>PT3215</name></trkpt>
<trkpt lat="54.498380" lon="-3.212068"><ele>697</ele><time>2024-05-31T13:56:22Z</time><name>PT3216</name></trkpt>
<trkpt lat="54.498395" lon="-3.212017"><ele>696</ele><time>2024-05-31T13:56:26Z</time><name>PT3217</name></trkpt>
<trkpt lat="54.498426" lon="-3.211994"><ele>695</ele><time>2024-05-31T13:56:29Z</time><name>PT3218</name></trkpt>
<trkpt lat="54.498465" lon="-3.211955"><ele>695</ele><time>2024-05-31T13:56:32Z</time><name>PT3219</name></trkpt>
<trkpt lat="54.498492" lon="-3.211931"><ele>694</ele><time>2024-05-31T13:56:35Z</time><name>PT3220</name></trkpt>
<trkpt lat="54.498525" lon="-3.211904"><ele>693</ele><time>2024-05-31T13:56:40Z</time><name>PT3221</name></trkpt>
<trkpt lat="54.498551" lon="-3.211891"><ele>692</ele><time>2024-05-31T13:56:43Z</time><name>PT3222</name></trkpt>
<trkpt lat="54.498584" lon="-3.211861"><ele>690</ele><time>2024-05-31T13:56:46Z</time><name>PT3223</name></trkpt>
<trkpt lat="54.498612" lon="-3.211806"><ele>690</ele><time>2024-05-31T13:56:50Z</time><name>PT3224</name></trkpt>
<trkpt lat="54.498639" lon="-3.211777"><ele>690</ele><time>2024-05-31T13:56:53Z</time><name>PT3225</name></trkpt>
<trkpt lat="54.498681" lon="-3.211729"><ele>690</ele><time>2024-05-31T13:56:57Z</time><name>PT3226</name></trkpt>
<trkpt lat="54.498712" lon="-3.211713"><ele>689</ele><time>2024-05-31T13:57:00Z</time><name>PT3227</name></trkpt>
<trkpt lat="54.498756" lon="-3.211670"><ele>689</ele><time>2024-05-31T13:57:04Z</time><name>PT3228</name></trkpt>
<trkpt lat="54.498791" lon="-3.211632"><ele>688</ele><time>2024-05-31T13:57:07Z</time><name>PT3229</name></trkpt>
<trkpt lat="54.498830" lon="-3.211577"><ele>689</ele><time>2024-05-31T13:57:11Z</time><name>PT3230</name></trkpt>
<trkpt lat="54.498860" lon="-3.211542"><ele>689</ele><time>2024-05-31T13:57:14Z</time><name>PT3231</name></trkpt>
<trkpt lat="54.498902" lon="-3.211483"><ele>688</ele><time>2024-05-31T13:57:18Z</time><name>PT3232</name></trkpt>
<trkpt lat="54.498926" lon="-3.211438"><ele>688</ele><time>2024-05-31T13:57:21Z</time><name>PT3233</name></trkpt>
<trkpt lat="54.498971" lon="-3.211394"><ele>688</ele><time>2024-05-31T13:57:24Z</time><name>PT3234</name></trkpt>
<trkpt lat="54.499000" lon="-3.211325"><ele>687</ele><time>2024-05-31T13:57:29Z</time><name>PT3235</name></trkpt>
<trkpt lat="54.499037" lon="-3.211272"><ele>686</ele><time>2024-05-31T13:57:33Z</time><name>PT3236</name></trkpt>
<trkpt lat="54.499081" lon="-3.211226"><ele>685</ele><time>2024-05-31T13:57:36Z</time><name>PT3237</name></trkpt>
<trkpt lat="54.499126" lon="-3.211195"><ele>685</ele><time>2024-05-31T13:57:41Z</time><name>PT3238</name></trkpt>
<trkpt lat="54.499161" lon="-3.211151"><ele>684</ele><time>2024-05-31T13:57:45Z</time><name>PT3239</name></trkpt>
<trkpt lat="54.499190" lon="-3.211131"><ele>684</ele><time>2024-05-31T13:57:48Z</time><name>PT3240</name></trkpt>
<trkpt lat="54.499216" lon="-3.211086"><ele>684</ele><time>2024-05-31T13:57:53Z</time><name>PT3241</name></trkpt>
<trkpt lat="54.499245" lon="-3.211029"><ele>682</ele><time>2024-05-31T13:57:57Z</time><name>PT3242</name></trkpt>
<trkpt lat="54.499274" lon="-3.210994"><ele>681</ele><time>2024-05-31T13:58:00Z</time><name>PT3243</name></trkpt>
<trkpt lat="54.499312" lon="-3.210961"><ele>682</ele><time>2024-05-31T13:58:03Z</time><name>PT3244</name></trkpt>
<trkpt lat="54.499355" lon="-3.210912"><ele>682</ele><time>2024-05-31T13:58:06Z</time><name>PT3245</name></trkpt>
<trkpt lat="54.499398" lon="-3.210857"><ele>683</ele><time>2024-05-31T13:58:11Z</time><name>PT3246</name></trkpt>
<trkpt lat="54.499445" lon="-3.210791"><ele>683</ele><time>2024-05-31T13:58:15Z</time><name>PT3247</name></trkpt>
<trkpt lat="54.499478" lon="-3.210760"><ele>683</ele><time>2024-05-31T13:58:18Z</time><name>PT3248</name></trkpt>
<trkpt lat="54.499518" lon="-3.210712"><ele>684</ele><time>2024-05-31T13:58:21Z</time><name>PT3249</name></trkpt>
<trkpt lat="54.499561" lon="-3.210677"><ele>684</ele><time>2024-05-31T13:58:26Z</time><name>PT3250</name></trkpt>
<trkpt lat="54.499593" lon="-3.210648"><ele>684</ele><time>2024-05-31T13:58:29Z</time><name>PT3251</name></trkpt>
<trkpt lat="54.499632" lon="-3.210625"><ele>684</ele><time>2024-05-31T13:58:32Z</time><name>PT3252</name></trkpt>
<trkpt lat="54.499666" lon="-3.210599"><ele>683</ele><time>2024-05-31T13:58:35Z</time><name>PT3253</name></trkpt>
<trkpt lat="54.499716" lon="-3.210565"><ele>684</ele><time>2024-05-31T13:58:39Z</time><name>PT3254</name></trkpt>
<trkpt lat="54.499753" lon="-3.210541"><ele>684</ele><time>2024-05-31T13:58:42Z</time><name>PT3255</name></trkpt>
<trkpt lat="54.499802" lon="-3.210509"><ele>685</ele><time>2024-05-31T13:58:45Z</time><name>PT3256</name></trkpt>
<trkpt lat="54.499834" lon="-3.210490"><ele>684</ele><time>2024-05-31T13:58:48Z</time><name>PT3257</name></trkpt>
<trkpt lat="54.499875" lon="-3.210466"><ele>685</ele><time>2024-05-31T13:58:53Z</time><name>PT3258</name></trkpt>
<trkpt lat="54.499907" lon="-3.210440"><ele>685</ele><time>2024-05-31T13:58:56Z</time><name>PT3259</name></trkpt>
<trkpt lat="54.499934" lon="-3.210405"><ele>685</ele><time>2024-05-31T13:58:59Z</time><name>PT3260</name></trkpt>
<trkpt lat="54.499972" lon="-3.210366"><ele>685</ele><time>2024-05-31T13:59:03Z</time><name>PT3261</name></trkpt>
<trkpt lat="54.500018" lon="-3.210321"><ele>685</ele><time>2024-05-31T13:59:06Z</time><name>PT3262</name></trkpt>
<trkpt lat="54.500056" lon="-3.210289"><ele>685</ele><time>2024-05-31T13:59:09Z</time><name>PT3263</name></trkpt>
<trkpt lat="54.500099" lon="-3.210239"><ele>683</ele><time>2024-05-31T13:59:14Z</time><name>PT3264</name></trkpt>
<trkpt lat="54.500128" lon="-3.210205"><ele>683</ele><time>2024-05-31T13:59:17Z</time><name>PT3265</name></trkpt>
<trkpt lat="54.500157" lon="-3.210172"><ele>682</ele><time>2024-05-31T13:59:20Z</time><name>PT3266</name></trkpt>
<trkpt lat="54.500200" lon="-3.210147"><ele>682</ele><time>2024-05-31T13:59:23Z</time><name>PT3267</name></trkpt>
<trkpt lat="54.500250" lon="-3.210131"><ele>681</ele><time>2024-05-31T13:59:28Z</time><name>PT3268</name></trkpt>
<trkpt lat="54.500294" lon="-3.210096"><ele>681</ele><time>2024-05-31T13:59:32Z</time><name>PT3269</name></trkpt>
<trkpt lat="54.500320" lon="-3.210080"><ele>682</ele><time>2024-05-31T13:59:35Z</time><name>PT3270</name></trkpt>
<trkpt lat="54.500354" lon="-3.210074"><ele>683</ele><time>2024-05-31T13:59:38Z</time><name>PT3271</name></trkpt>
<trkpt lat="54.500375" lon="-3.210057"><ele>683</ele><time>2024-05-31T13:59:41Z</time><name>PT3272</name></trkpt>
<trkpt lat="54.500403" lon="-3.210031"><ele>684</ele><time>2024-05-31T13:59:46Z</time><name>PT3273</name></trkpt>
<trkpt lat="54.500426" lon="-3.210021"><ele>684</ele><time>2024-05-31T13:59:49Z</time><name>PT3274</name></trkpt>
<trkpt lat="54.500459" lon="-3.210003"><ele>685</ele><time>2024-05-31T13:59:52Z</time><name>PT3275</name></trkpt>
<trkpt lat="54.500498" lon="-3.209973"><ele>685</ele><time>2024-05-31T13:59:56Z</time><name>PT3276</name></trkpt>
<trkpt lat="54.500543" lon="-3.209943"><ele>687</ele><time>2024-05-31T13:59:59Z</time><name>PT3277</name></trkpt>
<trkpt lat="54.500582" lon="-3.209931"><ele>687</ele><time>2024-05-31T14:00:04Z</time><name>PT3278</name></trkpt>
<trkpt lat="54.500618" lon="-3.209912"><ele>688</ele><time>2024-05-31T14:00:08Z</time><name>PT3279</name></trkpt>
<trkpt lat="54.500644" lon="-3.209887"><ele>689</ele><time>2024-05-31T14:00:11Z</time><name>PT3280</name></trkpt>
<trkpt lat="54.500683" lon="-3.209850"><ele>689</ele><time>2024-05-31T14:00:14Z</time><name>PT3281</name></trkpt>
<trkpt lat="54.500716" lon="-3.209821"><ele>688</ele><time>2024-05-31T14:00:17Z</time><name>PT3282</name></trkpt>
<trkpt lat="54.500757" lon="-3.209784"><ele>688</ele><time>2024-05-31T14:00:22Z</time><name>PT3283</name></trkpt>
<trkpt lat="54.500795" lon="-3.209743"><ele>688</ele><time>2024-05-31T14:00:26Z</time><name>PT3284</name></trkpt>
<trkpt lat="54.500830" lon="-3.209723"><ele>688</ele><time>2024-05-31T14:00:29Z</time><name>PT3285</name></trkpt>
<trkpt lat="54.500872" lon="-3.209696"><ele>689</ele><time>2024-05-31T14:00:33Z</time><name>PT3286</name></trkpt>
<trkpt lat="54.500897" lon="-3.209662"><ele>689</ele><time>2024-05-31T14:00:36Z</time><name>PT3287</name></trkpt>
<trkpt lat="54.500935" lon="-3.209636"><ele>690</ele><time>2024-05-31T14:00:40Z</time><name>PT3288</name></trkpt>
<trkpt lat="54.500956" lon="-3.209616"><ele>689</ele><time>2024-05-31T14:00:43Z</time><name>PT3289</name></trkpt>
<trkpt lat="54.500980" lon="-3.209597"><ele>689</ele><time>2024-05-31T14:00:46Z</time><name>PT3290</name></trkpt>
<trkpt lat="54.500996" lon="-3.209560"><ele>688</ele><time>2024-05-31T14:00:49Z</time><name>PT3291</name></trkpt>
<trkpt lat="54.501016" lon="-3.209542"><ele>687</ele><time>2024-05-31T14:00:52Z</time><name>PT3292</name></trkpt>
<trkpt lat="54.501050" lon="-3.209519"><ele>687</ele><time>2024-05-31T14:00:57Z</time><name>PT3293</name></trkpt>
<trkpt lat="54.501076" lon="-3.209493"><ele>687</ele><time>2024-05-31T14:01:01Z</time><name>PT3294</name></trkpt>
<trkpt lat="54.501094" lon="-3.209456"><ele>686</ele><time>2024-05-31T14:01:04Z</time><name>PT3295</name></trkpt>
<trkpt lat="54.501115" lon="-3.209418"><ele>686</ele><time>2024-05-31T14:01:07Z</time><name>PT3296</name></trkpt>
<trkpt lat="54.501158" lon="-3.209385"><ele>687</ele><time>2024-05-31T14:01:10Z</time><name>PT3297</name></trkpt>
<trkpt lat="54.501184" lon="-3.209395"><ele>686</ele><time>2024-05-31T14:01:13Z</time><name>PT3298</name></trkpt>
<trkpt lat="54.501204" lon="-3.209386"><ele>686</ele><time>2024-05-31T14:01:18Z</time><name>PT3299</name></trkpt>
<trkpt lat="54.501224" lon="-3.209379"><ele>686</ele><time>2024-05-31T14:01:22Z</time><name>PT3300</name></trkpt>
<trkpt lat="54.501236" lon="-3.209372"><ele>687</ele><time>2024-05-31T14:01:25Z</time><name>PT3301</name></trkpt>
<trkpt lat="54.501245" lon="-3.209367"><ele>687</ele><time>2024-05-31T14:01:28Z</time><name>PT3302</name></trkpt>
<trkpt lat="54.501274" lon="-3.209338"><ele>688</ele><time>2024-05-31T14:01:36Z</time><name>PT3303</name></trkpt>
<trkpt lat="54.501305" lon="-3.209291"><ele>686</ele><time>2024-05-31T14:01:39Z</time><name>PT3304</name></trkpt>
<trkpt lat="54.501330" lon="-3.209265"><ele>686</ele><time>2024-05-31T14:01:42Z</time><name>PT3305</name></trkpt>
<trkpt lat="54.501357" lon="-3.209240"><ele>686</ele><time>2024-05-31T14:01:45Z</time><name>PT3306</name></trkpt>
<trkpt lat="54.501381" lon="-3.209211"><ele>685</ele><time>2024-05-31T14:01:50Z</time><name>PT3307</name></trkpt>
<trkpt lat="54.501403" lon="-3.209178"><ele>686</ele><time>2024-05-31T14:01:53Z</time><name>PT3308</name></trkpt>
<trkpt lat="54.501445" lon="-3.209144"><ele>687</ele><time>2024-05-31T14:01:57Z</time><name>PT3309</name></trkpt>
<trkpt lat="54.501473" lon="-3.209116"><ele>687</ele><time>2024-05-31T14:02:00Z</time><name>PT3310</name></trkpt>
<trkpt lat="54.501502" lon="-3.209071"><ele>687</ele><time>2024-05-31T14:02:03Z</time><name>PT3311</name></trkpt>
<trkpt lat="54.501512" lon="-3.209034"><ele>687</ele><time>2024-05-31T14:02:06Z</time><name>PT3312</name></trkpt>
<trkpt lat="54.501524" lon="-3.208985"><ele>688</ele><time>2024-05-31T14:02:09Z</time><name>PT3313</name></trkpt>
<trkpt lat="54.501547" lon="-3.208951"><ele>687</ele><time>2024-05-31T14:02:13Z</time><name>PT3314</name></trkpt>
<trkpt lat="54.501566" lon="-3.208920"><ele>688</ele><time>2024-05-31T14:02:16Z</time><name>PT3315</name></trkpt>
<trkpt lat="54.501594" lon="-3.208891"><ele>688</ele><time>2024-05-31T14:02:19Z</time><name>PT3316</name></trkpt>
<trkpt lat="54.501630" lon="-3.208857"><ele>689</ele><time>2024-05-31T14:02:23Z</time><name>PT3317</name></trkpt>
<trkpt lat="54.501668" lon="-3.208822"><ele>688</ele><time>2024-05-31T14:02:26Z</time><name>PT3318</name></trkpt>
<trkpt lat="54.501697" lon="-3.208802"><ele>689</ele><time>2024-05-31T14:02:29Z</time><name>PT3319</name></trkpt>
<trkpt lat="54.501738" lon="-3.208769"><ele>688</ele><time>2024-05-31T14:02:34Z</time><name>PT3320</name></trkpt>
<trkpt lat="54.501780" lon="-3.208738"><ele>688</ele><time>2024-05-31T14:02:38Z</time><name>PT3321</name></trkpt>
<trkpt lat="54.501807" lon="-3.208709"><ele>687</ele><time>2024-05-31T14:02:41Z</time><name>PT3322</name></trkpt>
<trkpt lat="54.501845" lon="-3.208673"><ele>687</ele><time>2024-05-31T14:02:44Z</time><name>PT3323</name></trkpt>
<trkpt lat="54.501870" lon="-3.208628"><ele>687</ele><time>2024-05-31T14:02:47Z</time><name>PT3324</name></trkpt>
<trkpt lat="54.501891" lon="-3.208582"><ele>687</ele><time>2024-05-31T14:02:50Z</time><name>PT3325</name></trkpt>
<trkpt lat="54.501925" lon="-3.208527"><ele>687</ele><time>2024-05-31T14:02:55Z</time><name>PT3326</name></trkpt>
<trkpt lat="54.501959" lon="-3.208479"><ele>688</ele><time>2024-05-31T14:02:59Z</time><name>PT3327</name></trkpt>
<trkpt lat="54.501985" lon="-3.208448"><ele>689</ele><time>2024-05-31T14:03:02Z</time><name>PT3328</name></trkpt>
<trkpt lat="54.502019" lon="-3.208396"><ele>690</ele><time>2024-05-31T14:03:05Z</time><name>PT3329</name></trkpt>
<trkpt lat="54.502053" lon="-3.208362"><ele>690</ele><time>2024-05-31T14:03:10Z</time><name>PT3330</name></trkpt>
<trkpt lat="54.502078" lon="-3.208321"><ele>689</ele><time>2024-05-31T14:03:13Z</time><name>PT3331</name></trkpt>
<trkpt lat="54.502102" lon="-3.208254"><ele>690</ele><time>2024-05-31T14:03:17Z</time><name>PT3332</name></trkpt>
<trkpt lat="54.502133" lon="-3.208186"><ele>691</ele><time>2024-05-31T14:03:20Z</time><name>PT3333</name></trkpt>
<trkpt lat="54.502153" lon="-3.208126"><ele>692</ele><time>2024-05-31T14:03:25Z</time><name>PT3334</name></trkpt>
<trkpt lat="54.502178" lon="-3.208068"><ele>692</ele><time>2024-05-31T14:03:29Z</time><name>PT3335</name></trkpt>
<trkpt lat="54.502200" lon="-3.208010"><ele>692</ele><time>2024-05-31T14:03:32Z</time><name>PT3336</name></trkpt>
<trkpt lat="54.502215" lon="-3.207963"><ele>692</ele><time>2024-05-31T14:03:35Z</time><name>PT3337</name></trkpt>
<trkpt lat="54.502242" lon="-3.207904"><ele>691</ele><time>2024-05-31T14:03:38Z</time><name>PT3338</name></trkpt>
<trkpt lat="54.502266" lon="-3.207848"><ele>691</ele><time>2024-05-31T14:03:43Z</time><name>PT3339</name></trkpt>
<trkpt lat="54.502296" lon="-3.207800"><ele>692</ele><time>2024-05-31T14:03:47Z</time><name>PT3340</name></trkpt>
<trkpt lat="54.502325" lon="-3.207775"><ele>693</ele><time>2024-05-31T14:03:50Z</time><name>PT3341</name></trkpt>
<trkpt lat="54.502350" lon="-3.207761"><ele>693</ele><time>2024-05-31T14:03:53Z</time><name>PT3342</name></trkpt>
<trkpt lat="54.502382" lon="-3.207745"><ele>693</ele><time>2024-05-31T14:03:56Z</time><name>PT3343</name></trkpt>
<trkpt lat="54.502409" lon="-3.207726"><ele>693</ele><time>2024-05-31T14:03:59Z</time><name>PT3344</name></trkpt>
<trkpt lat="54.502422" lon="-3.207683"><ele>693</ele><time>2024-05-31T14:04:04Z</time><name>PT3345</name></trkpt>
<trkpt lat="54.502424" lon="-3.207651"><ele>692</ele><time>2024-05-31T14:04:08Z</time><name>PT3346</name></trkpt>
<trkpt lat="54.502429" lon="-3.207600"><ele>690</ele><time>2024-05-31T14:04:11Z</time><name>PT3347</name></trkpt>
<trkpt lat="54.502448" lon="-3.207537"><ele>689</ele><time>2024-05-31T14:04:16Z</time><name>PT3348</name></trkpt>
<trkpt lat="54.502472" lon="-3.207541"><ele>689</ele><time>2024-05-31T14:04:19Z</time><name>PT3349</name></trkpt>
<trkpt lat="54.502506" lon="-3.207556"><ele>689</ele><time>2024-05-31T14:04:22Z</time><name>PT3350</name></trkpt>
<trkpt lat="54.502538" lon="-3.207572"><ele>688</ele><time>2024-05-31T14:04:25Z</time><name>PT3351</name></trkpt>
<trkpt lat="54.502584" lon="-3.207569"><ele>690</ele><time>2024-05-31T14:04:29Z</time><name>PT3352</name></trkpt>
<trkpt lat="54.502624" lon="-3.207556"><ele>691</ele><time>2024-05-31T14:04:32Z</time><name>PT3353</name></trkpt>
<trkpt lat="54.502655" lon="-3.207541"><ele>690</ele><time>2024-05-31T14:04:37Z</time><name>PT3354</name></trkpt>
<trkpt lat="54.502676" lon="-3.207537"><ele>691</ele><time>2024-05-31T14:04:40Z</time><name>PT3355</name></trkpt>
<trkpt lat="54.502704" lon="-3.207523"><ele>690</ele><time>2024-05-31T14:04:44Z</time><name>PT3356</name></trkpt>
<trkpt lat="54.502718" lon="-3.207505"><ele>691</ele><time>2024-05-31T14:04:47Z</time><name>PT3357</name></trkpt>
<trkpt lat="54.502726" lon="-3.207501"><ele>691</ele><time>2024-05-31T14:04:50Z</time><name>PT3358</name></trkpt>
<trkpt lat="54.502727" lon="-3.207486"><ele>692</ele><time>2024-05-31T14:04:53Z</time><name>PT3359</name></trkpt>
<trkpt lat="54.502741" lon="-3.207472"><ele>692</ele><time>2024-05-31T14:04:57Z</time><name>PT3360</name></trkpt>
<trkpt lat="54.502753" lon="-3.207445"><ele>692</ele><time>2024-05-31T14:05:00Z</time><name>PT3361</name></trkpt>
<trkpt lat="54.502766" lon="-3.207410"><ele>693</ele><time>2024-05-31T14:05:04Z</time><name>PT3362</name></trkpt>
<trkpt lat="54.502768" lon="-3.207402"><ele>694</ele><time>2024-05-31T14:05:07Z</time><name>PT3363</name></trkpt>
<trkpt lat="54.502768" lon="-3.207400"><ele>694</ele><time>2024-05-31T14:05:10Z</time><name>PT3364</name></trkpt>
<trkpt lat="54.502771" lon="-3.207392"><ele>694</ele><time>2024-05-31T14:05:18Z</time><name>PT3365</name></trkpt>
<trkpt lat="54.502774" lon="-3.207394"><ele>694</ele><time>2024-05-31T14:05:21Z</time><name>PT3366</name></trkpt>
<trkpt lat="54.502777" lon="-3.207375"><ele>696</ele><time>2024-05-31T14:05:25Z</time><name>PT3367</name></trkpt>
<trkpt lat="54.502777" lon="-3.207370"><ele>696</ele><time>2024-05-31T14:05:32Z</time><name>PT3368</name></trkpt>
<trkpt lat="54.502790" lon="-3.207379"><ele>696</ele><time>2024-05-31T14:05:35Z</time><name>PT3369</name></trkpt>
<trkpt lat="54.502796" lon="-3.207386"><ele>697</ele><time>2024-05-31T14:05:40Z</time><name>PT3370</name></trkpt>
<trkpt lat="54.502796" lon="-3.207387"><ele>697</ele><time>2024-05-31T14:05:44Z</time><name>PT3371</name></trkpt>
<trkpt lat="54.502792" lon="-3.207393"><ele>697</ele><time>2024-05-31T14:06:11Z</time><name>PT3372</name></trkpt>
<trkpt lat="54.502789" lon="-3.207393"><ele>697</ele><time>2024-05-31T14:06:14Z</time><name>PT3373</name></trkpt>
<trkpt lat="54.502785" lon="-3.207400"><ele>697</ele><time>2024-05-31T14:06:29Z</time><name>PT3374</name></trkpt>
<trkpt lat="54.502784" lon="-3.207402"><ele>697</ele><time>2024-05-31T14:06:32Z</time><name>PT3375</name></trkpt>
<trkpt lat="54.502788" lon="-3.207403"><ele>698</ele><time>2024-05-31T14:07:16Z</time><name>PT3376</name></trkpt>
<trkpt lat="54.502789" lon="-3.207404"><ele>698</ele><time>2024-05-31T14:07:19Z</time><name>PT3377</name></trkpt>
<trkpt lat="54.502798" lon="-3.207418"><ele>698</ele><time>2024-05-31T14:07:45Z</time><name>PT3378</name></trkpt>
<trkpt lat="54.502802" lon="-3.207418"><ele>698</ele><time>2024-05-31T14:07:49Z</time><name>PT3379</name></trkpt>
<trkpt lat="54.502802" lon="-3.207425"><ele>698</ele><time>2024-05-31T14:07:52Z</time><name>PT3380</name></trkpt>
<trkpt lat="54.502804" lon="-3.207421"><ele>699</ele><time>2024-05-31T14:07:55Z</time><name>PT3381</name></trkpt>
<trkpt lat="54.502804" lon="-3.207416"><ele>698</ele><time>2024-05-31T14:07:58Z</time><name>PT3382</name></trkpt>
<trkpt lat="54.502805" lon="-3.207424"><ele>697</ele><time>2024-05-31T14:08:03Z</time><name>PT3383</name></trkpt>
<trkpt lat="54.502807" lon="-3.207435"><ele>697</ele><time>2024-05-31T14:08:06Z</time><name>PT3384</name></trkpt>
<trkpt lat="54.502806" lon="-3.207436"><ele>697</ele><time>2024-05-31T14:08:10Z</time><name>PT3385</name></trkpt>
<trkpt lat="54.502807" lon="-3.207452"><ele>697</ele><time>2024-05-31T14:08:13Z</time><name>PT3386</name></trkpt>
<trkpt lat="54.502807" lon="-3.207457"><ele>697</ele><time>2024-05-31T14:08:16Z</time><name>PT3387</name></trkpt>
<trkpt lat="54.502808" lon="-3.207480"><ele>696</ele><time>2024-05-31T14:08:19Z</time><name>PT3388</name></trkpt>
<trkpt lat="54.502809" lon="-3.207493"><ele>696</ele><time>2024-05-31T14:08:24Z</time><name>PT3389</name></trkpt>
<trkpt lat="54.502805" lon="-3.207495"><ele>696</ele><time>2024-05-31T14:08:27Z</time><name>PT3390</name></trkpt>
<trkpt lat="54.502811" lon="-3.207517"><ele>695</ele><time>2024-05-31T14:08:30Z</time><name>PT3391</name></trkpt>
<trkpt lat="54.502812" lon="-3.207537"><ele>694</ele><time>2024-05-31T14:08:34Z</time><name>PT3392</name></trkpt>
<trkpt lat="54.502820" lon="-3.207556"><ele>693</ele><time>2024-05-31T14:08:37Z</time><name>PT3393</name></trkpt>
<trkpt lat="54.502834" lon="-3.207549"><ele>693</ele><time>2024-05-31T14:08:40Z</time><name>PT3394</name></trkpt>
<trkpt lat="54.502839" lon="-3.207523"><ele>692</ele><time>2024-05-31T14:08:43Z</time><name>PT3395</name></trkpt>
<trkpt lat="54.502849" lon="-3.207464"><ele>693</ele><time>2024-05-31T14:08:46Z</time><name>PT3396</name></trkpt>
<trkpt lat="54.502864" lon="-3.207411"><ele>693</ele><time>2024-05-31T14:08:51Z</time><name>PT3397</name></trkpt>
<trkpt lat="54.502859" lon="-3.207360"><ele>691</ele><time>2024-05-31T14:08:55Z</time><name>PT3398</name></trkpt>
<trkpt lat="54.502852" lon="-3.207309"><ele>690</ele><time>2024-05-31T14:08:58Z</time><name>PT3399</name></trkpt>
<trkpt lat="54.502856" lon="-3.207276"><ele>690</ele><time>2024-05-31T14:09:01Z</time><name>PT3400</name></trkpt>
<trkpt lat="54.502872" lon="-3.207221"><ele>690</ele><time>2024-05-31T14:09:06Z</time><name>PT3401</name></trkpt>
<trkpt lat="54.502873" lon="-3.207138"><ele>690</ele><time>2024-05-31T14:09:10Z</time><name>PT3402</name></trkpt>
<trkpt lat="54.502875" lon="-3.207103"><ele>690</ele><time>2024-05-31T14:09:13Z</time><name>PT3403</name></trkpt>
<trkpt lat="54.502881" lon="-3.207048"><ele>690</ele><time>2024-05-31T14:09:16Z</time><name>PT3404</name></trkpt>
<trkpt lat="54.502882" lon="-3.207040"><ele>690</ele><time>2024-05-31T14:09:19Z</time><name>PT3405</name></trkpt>
<trkpt lat="54.502879" lon="-3.206981"><ele>689</ele><time>2024-05-31T14:09:24Z</time><name>PT3406</name></trkpt>
<trkpt lat="54.502878" lon="-3.206918"><ele>689</ele><time>2024-05-31T14:09:28Z</time><name>PT3407</name></trkpt>
<trkpt lat="54.502881" lon="-3.206863"><ele>687</ele><time>2024-05-31T14:09:31Z</time><name>PT3408</name></trkpt>
<trkpt lat="54.502877" lon="-3.206823"><ele>687</ele><time>2024-05-31T14:09:34Z</time><name>PT3409</name></trkpt>
<trkpt lat="54.502880" lon="-3.206795"><ele>687</ele><time>2024-05-31T14:09:39Z</time><name>PT3410</name></trkpt>
<trkpt lat="54.502885" lon="-3.206793"><ele>686</ele><time>2024-05-31T14:09:42Z</time><name>PT3411</name></trkpt>
<trkpt lat="54.502887" lon="-3.206786"><ele>686</ele><time>2024-05-31T14:09:45Z</time><name>PT3412</name></trkpt>
<trkpt lat="54.502898" lon="-3.206746"><ele>687</ele><time>2024-05-31T14:09:49Z</time><name>PT3413</name></trkpt>
<trkpt lat="54.502918" lon="-3.206695"><ele>686</ele><time>2024-05-31T14:09:52Z</time><name>PT3414</name></trkpt>
<trkpt lat="54.502944" lon="-3.206647"><ele>686</ele><time>2024-05-31T14:09:57Z</time><name>PT3415</name></trkpt>
<trkpt lat="54.502965" lon="-3.206613"><ele>686</ele><time>2024-05-31T14:10:01Z</time><name>PT3416</name></trkpt>
<trkpt lat="54.502986" lon="-3.206603"><ele>685</ele><time>2024-05-31T14:10:04Z</time><name>PT3417</name></trkpt>
<trkpt lat="54.503002" lon="-3.206610"><ele>684</ele><time>2024-05-31T14:10:07Z</time><name>PT3418</name></trkpt>
<trkpt lat="54.503025" lon="-3.206608"><ele>683</ele><time>2024-05-31T14:10:10Z</time><name>PT3419</name></trkpt>
<trkpt lat="54.503066" lon="-3.206597"><ele>681</ele><time>2024-05-31T14:10:13Z</time><name>PT3420</name></trkpt>
<trkpt lat="54.503100" lon="-3.206585"><ele>681</ele><time>2024-05-31T14:10:16Z</time><name>PT3421</name></trkpt>
<trkpt lat="54.503134" lon="-3.206585"><ele>680</ele><time>2024-05-31T14:10:21Z</time><name>PT3422</name></trkpt>
<trkpt lat="54.503161" lon="-3.206575"><ele>678</ele><time>2024-05-31T14:10:25Z</time><name>PT3423</name></trkpt>
<trkpt lat="54.503194" lon="-3.206573"><ele>677</ele><time>2024-05-31T14:10:28Z</time><name>PT3424</name></trkpt>
<trkpt lat="54.503236" lon="-3.206553"><ele>677</ele><time>2024-05-31T14:10:33Z</time><name>PT3425</name></trkpt>
<trkpt lat="54.503261" lon="-3.206530"><ele>676</ele><time>2024-05-31T14:10:36Z</time><name>PT3426</name></trkpt>
<trkpt lat="54.503284" lon="-3.206513"><ele>676</ele><time>2024-05-31T14:10:40Z</time><name>PT3427</name></trkpt>
<trkpt lat="54.503308" lon="-3.206508"><ele>675</ele><time>2024-05-31T14:10:43Z</time><name>PT3428</name></trkpt>
<trkpt lat="54.503336" lon="-3.206505"><ele>674</ele><time>2024-05-31T14:10:46Z</time><name>PT3429</name></trkpt>
<trkpt lat="54.503344" lon="-3.206505"><ele>674</ele><time>2024-05-31T14:10:49Z</time><name>PT3430</name></trkpt>
<trkpt lat="54.503351" lon="-3.206499"><ele>675</ele><time>2024-05-31T14:10:52Z</time><name>PT3431</name></trkpt>
<trkpt lat="54.503351" lon="-3.206493"><ele>675</ele><time>2024-05-31T14:11:10Z</time><name>PT3432</name></trkpt>
<trkpt lat="54.503362" lon="-3.206475"><ele>674</ele><time>2024-05-31T14:11:13Z</time><name>PT3433</name></trkpt>
<trkpt lat="54.503389" lon="-3.206463"><ele>673</ele><time>2024-05-31T14:11:16Z</time><name>PT3434</name></trkpt>
<trkpt lat="54.503399" lon="-3.206461"><ele>672</ele><time>2024-05-31T14:11:19Z</time><name>PT3435</name></trkpt>
<trkpt lat="54.503422" lon="-3.206440"><ele>670</ele><time>2024-05-31T14:11:24Z</time><name>PT3436</name></trkpt>
<trkpt lat="54.503442" lon="-3.206424"><ele>668</ele><time>2024-05-31T14:11:28Z</time><name>PT3437</name></trkpt>
<trkpt lat="54.503472" lon="-3.206399"><ele>667</ele><time>2024-05-31T14:11:31Z</time><name>PT3438</name></trkpt>
<trkpt lat="54.503476" lon="-3.206383"><ele>666</ele><time>2024-05-31T14:11:34Z</time><name>PT3439</name></trkpt>
<trkpt lat="54.503489" lon="-3.206363"><ele>665</ele><time>2024-05-31T14:11:37Z</time><name>PT3440</name></trkpt>
<trkpt lat="54.503504" lon="-3.206350"><ele>665</ele><time>2024-05-31T14:11:41Z</time><name>PT3441</name></trkpt>
<trkpt lat="54.503510" lon="-3.206350"><ele>666</ele><time>2024-05-31T14:11:45Z</time><name>PT3442</name></trkpt>
<trkpt lat="54.503524" lon="-3.206328"><ele>666</ele><time>2024-05-31T14:11:51Z</time><name>PT3443</name></trkpt>
<trkpt lat="54.503548" lon="-3.206299"><ele>665</ele><time>2024-05-31T14:11:54Z</time><name>PT3444</name></trkpt>
<trkpt lat="54.503570" lon="-3.206245"><ele>665</ele><time>2024-05-31T14:11:59Z</time><name>PT3445</name></trkpt>
<trkpt lat="54.503597" lon="-3.206182"><ele>664</ele><time>2024-05-31T14:12:03Z</time><name>PT3446</name></trkpt>
<trkpt lat="54.503619" lon="-3.206171"><ele>664</ele><time>2024-05-31T14:12:06Z</time><name>PT3447</name></trkpt>
<trkpt lat="54.503644" lon="-3.206153"><ele>662</ele><time>2024-05-31T14:12:09Z</time><name>PT3448</name></trkpt>
<trkpt lat="54.503668" lon="-3.206127"><ele>661</ele><time>2024-05-31T14:12:12Z</time><name>PT3449</name></trkpt>
<trkpt lat="54.503693" lon="-3.206084"><ele>659</ele><time>2024-05-31T14:12:15Z</time><name>PT3450</name></trkpt>
<trkpt lat="54.503719" lon="-3.206046"><ele>658</ele><time>2024-05-31T14:12:18Z</time><name>PT3451</name></trkpt>
<trkpt lat="54.503758" lon="-3.206021"><ele>658</ele><time>2024-05-31T14:12:23Z</time><name>PT3452</name></trkpt>
<trkpt lat="54.503778" lon="-3.206001"><ele>658</ele><time>2024-05-31T14:12:26Z</time><name>PT3453</name></trkpt>
<trkpt lat="54.503791" lon="-3.205978"><ele>658</ele><time>2024-05-31T14:12:29Z</time><name>PT3454</name></trkpt>
<trkpt lat="54.503801" lon="-3.205973"><ele>658</ele><time>2024-05-31T14:12:33Z</time><name>PT3455</name></trkpt>
<trkpt lat="54.503805" lon="-3.205981"><ele>658</ele><time>2024-05-31T14:12:36Z</time><name>PT3456</name></trkpt>
<trkpt lat="54.503821" lon="-3.205973"><ele>658</ele><time>2024-05-31T14:12:39Z</time><name>PT3457</name></trkpt>
<trkpt lat="54.503822" lon="-3.205972"><ele>658</ele><time>2024-05-31T14:12:42Z</time><name>PT3458</name></trkpt>
<trkpt lat="54.503851" lon="-3.205969"><ele>658</ele><time>2024-05-31T14:12:59Z</time><name>PT3459</name></trkpt>
<trkpt lat="54.503870" lon="-3.205961"><ele>658</ele><time>2024-05-31T14:13:02Z</time><name>PT3460</name></trkpt>
<trkpt lat="54.503873" lon="-3.205961"><ele>658</ele><time>2024-05-31T14:13:05Z</time><name>PT3461</name></trkpt>
<trkpt lat="54.503881" lon="-3.205953"><ele>659</ele><time>2024-05-31T14:13:08Z</time><name>PT3462</name></trkpt>
<trkpt lat="54.503882" lon="-3.205948"><ele>659</ele><time>2024-05-31T14:13:11Z</time><name>PT3463</name></trkpt>
<trkpt lat="54.503877" lon="-3.205892"><ele>659</ele><time>2024-05-31T14:13:16Z</time><name>PT3464</name></trkpt>
<trkpt lat="54.503887" lon="-3.205851"><ele>658</ele><time>2024-05-31T14:13:20Z</time><name>PT3465</name></trkpt>
<trkpt lat="54.503921" lon="-3.205791"><ele>657</ele><time>2024-05-31T14:13:23Z</time><name>PT3466</name></trkpt>
<trkpt lat="54.503932" lon="-3.205759"><ele>657</ele><time>2024-05-31T14:13:26Z</time><name>PT3467</name></trkpt>
<trkpt lat="54.503934" lon="-3.205725"><ele>658</ele><time>2024-05-31T14:13:30Z</time><name>PT3468</name></trkpt>
<trkpt lat="54.503941" lon="-3.205659"><ele>657</ele><time>2024-05-31T14:13:34Z</time><name>PT3469</name></trkpt>
<trkpt lat="54.503941" lon="-3.205597"><ele>658</ele><time>2024-05-31T14:13:37Z</time><name>PT3470</name></trkpt>
<trkpt lat="54.503956" lon="-3.205547"><ele>657</ele><time>2024-05-31T14:13:41Z</time><name>PT3471</name></trkpt>
<trkpt lat="54.503976" lon="-3.205515"><ele>656</ele><time>2024-05-31T14:13:44Z</time><name>PT3472</name></trkpt>
<trkpt lat="54.503995" lon="-3.205483"><ele>656</ele><time>2024-05-31T14:13:47Z</time><name>PT3473</name></trkpt>
<trkpt lat="54.504020" lon="-3.205444"><ele>655</ele><time>2024-05-31T14:13:52Z</time><name>PT3474</name></trkpt>
<trkpt lat="54.504033" lon="-3.205418"><ele>654</ele><time>2024-05-31T14:13:55Z</time><name>PT3475</name></trkpt>
<trkpt lat="54.504043" lon="-3.205362"><ele>654</ele><time>2024-05-31T14:13:58Z</time><name>PT3476</name></trkpt>
<trkpt lat="54.504065" lon="-3.205331"><ele>653</ele><time>2024-05-31T14:14:02Z</time><name>PT3477</name></trkpt>
<trkpt lat="54.504093" lon="-3.205283"><ele>652</ele><time>2024-05-31T14:14:05Z</time><name>PT3478</name></trkpt>
<trkpt lat="54.504133" lon="-3.205255"><ele>651</ele><time>2024-05-31T14:14:10Z</time><name>PT3479</name></trkpt>
<trkpt lat="54.504157" lon="-3.205227"><ele>650</ele><time>2024-05-31T14:14:14Z</time><name>PT3480</name></trkpt>
<trkpt lat="54.504184" lon="-3.205202"><ele>649</ele><time>2024-05-31T14:14:17Z</time><name>PT3481</name></trkpt>
<trkpt lat="54.504205" lon="-3.205171"><ele>649</ele><time>2024-05-31T14:14:22Z</time><name>PT3482</name></trkpt>
<trkpt lat="54.504214" lon="-3.205137"><ele>649</ele><time>2024-05-31T14:14:25Z</time><name>PT3483</name></trkpt>
<trkpt lat="54.504226" lon="-3.205107"><ele>648</ele><time>2024-05-31T14:14:28Z</time><name>PT3484</name></trkpt>
<trkpt lat="54.504242" lon="-3.205081"><ele>647</ele><time>2024-05-31T14:14:31Z</time><name>PT3485</name></trkpt>
<trkpt lat="54.504271" lon="-3.205076"><ele>646</ele><time>2024-05-31T14:14:35Z</time><name>PT3486</name></trkpt>
<trkpt lat="54.504298" lon="-3.205064"><ele>645</ele><time>2024-05-31T14:14:38Z</time><name>PT3487</name></trkpt>
<trkpt lat="54.504316" lon="-3.205022"><ele>644</ele><time>2024-05-31T14:14:41Z</time><name>PT3488</name></trkpt>
<trkpt lat="54.504345" lon="-3.204987"><ele>643</ele><time>2024-05-31T14:14:46Z</time><name>PT3489</name></trkpt>
<trkpt lat="54.504379" lon="-3.204958"><ele>643</ele><time>2024-05-31T14:14:50Z</time><name>PT3490</name></trkpt>
<trkpt lat="54.504414" lon="-3.204960"><ele>642</ele><time>2024-05-31T14:14:53Z</time><name>PT3491</name></trkpt>
<trkpt lat="54.504453" lon="-3.204968"><ele>641</ele><time>2024-05-31T14:14:58Z</time><name>PT3492</name></trkpt>
<trkpt lat="54.504479" lon="-3.204953"><ele>641</ele><time>2024-05-31T14:15:01Z</time><name>PT3493</name></trkpt>
<trkpt lat="54.504521" lon="-3.204960"><ele>640</ele><time>2024-05-31T14:15:04Z</time><name>PT3494</name></trkpt>
<trkpt lat="54.504552" lon="-3.204936"><ele>641</ele><time>2024-05-31T14:15:07Z</time><name>PT3495</name></trkpt>
<trkpt lat="54.504581" lon="-3.204885"><ele>640</ele><time>2024-05-31T14:15:10Z</time><name>PT3496</name></trkpt>
<trkpt lat="54.504600" lon="-3.204829"><ele>641</ele><time>2024-05-31T14:15:13Z</time><name>PT3497</name></trkpt>
<trkpt lat="54.504608" lon="-3.204769"><ele>641</ele><time>2024-05-31T14:15:18Z</time><name>PT3498</name></trkpt>
<trkpt lat="54.504616" lon="-3.204734"><ele>641</ele><time>2024-05-31T14:15:22Z</time><name>PT3499</name></trkpt>
<trkpt lat="54.504623" lon="-3.204719"><ele>641</ele><time>2024-05-31T14:15:25Z</time><name>PT3500</name></trkpt>
<trkpt lat="54.504615" lon="-3.204691"><ele>641</ele><time>2024-05-31T14:15:28Z</time><name>PT3501</name></trkpt>
<trkpt lat="54.504615" lon="-3.204658"><ele>641</ele><time>2024-05-31T14:15:31Z</time><name>PT3502</name></trkpt>
<trkpt lat="54.504619" lon="-3.204644"><ele>641</ele><time>2024-05-31T14:15:34Z</time><name>PT3503</name></trkpt>
<trkpt lat="54.504615" lon="-3.204609"><ele>641</ele><time>2024-05-31T14:15:37Z</time><name>PT3504</name></trkpt>
<trkpt lat="54.504615" lon="-3.204570"><ele>640</ele><time>2024-05-31T14:15:40Z</time><name>PT3505</name></trkpt>
<trkpt lat="54.504614" lon="-3.204531"><ele>639</ele><time>2024-05-31T14:15:45Z</time><name>PT3506</name></trkpt>
<trkpt lat="54.504628" lon="-3.204501"><ele>638</ele><time>2024-05-31T14:15:49Z</time><name>PT3507</name></trkpt>
<trkpt lat="54.504645" lon="-3.204472"><ele>638</ele><time>2024-05-31T14:15:52Z</time><name>PT3508</name></trkpt>
<trkpt lat="54.504681" lon="-3.204466"><ele>637</ele><time>2024-05-31T14:15:55Z</time><name>PT3509</name></trkpt>
<trkpt lat="54.504713" lon="-3.204482"><ele>635</ele><time>2024-05-31T14:15:58Z</time><name>PT3510</name></trkpt>
<trkpt lat="54.504750" lon="-3.204501"><ele>635</ele><time>2024-05-31T14:16:03Z</time><name>PT3511</name></trkpt>
<trkpt lat="54.504777" lon="-3.204510"><ele>634</ele><time>2024-05-31T14:16:06Z</time><name>PT3512</name></trkpt>
<trkpt lat="54.504808" lon="-3.204534"><ele>632</ele><time>2024-05-31T14:16:10Z</time><name>PT3513</name></trkpt>
<trkpt lat="54.504829" lon="-3.204562"><ele>631</ele><time>2024-05-31T14:16:13Z</time><name>PT3514</name></trkpt>
<trkpt lat="54.504854" lon="-3.204585"><ele>630</ele><time>2024-05-31T14:16:16Z</time><name>PT3515</name></trkpt>
<trkpt lat="54.504885" lon="-3.204602"><ele>629</ele><time>2024-05-31T14:16:19Z</time><name>PT3516</name></trkpt>
<trkpt lat="54.504904" lon="-3.204610"><ele>629</ele><time>2024-05-31T14:16:24Z</time><name>PT3517</name></trkpt>
<trkpt lat="54.504921" lon="-3.204600"><ele>628</ele><time>2024-05-31T14:16:28Z</time><name>PT3518</name></trkpt>
<trkpt lat="54.504925" lon="-3.204607"><ele>627</ele><time>2024-05-31T14:16:31Z</time><name>PT3519</name></trkpt>
<trkpt lat="54.504930" lon="-3.204605"><ele>626</ele><time>2024-05-31T14:16:34Z</time><name>PT3520</name></trkpt>
<trkpt lat="54.504943" lon="-3.204582"><ele>626</ele><time>2024-05-31T14:16:39Z</time><name>PT3521</name></trkpt>
<trkpt lat="54.504942" lon="-3.204567"><ele>625</ele><time>2024-05-31T14:16:42Z</time><name>PT3522</name></trkpt>
<trkpt lat="54.504953" lon="-3.204532"><ele>624</ele><time>2024-05-31T14:16:46Z</time><name>PT3523</name></trkpt>
<trkpt lat="54.504976" lon="-3.204479"><ele>622</ele><time>2024-05-31T14:16:49Z</time><name>PT3524</name></trkpt>
<trkpt lat="54.504989" lon="-3.204428"><ele>622</ele><time>2024-05-31T14:16:54Z</time><name>PT3525</name></trkpt>
<trkpt lat="54.505003" lon="-3.204398"><ele>622</ele><time>2024-05-31T14:16:58Z</time><name>PT3526</name></trkpt>
<trkpt lat="54.505005" lon="-3.204390"><ele>621</ele><time>2024-05-31T14:17:01Z</time><name>PT3527</name></trkpt>
<trkpt lat="54.505010" lon="-3.204347"><ele>620</ele><time>2024-05-31T14:17:06Z</time><name>PT3528</name></trkpt>
<trkpt lat="54.505014" lon="-3.204306"><ele>618</ele><time>2024-05-31T14:17:09Z</time><name>PT3529</name></trkpt>
<trkpt lat="54.505019" lon="-3.204272"><ele>616</ele><time>2024-05-31T14:17:12Z</time><name>PT3530</name></trkpt>
<trkpt lat="54.505027" lon="-3.204226"><ele>614</ele><time>2024-05-31T14:17:16Z</time><name>PT3531</name></trkpt>
<trkpt lat="54.505038" lon="-3.204199"><ele>614</ele><time>2024-05-31T14:17:19Z</time><name>PT3532</name></trkpt>
<trkpt lat="54.505043" lon="-3.204157"><ele>613</ele><time>2024-05-31T14:17:22Z</time><name>PT3533</name></trkpt>
<trkpt lat="54.505033" lon="-3.204122"><ele>612</ele><time>2024-05-31T14:17:27Z</time><name>PT3534</name></trkpt>
<trkpt lat="54.505034" lon="-3.204100"><ele>612</ele><time>2024-05-31T14:17:30Z</time><name>PT3535</name></trkpt>
<trkpt lat="54.505033" lon="-3.204079"><ele>612</ele><time>2024-05-31T14:17:34Z</time><name>PT3536</name></trkpt>
<trkpt lat="54.505042" lon="-3.204076"><ele>613</ele><time>2024-05-31T14:17:42Z</time><name>PT3537</name></trkpt>
<trkpt lat="54.505049" lon="-3.204036"><ele>612</ele><time>2024-05-31T14:17:45Z</time><name>PT3538</name></trkpt>
<trkpt lat="54.505050" lon="-3.203986"><ele>611</ele><time>2024-05-31T14:17:49Z</time><name>PT3539</name></trkpt>
<trkpt lat="54.505036" lon="-3.203947"><ele>609</ele><time>2024-05-31T14:17:52Z</time><name>PT3540</name></trkpt>
<trkpt lat="54.505038" lon="-3.203902"><ele>608</ele><time>2024-05-31T14:17:57Z</time><name>PT3541</name></trkpt>
<trkpt lat="54.505036" lon="-3.203863"><ele>608</ele><time>2024-05-31T14:18:01Z</time><name>PT3542</name></trkpt>
<trkpt lat="54.505042" lon="-3.203819"><ele>607</ele><time>2024-05-31T14:18:04Z</time><name>PT3543</name></trkpt>
<trkpt lat="54.505045" lon="-3.203790"><ele>607</ele><time>2024-05-31T14:18:07Z</time><name>PT3544</name></trkpt>
<trkpt lat="54.505055" lon="-3.203798"><ele>607</ele><time>2024-05-31T14:18:12Z</time><name>PT3545</name></trkpt>
<trkpt lat="54.505069" lon="-3.203805"><ele>606</ele><time>2024-05-31T14:18:15Z</time><name>PT3546</name></trkpt>
<trkpt lat="54.505078" lon="-3.203793"><ele>605</ele><time>2024-05-31T14:18:19Z</time><name>PT3547</name></trkpt>
<trkpt lat="54.505085" lon="-3.203777"><ele>604</ele><time>2024-05-31T14:18:22Z</time><name>PT3548</name></trkpt>
<trkpt lat="54.505090" lon="-3.203787"><ele>603</ele><time>2024-05-31T14:18:25Z</time><name>PT3549</name></trkpt>
<trkpt lat="54.505102" lon="-3.203795"><ele>603</ele><time>2024-05-31T14:18:28Z</time><name>PT3550</name></trkpt>
<trkpt lat="54.505117" lon="-3.203786"><ele>602</ele><time>2024-05-31T14:18:33Z</time><name>PT3551</name></trkpt>
<trkpt lat="54.505126" lon="-3.203759"><ele>602</ele><time>2024-05-31T14:18:37Z</time><name>PT3552</name></trkpt>
<trkpt lat="54.505132" lon="-3.203737"><ele>602</ele><time>2024-05-31T14:18:40Z</time><name>PT3553</name></trkpt>
<trkpt lat="54.505136" lon="-3.203720"><ele>602</ele><time>2024-05-31T14:18:43Z</time><name>PT3554</name></trkpt>
<trkpt lat="54.505135" lon="-3.203715"><ele>602</ele><time>2024-05-31T14:18:46Z</time><name>PT3555</name></trkpt>
<trkpt lat="54.505152" lon="-3.203688"><ele>601</ele><time>2024-05-31T14:18:51Z</time><name>PT3556</name></trkpt>
<trkpt lat="54.505168" lon="-3.203679"><ele>600</ele><time>2024-05-31T14:18:55Z</time><name>PT3557</name></trkpt>
<trkpt lat="54.505184" lon="-3.203655"><ele>599</ele><time>2024-05-31T14:18:58Z</time><name>PT3558</name></trkpt>
<trkpt lat="54.505201" lon="-3.203646"><ele>598</ele><time>2024-05-31T14:19:01Z</time><name>PT3559</name></trkpt>
<trkpt lat="54.505215" lon="-3.203620"><ele>597</ele><time>2024-05-31T14:19:04Z</time><name>PT3560</name></trkpt>
<trkpt lat="54.505220" lon="-3.203583"><ele>597</ele><time>2024-05-31T14:19:07Z</time><name>PT3561</name></trkpt>
<trkpt lat="54.505242" lon="-3.203544"><ele>595</ele><time>2024-05-31T14:19:12Z</time><name>PT3562</name></trkpt>
<trkpt lat="54.505264" lon="-3.203532"><ele>595</ele><time>2024-05-31T14:19:15Z</time><name>PT3563</name></trkpt>
<trkpt lat="54.505293" lon="-3.203513"><ele>593</ele><time>2024-05-31T14:19:19Z</time><name>PT3564</name></trkpt>
<trkpt lat="54.505323" lon="-3.203509"><ele>593</ele><time>2024-05-31T14:19:22Z</time><name>PT3565</name></trkpt>
<trkpt lat="54.505343" lon="-3.203517"><ele>593</ele><time>2024-05-31T14:19:27Z</time><name>PT3566</name></trkpt>
<trkpt lat="54.505357" lon="-3.203513"><ele>592</ele><time>2024-05-31T14:19:30Z</time><name>PT3567</name></trkpt>
<trkpt lat="54.505372" lon="-3.203487"><ele>591</ele><time>2024-05-31T14:19:33Z</time><name>PT3568</name></trkpt>
<trkpt lat="54.505388" lon="-3.203496"><ele>589</ele><time>2024-05-31T14:19:37Z</time><name>PT3569</name></trkpt>
<trkpt lat="54.505404" lon="-3.203498"><ele>588</ele><time>2024-05-31T14:19:40Z</time><name>PT3570</name></trkpt>
<trkpt lat="54.505414" lon="-3.203489"><ele>587</ele><time>2024-05-31T14:19:43Z</time><name>PT3571</name></trkpt>
<trkpt lat="54.505420" lon="-3.203447"><ele>587</ele><time>2024-05-31T14:19:46Z</time><name>PT3572</name></trkpt>
<trkpt lat="54.505434" lon="-3.203429"><ele>586</ele><time>2024-05-31T14:19:49Z</time><name>PT3573</name></trkpt>
<trkpt lat="54.505453" lon="-3.203432"><ele>585</ele><time>2024-05-31T14:19:52Z</time><name>PT3574</name></trkpt>
<trkpt lat="54.505475" lon="-3.203429"><ele>584</ele><time>2024-05-31T14:19:57Z</time><name>PT3575</name></trkpt>
<trkpt lat="54.505491" lon="-3.203427"><ele>583</ele><time>2024-05-31T14:20:00Z</time><name>PT3576</name></trkpt>
<trkpt lat="54.505506" lon="-3.203413"><ele>583</ele><time>2024-05-31T14:20:03Z</time><name>PT3577</name></trkpt>
<trkpt lat="54.505522" lon="-3.203384"><ele>582</ele><time>2024-05-31T14:20:07Z</time><name>PT3578</name></trkpt>
<trkpt lat="54.505543" lon="-3.203372"><ele>581</ele><time>2024-05-31T14:20:10Z</time><name>PT3579</name></trkpt>
<trkpt lat="54.505562" lon="-3.203372"><ele>581</ele><time>2024-05-31T14:20:13Z</time><name>PT3580</name></trkpt>
<trkpt lat="54.505587" lon="-3.203376"><ele>580</ele><time>2024-05-31T14:20:16Z</time><name>PT3581</name></trkpt>
<trkpt lat="54.505625" lon="-3.203399"><ele>579</ele><time>2024-05-31T14:20:21Z</time><name>PT3582</name></trkpt>
<trkpt lat="54.505652" lon="-3.203408"><ele>578</ele><time>2024-05-31T14:20:24Z</time><name>PT3583</name></trkpt>
<trkpt lat="54.505686" lon="-3.203428"><ele>577</ele><time>2024-05-31T14:20:28Z</time><name>PT3584</name></trkpt>
<trkpt lat="54.505718" lon="-3.203451"><ele>577</ele><time>2024-05-31T14:20:31Z</time><name>PT3585</name></trkpt>
<trkpt lat="54.505749" lon="-3.203466"><ele>576</ele><time>2024-05-31T14:20:36Z</time><name>PT3586</name></trkpt>
<trkpt lat="54.505789" lon="-3.203463"><ele>574</ele><time>2024-05-31T14:20:40Z</time><name>PT3587</name></trkpt>
<trkpt lat="54.505807" lon="-3.203461"><ele>573</ele><time>2024-05-31T14:20:43Z</time><name>PT3588</name></trkpt>
<trkpt lat="54.505829" lon="-3.203458"><ele>572</ele><time>2024-05-31T14:20:46Z</time><name>PT3589</name></trkpt>
<trkpt lat="54.505852" lon="-3.203458"><ele>571</ele><time>2024-05-31T14:20:49Z</time><name>PT3590</name></trkpt>
<trkpt lat="54.505875" lon="-3.203439"><ele>571</ele><time>2024-05-31T14:20:54Z</time><name>PT3591</name></trkpt>
<trkpt lat="54.505911" lon="-3.203418"><ele>570</ele><time>2024-05-31T14:20:58Z</time><name>PT3592</name></trkpt>
<trkpt lat="54.505949" lon="-3.203423"><ele>569</ele><time>2024-05-31T14:21:01Z</time><name>PT3593</name></trkpt>
<trkpt lat="54.505977" lon="-3.203424"><ele>568</ele><time>2024-05-31T14:21:04Z</time><name>PT3594</name></trkpt>
<trkpt lat="54.506010" lon="-3.203432"><ele>567</ele><time>2024-05-31T14:21:09Z</time><name>PT3595</name></trkpt>
<trkpt lat="54.506037" lon="-3.203413"><ele>566</ele><time>2024-05-31T14:21:12Z</time><name>PT3596</name></trkpt>
<trkpt lat="54.506067" lon="-3.203418"><ele>566</ele><time>2024-05-31T14:21:15Z</time><name>PT3597</name></trkpt>
<trkpt lat="54.506101" lon="-3.203432"><ele>565</ele><time>2024-05-31T14:21:19Z</time><name>PT3598</name></trkpt>
<trkpt lat="54.506140" lon="-3.203434"><ele>564</ele><time>2024-05-31T14:21:22Z</time><name>PT3599</name></trkpt>
<trkpt lat="54.506164" lon="-3.203426"><ele>564</ele><time>2024-05-31T14:21:25Z</time><name>PT3600</name></trkpt>
<trkpt lat="54.506190" lon="-3.203411"><ele>563</ele><time>2024-05-31T14:21:28Z</time><name>PT3601</name></trkpt>
<trkpt lat="54.506210" lon="-3.203403"><ele>562</ele><time>2024-05-31T14:21:31Z</time><name>PT3602</name></trkpt>
<trkpt lat="54.506240" lon="-3.203422"><ele>562</ele><time>2024-05-31T14:21:36Z</time><name>PT3603</name></trkpt>
<trkpt lat="54.506253" lon="-3.203442"><ele>560</ele><time>2024-05-31T14:21:40Z</time><name>PT3604</name></trkpt>
<trkpt lat="54.506267" lon="-3.203413"><ele>560</ele><time>2024-05-31T14:21:43Z</time><name>PT3605</name></trkpt>
<trkpt lat="54.506289" lon="-3.203400"><ele>559</ele><time>2024-05-31T14:21:46Z</time><name>PT3606</name></trkpt>
<trkpt lat="54.506302" lon="-3.203404"><ele>559</ele><time>2024-05-31T14:21:51Z</time><name>PT3607</name></trkpt>
<trkpt lat="54.506308" lon="-3.203395"><ele>558</ele><time>2024-05-31T14:21:55Z</time><name>PT3608</name></trkpt>
<trkpt lat="54.506312" lon="-3.203387"><ele>558</ele><time>2024-05-31T14:21:58Z</time><name>PT3609</name></trkpt>
<trkpt lat="54.506315" lon="-3.203372"><ele>556</ele><time>2024-05-31T14:22:01Z</time><name>PT3610</name></trkpt>
<trkpt lat="54.506332" lon="-3.203335"><ele>554</ele><time>2024-05-31T14:22:04Z</time><name>PT3611</name></trkpt>
<trkpt lat="54.506347" lon="-3.203314"><ele>552</ele><time>2024-05-31T14:22:09Z</time><name>PT3612</name></trkpt>
<trkpt lat="54.506350" lon="-3.203278"><ele>549</ele><time>2024-05-31T14:22:13Z</time><name>PT3613</name></trkpt>
<trkpt lat="54.506374" lon="-3.203242"><ele>549</ele><time>2024-05-31T14:22:16Z</time><name>PT3614</name></trkpt>
<trkpt lat="54.506389" lon="-3.203195"><ele>546</ele><time>2024-05-31T14:22:21Z</time><name>PT3615</name></trkpt>
<trkpt lat="54.506406" lon="-3.203156"><ele>545</ele><time>2024-05-31T14:22:25Z</time><name>PT3616</name></trkpt>
<trkpt lat="54.506414" lon="-3.203122"><ele>545</ele><time>2024-05-31T14:22:28Z</time><name>PT3617</name></trkpt>
<trkpt lat="54.506424" lon="-3.203079"><ele>545</ele><time>2024-05-31T14:22:31Z</time><name>PT3618</name></trkpt>
<trkpt lat="54.506442" lon="-3.203056"><ele>545</ele><time>2024-05-31T14:22:34Z</time><name>PT3619</name></trkpt>
<trkpt lat="54.506470" lon="-3.203007"><ele>544</ele><time>2024-05-31T14:22:37Z</time><name>PT3620</name></trkpt>
<trkpt lat="54.506492" lon="-3.202975"><ele>544</ele><time>2024-05-31T14:22:40Z</time><name>PT3621</name></trkpt>
<trkpt lat="54.506509" lon="-3.202926"><ele>543</ele><time>2024-05-31T14:22:45Z</time><name>PT3622</name></trkpt>
<trkpt lat="54.506529" lon="-3.202891"><ele>543</ele><time>2024-05-31T14:22:48Z</time><name>PT3623</name></trkpt>
<trkpt lat="54.506558" lon="-3.202821"><ele>543</ele><time>2024-05-31T14:22:52Z</time><name>PT3624</name></trkpt>
<trkpt lat="54.506570" lon="-3.202768"><ele>542</ele><time>2024-05-31T14:22:55Z</time><name>PT3625</name></trkpt>
<trkpt lat="54.506577" lon="-3.202723"><ele>542</ele><time>2024-05-31T14:22:58Z</time><name>PT3626</name></trkpt>
<trkpt lat="54.506593" lon="-3.202691"><ele>541</ele><time>2024-05-31T14:23:01Z</time><name>PT3627</name></trkpt>
<trkpt lat="54.506606" lon="-3.202667"><ele>542</ele><time>2024-05-31T14:23:04Z</time><name>PT3628</name></trkpt>
<trkpt lat="54.506618" lon="-3.202640"><ele>541</ele><time>2024-05-31T14:23:07Z</time><name>PT3629</name></trkpt>
<trkpt lat="54.506634" lon="-3.202590"><ele>540</ele><time>2024-05-31T14:23:10Z</time><name>PT3630</name></trkpt>
<trkpt lat="54.506651" lon="-3.202508"><ele>540</ele><time>2024-05-31T14:23:15Z</time><name>PT3631</name></trkpt>
<trkpt lat="54.506669" lon="-3.202465"><ele>539</ele><time>2024-05-31T14:23:18Z</time><name>PT3632</name></trkpt>
<trkpt lat="54.506702" lon="-3.202429"><ele>540</ele><time>2024-05-31T14:23:21Z</time><name>PT3633</name></trkpt>
<trkpt lat="54.506720" lon="-3.202362"><ele>539</ele><time>2024-05-31T14:23:25Z</time><name>PT3634</name></trkpt>
<trkpt lat="54.506735" lon="-3.202308"><ele>538</ele><time>2024-05-31T14:23:28Z</time><name>PT3635</name></trkpt>
<trkpt lat="54.506755" lon="-3.202249"><ele>537</ele><time>2024-05-31T14:23:33Z</time><name>PT3636</name></trkpt>
<trkpt lat="54.506767" lon="-3.202207"><ele>536</ele><time>2024-05-31T14:23:36Z</time><name>PT3637</name></trkpt>
<trkpt lat="54.506783" lon="-3.202155"><ele>536</ele><time>2024-05-31T14:23:40Z</time><name>PT3638</name></trkpt>
<trkpt lat="54.506801" lon="-3.202120"><ele>535</ele><time>2024-05-31T14:23:43Z</time><name>PT3639</name></trkpt>
<trkpt lat="54.506832" lon="-3.202097"><ele>534</ele><time>2024-05-31T14:23:46Z</time><name>PT3640</name></trkpt>
<trkpt lat="54.506839" lon="-3.202072"><ele>533</ele><time>2024-05-31T14:23:49Z</time><name>PT3641</name></trkpt>
<trkpt lat="54.506865" lon="-3.202040"><ele>533</ele><time>2024-05-31T14:23:54Z</time><name>PT3642</name></trkpt>
<trkpt lat="54.506883" lon="-3.202016"><ele>532</ele><time>2024-05-31T14:23:57Z</time><name>PT3643</name></trkpt>
<trkpt lat="54.506895" lon="-3.201987"><ele>530</ele><time>2024-05-31T14:24:00Z</time><name>PT3644</name></trkpt>
<trkpt lat="54.506910" lon="-3.201961"><ele>529</ele><time>2024-05-31T14:24:03Z</time><name>PT3645</name></trkpt>
<trkpt lat="54.506935" lon="-3.201938"><ele>527</ele><time>2024-05-31T14:24:07Z</time><name>PT3646</name></trkpt>
<trkpt lat="54.506974" lon="-3.201934"><ele>527</ele><time>2024-05-31T14:24:10Z</time><name>PT3647</name></trkpt>
<trkpt lat="54.507004" lon="-3.201908"><ele>525</ele><time>2024-05-31T14:24:13Z</time><name>PT3648</name></trkpt>
<trkpt lat="54.507034" lon="-3.201885"><ele>525</ele><time>2024-05-31T14:24:16Z</time><name>PT3649</name></trkpt>
<trkpt lat="54.507063" lon="-3.201869"><ele>525</ele><time>2024-05-31T14:24:21Z</time><name>PT3650</name></trkpt>
<trkpt lat="54.507092" lon="-3.201838"><ele>525</ele><time>2024-05-31T14:24:25Z</time><name>PT3651</name></trkpt>
<trkpt lat="54.507108" lon="-3.201826"><ele>525</ele><time>2024-05-31T14:24:28Z</time><name>PT3652</name></trkpt>
<trkpt lat="54.507123" lon="-3.201789"><ele>523</ele><time>2024-05-31T14:24:31Z</time><name>PT3653</name></trkpt>
<trkpt lat="54.507147" lon="-3.201741"><ele>523</ele><time>2024-05-31T14:24:36Z</time><name>PT3654</name></trkpt>
<trkpt lat="54.507162" lon="-3.201710"><ele>522</ele><time>2024-05-31T14:24:39Z</time><name>PT3655</name></trkpt>
<trkpt lat="54.507174" lon="-3.201683"><ele>522</ele><time>2024-05-31T14:24:42Z</time><name>PT3656</name></trkpt>
<trkpt lat="54.507189" lon="-3.201664"><ele>522</ele><time>2024-05-31T14:24:45Z</time><name>PT3657</name></trkpt>
<trkpt lat="54.507218" lon="-3.201653"><ele>521</ele><time>2024-05-31T14:24:49Z</time><name>PT3658</name></trkpt>
<trkpt lat="54.507233" lon="-3.201630"><ele>520</ele><time>2024-05-31T14:24:52Z</time><name>PT3659</name></trkpt>
<trkpt lat="54.507247" lon="-3.201585"><ele>520</ele><time>2024-05-31T14:24:55Z</time><name>PT3660</name></trkpt>
<trkpt lat="54.507266" lon="-3.201544"><ele>519</ele><time>2024-05-31T14:25:00Z</time><name>PT3661</name></trkpt>
<trkpt lat="54.507287" lon="-3.201495"><ele>519</ele><time>2024-05-31T14:25:04Z</time><name>PT3662</name></trkpt>
<trkpt lat="54.507296" lon="-3.201457"><ele>518</ele><time>2024-05-31T14:25:07Z</time><name>PT3663</name></trkpt>
<trkpt lat="54.507319" lon="-3.201403"><ele>516</ele><time>2024-05-31T14:25:10Z</time><name>PT3664</name></trkpt>
<trkpt lat="54.507342" lon="-3.201357"><ele>514</ele><time>2024-05-31T14:25:15Z</time><name>PT3665</name></trkpt>
<trkpt lat="54.507361" lon="-3.201318"><ele>513</ele><time>2024-05-31T14:25:18Z</time><name>PT3666</name></trkpt>
<trkpt lat="54.507380" lon="-3.201242"><ele>513</ele><time>2024-05-31T14:25:22Z</time><name>PT3667</name></trkpt>
<trkpt lat="54.507394" lon="-3.201187"><ele>513</ele><time>2024-05-31T14:25:25Z</time><name>PT3668</name></trkpt>
<trkpt lat="54.507413" lon="-3.201136"><ele>513</ele><time>2024-05-31T14:25:28Z</time><name>PT3669</name></trkpt>
<trkpt lat="54.507433" lon="-3.201102"><ele>513</ele><time>2024-05-31T14:25:31Z</time><name>PT3670</name></trkpt>
<trkpt lat="54.507451" lon="-3.201038"><ele>512</ele><time>2024-05-31T14:25:34Z</time><name>PT3671</name></trkpt>
<trkpt lat="54.507444" lon="-3.200988"><ele>512</ele><time>2024-05-31T14:25:37Z</time><name>PT3672</name></trkpt>
<trkpt lat="54.507458" lon="-3.200935"><ele>511</ele><time>2024-05-31T14:25:42Z</time><name>PT3673</name></trkpt>
<trkpt lat="54.507487" lon="-3.200916"><ele>511</ele><time>2024-05-31T14:25:45Z</time><name>PT3674</name></trkpt>
<trkpt lat="54.507523" lon="-3.200885"><ele>510</ele><time>2024-05-31T14:25:49Z</time><name>PT3675</name></trkpt>
<trkpt lat="54.507544" lon="-3.200866"><ele>510</ele><time>2024-05-31T14:25:52Z</time><name>PT3676</name></trkpt>
<trkpt lat="54.507571" lon="-3.200869"><ele>508</ele><time>2024-05-31T14:25:55Z</time><name>PT3677</name></trkpt>
<trkpt lat="54.507593" lon="-3.200864"><ele>507</ele><time>2024-05-31T14:26:00Z</time><name>PT3678</name></trkpt>
<trkpt lat="54.507604" lon="-3.200857"><ele>507</ele><time>2024-05-31T14:26:04Z</time><name>PT3679</name></trkpt>
<trkpt lat="54.507608" lon="-3.200853"><ele>506</ele><time>2024-05-31T14:26:07Z</time><name>PT3680</name></trkpt>
<trkpt lat="54.507608" lon="-3.200853"><ele>506</ele><time>2024-05-31T14:26:10Z</time><name>PT3681</name></trkpt>
<trkpt lat="54.507629" lon="-3.200828"><ele>507</ele><time>2024-05-31T14:26:21Z</time><name>PT3682</name></trkpt>
<trkpt lat="54.507653" lon="-3.200765"><ele>505</ele><time>2024-05-31T14:26:25Z</time><name>PT3683</name></trkpt>
<trkpt lat="54.507672" lon="-3.200736"><ele>505</ele><time>2024-05-31T14:26:28Z</time><name>PT3684</name></trkpt>
<trkpt lat="54.507686" lon="-3.200679"><ele>504</ele><time>2024-05-31T14:26:31Z</time><name>PT3685</name></trkpt>
<trkpt lat="54.507694" lon="-3.200640"><ele>504</ele><time>2024-05-31T14:26:34Z</time><name>PT3686</name></trkpt>
<trkpt lat="54.507697" lon="-3.200591"><ele>503</ele><time>2024-05-31T14:26:39Z</time><name>PT3687</name></trkpt>
<trkpt lat="54.507681" lon="-3.200548"><ele>503</ele><time>2024-05-31T14:26:43Z</time><name>PT3688</name></trkpt>
<trkpt lat="54.507679" lon="-3.200505"><ele>502</ele><time>2024-05-31T14:26:46Z</time><name>PT3689</name></trkpt>
<trkpt lat="54.507699" lon="-3.200461"><ele>502</ele><time>2024-05-31T14:26:49Z</time><name>PT3690</name></trkpt>
<trkpt lat="54.507716" lon="-3.200442"><ele>501</ele><time>2024-05-31T14:26:52Z</time><name>PT3691</name></trkpt>
<trkpt lat="54.507734" lon="-3.200418"><ele>500</ele><time>2024-05-31T14:26:57Z</time><name>PT3692</name></trkpt>
<trkpt lat="54.507742" lon="-3.200358"><ele>499</ele><time>2024-05-31T14:27:01Z</time><name>PT3693</name></trkpt>
<trkpt lat="54.507764" lon="-3.200320"><ele>497</ele><time>2024-05-31T14:27:04Z</time><name>PT3694</name></trkpt>
<trkpt lat="54.507790" lon="-3.200303"><ele>497</ele><time>2024-05-31T14:27:07Z</time><name>PT3695</name></trkpt>
<trkpt lat="54.507824" lon="-3.200311"><ele>496</ele><time>2024-05-31T14:27:12Z</time><name>PT3696</name></trkpt>
<trkpt lat="54.507844" lon="-3.200309"><ele>495</ele><time>2024-05-31T14:27:16Z</time><name>PT3697</name></trkpt>
<trkpt lat="54.507873" lon="-3.200330"><ele>494</ele><time>2024-05-31T14:27:19Z</time><name>PT3698</name></trkpt>
<trkpt lat="54.507897" lon="-3.200353"><ele>493</ele><time>2024-05-31T14:27:24Z</time><name>PT3699</name></trkpt>
<trkpt lat="54.507928" lon="-3.200357"><ele>492</ele><time>2024-05-31T14:27:28Z</time><name>PT3700</name></trkpt>
<trkpt lat="54.507957" lon="-3.200365"><ele>491</ele><time>2024-05-31T14:27:31Z</time><name>PT3701</name></trkpt>
<trkpt lat="54.507993" lon="-3.200385"><ele>491</ele><time>2024-05-31T14:27:34Z</time><name>PT3702</name></trkpt>
<trkpt lat="54.508011" lon="-3.200416"><ele>490</ele><time>2024-05-31T14:27:37Z</time><name>PT3703</name></trkpt>
<trkpt lat="54.508033" lon="-3.200427"><ele>490</ele><time>2024-05-31T14:27:42Z</time><name>PT3704</name></trkpt>
<trkpt lat="54.508055" lon="-3.200420"><ele>489</ele><time>2024-05-31T14:27:45Z</time><name>PT3705</name></trkpt>
<trkpt lat="54.508074" lon="-3.200409"><ele>489</ele><time>2024-05-31T14:27:49Z</time><name>PT3706</name></trkpt>
<trkpt lat="54.508099" lon="-3.200399"><ele>489</ele><time>2024-05-31T14:27:52Z</time><name>PT3707</name></trkpt>
<trkpt lat="54.508120" lon="-3.200378"><ele>487</ele><time>2024-05-31T14:27:57Z</time><name>PT3708</name></trkpt>
<trkpt lat="54.508143" lon="-3.200378"><ele>487</ele><time>2024-05-31T14:28:00Z</time><name>PT3709</name></trkpt>
<trkpt lat="54.508171" lon="-3.200368"><ele>486</ele><time>2024-05-31T14:28:04Z</time><name>PT3710</name></trkpt>
<trkpt lat="54.508198" lon="-3.200339"><ele>485</ele><time>2024-05-31T14:28:07Z</time><name>PT3711</name></trkpt>
<trkpt lat="54.508217" lon="-3.200329"><ele>484</ele><time>2024-05-31T14:28:12Z</time><name>PT3712</name></trkpt>
<trkpt lat="54.508235" lon="-3.200319"><ele>484</ele><time>2024-05-31T14:28:15Z</time><name>PT3713</name></trkpt>
<trkpt lat="54.508258" lon="-3.200321"><ele>483</ele><time>2024-05-31T14:28:19Z</time><name>PT3714</name></trkpt>
<trkpt lat="54.508276" lon="-3.200308"><ele>482</ele><time>2024-05-31T14:28:22Z</time><name>PT3715</name></trkpt>
<trkpt lat="54.508297" lon="-3.200305"><ele>481</ele><time>2024-05-31T14:28:25Z</time><name>PT3716</name></trkpt>
<trkpt lat="54.508313" lon="-3.200297"><ele>480</ele><time>2024-05-31T14:28:28Z</time><name>PT3717</name></trkpt>
<trkpt lat="54.508344" lon="-3.200289"><ele>480</ele><time>2024-05-31T14:28:31Z</time><name>PT3718</name></trkpt>
<trkpt lat="54.508367" lon="-3.200267"><ele>479</ele><time>2024-05-31T14:28:36Z</time><name>PT3719</name></trkpt>
<trkpt lat="54.508384" lon="-3.200253"><ele>478</ele><time>2024-05-31T14:28:39Z</time><name>PT3720</name></trkpt>
<trkpt lat="54.508411" lon="-3.200240"><ele>477</ele><time>2024-05-31T14:28:43Z</time><name>PT3721</name></trkpt>
<trkpt lat="54.508433" lon="-3.200231"><ele>476</ele><time>2024-05-31T14:28:46Z</time><name>PT3722</name></trkpt>
<trkpt lat="54.508456" lon="-3.200242"><ele>476</ele><time>2024-05-31T14:28:49Z</time><name>PT3723</name></trkpt>
<trkpt lat="54.508478" lon="-3.200265"><ele>476</ele><time>2024-05-31T14:28:52Z</time><name>PT3724</name></trkpt>
<trkpt lat="54.508502" lon="-3.200275"><ele>475</ele><time>2024-05-31T14:28:55Z</time><name>PT3725</name></trkpt>
<trkpt lat="54.508521" lon="-3.200271"><ele>474</ele><time>2024-05-31T14:28:58Z</time><name>PT3726</name></trkpt>
<trkpt lat="54.508539" lon="-3.200275"><ele>474</ele><time>2024-05-31T14:29:01Z</time><name>PT3727</name></trkpt>
<trkpt lat="54.508561" lon="-3.200294"><ele>473</ele><time>2024-05-31T14:29:06Z</time><name>PT3728</name></trkpt>
<trkpt lat="54.508575" lon="-3.200299"><ele>472</ele><time>2024-05-31T14:29:09Z</time><name>PT3729</name></trkpt>
<trkpt lat="54.508593" lon="-3.200312"><ele>472</ele><time>2024-05-31T14:29:13Z</time><name>PT3730</name></trkpt>
<trkpt lat="54.508608" lon="-3.200335"><ele>472</ele><time>2024-05-31T14:29:16Z</time><name>PT3731</name></trkpt>
<trkpt lat="54.508615" lon="-3.200343"><ele>472</ele><time>2024-05-31T14:29:19Z</time><name>PT3732</name></trkpt>
<trkpt lat="54.508625" lon="-3.200322"><ele>471</ele><time>2024-05-31T14:29:24Z</time><name>PT3733</name></trkpt>
<trkpt lat="54.508638" lon="-3.200306"><ele>470</ele><time>2024-05-31T14:29:28Z</time><name>PT3734</name></trkpt>
<trkpt lat="54.508652" lon="-3.200317"><ele>469</ele><time>2024-05-31T14:29:31Z</time><name>PT3735</name></trkpt>
<trkpt lat="54.508674" lon="-3.200332"><ele>469</ele><time>2024-05-31T14:29:34Z</time><name>PT3736</name></trkpt>
<trkpt lat="54.508692" lon="-3.200322"><ele>470</ele><time>2024-05-31T14:29:37Z</time><name>PT3737</name></trkpt>
<trkpt lat="54.508698" lon="-3.200318"><ele>470</ele><time>2024-05-31T14:29:42Z</time><name>PT3738</name></trkpt>
<trkpt lat="54.508700" lon="-3.200311"><ele>470</ele><time>2024-05-31T14:29:46Z</time><name>PT3739</name></trkpt>
<trkpt lat="54.508699" lon="-3.200289"><ele>469</ele><time>2024-05-31T14:29:49Z</time><name>PT3740</name></trkpt>
<trkpt lat="54.508713" lon="-3.200277"><ele>468</ele><time>2024-05-31T14:29:57Z</time><name>PT3741</name></trkpt>
<trkpt lat="54.508708" lon="-3.200245"><ele>467</ele><time>2024-05-31T14:30:00Z</time><name>PT3742</name></trkpt>
<trkpt lat="54.508710" lon="-3.200196"><ele>466</ele><time>2024-05-31T14:30:04Z</time><name>PT3743</name></trkpt>
<trkpt lat="54.508714" lon="-3.200160"><ele>465</ele><time>2024-05-31T14:30:13Z</time><name>PT3744</name></trkpt>
<trkpt lat="54.508711" lon="-3.200130"><ele>464</ele><time>2024-05-31T14:30:16Z</time><name>PT3745</name></trkpt>
<trkpt lat="54.508718" lon="-3.200096"><ele>462</ele><time>2024-05-31T14:30:19Z</time><name>PT3746</name></trkpt>
<trkpt lat="54.508722" lon="-3.200061"><ele>460</ele><time>2024-05-31T14:30:24Z</time><name>PT3747</name></trkpt>
<trkpt lat="54.508726" lon="-3.200043"><ele>459</ele><time>2024-05-31T14:30:28Z</time><name>PT3748</name></trkpt>
<trkpt lat="54.508754" lon="-3.200086"><ele>459</ele><time>2024-05-31T14:30:31Z</time><name>PT3749</name></trkpt>
<trkpt lat="54.508780" lon="-3.200116"><ele>458</ele><time>2024-05-31T14:30:36Z</time><name>PT3750</name></trkpt>
<trkpt lat="54.508794" lon="-3.200131"><ele>457</ele><time>2024-05-31T14:30:39Z</time><name>PT3751</name></trkpt>
<trkpt lat="54.508805" lon="-3.200153"><ele>457</ele><time>2024-05-31T14:30:42Z</time><name>PT3752</name></trkpt>
<trkpt lat="54.508825" lon="-3.200169"><ele>456</ele><time>2024-05-31T14:30:46Z</time><name>PT3753</name></trkpt>
<trkpt lat="54.508846" lon="-3.200184"><ele>456</ele><time>2024-05-31T14:30:49Z</time><name>PT3754</name></trkpt>
<trkpt lat="54.508853" lon="-3.200193"><ele>456</ele><time>2024-05-31T14:30:52Z</time><name>PT3755</name></trkpt>
<trkpt lat="54.508864" lon="-3.200237"><ele>455</ele><time>2024-05-31T14:31:01Z</time><name>PT3756</name></trkpt>
<trkpt lat="54.508872" lon="-3.200259"><ele>454</ele><time>2024-05-31T14:31:04Z</time><name>PT3757</name></trkpt>
<trkpt lat="54.508869" lon="-3.200291"><ele>454</ele><time>2024-05-31T14:31:07Z</time><name>PT3758</name></trkpt>
<trkpt lat="54.508871" lon="-3.200268"><ele>454</ele><time>2024-05-31T14:31:15Z</time><name>PT3759</name></trkpt>
<trkpt lat="54.508867" lon="-3.200259"><ele>453</ele><time>2024-05-31T14:31:25Z</time><name>PT3760</name></trkpt>
<trkpt lat="54.508873" lon="-3.200234"><ele>452</ele><time>2024-05-31T14:31:28Z</time><name>PT3761</name></trkpt>
<trkpt lat="54.508884" lon="-3.200195"><ele>451</ele><time>2024-05-31T14:31:33Z</time><name>PT3762</name></trkpt>
<trkpt lat="54.508891" lon="-3.200184"><ele>450</ele><time>2024-05-31T14:31:36Z</time><name>PT3763</name></trkpt>
<trkpt lat="54.508894" lon="-3.200160"><ele>448</ele><time>2024-05-31T14:31:40Z</time><name>PT3764</name></trkpt>
<trkpt lat="54.508894" lon="-3.200161"><ele>448</ele><time>2024-05-31T14:31:43Z</time><name>PT3765</name></trkpt>
<trkpt lat="54.508898" lon="-3.200183"><ele>447</ele><time>2024-05-31T14:31:48Z</time><name>PT3766</name></trkpt>
<trkpt lat="54.508905" lon="-3.200161"><ele>446</ele><time>2024-05-31T14:31:52Z</time><name>PT3767</name></trkpt>
<trkpt lat="54.508912" lon="-3.200156"><ele>445</ele><time>2024-05-31T14:31:55Z</time><name>PT3768</name></trkpt>
<trkpt lat="54.508922" lon="-3.200185"><ele>445</ele><time>2024-05-31T14:31:58Z</time><name>PT3769</name></trkpt>
<trkpt lat="54.508935" lon="-3.200187"><ele>444</ele><time>2024-05-31T14:32:06Z</time><name>PT3770</name></trkpt>
<trkpt lat="54.508946" lon="-3.200167"><ele>443</ele><time>2024-05-31T14:32:10Z</time><name>PT3771</name></trkpt>
<trkpt lat="54.508961" lon="-3.200131"><ele>442</ele><time>2024-05-31T14:32:13Z</time><name>PT3772</name></trkpt>
<trkpt lat="54.508976" lon="-3.200113"><ele>441</ele><time>2024-05-31T14:32:18Z</time><name>PT3773</name></trkpt>
<trkpt lat="54.508995" lon="-3.200093"><ele>442</ele><time>2024-05-31T14:32:21Z</time><name>PT3774</name></trkpt>
<trkpt lat="54.509001" lon="-3.200071"><ele>441</ele><time>2024-05-31T14:32:24Z</time><name>PT3775</name></trkpt>
<trkpt lat="54.509012" lon="-3.200050"><ele>440</ele><time>2024-05-31T14:32:27Z</time><name>PT3776</name></trkpt>
<trkpt lat="54.509014" lon="-3.200046"><ele>440</ele><time>2024-05-31T14:32:31Z</time><name>PT3777</name></trkpt>
<trkpt lat="54.509037" lon="-3.200072"><ele>439</ele><time>2024-05-31T14:32:34Z</time><name>PT3778</name></trkpt>
<trkpt lat="54.509057" lon="-3.200083"><ele>438</ele><time>2024-05-31T14:32:39Z</time><name>PT3779</name></trkpt>
<trkpt lat="54.509072" lon="-3.200086"><ele>437</ele><time>2024-05-31T14:32:43Z</time><name>PT3780</name></trkpt>
<trkpt lat="54.509087" lon="-3.200072"><ele>437</ele><time>2024-05-31T14:32:46Z</time><name>PT3781</name></trkpt>
<trkpt lat="54.509097" lon="-3.200052"><ele>436</ele><time>2024-05-31T14:32:49Z</time><name>PT3782</name></trkpt>
<trkpt lat="54.509106" lon="-3.200035"><ele>435</ele><time>2024-05-31T14:32:52Z</time><name>PT3783</name></trkpt>
<trkpt lat="54.509120" lon="-3.200002"><ele>434</ele><time>2024-05-31T14:32:55Z</time><name>PT3784</name></trkpt>
<trkpt lat="54.509129" lon="-3.199959"><ele>433</ele><time>2024-05-31T14:33:00Z</time><name>PT3785</name></trkpt>
<trkpt lat="54.509134" lon="-3.199918"><ele>431</ele><time>2024-05-31T14:33:04Z</time><name>PT3786</name></trkpt>
<trkpt lat="54.509159" lon="-3.199945"><ele>430</ele><time>2024-05-31T14:33:07Z</time><name>PT3787</name></trkpt>
<trkpt lat="54.509183" lon="-3.199969"><ele>430</ele><time>2024-05-31T14:33:12Z</time><name>PT3788</name></trkpt>
<trkpt lat="54.509193" lon="-3.199986"><ele>427</ele><time>2024-05-31T14:33:16Z</time><name>PT3789</name></trkpt>
<trkpt lat="54.509211" lon="-3.200008"><ele>426</ele><time>2024-05-31T14:33:19Z</time><name>PT3790</name></trkpt>
<trkpt lat="54.509221" lon="-3.200029"><ele>426</ele><time>2024-05-31T14:33:22Z</time><name>PT3791</name></trkpt>
<trkpt lat="54.509233" lon="-3.200017"><ele>424</ele><time>2024-05-31T14:33:27Z</time><name>PT3792</name></trkpt>
<trkpt lat="54.509244" lon="-3.200012"><ele>423</ele><time>2024-05-31T14:33:30Z</time><name>PT3793</name></trkpt>
<trkpt lat="54.509259" lon="-3.200018"><ele>422</ele><time>2024-05-31T14:33:34Z</time><name>PT3794</name></trkpt>
<trkpt lat="54.509268" lon="-3.200016"><ele>421</ele><time>2024-05-31T14:33:37Z</time><name>PT3795</name></trkpt>
<trkpt lat="54.509282" lon="-3.199970"><ele>419</ele><time>2024-05-31T14:33:46Z</time><name>PT3796</name></trkpt>
<trkpt lat="54.509306" lon="-3.199932"><ele>418</ele><time>2024-05-31T14:33:49Z</time><name>PT3797</name></trkpt>
<trkpt lat="54.509326" lon="-3.199933"><ele>417</ele><time>2024-05-31T14:33:52Z</time><name>PT3798</name></trkpt>
<trkpt lat="54.509340" lon="-3.199924"><ele>416</ele><time>2024-05-31T14:33:55Z</time><name>PT3799</name></trkpt>
<trkpt lat="54.509358" lon="-3.199898"><ele>415</ele><time>2024-05-31T14:34:00Z</time><name>PT3800</name></trkpt>
<trkpt lat="54.509375" lon="-3.199893"><ele>414</ele><time>2024-05-31T14:34:03Z</time><name>PT3801</name></trkpt>
<trkpt lat="54.509394" lon="-3.199882"><ele>412</ele><time>2024-05-31T14:34:07Z</time><name>PT3802</name></trkpt>
<trkpt lat="54.509409" lon="-3.199862"><ele>411</ele><time>2024-05-31T14:34:10Z</time><name>PT3803</name></trkpt>
<trkpt lat="54.509415" lon="-3.199855"><ele>411</ele><time>2024-05-31T14:34:13Z</time><name>PT3804</name></trkpt>
<trkpt lat="54.509426" lon="-3.199808"><ele>410</ele><time>2024-05-31T14:34:18Z</time><name>PT3805</name></trkpt>
<trkpt lat="54.509439" lon="-3.199761"><ele>409</ele><time>2024-05-31T14:34:22Z</time><name>PT3806</name></trkpt>
<trkpt lat="54.509453" lon="-3.199731"><ele>408</ele><time>2024-05-31T14:34:25Z</time><name>PT3807</name></trkpt>
<trkpt lat="54.509468" lon="-3.199709"><ele>407</ele><time>2024-05-31T14:34:30Z</time><name>PT3808</name></trkpt>
<trkpt lat="54.509471" lon="-3.199713"><ele>405</ele><time>2024-05-31T14:34:33Z</time><name>PT3809</name></trkpt>
<trkpt lat="54.509489" lon="-3.199714"><ele>404</ele><time>2024-05-31T14:34:37Z</time><name>PT3810</name></trkpt>
<trkpt lat="54.509507" lon="-3.199736"><ele>404</ele><time>2024-05-31T14:34:40Z</time><name>PT3811</name></trkpt>
<trkpt lat="54.509517" lon="-3.199731"><ele>402</ele><time>2024-05-31T14:34:45Z</time><name>PT3812</name></trkpt>
<trkpt lat="54.509535" lon="-3.199743"><ele>402</ele><time>2024-05-31T14:34:49Z</time><name>PT3813</name></trkpt>
<trkpt lat="54.509549" lon="-3.199735"><ele>401</ele><time>2024-05-31T14:34:52Z</time><name>PT3814</name></trkpt>
<trkpt lat="54.509560" lon="-3.199716"><ele>401</ele><time>2024-05-31T14:34:55Z</time><name>PT3815</name></trkpt>
<trkpt lat="54.509571" lon="-3.199717"><ele>401</ele><time>2024-05-31T14:35:00Z</time><name>PT3816</name></trkpt>
<trkpt lat="54.509579" lon="-3.199723"><ele>400</ele><time>2024-05-31T14:35:03Z</time><name>PT3817</name></trkpt>
<trkpt lat="54.509592" lon="-3.199713"><ele>399</ele><time>2024-05-31T14:35:07Z</time><name>PT3818</name></trkpt>
<trkpt lat="54.509604" lon="-3.199712"><ele>398</ele><time>2024-05-31T14:35:10Z</time><name>PT3819</name></trkpt>
<trkpt lat="54.509626" lon="-3.199703"><ele>397</ele><time>2024-05-31T14:35:13Z</time><name>PT3820</name></trkpt>
<trkpt lat="54.509641" lon="-3.199682"><ele>397</ele><time>2024-05-31T14:35:18Z</time><name>PT3821</name></trkpt>
<trkpt lat="54.509652" lon="-3.199674"><ele>397</ele><time>2024-05-31T14:35:21Z</time><name>PT3822</name></trkpt>
<trkpt lat="54.509656" lon="-3.199661"><ele>397</ele><time>2024-05-31T14:35:25Z</time><name>PT3823</name></trkpt>
<trkpt lat="54.509675" lon="-3.199621"><ele>397</ele><time>2024-05-31T14:35:28Z</time><name>PT3824</name></trkpt>
<trkpt lat="54.509688" lon="-3.199579"><ele>396</ele><time>2024-05-31T14:35:31Z</time><name>PT3825</name></trkpt>
<trkpt lat="54.509707" lon="-3.199581"><ele>395</ele><time>2024-05-31T14:35:34Z</time><name>PT3826</name></trkpt>
<trkpt lat="54.509724" lon="-3.199603"><ele>394</ele><time>2024-05-31T14:35:37Z</time><name>PT3827</name></trkpt>
<trkpt lat="54.509739" lon="-3.199597"><ele>392</ele><time>2024-05-31T14:35:40Z</time><name>PT3828</name></trkpt>
<trkpt lat="54.509755" lon="-3.199555"><ele>391</ele><time>2024-05-31T14:35:45Z</time><name>PT3829</name></trkpt>
<trkpt lat="54.509756" lon="-3.199531"><ele>390</ele><time>2024-05-31T14:35:48Z</time><name>PT3830</name></trkpt>
<trkpt lat="54.509766" lon="-3.199524"><ele>390</ele><time>2024-05-31T14:35:52Z</time><name>PT3831</name></trkpt>
<trkpt lat="54.509782" lon="-3.199555"><ele>389</ele><time>2024-05-31T14:35:55Z</time><name>PT3832</name></trkpt>
<trkpt lat="54.509813" lon="-3.199550"><ele>389</ele><time>2024-05-31T14:35:58Z</time><name>PT3833</name></trkpt>
<trkpt lat="54.509838" lon="-3.199531"><ele>389</ele><time>2024-05-31T14:36:03Z</time><name>PT3834</name></trkpt>
<trkpt lat="54.509862" lon="-3.199522"><ele>389</ele><time>2024-05-31T14:36:07Z</time><name>PT3835</name></trkpt>
<trkpt lat="54.509872" lon="-3.199502"><ele>388</ele><time>2024-05-31T14:36:10Z</time><name>PT3836</name></trkpt>
<trkpt lat="54.509885" lon="-3.199469"><ele>388</ele><time>2024-05-31T14:36:13Z</time><name>PT3837</name></trkpt>
<trkpt lat="54.509903" lon="-3.199463"><ele>387</ele><time>2024-05-31T14:36:16Z</time><name>PT3838</name></trkpt>
<trkpt lat="54.509925" lon="-3.199469"><ele>386</ele><time>2024-05-31T14:36:21Z</time><name>PT3839</name></trkpt>
<trkpt lat="54.509940" lon="-3.199457"><ele>385</ele><time>2024-05-31T14:36:25Z</time><name>PT3840</name></trkpt>
<trkpt lat="54.509956" lon="-3.199454"><ele>384</ele><time>2024-05-31T14:36:28Z</time><name>PT3841</name></trkpt>
<trkpt lat="54.509975" lon="-3.199439"><ele>384</ele><time>2024-05-31T14:36:31Z</time><name>PT3842</name></trkpt>
<trkpt lat="54.509996" lon="-3.199425"><ele>382</ele><time>2024-05-31T14:36:34Z</time><name>PT3843</name></trkpt>
<trkpt lat="54.510014" lon="-3.199409"><ele>381</ele><time>2024-05-31T14:36:37Z</time><name>PT3844</name></trkpt>
<trkpt lat="54.510032" lon="-3.199381"><ele>381</ele><time>2024-05-31T14:36:40Z</time><name>PT3845</name></trkpt>
<trkpt lat="54.510055" lon="-3.199339"><ele>381</ele><time>2024-05-31T14:36:45Z</time><name>PT3846</name></trkpt>
<trkpt lat="54.510071" lon="-3.199317"><ele>381</ele><time>2024-05-31T14:36:48Z</time><name>PT3847</name></trkpt>
<trkpt lat="54.510101" lon="-3.199299"><ele>380</ele><time>2024-05-31T14:36:51Z</time><name>PT3848</name></trkpt>
<trkpt lat="54.510125" lon="-3.199289"><ele>380</ele><time>2024-05-31T14:36:55Z</time><name>PT3849</name></trkpt>
<trkpt lat="54.510142" lon="-3.199277"><ele>379</ele><time>2024-05-31T14:36:58Z</time><name>PT3850</name></trkpt>
<trkpt lat="54.510163" lon="-3.199259"><ele>378</ele><time>2024-05-31T14:37:01Z</time><name>PT3851</name></trkpt>
<trkpt lat="54.510198" lon="-3.199237"><ele>375</ele><time>2024-05-31T14:37:06Z</time><name>PT3852</name></trkpt>
<trkpt lat="54.510220" lon="-3.199214"><ele>374</ele><time>2024-05-31T14:37:09Z</time><name>PT3853</name></trkpt>
<trkpt lat="54.510257" lon="-3.199180"><ele>373</ele><time>2024-05-31T14:37:13Z</time><name>PT3854</name></trkpt>
<trkpt lat="54.510292" lon="-3.199156"><ele>372</ele><time>2024-05-31T14:37:16Z</time><name>PT3855</name></trkpt>
<trkpt lat="54.510337" lon="-3.199104"><ele>371</ele><time>2024-05-31T14:37:19Z</time><name>PT3856</name></trkpt>
<trkpt lat="54.510366" lon="-3.199085"><ele>372</ele><time>2024-05-31T14:37:24Z</time><name>PT3857</name></trkpt>
<trkpt lat="54.510381" lon="-3.199065"><ele>372</ele><time>2024-05-31T14:37:27Z</time><name>PT3858</name></trkpt>
<trkpt lat="54.510403" lon="-3.199056"><ele>371</ele><time>2024-05-31T14:37:30Z</time><name>PT3859</name></trkpt>
<trkpt lat="54.510444" lon="-3.199040"><ele>370</ele><time>2024-05-31T14:37:34Z</time><name>PT3860</name></trkpt>
<trkpt lat="54.510477" lon="-3.199006"><ele>370</ele><time>2024-05-31T14:37:37Z</time><name>PT3861</name></trkpt>
<trkpt lat="54.510500" lon="-3.198993"><ele>368</ele><time>2024-05-31T14:37:40Z</time><name>PT3862</name></trkpt>
<trkpt lat="54.510532" lon="-3.198967"><ele>367</ele><time>2024-05-31T14:37:45Z</time><name>PT3863</name></trkpt>
<trkpt lat="54.510549" lon="-3.198929"><ele>366</ele><time>2024-05-31T14:37:48Z</time><name>PT3864</name></trkpt>
<trkpt lat="54.510560" lon="-3.198857"><ele>365</ele><time>2024-05-31T14:37:52Z</time><name>PT3865</name></trkpt>
<trkpt lat="54.510570" lon="-3.198797"><ele>366</ele><time>2024-05-31T14:37:55Z</time><name>PT3866</name></trkpt>
<trkpt lat="54.510583" lon="-3.198743"><ele>366</ele><time>2024-05-31T14:37:58Z</time><name>PT3867</name></trkpt>
<trkpt lat="54.510590" lon="-3.198708"><ele>365</ele><time>2024-05-31T14:38:03Z</time><name>PT3868</name></trkpt>
<trkpt lat="54.510596" lon="-3.198698"><ele>364</ele><time>2024-05-31T14:38:07Z</time><name>PT3869</name></trkpt>
<trkpt lat="54.510597" lon="-3.198697"><ele>364</ele><time>2024-05-31T14:38:10Z</time><name>PT3870</name></trkpt>
<trkpt lat="54.510606" lon="-3.198701"><ele>363</ele><time>2024-05-31T14:38:13Z</time><name>PT3871</name></trkpt>
<trkpt lat="54.510604" lon="-3.198697"><ele>363</ele><time>2024-05-31T14:38:16Z</time><name>PT3872</name></trkpt>
<trkpt lat="54.510600" lon="-3.198696"><ele>362</ele><time>2024-05-31T14:38:21Z</time><name>PT3873</name></trkpt>
<trkpt lat="54.510605" lon="-3.198704"><ele>362</ele><time>2024-05-31T14:38:39Z</time><name>PT3874</name></trkpt>
<trkpt lat="54.510604" lon="-3.198706"><ele>362</ele><time>2024-05-31T14:38:43Z</time><name>PT3875</name></trkpt>
<trkpt lat="54.510606" lon="-3.198691"><ele>364</ele><time>2024-05-31T14:39:07Z</time><name>PT3876</name></trkpt>
<trkpt lat="54.510613" lon="-3.198679"><ele>365</ele><time>2024-05-31T14:39:12Z</time><name>PT3877</name></trkpt>
<trkpt lat="54.510613" lon="-3.198681"><ele>365</ele><time>2024-05-31T14:41:01Z</time><name>PT3878</name></trkpt>
<trkpt lat="54.510618" lon="-3.198695"><ele>365</ele><time>2024-05-31T14:50:15Z</time><name>PT3879</name></trkpt>
<trkpt lat="54.510617" lon="-3.198704"><ele>364</ele><time>2024-05-31T14:50:18Z</time><name>PT3880</name></trkpt>
<trkpt lat="54.510617" lon="-3.198721"><ele>364</ele><time>2024-05-31T14:50:30Z</time><name>PT3881</name></trkpt>
<trkpt lat="54.510624" lon="-3.198711"><ele>365</ele><time>2024-05-31T14:52:48Z</time><name>PT3882</name></trkpt>
<trkpt lat="54.510623" lon="-3.198703"><ele>365</ele><time>2024-05-31T14:52:51Z</time><name>PT3883</name></trkpt>
<trkpt lat="54.510623" lon="-3.198706"><ele>365</ele><time>2024-05-31T14:57:50Z</time><name>PT3884</name></trkpt>
<trkpt lat="54.510620" lon="-3.198691"><ele>365</ele><time>2024-05-31T14:57:53Z</time><name>PT3885</name></trkpt>
<trkpt lat="54.510631" lon="-3.198678"><ele>365</ele><time>2024-05-31T14:58:23Z</time><name>PT3886</name></trkpt>
<trkpt lat="54.510655" lon="-3.198644"><ele>365</ele><time>2024-05-31T14:58:26Z</time><name>PT3887</name></trkpt>
<trkpt lat="54.510674" lon="-3.198616"><ele>364</ele><time>2024-05-31T14:58:29Z</time><name>PT3888</name></trkpt>
<trkpt lat="54.510714" lon="-3.198555"><ele>364</ele><time>2024-05-31T14:58:32Z</time><name>PT3889</name></trkpt>
<trkpt lat="54.510748" lon="-3.198507"><ele>364</ele><time>2024-05-31T14:58:37Z</time><name>PT3890</name></trkpt>
<trkpt lat="54.510757" lon="-3.198480"><ele>364</ele><time>2024-05-31T14:58:40Z</time><name>PT3891</name></trkpt>
<trkpt lat="54.510766" lon="-3.198437"><ele>363</ele><time>2024-05-31T14:58:44Z</time><name>PT3892</name></trkpt>
<trkpt lat="54.510765" lon="-3.198418"><ele>363</ele><time>2024-05-31T14:58:47Z</time><name>PT3893</name></trkpt>
<trkpt lat="54.510776" lon="-3.198409"><ele>364</ele><time>2024-05-31T14:58:52Z</time><name>PT3894</name></trkpt>
<trkpt lat="54.510784" lon="-3.198355"><ele>363</ele><time>2024-05-31T14:58:55Z</time><name>PT3895</name></trkpt>
<trkpt lat="54.510807" lon="-3.198292"><ele>363</ele><time>2024-05-31T14:58:59Z</time><name>PT3896</name></trkpt>
<trkpt lat="54.510847" lon="-3.198272"><ele>362</ele><time>2024-05-31T14:59:02Z</time><name>PT3897</name></trkpt>
<trkpt lat="54.510890" lon="-3.198263"><ele>361</ele><time>2024-05-31T14:59:05Z</time><name>PT3898</name></trkpt>
<trkpt lat="54.510931" lon="-3.198253"><ele>362</ele><time>2024-05-31T14:59:08Z</time><name>PT3899</name></trkpt>
<trkpt lat="54.510980" lon="-3.198239"><ele>361</ele><time>2024-05-31T14:59:13Z</time><name>PT3900</name></trkpt>
<trkpt lat="54.511020" lon="-3.198233"><ele>363</ele><time>2024-05-31T14:59:16Z</time><name>PT3901</name></trkpt>
<trkpt lat="54.511064" lon="-3.198240"><ele>362</ele><time>2024-05-31T14:59:20Z</time><name>PT3902</name></trkpt>
<trkpt lat="54.511113" lon="-3.198267"><ele>361</ele><time>2024-05-31T14:59:23Z</time><name>PT3903</name></trkpt>
<trkpt lat="54.511163" lon="-3.198250"><ele>361</ele><time>2024-05-31T14:59:28Z</time><name>PT3904</name></trkpt>
<trkpt lat="54.511197" lon="-3.198223"><ele>360</ele><time>2024-05-31T14:59:31Z</time><name>PT3905</name></trkpt>
<trkpt lat="54.511205" lon="-3.198222"><ele>360</ele><time>2024-05-31T14:59:35Z</time><name>PT3906</name></trkpt>
<trkpt lat="54.511205" lon="-3.198152"><ele>359</ele><time>2024-05-31T14:59:38Z</time><name>PT3907</name></trkpt>
<trkpt lat="54.511211" lon="-3.198104"><ele>359</ele><time>2024-05-31T14:59:41Z</time><name>PT3908</name></trkpt>
<trkpt lat="54.511228" lon="-3.198027"><ele>358</ele><time>2024-05-31T14:59:46Z</time><name>PT3909</name></trkpt>
<trkpt lat="54.511234" lon="-3.197933"><ele>359</ele><time>2024-05-31T14:59:50Z</time><name>PT3910</name></trkpt>
<trkpt lat="54.511239" lon="-3.197858"><ele>359</ele><time>2024-05-31T14:59:53Z</time><name>PT3911</name></trkpt>
<trkpt lat="54.511247" lon="-3.197790"><ele>358</ele><time>2024-05-31T14:59:58Z</time><name>PT3912</name></trkpt>
<trkpt lat="54.511243" lon="-3.197708"><ele>358</ele><time>2024-05-31T15:00:02Z</time><name>PT3913</name></trkpt>
<trkpt lat="54.511250" lon="-3.197666"><ele>358</ele><time>2024-05-31T15:00:05Z</time><name>PT3914</name></trkpt>
<trkpt lat="54.511265" lon="-3.197614"><ele>357</ele><time>2024-05-31T15:00:08Z</time><name>PT3915</name></trkpt>
<trkpt lat="54.511274" lon="-3.197561"><ele>357</ele><time>2024-05-31T15:00:11Z</time><name>PT3916</name></trkpt>
<trkpt lat="54.511282" lon="-3.197468"><ele>357</ele><time>2024-05-31T15:00:14Z</time><name>PT3917</name></trkpt>
<trkpt lat="54.511294" lon="-3.197412"><ele>357</ele><time>2024-05-31T15:00:17Z</time><name>PT3918</name></trkpt>
<trkpt lat="54.511324" lon="-3.197346"><ele>357</ele><time>2024-05-31T15:00:22Z</time><name>PT3919</name></trkpt>
<trkpt lat="54.511357" lon="-3.197302"><ele>357</ele><time>2024-05-31T15:00:25Z</time><name>PT3920</name></trkpt>
<trkpt lat="54.511400" lon="-3.197253"><ele>358</ele><time>2024-05-31T15:00:29Z</time><name>PT3921</name></trkpt>
<trkpt lat="54.511446" lon="-3.197210"><ele>359</ele><time>2024-05-31T15:00:32Z</time><name>PT3922</name></trkpt>
<trkpt lat="54.511480" lon="-3.197177"><ele>360</ele><time>2024-05-31T15:00:35Z</time><name>PT3923</name></trkpt>
<trkpt lat="54.511504" lon="-3.197145"><ele>361</ele><time>2024-05-31T15:00:38Z</time><name>PT3924</name></trkpt>
<trkpt lat="54.511532" lon="-3.197118"><ele>361</ele><time>2024-05-31T15:00:41Z</time><name>PT3925</name></trkpt>
<trkpt lat="54.511574" lon="-3.197078"><ele>362</ele><time>2024-05-31T15:00:46Z</time><name>PT3926</name></trkpt>
<trkpt lat="54.511607" lon="-3.197048"><ele>362</ele><time>2024-05-31T15:00:49Z</time><name>PT3927</name></trkpt>
<trkpt lat="54.511644" lon="-3.196997"><ele>363</ele><time>2024-05-31T15:00:53Z</time><name>PT3928</name></trkpt>
<trkpt lat="54.511682" lon="-3.196953"><ele>364</ele><time>2024-05-31T15:00:56Z</time><name>PT3929</name></trkpt>
<trkpt lat="54.511706" lon="-3.196898"><ele>364</ele><time>2024-05-31T15:00:59Z</time><name>PT3930</name></trkpt>
<trkpt lat="54.511709" lon="-3.196817"><ele>363</ele><time>2024-05-31T15:01:04Z</time><name>PT3931</name></trkpt>
<trkpt lat="54.511716" lon="-3.196751"><ele>363</ele><time>2024-05-31T15:01:07Z</time><name>PT3932</name></trkpt>
<trkpt lat="54.511737" lon="-3.196659"><ele>363</ele><time>2024-05-31T15:01:11Z</time><name>PT3933</name></trkpt>
<trkpt lat="54.511748" lon="-3.196594"><ele>363</ele><time>2024-05-31T15:01:14Z</time><name>PT3934</name></trkpt>
<trkpt lat="54.511768" lon="-3.196496"><ele>363</ele><time>2024-05-31T15:01:17Z</time><name>PT3935</name></trkpt>
<trkpt lat="54.511779" lon="-3.196451"><ele>363</ele><time>2024-05-31T15:01:20Z</time><name>PT3936</name></trkpt>
<trkpt lat="54.511794" lon="-3.196386"><ele>362</ele><time>2024-05-31T15:01:23Z</time><name>PT3937</name></trkpt>
<trkpt lat="54.511807" lon="-3.196285"><ele>362</ele><time>2024-05-31T15:01:28Z</time><name>PT3938</name></trkpt>
<trkpt lat="54.511815" lon="-3.196203"><ele>362</ele><time>2024-05-31T15:01:32Z</time><name>PT3939</name></trkpt>
<trkpt lat="54.511833" lon="-3.196128"><ele>362</ele><time>2024-05-31T15:01:35Z</time><name>PT3940</name></trkpt>
<trkpt lat="54.511852" lon="-3.196066"><ele>362</ele><time>2024-05-31T15:01:38Z</time><name>PT3941</name></trkpt>
<trkpt lat="54.511872" lon="-3.195996"><ele>362</ele><time>2024-05-31T15:01:41Z</time><name>PT3942</name></trkpt>
<trkpt lat="54.511907" lon="-3.195920"><ele>361</ele><time>2024-05-31T15:01:46Z</time><name>PT3943</name></trkpt>
<trkpt lat="54.511938" lon="-3.195870"><ele>360</ele><time>2024-05-31T15:01:50Z</time><name>PT3944</name></trkpt>
<trkpt lat="54.511966" lon="-3.195825"><ele>358</ele><time>2024-05-31T15:01:53Z</time><name>PT3945</name></trkpt>
<trkpt lat="54.512016" lon="-3.195765"><ele>358</ele><time>2024-05-31T15:01:56Z</time><name>PT3946</name></trkpt>
<trkpt lat="54.512039" lon="-3.195736"><ele>357</ele><time>2024-05-31T15:01:59Z</time><name>PT3947</name></trkpt>
<trkpt lat="54.512076" lon="-3.195681"><ele>356</ele><time>2024-05-31T15:02:04Z</time><name>PT3948</name></trkpt>
<trkpt lat="54.512135" lon="-3.195623"><ele>356</ele><time>2024-05-31T15:02:08Z</time><name>PT3949</name></trkpt>
<trkpt lat="54.512159" lon="-3.195589"><ele>356</ele><time>2024-05-31T15:02:11Z</time><name>PT3950</name></trkpt>
<trkpt lat="54.512190" lon="-3.195562"><ele>355</ele><time>2024-05-31T15:02:14Z</time><name>PT3951</name></trkpt>
<trkpt lat="54.512231" lon="-3.195543"><ele>355</ele><time>2024-05-31T15:02:17Z</time><name>PT3952</name></trkpt>
<trkpt lat="54.512267" lon="-3.195506"><ele>353</ele><time>2024-05-31T15:02:20Z</time><name>PT3953</name></trkpt>
<trkpt lat="54.512285" lon="-3.195428"><ele>352</ele><time>2024-05-31T15:02:25Z</time><name>PT3954</name></trkpt>
<trkpt lat="54.512301" lon="-3.195363"><ele>351</ele><time>2024-05-31T15:02:28Z</time><name>PT3955</name></trkpt>
<trkpt lat="54.512320" lon="-3.195301"><ele>351</ele><time>2024-05-31T15:02:31Z</time><name>PT3956</name></trkpt>
<trkpt lat="54.512341" lon="-3.195239"><ele>350</ele><time>2024-05-31T15:02:35Z</time><name>PT3957</name></trkpt>
<trkpt lat="54.512366" lon="-3.195189"><ele>349</ele><time>2024-05-31T15:02:38Z</time><name>PT3958</name></trkpt>
<trkpt lat="54.512396" lon="-3.195130"><ele>349</ele><time>2024-05-31T15:02:41Z</time><name>PT3959</name></trkpt>
<trkpt lat="54.512419" lon="-3.195082"><ele>348</ele><time>2024-05-31T15:02:44Z</time><name>PT3960</name></trkpt>
<trkpt lat="54.512444" lon="-3.195033"><ele>347</ele><time>2024-05-31T15:02:47Z</time><name>PT3961</name></trkpt>
<trkpt lat="54.512475" lon="-3.194968"><ele>347</ele><time>2024-05-31T15:02:50Z</time><name>PT3962</name></trkpt>
<trkpt lat="54.512496" lon="-3.194926"><ele>345</ele><time>2024-05-31T15:02:55Z</time><name>PT3963</name></trkpt>
<trkpt lat="54.512529" lon="-3.194868"><ele>344</ele><time>2024-05-31T15:02:59Z</time><name>PT3964</name></trkpt>
<trkpt lat="54.512556" lon="-3.194794"><ele>343</ele><time>2024-05-31T15:03:02Z</time><name>PT3965</name></trkpt>
<trkpt lat="54.512574" lon="-3.194751"><ele>343</ele><time>2024-05-31T15:03:05Z</time><name>PT3966</name></trkpt>
<trkpt lat="54.512602" lon="-3.194665"><ele>343</ele><time>2024-05-31T15:03:09Z</time><name>PT3967</name></trkpt>
<trkpt lat="54.512624" lon="-3.194591"><ele>342</ele><time>2024-05-31T15:03:14Z</time><name>PT3968</name></trkpt>
<trkpt lat="54.512637" lon="-3.194537"><ele>341</ele><time>2024-05-31T15:03:17Z</time><name>PT3969</name></trkpt>
<trkpt lat="54.512661" lon="-3.194485"><ele>341</ele><time>2024-05-31T15:03:20Z</time><name>PT3970</name></trkpt>
<trkpt lat="54.512685" lon="-3.194410"><ele>340</ele><time>2024-05-31T15:03:23Z</time><name>PT3971</name></trkpt>
<trkpt lat="54.512709" lon="-3.194381"><ele>339</ele><time>2024-05-31T15:03:26Z</time><name>PT3972</name></trkpt>
<trkpt lat="54.512742" lon="-3.194328"><ele>337</ele><time>2024-05-31T15:03:31Z</time><name>PT3973</name></trkpt>
<trkpt lat="54.512782" lon="-3.194268"><ele>336</ele><time>2024-05-31T15:03:35Z</time><name>PT3974</name></trkpt>
<trkpt lat="54.512808" lon="-3.194232"><ele>335</ele><time>2024-05-31T15:03:38Z</time><name>PT3975</name></trkpt>
<trkpt lat="54.512840" lon="-3.194167"><ele>335</ele><time>2024-05-31T15:03:41Z</time><name>PT3976</name></trkpt>
<trkpt lat="54.512858" lon="-3.194073"><ele>334</ele><time>2024-05-31T15:03:46Z</time><name>PT3977</name></trkpt>
<trkpt lat="54.512862" lon="-3.193997"><ele>333</ele><time>2024-05-31T15:03:50Z</time><name>PT3978</name></trkpt>
<trkpt lat="54.512871" lon="-3.193927"><ele>333</ele><time>2024-05-31T15:03:53Z</time><name>PT3979</name></trkpt>
<trkpt lat="54.512877" lon="-3.193850"><ele>332</ele><time>2024-05-31T15:03:56Z</time><name>PT3980</name></trkpt>
<trkpt lat="54.512875" lon="-3.193740"><ele>333</ele><time>2024-05-31T15:03:59Z</time><name>PT3981</name></trkpt>
<trkpt lat="54.512873" lon="-3.193683"><ele>332</ele><time>2024-05-31T15:04:02Z</time><name>PT3982</name></trkpt>
<trkpt lat="54.512879" lon="-3.193603"><ele>329</ele><time>2024-05-31T15:04:07Z</time><name>PT3983</name></trkpt>
<trkpt lat="54.512879" lon="-3.193523"><ele>329</ele><time>2024-05-31T15:04:10Z</time><name>PT3984</name></trkpt>
<trkpt lat="54.512882" lon="-3.193424"><ele>327</ele><time>2024-05-31T15:04:14Z</time><name>PT3985</name></trkpt>
<trkpt lat="54.512896" lon="-3.193357"><ele>326</ele><time>2024-05-31T15:04:17Z</time><name>PT3986</name></trkpt>
<trkpt lat="54.512926" lon="-3.193311"><ele>325</ele><time>2024-05-31T15:04:20Z</time><name>PT3987</name></trkpt>
<trkpt lat="54.512991" lon="-3.193249"><ele>324</ele><time>2024-05-31T15:04:25Z</time><name>PT3988</name></trkpt>
<trkpt lat="54.513018" lon="-3.193192"><ele>324</ele><time>2024-05-31T15:04:29Z</time><name>PT3989</name></trkpt>
<trkpt lat="54.513037" lon="-3.193137"><ele>324</ele><time>2024-05-31T15:04:32Z</time><name>PT3990</name></trkpt>
<trkpt lat="54.513063" lon="-3.193080"><ele>324</ele><time>2024-05-31T15:04:35Z</time><name>PT3991</name></trkpt>
<trkpt lat="54.513085" lon="-3.193018"><ele>324</ele><time>2024-05-31T15:04:38Z</time><name>PT3992</name></trkpt>
<trkpt lat="54.513096" lon="-3.192975"><ele>322</ele><time>2024-05-31T15:04:41Z</time><name>PT3993</name></trkpt>
<trkpt lat="54.513119" lon="-3.192901"><ele>322</ele><time>2024-05-31T15:04:46Z</time><name>PT3994</name></trkpt>
<trkpt lat="54.513123" lon="-3.192853"><ele>322</ele><time>2024-05-31T15:04:49Z</time><name>PT3995</name></trkpt>
<trkpt lat="54.513113" lon="-3.192757"><ele>322</ele><time>2024-05-31T15:04:53Z</time><name>PT3996</name></trkpt>
<trkpt lat="54.513109" lon="-3.192679"><ele>323</ele><time>2024-05-31T15:04:56Z</time><name>PT3997</name></trkpt>
<trkpt lat="54.513107" lon="-3.192575"><ele>323</ele><time>2024-05-31T15:05:01Z</time><name>PT3998</name></trkpt>
<trkpt lat="54.513108" lon="-3.192522"><ele>322</ele><time>2024-05-31T15:05:04Z</time><name>PT3999</name></trkpt>
<trkpt lat="54.513110" lon="-3.192429"><ele>322</ele><time>2024-05-31T15:05:08Z</time><name>PT4000</name></trkpt>
<trkpt lat="54.513104" lon="-3.192349"><ele>322</ele><time>2024-05-31T15:05:11Z</time><name>PT4001</name></trkpt>
<trkpt lat="54.513102" lon="-3.192285"><ele>321</ele><time>2024-05-31T15:05:14Z</time><name>PT4002</name></trkpt>
<trkpt lat="54.513097" lon="-3.192193"><ele>322</ele><time>2024-05-31T15:05:19Z</time><name>PT4003</name></trkpt>
<trkpt lat="54.513092" lon="-3.192125"><ele>322</ele><time>2024-05-31T15:05:22Z</time><name>PT4004</name></trkpt>
<trkpt lat="54.513082" lon="-3.192045"><ele>323</ele><time>2024-05-31T15:05:25Z</time><name>PT4005</name></trkpt>
<trkpt lat="54.513074" lon="-3.191969"><ele>322</ele><time>2024-05-31T15:05:29Z</time><name>PT4006</name></trkpt>
<trkpt lat="54.513065" lon="-3.191873"><ele>322</ele><time>2024-05-31T15:05:32Z</time><name>PT4007</name></trkpt>
<trkpt lat="54.513057" lon="-3.191816"><ele>322</ele><time>2024-05-31T15:05:35Z</time><name>PT4008</name></trkpt>
<trkpt lat="54.513045" lon="-3.191736"><ele>320</ele><time>2024-05-31T15:05:40Z</time><name>PT4009</name></trkpt>
<trkpt lat="54.513028" lon="-3.191651"><ele>320</ele><time>2024-05-31T15:05:44Z</time><name>PT4010</name></trkpt>
<trkpt lat="54.513030" lon="-3.191569"><ele>319</ele><time>2024-05-31T15:05:47Z</time><name>PT4011</name></trkpt>
<trkpt lat="54.513024" lon="-3.191467"><ele>319</ele><time>2024-05-31T15:05:52Z</time><name>PT4012</name></trkpt>
<trkpt lat="54.513032" lon="-3.191392"><ele>318</ele><time>2024-05-31T15:05:56Z</time><name>PT4013</name></trkpt>
<trkpt lat="54.513038" lon="-3.191321"><ele>318</ele><time>2024-05-31T15:05:59Z</time><name>PT4014</name></trkpt>
<trkpt lat="54.513036" lon="-3.191243"><ele>317</ele><time>2024-05-31T15:06:02Z</time><name>PT4015</name></trkpt>
<trkpt lat="54.513034" lon="-3.191157"><ele>318</ele><time>2024-05-31T15:06:07Z</time><name>PT4016</name></trkpt>
<trkpt lat="54.513027" lon="-3.191098"><ele>317</ele><time>2024-05-31T15:06:10Z</time><name>PT4017</name></trkpt>
<trkpt lat="54.513020" lon="-3.191025"><ele>317</ele><time>2024-05-31T15:06:13Z</time><name>PT4018</name></trkpt>
<trkpt lat="54.513026" lon="-3.190973"><ele>316</ele><time>2024-05-31T15:06:16Z</time><name>PT4019</name></trkpt>
<trkpt lat="54.513020" lon="-3.190893"><ele>316</ele><time>2024-05-31T15:06:20Z</time><name>PT4020</name></trkpt>
<trkpt lat="54.513010" lon="-3.190827"><ele>315</ele><time>2024-05-31T15:06:23Z</time><name>PT4021</name></trkpt>
<trkpt lat="54.513004" lon="-3.190753"><ele>316</ele><time>2024-05-31T15:06:26Z</time><name>PT4022</name></trkpt>
<trkpt lat="54.513006" lon="-3.190706"><ele>314</ele><time>2024-05-31T15:06:29Z</time><name>PT4023</name></trkpt>
<trkpt lat="54.513015" lon="-3.190613"><ele>315</ele><time>2024-05-31T15:06:34Z</time><name>PT4024</name></trkpt>
<trkpt lat="54.513023" lon="-3.190532"><ele>314</ele><time>2024-05-31T15:06:38Z</time><name>PT4025</name></trkpt>
<trkpt lat="54.513026" lon="-3.190479"><ele>314</ele><time>2024-05-31T15:06:41Z</time><name>PT4026</name></trkpt>
<trkpt lat="54.513034" lon="-3.190378"><ele>314</ele><time>2024-05-31T15:06:44Z</time><name>PT4027</name></trkpt>
<trkpt lat="54.513037" lon="-3.190297"><ele>314</ele><time>2024-05-31T15:06:49Z</time><name>PT4028</name></trkpt>
<trkpt lat="54.513035" lon="-3.190227"><ele>313</ele><time>2024-05-31T15:06:52Z</time><name>PT4029</name></trkpt>
<trkpt lat="54.513027" lon="-3.190156"><ele>313</ele><time>2024-05-31T15:06:55Z</time><name>PT4030</name></trkpt>
<trkpt lat="54.513023" lon="-3.190081"><ele>312</ele><time>2024-05-31T15:06:59Z</time><name>PT4031</name></trkpt>
<trkpt lat="54.513025" lon="-3.190002"><ele>313</ele><time>2024-05-31T15:07:02Z</time><name>PT4032</name></trkpt>
<trkpt lat="54.513021" lon="-3.189921"><ele>312</ele><time>2024-05-31T15:07:05Z</time><name>PT4033</name></trkpt>
<trkpt lat="54.513017" lon="-3.189852"><ele>311</ele><time>2024-05-31T15:07:08Z</time><name>PT4034</name></trkpt>
<trkpt lat="54.513018" lon="-3.189791"><ele>311</ele><time>2024-05-31T15:07:11Z</time><name>PT4035</name></trkpt>
<trkpt lat="54.513013" lon="-3.189722"><ele>311</ele><time>2024-05-31T15:07:14Z</time><name>PT4036</name></trkpt>
<trkpt lat="54.513001" lon="-3.189645"><ele>309</ele><time>2024-05-31T15:07:19Z</time><name>PT4037</name></trkpt>
<trkpt lat="54.512991" lon="-3.189583"><ele>309</ele><time>2024-05-31T15:07:22Z</time><name>PT4038</name></trkpt>
<trkpt lat="54.512973" lon="-3.189512"><ele>309</ele><time>2024-05-31T15:07:25Z</time><name>PT4039</name></trkpt>
<trkpt lat="54.512949" lon="-3.189464"><ele>308</ele><time>2024-05-31T15:07:29Z</time><name>PT4040</name></trkpt>
<trkpt lat="54.512931" lon="-3.189416"><ele>308</ele><time>2024-05-31T15:07:33Z</time><name>PT4041</name></trkpt>
<trkpt lat="54.512916" lon="-3.189337"><ele>308</ele><time>2024-05-31T15:07:36Z</time><name>PT4042</name></trkpt>
<trkpt lat="54.512906" lon="-3.189259"><ele>308</ele><time>2024-05-31T15:07:40Z</time><name>PT4043</name></trkpt>
<trkpt lat="54.512909" lon="-3.189168"><ele>307</ele><time>2024-05-31T15:07:43Z</time><name>PT4044</name></trkpt>
<trkpt lat="54.512895" lon="-3.189094"><ele>307</ele><time>2024-05-31T15:07:47Z</time><name>PT4045</name></trkpt>
<trkpt lat="54.512881" lon="-3.189023"><ele>306</ele><time>2024-05-31T15:07:51Z</time><name>PT4046</name></trkpt>
<trkpt lat="54.512874" lon="-3.188933"><ele>306</ele><time>2024-05-31T15:07:55Z</time><name>PT4047</name></trkpt>
<trkpt lat="54.512870" lon="-3.188870"><ele>305</ele><time>2024-05-31T15:07:58Z</time><name>PT4048</name></trkpt>
<trkpt lat="54.512841" lon="-3.188803"><ele>305</ele><time>2024-05-31T15:08:01Z</time><name>PT4049</name></trkpt>
<trkpt lat="54.512829" lon="-3.188749"><ele>304</ele><time>2024-05-31T15:08:04Z</time><name>PT4050</name></trkpt>
<trkpt lat="54.512808" lon="-3.188638"><ele>305</ele><time>2024-05-31T15:08:09Z</time><name>PT4051</name></trkpt>
<trkpt lat="54.512786" lon="-3.188563"><ele>305</ele><time>2024-05-31T15:08:13Z</time><name>PT4052</name></trkpt>
<trkpt lat="54.512757" lon="-3.188477"><ele>305</ele><time>2024-05-31T15:08:16Z</time><name>PT4053</name></trkpt>
<trkpt lat="54.512740" lon="-3.188412"><ele>303</ele><time>2024-05-31T15:08:21Z</time><name>PT4054</name></trkpt>
<trkpt lat="54.512721" lon="-3.188318"><ele>303</ele><time>2024-05-31T15:08:25Z</time><name>PT4055</name></trkpt>
<trkpt lat="54.512698" lon="-3.188242"><ele>304</ele><time>2024-05-31T15:08:28Z</time><name>PT4056</name></trkpt>
<trkpt lat="54.512676" lon="-3.188201"><ele>303</ele><time>2024-05-31T15:08:31Z</time><name>PT4057</name></trkpt>
<trkpt lat="54.512639" lon="-3.188115"><ele>303</ele><time>2024-05-31T15:08:36Z</time><name>PT4058</name></trkpt>
<trkpt lat="54.512606" lon="-3.188061"><ele>304</ele><time>2024-05-31T15:08:39Z</time><name>PT4059</name></trkpt>
<trkpt lat="54.512588" lon="-3.188011"><ele>303</ele><time>2024-05-31T15:08:42Z</time><name>PT4060</name></trkpt>
<trkpt lat="54.512555" lon="-3.187927"><ele>301</ele><time>2024-05-31T15:08:46Z</time><name>PT4061</name></trkpt>
<trkpt lat="54.512540" lon="-3.187852"><ele>301</ele><time>2024-05-31T15:08:49Z</time><name>PT4062</name></trkpt>
<trkpt lat="54.512523" lon="-3.187744"><ele>302</ele><time>2024-05-31T15:08:54Z</time><name>PT4063</name></trkpt>
<trkpt lat="54.512510" lon="-3.187679"><ele>300</ele><time>2024-05-31T15:08:58Z</time><name>PT4064</name></trkpt>
<trkpt lat="54.512508" lon="-3.187597"><ele>301</ele><time>2024-05-31T15:09:01Z</time><name>PT4065</name></trkpt>
<trkpt lat="54.512503" lon="-3.187499"><ele>301</ele><time>2024-05-31T15:09:04Z</time><name>PT4066</name></trkpt>
<trkpt lat="54.512497" lon="-3.187437"><ele>300</ele><time>2024-05-31T15:09:07Z</time><name>PT4067</name></trkpt>
<trkpt lat="54.512479" lon="-3.187327"><ele>301</ele><time>2024-05-31T15:09:12Z</time><name>PT4068</name></trkpt>
<trkpt lat="54.512486" lon="-3.187258"><ele>300</ele><time>2024-05-31T15:09:16Z</time><name>PT4069</name></trkpt>
<trkpt lat="54.512489" lon="-3.187167"><ele>300</ele><time>2024-05-31T15:09:19Z</time><name>PT4070</name></trkpt>
<trkpt lat="54.512480" lon="-3.187109"><ele>299</ele><time>2024-05-31T15:09:22Z</time><name>PT4071</name></trkpt>
<trkpt lat="54.512483" lon="-3.187020"><ele>298</ele><time>2024-05-31T15:09:27Z</time><name>PT4072</name></trkpt>
<trkpt lat="54.512482" lon="-3.186946"><ele>297</ele><time>2024-05-31T15:09:31Z</time><name>PT4073</name></trkpt>
<trkpt lat="54.512475" lon="-3.186879"><ele>296</ele><time>2024-05-31T15:09:34Z</time><name>PT4074</name></trkpt>
<trkpt lat="54.512476" lon="-3.186791"><ele>296</ele><time>2024-05-31T15:09:37Z</time><name>PT4075</name></trkpt>
<trkpt lat="54.512498" lon="-3.186700"><ele>297</ele><time>2024-05-31T15:09:40Z</time><name>PT4076</name></trkpt>
<trkpt lat="54.512518" lon="-3.186638"><ele>297</ele><time>2024-05-31T15:09:43Z</time><name>PT4077</name></trkpt>
<trkpt lat="54.512553" lon="-3.186578"><ele>297</ele><time>2024-05-31T15:09:47Z</time><name>PT4078</name></trkpt>
<trkpt lat="54.512576" lon="-3.186536"><ele>297</ele><time>2024-05-31T15:09:51Z</time><name>PT4079</name></trkpt>
<trkpt lat="54.512604" lon="-3.186465"><ele>297</ele><time>2024-05-31T15:09:55Z</time><name>PT4080</name></trkpt>
<trkpt lat="54.512630" lon="-3.186404"><ele>297</ele><time>2024-05-31T15:09:58Z</time><name>PT4081</name></trkpt>
<trkpt lat="54.512656" lon="-3.186341"><ele>296</ele><time>2024-05-31T15:10:01Z</time><name>PT4082</name></trkpt>
<trkpt lat="54.512683" lon="-3.186252"><ele>296</ele><time>2024-05-31T15:10:06Z</time><name>PT4083</name></trkpt>
<trkpt lat="54.512700" lon="-3.186195"><ele>296</ele><time>2024-05-31T15:10:09Z</time><name>PT4084</name></trkpt>
<trkpt lat="54.512749" lon="-3.186123"><ele>296</ele><time>2024-05-31T15:10:13Z</time><name>PT4085</name></trkpt>
<trkpt lat="54.512780" lon="-3.186088"><ele>296</ele><time>2024-05-31T15:10:16Z</time><name>PT4086</name></trkpt>
<trkpt lat="54.512830" lon="-3.186054"><ele>296</ele><time>2024-05-31T15:10:19Z</time><name>PT4087</name></trkpt>
<trkpt lat="54.512893" lon="-3.186027"><ele>297</ele><time>2024-05-31T15:10:23Z</time><name>PT4088</name></trkpt>
<trkpt lat="54.512925" lon="-3.186007"><ele>296</ele><time>2024-05-31T15:10:26Z</time><name>PT4089</name></trkpt>
<trkpt lat="54.512966" lon="-3.185975"><ele>296</ele><time>2024-05-31T15:10:30Z</time><name>PT4090</name></trkpt>
<trkpt lat="54.513005" lon="-3.185936"><ele>296</ele><time>2024-05-31T15:10:34Z</time><name>PT4091</name></trkpt>
<trkpt lat="54.513045" lon="-3.185903"><ele>295</ele><time>2024-05-31T15:10:37Z</time><name>PT4092</name></trkpt>
<trkpt lat="54.513082" lon="-3.185848"><ele>295</ele><time>2024-05-31T15:10:40Z</time><name>PT4093</name></trkpt>
<trkpt lat="54.513107" lon="-3.185778"><ele>294</ele><time>2024-05-31T15:10:43Z</time><name>PT4094</name></trkpt>
<trkpt lat="54.513128" lon="-3.185710"><ele>295</ele><time>2024-05-31T15:10:46Z</time><name>PT4095</name></trkpt>
<trkpt lat="54.513145" lon="-3.185657"><ele>294</ele><time>2024-05-31T15:10:49Z</time><name>PT4096</name></trkpt>
<trkpt lat="54.513161" lon="-3.185593"><ele>293</ele><time>2024-05-31T15:10:52Z</time><name>PT4097</name></trkpt>
<trkpt lat="54.513180" lon="-3.185502"><ele>293</ele><time>2024-05-31T15:10:57Z</time><name>PT4098</name></trkpt>
<trkpt lat="54.513208" lon="-3.185430"><ele>292</ele><time>2024-05-31T15:11:01Z</time><name>PT4099</name></trkpt>
<trkpt lat="54.513246" lon="-3.185353"><ele>293</ele><time>2024-05-31T15:11:04Z</time><name>PT4100</name></trkpt>
<trkpt lat="54.513266" lon="-3.185315"><ele>293</ele><time>2024-05-31T15:11:07Z</time><name>PT4101</name></trkpt>
<trkpt lat="54.513311" lon="-3.185245"><ele>293</ele><time>2024-05-31T15:11:12Z</time><name>PT4102</name></trkpt>
<trkpt lat="54.513346" lon="-3.185194"><ele>291</ele><time>2024-05-31T15:11:16Z</time><name>PT4103</name></trkpt>
<trkpt lat="54.513373" lon="-3.185139"><ele>291</ele><time>2024-05-31T15:11:19Z</time><name>PT4104</name></trkpt>
<trkpt lat="54.513411" lon="-3.185061"><ele>291</ele><time>2024-05-31T15:11:22Z</time><name>PT4105</name></trkpt>
<trkpt lat="54.513442" lon="-3.184993"><ele>291</ele><time>2024-05-31T15:11:26Z</time><name>PT4106</name></trkpt>
<trkpt lat="54.513465" lon="-3.184919"><ele>289</ele><time>2024-05-31T15:11:31Z</time><name>PT4107</name></trkpt>
<trkpt lat="54.513489" lon="-3.184853"><ele>288</ele><time>2024-05-31T15:11:34Z</time><name>PT4108</name></trkpt>
<trkpt lat="54.513519" lon="-3.184773"><ele>287</ele><time>2024-05-31T15:11:38Z</time><name>PT4109</name></trkpt>
<trkpt lat="54.513546" lon="-3.184692"><ele>287</ele><time>2024-05-31T15:11:43Z</time><name>PT4110</name></trkpt>
<trkpt lat="54.513576" lon="-3.184609"><ele>287</ele><time>2024-05-31T15:11:46Z</time><name>PT4111</name></trkpt>
<trkpt lat="54.513593" lon="-3.184551"><ele>287</ele><time>2024-05-31T15:11:49Z</time><name>PT4112</name></trkpt>
<trkpt lat="54.513620" lon="-3.184458"><ele>287</ele><time>2024-05-31T15:11:53Z</time><name>PT4113</name></trkpt>
<trkpt lat="54.513628" lon="-3.184396"><ele>287</ele><time>2024-05-31T15:11:56Z</time><name>PT4114</name></trkpt>
<trkpt lat="54.513641" lon="-3.184337"><ele>286</ele><time>2024-05-31T15:11:59Z</time><name>PT4115</name></trkpt>
<trkpt lat="54.513667" lon="-3.184240"><ele>286</ele><time>2024-05-31T15:12:04Z</time><name>PT4116</name></trkpt>
<trkpt lat="54.513682" lon="-3.184190"><ele>286</ele><time>2024-05-31T15:12:07Z</time><name>PT4117</name></trkpt>
<trkpt lat="54.513700" lon="-3.184119"><ele>285</ele><time>2024-05-31T15:12:10Z</time><name>PT4118</name></trkpt>
<trkpt lat="54.513723" lon="-3.184026"><ele>285</ele><time>2024-05-31T15:12:13Z</time><name>PT4119</name></trkpt>
<trkpt lat="54.513750" lon="-3.183958"><ele>283</ele><time>2024-05-31T15:12:17Z</time><name>PT4120</name></trkpt>
<trkpt lat="54.513771" lon="-3.183890"><ele>283</ele><time>2024-05-31T15:12:21Z</time><name>PT4121</name></trkpt>
<trkpt lat="54.513795" lon="-3.183822"><ele>283</ele><time>2024-05-31T15:12:25Z</time><name>PT4122</name></trkpt>
<trkpt lat="54.513822" lon="-3.183769"><ele>283</ele><time>2024-05-31T15:12:28Z</time><name>PT4123</name></trkpt>
<trkpt lat="54.513855" lon="-3.183706"><ele>282</ele><time>2024-05-31T15:12:31Z</time><name>PT4124</name></trkpt>
<trkpt lat="54.513874" lon="-3.183649"><ele>282</ele><time>2024-05-31T15:12:34Z</time><name>PT4125</name></trkpt>
<trkpt lat="54.513916" lon="-3.183569"><ele>282</ele><time>2024-05-31T15:12:38Z</time><name>PT4126</name></trkpt>
<trkpt lat="54.513941" lon="-3.183510"><ele>282</ele><time>2024-05-31T15:12:43Z</time><name>PT4127</name></trkpt>
<trkpt lat="54.513981" lon="-3.183456"><ele>282</ele><time>2024-05-31T15:12:46Z</time><name>PT4128</name></trkpt>
<trkpt lat="54.514008" lon="-3.183396"><ele>281</ele><time>2024-05-31T15:12:49Z</time><name>PT4129</name></trkpt>
<trkpt lat="54.514042" lon="-3.183322"><ele>280</ele><time>2024-05-31T15:12:53Z</time><name>PT4130</name></trkpt>
<trkpt lat="54.514055" lon="-3.183267"><ele>280</ele><time>2024-05-31T15:12:56Z</time><name>PT4131</name></trkpt>
<trkpt lat="54.514081" lon="-3.183187"><ele>279</ele><time>2024-05-31T15:13:01Z</time><name>PT4132</name></trkpt>
<trkpt lat="54.514110" lon="-3.183126"><ele>279</ele><time>2024-05-31T15:13:04Z</time><name>PT4133</name></trkpt>
<trkpt lat="54.514135" lon="-3.183069"><ele>277</ele><time>2024-05-31T15:13:07Z</time><name>PT4134</name></trkpt>
<trkpt lat="54.514164" lon="-3.183003"><ele>278</ele><time>2024-05-31T15:13:10Z</time><name>PT4135</name></trkpt>
<trkpt lat="54.514194" lon="-3.182945"><ele>276</ele><time>2024-05-31T15:13:14Z</time><name>PT4136</name></trkpt>
<trkpt lat="54.514227" lon="-3.182858"><ele>276</ele><time>2024-05-31T15:13:19Z</time><name>PT4137</name></trkpt>
<trkpt lat="54.514249" lon="-3.182796"><ele>276</ele><time>2024-05-31T15:13:22Z</time><name>PT4138</name></trkpt>
<trkpt lat="54.514263" lon="-3.182741"><ele>275</ele><time>2024-05-31T15:13:25Z</time><name>PT4139</name></trkpt>
<trkpt lat="54.514287" lon="-3.182644"><ele>275</ele><time>2024-05-31T15:13:28Z</time><name>PT4140</name></trkpt>
<trkpt lat="54.514298" lon="-3.182569"><ele>274</ele><time>2024-05-31T15:13:32Z</time><name>PT4141</name></trkpt>
<trkpt lat="54.514318" lon="-3.182467"><ele>274</ele><time>2024-05-31T15:13:37Z</time><name>PT4142</name></trkpt>
<trkpt lat="54.514330" lon="-3.182381"><ele>273</ele><time>2024-05-31T15:13:40Z</time><name>PT4143</name></trkpt>
<trkpt lat="54.514346" lon="-3.182275"><ele>273</ele><time>2024-05-31T15:13:44Z</time><name>PT4144</name></trkpt>
<trkpt lat="54.514367" lon="-3.182220"><ele>273</ele><time>2024-05-31T15:13:47Z</time><name>PT4145</name></trkpt>
<trkpt lat="54.514382" lon="-3.182135"><ele>273</ele><time>2024-05-31T15:13:52Z</time><name>PT4146</name></trkpt>
<trkpt lat="54.514396" lon="-3.182050"><ele>272</ele><time>2024-05-31T15:13:55Z</time><name>PT4147</name></trkpt>
<trkpt lat="54.514409" lon="-3.181992"><ele>272</ele><time>2024-05-31T15:13:58Z</time><name>PT4148</name></trkpt>
<trkpt lat="54.514420" lon="-3.181899"><ele>275</ele><time>2024-05-31T15:14:01Z</time><name>PT4149</name></trkpt>
<trkpt lat="54.514433" lon="-3.181830"><ele>274</ele><time>2024-05-31T15:14:05Z</time><name>PT4150</name></trkpt>
<trkpt lat="54.514447" lon="-3.181768"><ele>273</ele><time>2024-05-31T15:14:08Z</time><name>PT4151</name></trkpt>
<trkpt lat="54.514464" lon="-3.181660"><ele>273</ele><time>2024-05-31T15:14:13Z</time><name>PT4152</name></trkpt>
<trkpt lat="54.514465" lon="-3.181589"><ele>273</ele><time>2024-05-31T15:14:16Z</time><name>PT4153</name></trkpt>
<trkpt lat="54.514480" lon="-3.181512"><ele>272</ele><time>2024-05-31T15:14:19Z</time><name>PT4154</name></trkpt>
<trkpt lat="54.514492" lon="-3.181437"><ele>272</ele><time>2024-05-31T15:14:22Z</time><name>PT4155</name></trkpt>
<trkpt lat="54.514509" lon="-3.181375"><ele>271</ele><time>2024-05-31T15:14:27Z</time><name>PT4156</name></trkpt>
<trkpt lat="54.514531" lon="-3.181281"><ele>271</ele><time>2024-05-31T15:14:31Z</time><name>PT4157</name></trkpt>
<trkpt lat="54.514541" lon="-3.181200"><ele>270</ele><time>2024-05-31T15:14:34Z</time><name>PT4158</name></trkpt>
<trkpt lat="54.514559" lon="-3.181119"><ele>269</ele><time>2024-05-31T15:14:38Z</time><name>PT4159</name></trkpt>
<trkpt lat="54.514569" lon="-3.181059"><ele>268</ele><time>2024-05-31T15:14:41Z</time><name>PT4160</name></trkpt>
<trkpt lat="54.514580" lon="-3.180998"><ele>268</ele><time>2024-05-31T15:14:44Z</time><name>PT4161</name></trkpt>
<trkpt lat="54.514602" lon="-3.180905"><ele>268</ele><time>2024-05-31T15:14:49Z</time><name>PT4162</name></trkpt>
<trkpt lat="54.514612" lon="-3.180861"><ele>268</ele><time>2024-05-31T15:14:52Z</time><name>PT4163</name></trkpt>
<trkpt lat="54.514638" lon="-3.180775"><ele>267</ele><time>2024-05-31T15:14:55Z</time><name>PT4164</name></trkpt>
<trkpt lat="54.514659" lon="-3.180695"><ele>268</ele><time>2024-05-31T15:14:58Z</time><name>PT4165</name></trkpt>
<trkpt lat="54.514676" lon="-3.180625"><ele>267</ele><time>2024-05-31T15:15:02Z</time><name>PT4166</name></trkpt>
<trkpt lat="54.514690" lon="-3.180529"><ele>267</ele><time>2024-05-31T15:15:07Z</time><name>PT4167</name></trkpt>
<trkpt lat="54.514698" lon="-3.180468"><ele>266</ele><time>2024-05-31T15:15:10Z</time><name>PT4168</name></trkpt>
<trkpt lat="54.514710" lon="-3.180405"><ele>266</ele><time>2024-05-31T15:15:13Z</time><name>PT4169</name></trkpt>
<trkpt lat="54.514733" lon="-3.180305"><ele>267</ele><time>2024-05-31T15:15:16Z</time><name>PT4170</name></trkpt>
<trkpt lat="54.514743" lon="-3.180250"><ele>267</ele><time>2024-05-31T15:15:19Z</time><name>PT4171</name></trkpt>
<trkpt lat="54.514759" lon="-3.180180"><ele>265</ele><time>2024-05-31T15:15:23Z</time><name>PT4172</name></trkpt>
<trkpt lat="54.514785" lon="-3.180098"><ele>264</ele><time>2024-05-31T15:15:28Z</time><name>PT4173</name></trkpt>
<trkpt lat="54.514801" lon="-3.180060"><ele>264</ele><time>2024-05-31T15:15:31Z</time><name>PT4174</name></trkpt>
<trkpt lat="54.514825" lon="-3.179968"><ele>263</ele><time>2024-05-31T15:15:34Z</time><name>PT4175</name></trkpt>
<trkpt lat="54.514839" lon="-3.179893"><ele>263</ele><time>2024-05-31T15:15:37Z</time><name>PT4176</name></trkpt>
<trkpt lat="54.514859" lon="-3.179805"><ele>263</ele><time>2024-05-31T15:15:41Z</time><name>PT4177</name></trkpt>
<trkpt lat="54.514870" lon="-3.179744"><ele>261</ele><time>2024-05-31T15:15:44Z</time><name>PT4178</name></trkpt>
<trkpt lat="54.514890" lon="-3.179647"><ele>260</ele><time>2024-05-31T15:15:49Z</time><name>PT4179</name></trkpt>
<trkpt lat="54.514899" lon="-3.179603"><ele>259</ele><time>2024-05-31T15:15:52Z</time><name>PT4180</name></trkpt>
<trkpt lat="54.514914" lon="-3.179547"><ele>258</ele><time>2024-05-31T15:15:55Z</time><name>PT4181</name></trkpt>
<trkpt lat="54.514935" lon="-3.179467"><ele>258</ele><time>2024-05-31T15:15:58Z</time><name>PT4182</name></trkpt>
<trkpt lat="54.514956" lon="-3.179383"><ele>258</ele><time>2024-05-31T15:16:02Z</time><name>PT4183</name></trkpt>
<trkpt lat="54.514974" lon="-3.179302"><ele>258</ele><time>2024-05-31T15:16:07Z</time><name>PT4184</name></trkpt>
<trkpt lat="54.514991" lon="-3.179247"><ele>258</ele><time>2024-05-31T15:16:10Z</time><name>PT4185</name></trkpt>
<trkpt lat="54.515014" lon="-3.179166"><ele>257</ele><time>2024-05-31T15:16:13Z</time><name>PT4186</name></trkpt>
<trkpt lat="54.515028" lon="-3.179109"><ele>257</ele><time>2024-05-31T15:16:16Z</time><name>PT4187</name></trkpt>
<trkpt lat="54.515048" lon="-3.179049"><ele>257</ele><time>2024-05-31T15:16:19Z</time><name>PT4188</name></trkpt>
<trkpt lat="54.515072" lon="-3.178977"><ele>257</ele><time>2024-05-31T15:16:23Z</time><name>PT4189</name></trkpt>
<trkpt lat="54.515090" lon="-3.178898"><ele>256</ele><time>2024-05-31T15:16:28Z</time><name>PT4190</name></trkpt>
<trkpt lat="54.515112" lon="-3.178810"><ele>256</ele><time>2024-05-31T15:16:31Z</time><name>PT4191</name></trkpt>
<trkpt lat="54.515133" lon="-3.178715"><ele>257</ele><time>2024-05-31T15:16:35Z</time><name>PT4192</name></trkpt>
<trkpt lat="54.515147" lon="-3.178655"><ele>256</ele><time>2024-05-31T15:16:38Z</time><name>PT4193</name></trkpt>
<trkpt lat="54.515167" lon="-3.178562"><ele>256</ele><time>2024-05-31T15:16:43Z</time><name>PT4194</name></trkpt>
<trkpt lat="54.515175" lon="-3.178513"><ele>256</ele><time>2024-05-31T15:16:46Z</time><name>PT4195</name></trkpt>
<trkpt lat="54.515188" lon="-3.178474"><ele>255</ele><time>2024-05-31T15:16:49Z</time><name>PT4196</name></trkpt>
<trkpt lat="54.515190" lon="-3.178468"><ele>255</ele><time>2024-05-31T15:16:53Z</time><name>PT4197</name></trkpt>
<trkpt lat="54.515187" lon="-3.178427"><ele>254</ele><time>2024-05-31T15:16:59Z</time><name>PT4198</name></trkpt>
<trkpt lat="54.515185" lon="-3.178397"><ele>253</ele><time>2024-05-31T15:17:04Z</time><name>PT4199</name></trkpt>
<trkpt lat="54.515190" lon="-3.178394"><ele>253</ele><time>2024-05-31T15:17:07Z</time><name>PT4200</name></trkpt>
<trkpt lat="54.515192" lon="-3.178408"><ele>253</ele><time>2024-05-31T15:17:11Z</time><name>PT4201</name></trkpt>
<trkpt lat="54.515196" lon="-3.178401"><ele>253</ele><time>2024-05-31T15:17:16Z</time><name>PT4202</name></trkpt>
<trkpt lat="54.515207" lon="-3.178365"><ele>252</ele><time>2024-05-31T15:17:19Z</time><name>PT4203</name></trkpt>
<trkpt lat="54.515204" lon="-3.178307"><ele>251</ele><time>2024-05-31T15:17:22Z</time><name>PT4204</name></trkpt>
<trkpt lat="54.515206" lon="-3.178229"><ele>252</ele><time>2024-05-31T15:17:26Z</time><name>PT4205</name></trkpt>
<trkpt lat="54.515203" lon="-3.178174"><ele>251</ele><time>2024-05-31T15:17:29Z</time><name>PT4206</name></trkpt>
<trkpt lat="54.515214" lon="-3.178066"><ele>251</ele><time>2024-05-31T15:17:34Z</time><name>PT4207</name></trkpt>
<trkpt lat="54.515224" lon="-3.178020"><ele>251</ele><time>2024-05-31T15:17:37Z</time><name>PT4208</name></trkpt>
<trkpt lat="54.515252" lon="-3.177965"><ele>251</ele><time>2024-05-31T15:17:40Z</time><name>PT4209</name></trkpt>
<trkpt lat="54.515277" lon="-3.177919"><ele>250</ele><time>2024-05-31T15:17:43Z</time><name>PT4210</name></trkpt>
<trkpt lat="54.515299" lon="-3.177896"><ele>249</ele><time>2024-05-31T15:17:46Z</time><name>PT4211</name></trkpt>
<trkpt lat="54.515339" lon="-3.177845"><ele>249</ele><time>2024-05-31T15:17:50Z</time><name>PT4212</name></trkpt>
<trkpt lat="54.515360" lon="-3.177808"><ele>248</ele><time>2024-05-31T15:17:53Z</time><name>PT4213</name></trkpt>
<trkpt lat="54.515395" lon="-3.177733"><ele>248</ele><time>2024-05-31T15:17:58Z</time><name>PT4214</name></trkpt>
<trkpt lat="54.515418" lon="-3.177697"><ele>248</ele><time>2024-05-31T15:18:01Z</time><name>PT4215</name></trkpt>
<trkpt lat="54.515459" lon="-3.177622"><ele>249</ele><time>2024-05-31T15:18:04Z</time><name>PT4216</name></trkpt>
<trkpt lat="54.515485" lon="-3.177586"><ele>248</ele><time>2024-05-31T15:18:07Z</time><name>PT4217</name></trkpt>
<trkpt lat="54.515521" lon="-3.177525"><ele>248</ele><time>2024-05-31T15:18:11Z</time><name>PT4218</name></trkpt>
<trkpt lat="54.515557" lon="-3.177453"><ele>247</ele><time>2024-05-31T15:18:16Z</time><name>PT4219</name></trkpt>
<trkpt lat="54.515575" lon="-3.177393"><ele>247</ele><time>2024-05-31T15:18:19Z</time><name>PT4220</name></trkpt>
<trkpt lat="54.515596" lon="-3.177306"><ele>247</ele><time>2024-05-31T15:18:22Z</time><name>PT4221</name></trkpt>
<trkpt lat="54.515606" lon="-3.177242"><ele>247</ele><time>2024-05-31T15:18:25Z</time><name>PT4222</name></trkpt>
<trkpt lat="54.515628" lon="-3.177152"><ele>247</ele><time>2024-05-31T15:18:29Z</time><name>PT4223</name></trkpt>
<trkpt lat="54.515637" lon="-3.177099"><ele>246</ele><time>2024-05-31T15:18:32Z</time><name>PT4224</name></trkpt>
<trkpt lat="54.515655" lon="-3.177035"><ele>246</ele><time>2024-05-31T15:18:35Z</time><name>PT4225</name></trkpt>
<trkpt lat="54.515668" lon="-3.176980"><ele>246</ele><time>2024-05-31T15:18:38Z</time><name>PT4226</name></trkpt>
<trkpt lat="54.515684" lon="-3.176900"><ele>245</ele><time>2024-05-31T15:18:43Z</time><name>PT4227</name></trkpt>
<trkpt lat="54.515703" lon="-3.176815"><ele>245</ele><time>2024-05-31T15:18:46Z</time><name>PT4228</name></trkpt>
<trkpt lat="54.515710" lon="-3.176740"><ele>244</ele><time>2024-05-31T15:18:49Z</time><name>PT4229</name></trkpt>
<trkpt lat="54.515720" lon="-3.176677"><ele>244</ele><time>2024-05-31T15:18:52Z</time><name>PT4230</name></trkpt>
<trkpt lat="54.515722" lon="-3.176606"><ele>242</ele><time>2024-05-31T15:18:56Z</time><name>PT4231</name></trkpt>
<trkpt lat="54.515721" lon="-3.176519"><ele>243</ele><time>2024-05-31T15:19:01Z</time><name>PT4232</name></trkpt>
<trkpt lat="54.515728" lon="-3.176463"><ele>243</ele><time>2024-05-31T15:19:04Z</time><name>PT4233</name></trkpt>
<trkpt lat="54.515732" lon="-3.176377"><ele>243</ele><time>2024-05-31T15:19:07Z</time><name>PT4234</name></trkpt>
<trkpt lat="54.515737" lon="-3.176291"><ele>244</ele><time>2024-05-31T15:19:11Z</time><name>PT4235</name></trkpt>
<trkpt lat="54.515739" lon="-3.176218"><ele>243</ele><time>2024-05-31T15:19:14Z</time><name>PT4236</name></trkpt>
<trkpt lat="54.515743" lon="-3.176134"><ele>243</ele><time>2024-05-31T15:19:19Z</time><name>PT4237</name></trkpt>
<trkpt lat="54.515748" lon="-3.176054"><ele>242</ele><time>2024-05-31T15:19:22Z</time><name>PT4238</name></trkpt>
<trkpt lat="54.515761" lon="-3.175983"><ele>242</ele><time>2024-05-31T15:19:25Z</time><name>PT4239</name></trkpt>
<trkpt lat="54.515774" lon="-3.175894"><ele>241</ele><time>2024-05-31T15:19:29Z</time><name>PT4240</name></trkpt>
<trkpt lat="54.515789" lon="-3.175827"><ele>240</ele><time>2024-05-31T15:19:34Z</time><name>PT4241</name></trkpt>
<trkpt lat="54.515806" lon="-3.175735"><ele>239</ele><time>2024-05-31T15:19:37Z</time><name>PT4242</name></trkpt>
<trkpt lat="54.515821" lon="-3.175697"><ele>239</ele><time>2024-05-31T15:19:41Z</time><name>PT4243</name></trkpt>
<trkpt lat="54.515839" lon="-3.175645"><ele>237</ele><time>2024-05-31T15:19:44Z</time><name>PT4244</name></trkpt>
<trkpt lat="54.515868" lon="-3.175589"><ele>237</ele><time>2024-05-31T15:19:47Z</time><name>PT4245</name></trkpt>
<trkpt lat="54.515889" lon="-3.175538"><ele>237</ele><time>2024-05-31T15:19:50Z</time><name>PT4246</name></trkpt>
<trkpt lat="54.515930" lon="-3.175477"><ele>237</ele><time>2024-05-31T15:19:55Z</time><name>PT4247</name></trkpt>
<trkpt lat="54.515976" lon="-3.175432"><ele>236</ele><time>2024-05-31T15:19:58Z</time><name>PT4248</name></trkpt>
<trkpt lat="54.516005" lon="-3.175398"><ele>236</ele><time>2024-05-31T15:20:01Z</time><name>PT4249</name></trkpt>
<trkpt lat="54.516044" lon="-3.175341"><ele>236</ele><time>2024-05-31T15:20:05Z</time><name>PT4250</name></trkpt>
<trkpt lat="54.516069" lon="-3.175300"><ele>236</ele><time>2024-05-31T15:20:09Z</time><name>PT4251</name></trkpt>
<trkpt lat="54.516092" lon="-3.175254"><ele>236</ele><time>2024-05-31T15:20:12Z</time><name>PT4252</name></trkpt>
<trkpt lat="54.516124" lon="-3.175189"><ele>235</ele><time>2024-05-31T15:20:16Z</time><name>PT4253</name></trkpt>
<trkpt lat="54.516159" lon="-3.175128"><ele>234</ele><time>2024-05-31T15:20:19Z</time><name>PT4254</name></trkpt>
<trkpt lat="54.516181" lon="-3.175071"><ele>235</ele><time>2024-05-31T15:20:22Z</time><name>PT4255</name></trkpt>
<trkpt lat="54.516198" lon="-3.175018"><ele>234</ele><time>2024-05-31T15:20:25Z</time><name>PT4256</name></trkpt>
<trkpt lat="54.516223" lon="-3.174937"><ele>234</ele><time>2024-05-31T15:20:29Z</time><name>PT4257</name></trkpt>
<trkpt lat="54.516236" lon="-3.174883"><ele>234</ele><time>2024-05-31T15:20:32Z</time><name>PT4258</name></trkpt>
<trkpt lat="54.516256" lon="-3.174807"><ele>233</ele><time>2024-05-31T15:20:37Z</time><name>PT4259</name></trkpt>
<trkpt lat="54.516265" lon="-3.174753"><ele>232</ele><time>2024-05-31T15:20:40Z</time><name>PT4260</name></trkpt>
<trkpt lat="54.516294" lon="-3.174677"><ele>231</ele><time>2024-05-31T15:20:43Z</time><name>PT4261</name></trkpt>
<trkpt lat="54.516322" lon="-3.174644"><ele>231</ele><time>2024-05-31T15:20:46Z</time><name>PT4262</name></trkpt>
<trkpt lat="54.516340" lon="-3.174582"><ele>232</ele><time>2024-05-31T15:20:49Z</time><name>PT4263</name></trkpt>
<trkpt lat="54.516366" lon="-3.174500"><ele>231</ele><time>2024-05-31T15:20:53Z</time><name>PT4264</name></trkpt>
<trkpt lat="54.516383" lon="-3.174448"><ele>230</ele><time>2024-05-31T15:20:56Z</time><name>PT4265</name></trkpt>
<trkpt lat="54.516402" lon="-3.174390"><ele>229</ele><time>2024-05-31T15:20:59Z</time><name>PT4266</name></trkpt>
<trkpt lat="54.516415" lon="-3.174351"><ele>228</ele><time>2024-05-31T15:21:02Z</time><name>PT4267</name></trkpt>
<trkpt lat="54.516437" lon="-3.174263"><ele>228</ele><time>2024-05-31T15:21:07Z</time><name>PT4268</name></trkpt>
<trkpt lat="54.516451" lon="-3.174229"><ele>227</ele><time>2024-05-31T15:21:10Z</time><name>PT4269</name></trkpt>
<trkpt lat="54.516473" lon="-3.174139"><ele>226</ele><time>2024-05-31T15:21:14Z</time><name>PT4270</name></trkpt>
<trkpt lat="54.516489" lon="-3.174071"><ele>227</ele><time>2024-05-31T15:21:17Z</time><name>PT4271</name></trkpt>
<trkpt lat="54.516517" lon="-3.173991"><ele>227</ele><time>2024-05-31T15:21:21Z</time><name>PT4272</name></trkpt>
<trkpt lat="54.516537" lon="-3.173936"><ele>226</ele><time>2024-05-31T15:21:24Z</time><name>PT4273</name></trkpt>
<trkpt lat="54.516560" lon="-3.173852"><ele>226</ele><time>2024-05-31T15:21:28Z</time><name>PT4274</name></trkpt>
<trkpt lat="54.516577" lon="-3.173775"><ele>226</ele><time>2024-05-31T15:21:31Z</time><name>PT4275</name></trkpt>
<trkpt lat="54.516595" lon="-3.173691"><ele>225</ele><time>2024-05-31T15:21:35Z</time><name>PT4276</name></trkpt>
<trkpt lat="54.516624" lon="-3.173601"><ele>225</ele><time>2024-05-31T15:21:40Z</time><name>PT4277</name></trkpt>
<trkpt lat="54.516648" lon="-3.173515"><ele>225</ele><time>2024-05-31T15:21:43Z</time><name>PT4278</name></trkpt>
<trkpt lat="54.516660" lon="-3.173459"><ele>225</ele><time>2024-05-31T15:21:46Z</time><name>PT4279</name></trkpt>
<trkpt lat="54.516670" lon="-3.173374"><ele>224</ele><time>2024-05-31T15:21:50Z</time><name>PT4280</name></trkpt>
<trkpt lat="54.516678" lon="-3.173291"><ele>224</ele><time>2024-05-31T15:21:55Z</time><name>PT4281</name></trkpt>
<trkpt lat="54.516682" lon="-3.173226"><ele>224</ele><time>2024-05-31T15:21:58Z</time><name>PT4282</name></trkpt>
<trkpt lat="54.516688" lon="-3.173163"><ele>223</ele><time>2024-05-31T15:22:01Z</time><name>PT4283</name></trkpt>
<trkpt lat="54.516697" lon="-3.173083"><ele>223</ele><time>2024-05-31T15:22:04Z</time><name>PT4284</name></trkpt>
<trkpt lat="54.516707" lon="-3.172993"><ele>222</ele><time>2024-05-31T15:22:08Z</time><name>PT4285</name></trkpt>
<trkpt lat="54.516709" lon="-3.172915"><ele>221</ele><time>2024-05-31T15:22:13Z</time><name>PT4286</name></trkpt>
<trkpt lat="54.516718" lon="-3.172832"><ele>221</ele><time>2024-05-31T15:22:16Z</time><name>PT4287</name></trkpt>
<trkpt lat="54.516718" lon="-3.172773"><ele>221</ele><time>2024-05-31T15:22:19Z</time><name>PT4288</name></trkpt>
<trkpt lat="54.516725" lon="-3.172720"><ele>220</ele><time>2024-05-31T15:22:22Z</time><name>PT4289</name></trkpt>
<trkpt lat="54.516732" lon="-3.172643"><ele>220</ele><time>2024-05-31T15:22:26Z</time><name>PT4290</name></trkpt>
<trkpt lat="54.516720" lon="-3.172569"><ele>221</ele><time>2024-05-31T15:22:29Z</time><name>PT4291</name></trkpt>
<trkpt lat="54.516715" lon="-3.172506"><ele>220</ele><time>2024-05-31T15:22:32Z</time><name>PT4292</name></trkpt>
<trkpt lat="54.516711" lon="-3.172420"><ele>220</ele><time>2024-05-31T15:22:37Z</time><name>PT4293</name></trkpt>
<trkpt lat="54.516706" lon="-3.172329"><ele>219</ele><time>2024-05-31T15:22:40Z</time><name>PT4294</name></trkpt>
<trkpt lat="54.516713" lon="-3.172259"><ele>218</ele><time>2024-05-31T15:22:43Z</time><name>PT4295</name></trkpt>
<trkpt lat="54.516703" lon="-3.172174"><ele>217</ele><time>2024-05-31T15:22:46Z</time><name>PT4296</name></trkpt>
<trkpt lat="54.516694" lon="-3.172098"><ele>218</ele><time>2024-05-31T15:22:50Z</time><name>PT4297</name></trkpt>
<trkpt lat="54.516691" lon="-3.172030"><ele>218</ele><time>2024-05-31T15:22:55Z</time><name>PT4298</name></trkpt>
<trkpt lat="54.516688" lon="-3.172000"><ele>217</ele><time>2024-05-31T15:22:58Z</time><name>PT4299</name></trkpt>
<trkpt lat="54.516685" lon="-3.171995"><ele>218</ele><time>2024-05-31T15:23:01Z</time><name>PT4300</name></trkpt>
<trkpt lat="54.516665" lon="-3.171956"><ele>218</ele><time>2024-05-31T15:23:04Z</time><name>PT4301</name></trkpt>
<trkpt lat="54.516651" lon="-3.171888"><ele>216</ele><time>2024-05-31T15:23:08Z</time><name>PT4302</name></trkpt>
<trkpt lat="54.516638" lon="-3.171818"><ele>216</ele><time>2024-05-31T15:23:13Z</time><name>PT4303</name></trkpt>
<trkpt lat="54.516621" lon="-3.171759"><ele>215</ele><time>2024-05-31T15:23:16Z</time><name>PT4304</name></trkpt>
<trkpt lat="54.516604" lon="-3.171682"><ele>215</ele><time>2024-05-31T15:23:19Z</time><name>PT4305</name></trkpt>
<trkpt lat="54.516584" lon="-3.171612"><ele>215</ele><time>2024-05-31T15:23:24Z</time><name>PT4306</name></trkpt>
<trkpt lat="54.516558" lon="-3.171545"><ele>214</ele><time>2024-05-31T15:23:28Z</time><name>PT4307</name></trkpt>
<trkpt lat="54.516541" lon="-3.171493"><ele>213</ele><time>2024-05-31T15:23:31Z</time><name>PT4308</name></trkpt>
<trkpt lat="54.516525" lon="-3.171436"><ele>213</ele><time>2024-05-31T15:23:34Z</time><name>PT4309</name></trkpt>
<trkpt lat="54.516499" lon="-3.171361"><ele>213</ele><time>2024-05-31T15:23:37Z</time><name>PT4310</name></trkpt>
<trkpt lat="54.516482" lon="-3.171300"><ele>213</ele><time>2024-05-31T15:23:40Z</time><name>PT4311</name></trkpt>
<trkpt lat="54.516464" lon="-3.171216"><ele>212</ele><time>2024-05-31T15:23:44Z</time><name>PT4312</name></trkpt>
<trkpt lat="54.516447" lon="-3.171133"><ele>212</ele><time>2024-05-31T15:23:49Z</time><name>PT4313</name></trkpt>
<trkpt lat="54.516432" lon="-3.171077"><ele>211</ele><time>2024-05-31T15:23:52Z</time><name>PT4314</name></trkpt>
<trkpt lat="54.516414" lon="-3.170998"><ele>211</ele><time>2024-05-31T15:23:55Z</time><name>PT4315</name></trkpt>
<trkpt lat="54.516384" lon="-3.170936"><ele>211</ele><time>2024-05-31T15:23:59Z</time><name>PT4316</name></trkpt>
<trkpt lat="54.516356" lon="-3.170917"><ele>211</ele><time>2024-05-31T15:24:02Z</time><name>PT4317</name></trkpt>
<trkpt lat="54.516327" lon="-3.170901"><ele>209</ele><time>2024-05-31T15:24:07Z</time><name>PT4318</name></trkpt>
<trkpt lat="54.516290" lon="-3.170885"><ele>208</ele><time>2024-05-31T15:24:10Z</time><name>PT4319</name></trkpt>
<trkpt lat="54.516250" lon="-3.170844"><ele>207</ele><time>2024-05-31T15:24:14Z</time><name>PT4320</name></trkpt>
<trkpt lat="54.516223" lon="-3.170820"><ele>206</ele><time>2024-05-31T15:24:17Z</time><name>PT4321</name></trkpt>
<trkpt lat="54.516202" lon="-3.170776"><ele>205</ele><time>2024-05-31T15:24:20Z</time><name>PT4322</name></trkpt>
<trkpt lat="54.516178" lon="-3.170730"><ele>205</ele><time>2024-05-31T15:24:23Z</time><name>PT4323</name></trkpt>
<trkpt lat="54.516143" lon="-3.170692"><ele>204</ele><time>2024-05-31T15:24:28Z</time><name>PT4324</name></trkpt>
<trkpt lat="54.516114" lon="-3.170653"><ele>204</ele><time>2024-05-31T15:24:31Z</time><name>PT4325</name></trkpt>
<trkpt lat="54.516088" lon="-3.170625"><ele>203</ele><time>2024-05-31T15:24:34Z</time><name>PT4326</name></trkpt>
<trkpt lat="54.516062" lon="-3.170581"><ele>202</ele><time>2024-05-31T15:24:37Z</time><name>PT4327</name></trkpt>
<trkpt lat="54.516023" lon="-3.170521"><ele>203</ele><time>2024-05-31T15:24:41Z</time><name>PT4328</name></trkpt>
<trkpt lat="54.515995" lon="-3.170485"><ele>203</ele><time>2024-05-31T15:24:44Z</time><name>PT4329</name></trkpt>
<trkpt lat="54.515969" lon="-3.170457"><ele>202</ele><time>2024-05-31T15:24:49Z</time><name>PT4330</name></trkpt>
<trkpt lat="54.515950" lon="-3.170399"><ele>202</ele><time>2024-05-31T15:24:52Z</time><name>PT4331</name></trkpt>
<trkpt lat="54.515935" lon="-3.170362"><ele>202</ele><time>2024-05-31T15:24:55Z</time><name>PT4332</name></trkpt>
<trkpt lat="54.515919" lon="-3.170321"><ele>202</ele><time>2024-05-31T15:24:59Z</time><name>PT4333</name></trkpt>
<trkpt lat="54.515903" lon="-3.170270"><ele>201</ele><time>2024-05-31T15:25:04Z</time><name>PT4334</name></trkpt>
<trkpt lat="54.515890" lon="-3.170244"><ele>200</ele><time>2024-05-31T15:25:07Z</time><name>PT4335</name></trkpt>
<trkpt lat="54.515875" lon="-3.170208"><ele>199</ele><time>2024-05-31T15:25:10Z</time><name>PT4336</name></trkpt>
<trkpt lat="54.515871" lon="-3.170147"><ele>197</ele><time>2024-05-31T15:25:13Z</time><name>PT4337</name></trkpt>
<trkpt lat="54.515865" lon="-3.170091"><ele>197</ele><time>2024-05-31T15:25:17Z</time><name>PT4338</name></trkpt>
<trkpt lat="54.515851" lon="-3.170064"><ele>197</ele><time>2024-05-31T15:25:20Z</time><name>PT4339</name></trkpt>
<trkpt lat="54.515822" lon="-3.170050"><ele>196</ele><time>2024-05-31T15:25:25Z</time><name>PT4340</name></trkpt>
<trkpt lat="54.515807" lon="-3.170031"><ele>194</ele><time>2024-05-31T15:25:28Z</time><name>PT4341</name></trkpt>
<trkpt lat="54.515793" lon="-3.169985"><ele>193</ele><time>2024-05-31T15:25:31Z</time><name>PT4342</name></trkpt>
<trkpt lat="54.515778" lon="-3.169927"><ele>193</ele><time>2024-05-31T15:25:34Z</time><name>PT4343</name></trkpt>
<trkpt lat="54.515765" lon="-3.169885"><ele>192</ele><time>2024-05-31T15:25:37Z</time><name>PT4344</name></trkpt>
<trkpt lat="54.515749" lon="-3.169835"><ele>191</ele><time>2024-05-31T15:25:41Z</time><name>PT4345</name></trkpt>
<trkpt lat="54.515738" lon="-3.169769"><ele>190</ele><time>2024-05-31T15:25:46Z</time><name>PT4346</name></trkpt>
<trkpt lat="54.515728" lon="-3.169723"><ele>187</ele><time>2024-05-31T15:25:49Z</time><name>PT4347</name></trkpt>
<trkpt lat="54.515708" lon="-3.169685"><ele>187</ele><time>2024-05-31T15:25:52Z</time><name>PT4348</name></trkpt>
<trkpt lat="54.515691" lon="-3.169657"><ele>187</ele><time>2024-05-31T15:25:56Z</time><name>PT4349</name></trkpt>
<trkpt lat="54.515675" lon="-3.169626"><ele>187</ele><time>2024-05-31T15:25:59Z</time><name>PT4350</name></trkpt>
<trkpt lat="54.515661" lon="-3.169590"><ele>186</ele><time>2024-05-31T15:26:04Z</time><name>PT4351</name></trkpt>
<trkpt lat="54.515653" lon="-3.169564"><ele>185</ele><time>2024-05-31T15:26:07Z</time><name>PT4352</name></trkpt>
<trkpt lat="54.515636" lon="-3.169553"><ele>184</ele><time>2024-05-31T15:26:10Z</time><name>PT4353</name></trkpt>
<trkpt lat="54.515621" lon="-3.169549"><ele>182</ele><time>2024-05-31T15:26:13Z</time><name>PT4354</name></trkpt>
<trkpt lat="54.515609" lon="-3.169506"><ele>181</ele><time>2024-05-31T15:26:17Z</time><name>PT4355</name></trkpt>
<trkpt lat="54.515593" lon="-3.169477"><ele>179</ele><time>2024-05-31T15:26:22Z</time><name>PT4356</name></trkpt>
<trkpt lat="54.515586" lon="-3.169454"><ele>178</ele><time>2024-05-31T15:26:25Z</time><name>PT4357</name></trkpt>
<trkpt lat="54.515558" lon="-3.169438"><ele>178</ele><time>2024-05-31T15:26:28Z</time><name>PT4358</name></trkpt>
<trkpt lat="54.515541" lon="-3.169422"><ele>177</ele><time>2024-05-31T15:26:32Z</time><name>PT4359</name></trkpt>
<trkpt lat="54.515517" lon="-3.169431"><ele>177</ele><time>2024-05-31T15:26:35Z</time><name>PT4360</name></trkpt>
<trkpt lat="54.515506" lon="-3.169449"><ele>175</ele><time>2024-05-31T15:26:40Z</time><name>PT4361</name></trkpt>
<trkpt lat="54.515486" lon="-3.169471"><ele>174</ele><time>2024-05-31T15:26:43Z</time><name>PT4362</name></trkpt>
<trkpt lat="54.515467" lon="-3.169471"><ele>172</ele><time>2024-05-31T15:26:46Z</time><name>PT4363</name></trkpt>
<trkpt lat="54.515441" lon="-3.169466"><ele>172</ele><time>2024-05-31T15:26:50Z</time><name>PT4364</name></trkpt>
<trkpt lat="54.515416" lon="-3.169444"><ele>170</ele><time>2024-05-31T15:26:55Z</time><name>PT4365</name></trkpt>
<trkpt lat="54.515393" lon="-3.169418"><ele>170</ele><time>2024-05-31T15:26:58Z</time><name>PT4366</name></trkpt>
<trkpt lat="54.515380" lon="-3.169383"><ele>167</ele><time>2024-05-31T15:27:03Z</time><name>PT4367</name></trkpt>
<trkpt lat="54.515364" lon="-3.169364"><ele>167</ele><time>2024-05-31T15:27:07Z</time><name>PT4368</name></trkpt>
<trkpt lat="54.515349" lon="-3.169345"><ele>166</ele><time>2024-05-31T15:27:10Z</time><name>PT4369</name></trkpt>
<trkpt lat="54.515328" lon="-3.169340"><ele>165</ele><time>2024-05-31T15:27:13Z</time><name>PT4370</name></trkpt>
<trkpt lat="54.515308" lon="-3.169340"><ele>164</ele><time>2024-05-31T15:27:16Z</time><name>PT4371</name></trkpt>
<trkpt lat="54.515282" lon="-3.169331"><ele>161</ele><time>2024-05-31T15:27:19Z</time><name>PT4372</name></trkpt>
<trkpt lat="54.515257" lon="-3.169336"><ele>160</ele><time>2024-05-31T15:27:22Z</time><name>PT4373</name></trkpt>
<trkpt lat="54.515230" lon="-3.169347"><ele>160</ele><time>2024-05-31T15:27:26Z</time><name>PT4374</name></trkpt>
<trkpt lat="54.515192" lon="-3.169345"><ele>160</ele><time>2024-05-31T15:27:31Z</time><name>PT4375</name></trkpt>
<trkpt lat="54.515177" lon="-3.169306"><ele>159</ele><time>2024-05-31T15:27:34Z</time><name>PT4376</name></trkpt>
<trkpt lat="54.515163" lon="-3.169290"><ele>158</ele><time>2024-05-31T15:27:37Z</time><name>PT4377</name></trkpt>
<trkpt lat="54.515156" lon="-3.169248"><ele>157</ele><time>2024-05-31T15:27:40Z</time><name>PT4378</name></trkpt>
<trkpt lat="54.515127" lon="-3.169201"><ele>156</ele><time>2024-05-31T15:27:44Z</time><name>PT4379</name></trkpt>
<trkpt lat="54.515105" lon="-3.169168"><ele>156</ele><time>2024-05-31T15:27:49Z</time><name>PT4380</name></trkpt>
<trkpt lat="54.515092" lon="-3.169148"><ele>155</ele><time>2024-05-31T15:27:52Z</time><name>PT4381</name></trkpt>
<trkpt lat="54.515083" lon="-3.169114"><ele>156</ele><time>2024-05-31T15:27:55Z</time><name>PT4382</name></trkpt>
<trkpt lat="54.515065" lon="-3.169077"><ele>154</ele><time>2024-05-31T15:27:58Z</time><name>PT4383</name></trkpt>
<trkpt lat="54.515037" lon="-3.169075"><ele>154</ele><time>2024-05-31T15:28:02Z</time><name>PT4384</name></trkpt>
<trkpt lat="54.515022" lon="-3.169099"><ele>154</ele><time>2024-05-31T15:28:05Z</time><name>PT4385</name></trkpt>
<trkpt lat="54.515007" lon="-3.169127"><ele>154</ele><time>2024-05-31T15:28:10Z</time><name>PT4386</name></trkpt>
<trkpt lat="54.514991" lon="-3.169171"><ele>153</ele><time>2024-05-31T15:28:13Z</time><name>PT4387</name></trkpt>
<trkpt lat="54.514978" lon="-3.169197"><ele>152</ele><time>2024-05-31T15:28:16Z</time><name>PT4388</name></trkpt>
<trkpt lat="54.514971" lon="-3.169193"><ele>151</ele><time>2024-05-31T15:28:19Z</time><name>PT4389</name></trkpt>
<trkpt lat="54.514956" lon="-3.169182"><ele>149</ele><time>2024-05-31T15:28:22Z</time><name>PT4390</name></trkpt>
<trkpt lat="54.514933" lon="-3.169192"><ele>149</ele><time>2024-05-31T15:28:26Z</time><name>PT4391</name></trkpt>
<trkpt lat="54.514921" lon="-3.169207"><ele>148</ele><time>2024-05-31T15:28:31Z</time><name>PT4392</name></trkpt>
<trkpt lat="54.514928" lon="-3.169237"><ele>145</ele><time>2024-05-31T15:28:34Z</time><name>PT4393</name></trkpt>
<trkpt lat="54.514926" lon="-3.169278"><ele>144</ele><time>2024-05-31T15:28:38Z</time><name>PT4394</name></trkpt>
<trkpt lat="54.514916" lon="-3.169287"><ele>141</ele><time>2024-05-31T15:28:41Z</time><name>PT4395</name></trkpt>
<trkpt lat="54.514897" lon="-3.169258"><ele>139</ele><time>2024-05-31T15:28:44Z</time><name>PT4396</name></trkpt>
<trkpt lat="54.514877" lon="-3.169206"><ele>139</ele><time>2024-05-31T15:28:49Z</time><name>PT4397</name></trkpt>
<trkpt lat="54.514860" lon="-3.169158"><ele>137</ele><time>2024-05-31T15:28:52Z</time><name>PT4398</name></trkpt>
<trkpt lat="54.514820" lon="-3.169107"><ele>134</ele><time>2024-05-31T15:28:55Z</time><name>PT4399</name></trkpt>
<trkpt lat="54.514803" lon="-3.169091"><ele>133</ele><time>2024-05-31T15:28:58Z</time><name>PT4400</name></trkpt>
<trkpt lat="54.514747" lon="-3.169061"><ele>134</ele><time>2024-05-31T15:29:02Z</time><name>PT4401</name></trkpt>
<trkpt lat="54.514706" lon="-3.169031"><ele>133</ele><time>2024-05-31T15:29:07Z</time><name>PT4402</name></trkpt>
<trkpt lat="54.514671" lon="-3.169014"><ele>132</ele><time>2024-05-31T15:29:10Z</time><name>PT4403</name></trkpt>
<trkpt lat="54.514645" lon="-3.169009"><ele>131</ele><time>2024-05-31T15:29:13Z</time><name>PT4404</name></trkpt>
<trkpt lat="54.514610" lon="-3.168992"><ele>128</ele><time>2024-05-31T15:29:16Z</time><name>PT4405</name></trkpt>
<trkpt lat="54.514557" lon="-3.168946"><ele>130</ele><time>2024-05-31T15:29:20Z</time><name>PT4406</name></trkpt>
<trkpt lat="54.514510" lon="-3.168908"><ele>130</ele><time>2024-05-31T15:29:25Z</time><name>PT4407</name></trkpt>
<trkpt lat="54.514462" lon="-3.168868"><ele>131</ele><time>2024-05-31T15:29:28Z</time><name>PT4408</name></trkpt>
<trkpt lat="54.514426" lon="-3.168827"><ele>130</ele><time>2024-05-31T15:29:31Z</time><name>PT4409</name></trkpt>
<trkpt lat="54.514393" lon="-3.168785"><ele>130</ele><time>2024-05-31T15:29:34Z</time><name>PT4410</name></trkpt>
<trkpt lat="54.514355" lon="-3.168761"><ele>128</ele><time>2024-05-31T15:29:38Z</time><name>PT4411</name></trkpt>
<trkpt lat="54.514304" lon="-3.168724"><ele>125</ele><time>2024-05-31T15:29:41Z</time><name>PT4412</name></trkpt>
<trkpt lat="54.514266" lon="-3.168678"><ele>125</ele><time>2024-05-31T15:29:44Z</time><name>PT4413</name></trkpt>
<trkpt lat="54.514223" lon="-3.168644"><ele>125</ele><time>2024-05-31T15:29:49Z</time><name>PT4414</name></trkpt>
<trkpt lat="54.514181" lon="-3.168605"><ele>125</ele><time>2024-05-31T15:29:52Z</time><name>PT4415</name></trkpt>
<trkpt lat="54.514130" lon="-3.168555"><ele>124</ele><time>2024-05-31T15:29:55Z</time><name>PT4416</name></trkpt>
<trkpt lat="54.514091" lon="-3.168527"><ele>124</ele><time>2024-05-31T15:29:59Z</time><name>PT4417</name></trkpt>
<trkpt lat="54.514037" lon="-3.168496"><ele>124</ele><time>2024-05-31T15:30:04Z</time><name>PT4418</name></trkpt>
<trkpt lat="54.513981" lon="-3.168464"><ele>123</ele><time>2024-05-31T15:30:07Z</time><name>PT4419</name></trkpt>
<trkpt lat="54.513953" lon="-3.168435"><ele>123</ele><time>2024-05-31T15:30:10Z</time><name>PT4420</name></trkpt>
<trkpt lat="54.513916" lon="-3.168370"><ele>122</ele><time>2024-05-31T15:30:14Z</time><name>PT4421</name></trkpt>
<trkpt lat="54.513888" lon="-3.168326"><ele>124</ele><time>2024-05-31T15:30:17Z</time><name>PT4422</name></trkpt>
<trkpt lat="54.513847" lon="-3.168295"><ele>123</ele><time>2024-05-31T15:30:22Z</time><name>PT4423</name></trkpt>
<trkpt lat="54.513820" lon="-3.168270"><ele>122</ele><time>2024-05-31T15:30:25Z</time><name>PT4424</name></trkpt>
<trkpt lat="54.513791" lon="-3.168244"><ele>123</ele><time>2024-05-31T15:30:28Z</time><name>PT4425</name></trkpt>
<trkpt lat="54.513766" lon="-3.168200"><ele>123</ele><time>2024-05-31T15:30:31Z</time><name>PT4426</name></trkpt>
<trkpt lat="54.513738" lon="-3.168124"><ele>124</ele><time>2024-05-31T15:30:35Z</time><name>PT4427</name></trkpt>
<trkpt lat="54.513725" lon="-3.168090"><ele>124</ele><time>2024-05-31T15:30:38Z</time><name>PT4428</name></trkpt>
<trkpt lat="54.513727" lon="-3.168136"><ele>124</ele><time>2024-05-31T15:30:43Z</time><name>PT4429</name></trkpt>
<trkpt lat="54.513759" lon="-3.168177"><ele>125</ele><time>2024-05-31T15:30:46Z</time><name>PT4430</name></trkpt>
<trkpt lat="54.513743" lon="-3.168193"><ele>127</ele><time>2024-05-31T15:30:50Z</time><name>PT4431</name></trkpt>
<trkpt lat="54.513745" lon="-3.168186"><ele>127</ele><time>2024-05-31T15:30:55Z</time><name>PT4432</name></trkpt>
<trkpt lat="54.513698" lon="-3.168182"><ele>126</ele><time>2024-05-31T15:30:58Z</time><name>PT4433</name></trkpt>
<trkpt lat="54.513724" lon="-3.168096"><ele>126</ele><time>2024-05-31T15:31:02Z</time><name>PT4434</name></trkpt>
<trkpt lat="54.513756" lon="-3.168084"><ele>122</ele><time>2024-05-31T15:31:07Z</time><name>PT4435</name></trkpt>
<trkpt lat="54.513791" lon="-3.168022"><ele>118</ele><time>2024-05-31T15:31:10Z</time><name>PT4436</name></trkpt>
<trkpt lat="54.513752" lon="-3.168039"><ele>120</ele><time>2024-05-31T15:31:14Z</time><name>PT4437</name></trkpt>
<trkpt lat="54.513772" lon="-3.167916"><ele>115</ele><time>2024-05-31T15:31:49Z</time><name>PT4438</name></trkpt>
<trkpt lat="54.513749" lon="-3.167944"><ele>111</ele><time>2024-05-31T15:31:52Z</time><name>PT4439</name></trkpt>
<trkpt lat="54.513841" lon="-3.168004"><ele>107</ele><time>2024-05-31T15:31:55Z</time><name>PT4440</name></trkpt>
<trkpt lat="54.513805" lon="-3.168023"><ele>97</ele><time>2024-05-31T15:31:59Z</time><name>PT4441</name></trkpt>
<trkpt lat="54.513798" lon="-3.168051"><ele>88</ele><time>2024-05-31T15:32:02Z</time><name>PT4442</name></trkpt>
<trkpt lat="54.513775" lon="-3.168022"><ele>81</ele><time>2024-05-31T15:32:05Z</time><name>PT4443</name></trkpt>
<trkpt lat="54.513749" lon="-3.168099"><ele>74</ele><time>2024-05-31T15:32:10Z</time><name>PT4444</name></trkpt>
<trkpt lat="54.513683" lon="-3.168067"><ele>70</ele><time>2024-05-31T15:32:13Z</time><name>PT4445</name></trkpt>
<trkpt lat="54.513713" lon="-3.168145"><ele>62</ele><time>2024-05-31T15:32:17Z</time><name>PT4446</name></trkpt>
<trkpt lat="54.513717" lon="-3.168095"><ele>57</ele><time>2024-05-31T15:32:22Z</time><name>PT4447</name></trkpt>
<trkpt lat="54.513674" lon="-3.167990"><ele>54</ele><time>2024-05-31T15:32:25Z</time><name>PT4448</name></trkpt>
<trkpt lat="54.513656" lon="-3.167966"><ele>49</ele><time>2024-05-31T15:32:28Z</time><name>PT4449</name></trkpt>
<trkpt lat="54.513663" lon="-3.167955"><ele>47</ele><time>2024-05-31T15:32:32Z</time><name>PT4450</name></trkpt>
<trkpt lat="54.513789" lon="-3.167943"><ele>51</ele><time>2024-05-31T15:32:35Z</time><name>PT4451</name></trkpt>
<trkpt lat="54.513805" lon="-3.167960"><ele>85</ele><time>2024-05-31T15:32:40Z</time><name>PT4452</name></trkpt>
<trkpt lat="54.513704" lon="-3.168021"><ele>86</ele><time>2024-05-31T15:32:43Z</time><name>PT4453</name></trkpt>
<trkpt lat="54.513624" lon="-3.168143"><ele>94</ele><time>2024-05-31T15:32:46Z</time><name>PT4454</name></trkpt>
<trkpt lat="54.513565" lon="-3.168256"><ele>100</ele><time>2024-05-31T15:32:49Z</time><name>PT4455</name></trkpt>
<trkpt lat="54.513521" lon="-3.168340"><ele>105</ele><time>2024-05-31T15:32:53Z</time><name>PT4456</name></trkpt>
<trkpt lat="54.513497" lon="-3.168376"><ele>105</ele><time>2024-05-31T15:32:56Z</time><name>PT4457</name></trkpt>
<trkpt lat="54.513486" lon="-3.168445"><ele>109</ele><time>2024-05-31T15:33:01Z</time><name>PT4458</name></trkpt>
<trkpt lat="54.513481" lon="-3.168511"><ele>111</ele><time>2024-05-31T15:33:04Z</time><name>PT4459</name></trkpt>
<trkpt lat="54.513476" lon="-3.168539"><ele>112</ele><time>2024-05-31T15:33:07Z</time><name>PT4460</name></trkpt>
<trkpt lat="54.513478" lon="-3.168545"><ele>113</ele><time>2024-05-31T15:33:11Z</time><name>PT4461</name></trkpt>
<trkpt lat="54.513471" lon="-3.168568"><ele>114</ele><time>2024-05-31T15:33:14Z</time><name>PT4462</name></trkpt>
<trkpt lat="54.513473" lon="-3.168579"><ele>113</ele><time>2024-05-31T15:33:17Z</time><name>PT4463</name></trkpt>
<trkpt lat="54.513474" lon="-3.168576"><ele>115</ele><time>2024-05-31T15:33:20Z</time><name>PT4464</name></trkpt>
<trkpt lat="54.513481" lon="-3.168557"><ele>117</ele><time>2024-05-31T15:33:43Z</time><name>PT4465</name></trkpt></trkseg></trk></gpx>